<?xml version='1.0' encoding='UTF-8'?><gpx version="1.1" creator="JPX - https://github.com/jenetics/jpx" xmlns="http://www.topografix.com/GPX/1/1"><trk><trkseg><trkpt lat="45.635283622722106" lon="-0.0657448721453169"><ele>19.0</ele><time>2026-04-19T15:46:33.001Z</time></trkpt><trkpt lat="45.635269690877315" lon="-0.06555729533502763"><ele>19.0</ele><time>2026-04-19T15:46:37.001Z</time></trkpt><trkpt lat="45.6352813773317" lon="-0.0654334523175911"><ele>19.0</ele><time>2026-04-19T15:46:39.001Z</time></trkpt><trkpt lat="45.635298929840374" lon="-0.06529212561531753"><ele>19.0</ele><time>2026-04-19T15:46:41.001Z</time></trkpt><trkpt lat="45.63531637238685" lon="-0.06519544696823389"><ele>19.0</ele><time>2026-04-19T15:46:42.001Z</time></trkpt><trkpt lat="45.63532485490988" lon="-0.0650894432506582"><ele>18.666666666666664</ele><time>2026-04-19T15:46:43.001Z</time></trkpt><trkpt lat="45.63534181854752" lon="-0.06499023586148872"><ele>18.333333333333332</ele><time>2026-04-19T15:46:44.001Z</time></trkpt><trkpt lat="45.6353557989324" lon="-0.06488584512893891"><ele>18.0</ele><time>2026-04-19T15:46:45.001Z</time></trkpt><trkpt lat="45.635364414957515" lon="-0.06478406156105611"><ele>17.666666666666668</ele><time>2026-04-19T15:46:46.001Z</time></trkpt><trkpt lat="45.63536840130772" lon="-0.06467786996237353"><ele>17.333333333333336</ele><time>2026-04-19T15:46:47.001Z</time></trkpt><trkpt lat="45.63538514824777" lon="-0.06457621645502286"><ele>17.0</ele><time>2026-04-19T15:46:48.001Z</time></trkpt><trkpt lat="45.63537734650124" lon="-0.06444061826406608"><ele>17.0</ele><time>2026-04-19T15:46:50.001Z</time></trkpt><trkpt lat="45.63539336963215" lon="-0.0643410016689148"><ele>17.0</ele><time>2026-04-19T15:46:51.001Z</time></trkpt><trkpt lat="45.635417707328955" lon="-0.06423358904946518"><ele>17.0</ele><time>2026-04-19T15:46:52.001Z</time></trkpt><trkpt lat="45.635433720787255" lon="-0.06405973559678081"><ele>17.0</ele><time>2026-04-19T15:46:54.001Z</time></trkpt><trkpt lat="45.63545122191634" lon="-0.06395069768572109"><ele>17.0</ele><time>2026-04-19T15:46:55.001Z</time></trkpt><trkpt lat="45.635468166577446" lon="-0.06378217911934005"><ele>17.166666666666668</ele><time>2026-04-19T15:46:57.001Z</time></trkpt><trkpt lat="45.635476218105985" lon="-0.06367703738226078"><ele>17.333333333333336</ele><time>2026-04-19T15:46:58.001Z</time></trkpt><trkpt lat="45.635510062988814" lon="-0.06348895082784119"><ele>17.5</ele><time>2026-04-19T15:47:00.001Z</time></trkpt><trkpt lat="45.63551946587339" lon="-0.06339656540121161"><ele>17.666666666666668</ele><time>2026-04-19T15:47:01.001Z</time></trkpt><trkpt lat="45.635540852526994" lon="-0.0632839804579979"><ele>17.833333333333332</ele><time>2026-04-19T15:47:02.001Z</time></trkpt><trkpt lat="45.6355629103741" lon="-0.06318955134452561"><ele>18.0</ele><time>2026-04-19T15:47:03.001Z</time></trkpt><trkpt lat="45.6355509766047" lon="-0.06309734936108184"><ele>18.2</ele><time>2026-04-19T15:47:04.001Z</time></trkpt><trkpt lat="45.63557569045972" lon="-0.06293802170135264"><ele>18.4</ele><time>2026-04-19T15:47:06.001Z</time></trkpt><trkpt lat="45.6355906723213" lon="-0.06280160485002731"><ele>18.599999999999998</ele><time>2026-04-19T15:47:08.002Z</time></trkpt><trkpt lat="45.63555989448406" lon="-0.06271154173371031"><ele>18.8</ele><time>2026-04-19T15:47:10.002Z</time></trkpt><trkpt lat="45.6354636933648" lon="-0.0626606652827191"><ele>19.0</ele><time>2026-04-19T15:47:13.002Z</time></trkpt><trkpt lat="45.63532525958795" lon="-0.06267167693511437"><ele>19.2</ele><time>2026-04-19T15:47:15.002Z</time></trkpt><trkpt lat="45.6352172242164" lon="-0.06262014479731286"><ele>19.4</ele><time>2026-04-19T15:47:16.002Z</time></trkpt><trkpt lat="45.635160358113936" lon="-0.06258151238943153"><ele>19.6</ele><time>2026-04-19T15:47:17.002Z</time></trkpt><trkpt lat="45.63508881096203" lon="-0.06249171152051037"><ele>19.8</ele><time>2026-04-19T15:47:18.002Z</time></trkpt><trkpt lat="45.63503906842408" lon="-0.062373858064374135"><ele>20.0</ele><time>2026-04-19T15:47:20.002Z</time></trkpt><trkpt lat="45.63498754768968" lon="-0.062233325782836794"><ele>20.0</ele><time>2026-04-19T15:47:22.002Z</time></trkpt><trkpt lat="45.634960864998455" lon="-0.06210185308261484"><ele>20.0</ele><time>2026-04-19T15:47:24.002Z</time></trkpt><trkpt lat="45.634926230677856" lon="-0.0620064728210321"><ele>20.0</ele><time>2026-04-19T15:47:26.002Z</time></trkpt><trkpt lat="45.634919110895744" lon="-0.061909569963316945"><ele>20.0</ele><time>2026-04-19T15:47:27.002Z</time></trkpt><trkpt lat="45.63490446180729" lon="-0.061818792183502794"><ele>20.0</ele><time>2026-04-19T15:47:28.002Z</time></trkpt><trkpt lat="45.63481764308194" lon="-0.06168690867828186"><ele>20.0</ele><time>2026-04-19T15:47:30.002Z</time></trkpt><trkpt lat="45.63473916910364" lon="-0.06167279067264163"><ele>20.0</ele><time>2026-04-19T15:47:31.002Z</time></trkpt><trkpt lat="45.63466337497754" lon="-0.06168810545526223"><ele>20.0</ele><time>2026-04-19T15:47:32.002Z</time></trkpt><trkpt lat="45.63456154499302" lon="-0.06175921670290438"><ele>20.0</ele><time>2026-04-19T15:47:33.002Z</time></trkpt><trkpt lat="45.63447890947498" lon="-0.06182587723766398"><ele>20.0</ele><time>2026-04-19T15:47:34.002Z</time></trkpt><trkpt lat="45.63440972485213" lon="-0.06185914904910514"><ele>20.0</ele><time>2026-04-19T15:47:35.002Z</time></trkpt><trkpt lat="45.6343187487902" lon="-0.0619106670327747"><ele>19.4</ele><time>2026-04-19T15:47:36.002Z</time></trkpt><trkpt lat="45.63424778743172" lon="-0.06199999143946004"><ele>18.8</ele><time>2026-04-19T15:47:37.002Z</time></trkpt><trkpt lat="45.6341760184738" lon="-0.062074178420938035"><ele>18.2</ele><time>2026-04-19T15:47:38.002Z</time></trkpt><trkpt lat="45.63408547381756" lon="-0.062151113103527854"><ele>17.6</ele><time>2026-04-19T15:47:39.002Z</time></trkpt><trkpt lat="45.63401094665528" lon="-0.06224492447095917"><ele>17.0</ele><time>2026-04-19T15:47:40.001Z</time></trkpt><trkpt lat="45.633948074196056" lon="-0.062333603172828406"><ele>17.0</ele><time>2026-04-19T15:47:41.001Z</time></trkpt><trkpt lat="45.63388001895441" lon="-0.06244190674604707"><ele>17.0</ele><time>2026-04-19T15:47:42.001Z</time></trkpt><trkpt lat="45.63382330128319" lon="-0.0625854772387114"><ele>17.0</ele><time>2026-04-19T15:47:43.001Z</time></trkpt><trkpt lat="45.633737630015226" lon="-0.06275566620547106"><ele>17.0</ele><time>2026-04-19T15:47:44.001Z</time></trkpt><trkpt lat="45.63362628843043" lon="-0.06295137200106614"><ele>17.5</ele><time>2026-04-19T15:47:45.001Z</time></trkpt><trkpt lat="45.63351919279958" lon="-0.06323016361328637"><ele>18.0</ele><time>2026-04-19T15:47:46.001Z</time></trkpt><trkpt lat="45.633377503894756" lon="-0.06349080730198105"><ele>18.0</ele><time>2026-04-19T15:47:47.001Z</time></trkpt><trkpt lat="45.63331941183764" lon="-0.06353682763644224"><ele>18.0</ele><time>2026-04-19T15:47:48.001Z</time></trkpt><trkpt lat="45.63321405777711" lon="-0.06374604860784455"><ele>18.0</ele><time>2026-04-19T15:47:49.001Z</time></trkpt><trkpt lat="45.63311093130761" lon="-0.06393470175954385"><ele>18.0</ele><time>2026-04-19T15:47:50.001Z</time></trkpt><trkpt lat="45.63301274703201" lon="-0.06411169850830353"><ele>18.0</ele><time>2026-04-19T15:47:51.001Z</time></trkpt><trkpt lat="45.63291228048726" lon="-0.06429596534252072"><ele>18.0</ele><time>2026-04-19T15:47:52.001Z</time></trkpt><trkpt lat="45.632835393372254" lon="-0.06448010022404335"><ele>18.0</ele><time>2026-04-19T15:47:53Z</time></trkpt><trkpt lat="45.63276327834819" lon="-0.06465966206120173"><ele>18.0</ele><time>2026-04-19T15:47:54Z</time></trkpt><trkpt lat="45.63264398255283" lon="-0.06506974489888866"><ele>18.0</ele><time>2026-04-19T15:47:56Z</time></trkpt><trkpt lat="45.632579514851685" lon="-0.06529751444373394"><ele>18.0</ele><time>2026-04-19T15:47:57Z</time></trkpt><trkpt lat="45.63251081211739" lon="-0.06553489948991262"><ele>18.0</ele><time>2026-04-19T15:47:58Z</time></trkpt><trkpt lat="45.63243914937771" lon="-0.06578858865292365"><ele>18.0</ele><time>2026-04-19T15:47:59Z</time></trkpt><trkpt lat="45.63235761962041" lon="-0.06607383199927257"><ele>18.0</ele><time>2026-04-19T15:48:00Z</time></trkpt><trkpt lat="45.632279876772486" lon="-0.06634945175350691"><ele>18.0</ele><time>2026-04-19T15:48:01Z</time></trkpt><trkpt lat="45.6322056406999" lon="-0.06661698967070664"><ele>18.0</ele><time>2026-04-19T15:48:02Z</time></trkpt><trkpt lat="45.63213067204217" lon="-0.06687022430163801"><ele>17.666666666666668</ele><time>2026-04-19T15:48:03Z</time></trkpt><trkpt lat="45.63206233230313" lon="-0.06710919210247455"><ele>17.333333333333336</ele><time>2026-04-19T15:48:04Z</time></trkpt><trkpt lat="45.63199452134353" lon="-0.06733772094039017"><ele>17.0</ele><time>2026-04-19T15:48:05Z</time></trkpt><trkpt lat="45.63192595137656" lon="-0.06756502662466163"><ele>17.0</ele><time>2026-04-19T15:48:06Z</time></trkpt><trkpt lat="45.63185775554589" lon="-0.06779219730440342"><ele>17.0</ele><time>2026-04-19T15:48:07.001Z</time></trkpt><trkpt lat="45.631792593084064" lon="-0.06801940380975581"><ele>17.0</ele><time>2026-04-19T15:48:08.001Z</time></trkpt><trkpt lat="45.63173413261118" lon="-0.06822903311602886"><ele>17.0</ele><time>2026-04-19T15:48:09.001Z</time></trkpt><trkpt lat="45.63168164671565" lon="-0.0684172388231433"><ele>17.0</ele><time>2026-04-19T15:48:10.001Z</time></trkpt><trkpt lat="45.631629093399624" lon="-0.06857811140276389"><ele>17.0</ele><time>2026-04-19T15:48:11.001Z</time></trkpt><trkpt lat="45.631597058240544" lon="-0.06874117507881271"><ele>17.0</ele><time>2026-04-19T15:48:12.001Z</time></trkpt><trkpt lat="45.631587685712226" lon="-0.06888890140314115"><ele>17.0</ele><time>2026-04-19T15:48:13.001Z</time></trkpt><trkpt lat="45.63156215119212" lon="-0.06900746013007508"><ele>17.0</ele><time>2026-04-19T15:48:14.001Z</time></trkpt><trkpt lat="45.631543416959985" lon="-0.06909859563102007"><ele>17.0</ele><time>2026-04-19T15:48:15.001Z</time></trkpt><trkpt lat="45.63153043293733" lon="-0.06922825419011962"><ele>17.0</ele><time>2026-04-19T15:48:17.001Z</time></trkpt><trkpt lat="45.63136635522372" lon="-0.06919932243463894"><ele>17.0</ele><time>2026-04-19T15:48:20.001Z</time></trkpt><trkpt lat="45.631299684199526" lon="-0.06917732979408522"><ele>16.8</ele><time>2026-04-19T15:48:21.001Z</time></trkpt><trkpt lat="45.63121264852307" lon="-0.06912346970041747"><ele>16.6</ele><time>2026-04-19T15:48:22.001Z</time></trkpt><trkpt lat="45.63111147422744" lon="-0.0690758202432337"><ele>16.400000000000002</ele><time>2026-04-19T15:48:23.001Z</time></trkpt><trkpt lat="45.63101545907511" lon="-0.06904855139357233"><ele>16.2</ele><time>2026-04-19T15:48:24.001Z</time></trkpt><trkpt lat="45.6309245975529" lon="-0.06896436006887031"><ele>16.0</ele><time>2026-04-19T15:48:25.001Z</time></trkpt><trkpt lat="45.63084252083937" lon="-0.06889316970633212"><ele>16.6</ele><time>2026-04-19T15:48:26.001Z</time></trkpt><trkpt lat="45.630765781088314" lon="-0.06880384870358651"><ele>17.200000000000003</ele><time>2026-04-19T15:48:27.001Z</time></trkpt><trkpt lat="45.63068513935617" lon="-0.06872697183715176"><ele>17.799999999999997</ele><time>2026-04-19T15:48:28.001Z</time></trkpt><trkpt lat="45.63062038603499" lon="-0.06863420589971686"><ele>18.4</ele><time>2026-04-19T15:48:29.001Z</time></trkpt><trkpt lat="45.63055992595965" lon="-0.06854586616730608"><ele>19.0</ele><time>2026-04-19T15:48:30.001Z</time></trkpt><trkpt lat="45.63050846250616" lon="-0.06844324885793482"><ele>19.0</ele><time>2026-04-19T15:48:31.001Z</time></trkpt><trkpt lat="45.63047186796536" lon="-0.06831563091986634"><ele>19.0</ele><time>2026-04-19T15:48:32.001Z</time></trkpt><trkpt lat="45.63042337093764" lon="-0.06819231806764056"><ele>19.0</ele><time>2026-04-19T15:48:33.001Z</time></trkpt><trkpt lat="45.630381018160655" lon="-0.06809336142529462"><ele>19.0</ele><time>2026-04-19T15:48:34.001Z</time></trkpt><trkpt lat="45.630334419542585" lon="-0.06800364387974797"><ele>19.0</ele><time>2026-04-19T15:48:35.001Z</time></trkpt><trkpt lat="45.63024554133184" lon="-0.0679620975627055"><ele>19.0</ele><time>2026-04-19T15:48:36.001Z</time></trkpt><trkpt lat="45.63015709168621" lon="-0.06790272461160658"><ele>18.75</ele><time>2026-04-19T15:48:37.001Z</time></trkpt><trkpt lat="45.63006993271258" lon="-0.0678292141649845"><ele>18.5</ele><time>2026-04-19T15:48:38.001Z</time></trkpt><trkpt lat="45.62996057789311" lon="-0.06776462122023127"><ele>18.25</ele><time>2026-04-19T15:48:39.001Z</time></trkpt><trkpt lat="45.629833344730805" lon="-0.06769546071974632"><ele>18.0</ele><time>2026-04-19T15:48:40.001Z</time></trkpt><trkpt lat="45.62969765225065" lon="-0.06761236756402825"><ele>18.0</ele><time>2026-04-19T15:48:41.001Z</time></trkpt><trkpt lat="45.62959750874035" lon="-0.06756315756810007"><ele>18.0</ele><time>2026-04-19T15:48:42.001Z</time></trkpt><trkpt lat="45.629493162365044" lon="-0.06752375484282405"><ele>18.0</ele><time>2026-04-19T15:48:43.001Z</time></trkpt><trkpt lat="45.62938622841959" lon="-0.06752096777101914"><ele>18.0</ele><time>2026-04-19T15:48:44.001Z</time></trkpt><trkpt lat="45.629275793136486" lon="-0.06747889130489423"><ele>18.0</ele><time>2026-04-19T15:48:45.001Z</time></trkpt><trkpt lat="45.629158869543076" lon="-0.06747327561332643"><ele>18.0</ele><time>2026-04-19T15:48:46.001Z</time></trkpt><trkpt lat="45.62903721997998" lon="-0.0674472321642614"><ele>18.0</ele><time>2026-04-19T15:48:47.001Z</time></trkpt><trkpt lat="45.628916036002224" lon="-0.06741486766469149"><ele>18.0</ele><time>2026-04-19T15:48:48.001Z</time></trkpt><trkpt lat="45.6288060630091" lon="-0.06738288158025574"><ele>18.0</ele><time>2026-04-19T15:48:49.001Z</time></trkpt><trkpt lat="45.62871300659342" lon="-0.06736581239524045"><ele>18.0</ele><time>2026-04-19T15:48:50.001Z</time></trkpt><trkpt lat="45.628621078218856" lon="-0.06734504899180735"><ele>18.0</ele><time>2026-04-19T15:48:51.001Z</time></trkpt><trkpt lat="45.62854323651544" lon="-0.06736113953743968"><ele>18.0</ele><time>2026-04-19T15:48:52.001Z</time></trkpt><trkpt lat="45.62848395511536" lon="-0.06742824996982762"><ele>18.0</ele><time>2026-04-19T15:48:53.001Z</time></trkpt><trkpt lat="45.62841779012361" lon="-0.06746793627398542"><ele>18.0</ele><time>2026-04-19T15:48:54.001Z</time></trkpt><trkpt lat="45.6283387350516" lon="-0.0675004454083723"><ele>18.0</ele><time>2026-04-19T15:48:55.001Z</time></trkpt><trkpt lat="45.62826923462787" lon="-0.06754774428166106"><ele>18.000000000000004</ele><time>2026-04-19T15:48:56.001Z</time></trkpt><trkpt lat="45.62819865108586" lon="-0.06759274898203466"><ele>18.0</ele><time>2026-04-19T15:48:57.001Z</time></trkpt><trkpt lat="45.6281355606089" lon="-0.06764436477555784"><ele>18.0</ele><time>2026-04-19T15:48:58.001Z</time></trkpt><trkpt lat="45.62806213105967" lon="-0.06767724935659594"><ele>18.0</ele><time>2026-04-19T15:48:59.001Z</time></trkpt><trkpt lat="45.627996122688025" lon="-0.06770942035492832"><ele>18.0</ele><time>2026-04-19T15:49:00.001Z</time></trkpt><trkpt lat="45.62793089740609" lon="-0.06774570187336665"><ele>18.000000000000004</ele><time>2026-04-19T15:49:01.001Z</time></trkpt><trkpt lat="45.62786095114724" lon="-0.06777020438333527"><ele>18.0</ele><time>2026-04-19T15:49:02.001Z</time></trkpt><trkpt lat="45.62779280561936" lon="-0.06779250086873921"><ele>17.857142857142858</ele><time>2026-04-19T15:49:03.001Z</time></trkpt><trkpt lat="45.62772313835099" lon="-0.06782725604585692"><ele>17.714285714285715</ele><time>2026-04-19T15:49:04.001Z</time></trkpt><trkpt lat="45.627653572639225" lon="-0.06786098331661601"><ele>17.57142857142857</ele><time>2026-04-19T15:49:05.001Z</time></trkpt><trkpt lat="45.627581422131364" lon="-0.06788269143467748"><ele>17.42857142857143</ele><time>2026-04-19T15:49:06.001Z</time></trkpt><trkpt lat="45.627510597971884" lon="-0.0679112383751756"><ele>17.285714285714285</ele><time>2026-04-19T15:49:07.001Z</time></trkpt><trkpt lat="45.62743926895299" lon="-0.06794162728555672"><ele>17.142857142857142</ele><time>2026-04-19T15:49:08.001Z</time></trkpt><trkpt lat="45.62736357899669" lon="-0.06797364347025196"><ele>17.0</ele><time>2026-04-19T15:49:09.001Z</time></trkpt><trkpt lat="45.627288669079974" lon="-0.067997299581161"><ele>17.0</ele><time>2026-04-19T15:49:10.001Z</time></trkpt><trkpt lat="45.62720708302972" lon="-0.06802442955404416"><ele>17.0</ele><time>2026-04-19T15:49:11.001Z</time></trkpt><trkpt lat="45.627125848878485" lon="-0.06805830037923201"><ele>17.0</ele><time>2026-04-19T15:49:12.001Z</time></trkpt><trkpt lat="45.627036379570164" lon="-0.06809272656939262"><ele>17.0</ele><time>2026-04-19T15:49:13.001Z</time></trkpt><trkpt lat="45.626941413976354" lon="-0.0681273647477107"><ele>17.0</ele><time>2026-04-19T15:49:14.001Z</time></trkpt><trkpt lat="45.6268331123872" lon="-0.06817189128260487"><ele>17.2</ele><time>2026-04-19T15:49:15.001Z</time></trkpt><trkpt lat="45.6267077592484" lon="-0.06822523173162996"><ele>17.4</ele><time>2026-04-19T15:49:16.001Z</time></trkpt><trkpt lat="45.62659274133262" lon="-0.06826592658324097"><ele>17.6</ele><time>2026-04-19T15:49:17.001Z</time></trkpt><trkpt lat="45.62650063051262" lon="-0.068313950803187"><ele>17.8</ele><time>2026-04-19T15:49:18.001Z</time></trkpt><trkpt lat="45.62641715482662" lon="-0.06830318945579585"><ele>18.0</ele><time>2026-04-19T15:49:19.001Z</time></trkpt><trkpt lat="45.62633944365307" lon="-0.06834576109674277"><ele>18.25</ele><time>2026-04-19T15:49:21.001Z</time></trkpt><trkpt lat="45.62633527385581" lon="-0.06852554164563468"><ele>18.5</ele><time>2026-04-19T15:49:23.001Z</time></trkpt><trkpt lat="45.62631484207788" lon="-0.06865546846220434"><ele>18.75</ele><time>2026-04-19T15:49:24.001Z</time></trkpt><trkpt lat="45.626287535420076" lon="-0.06882911279837114"><ele>19.0</ele><time>2026-04-19T15:49:25.001Z</time></trkpt><trkpt lat="45.62625692048915" lon="-0.06901980489655543"><ele>18.666666666666664</ele><time>2026-04-19T15:49:26.002Z</time></trkpt><trkpt lat="45.62622028282419" lon="-0.06924767707369987"><ele>18.333333333333332</ele><time>2026-04-19T15:49:27.002Z</time></trkpt><trkpt lat="45.62617804086512" lon="-0.06951471960317623"><ele>18.0</ele><time>2026-04-19T15:49:28.002Z</time></trkpt><trkpt lat="45.626134193914105" lon="-0.06980123368132635"><ele>18.0</ele><time>2026-04-19T15:49:29.002Z</time></trkpt><trkpt lat="45.62608448061675" lon="-0.07011299324654892"><ele>18.0</ele><time>2026-04-19T15:49:30.002Z</time></trkpt><trkpt lat="45.62604136850716" lon="-0.07038183618916034"><ele>18.0</ele><time>2026-04-19T15:49:31.002Z</time></trkpt><trkpt lat="45.62600251681866" lon="-0.07062774642636709"><ele>17.666666666666668</ele><time>2026-04-19T15:49:32.002Z</time></trkpt><trkpt lat="45.62596822606632" lon="-0.07084478825177018"><ele>17.333333333333336</ele><time>2026-04-19T15:49:33.002Z</time></trkpt><trkpt lat="45.625936236548625" lon="-0.07105664900701843"><ele>17.0</ele><time>2026-04-19T15:49:34.002Z</time></trkpt><trkpt lat="45.625905039293194" lon="-0.07126639919654408"><ele>17.0</ele><time>2026-04-19T15:49:35.002Z</time></trkpt><trkpt lat="45.62587762956613" lon="-0.07144981455899162"><ele>17.0</ele><time>2026-04-19T15:49:36.002Z</time></trkpt><trkpt lat="45.625853675104075" lon="-0.07160514664867226"><ele>17.0</ele><time>2026-04-19T15:49:37.002Z</time></trkpt><trkpt lat="45.625827602290926" lon="-0.07177421509729973"><ele>17.0</ele><time>2026-04-19T15:49:38.002Z</time></trkpt><trkpt lat="45.625809324493645" lon="-0.07189273693123699"><ele>17.0</ele><time>2026-04-19T15:49:39.002Z</time></trkpt><trkpt lat="45.62578859344652" lon="-0.07202716684355392"><ele>17.0</ele><time>2026-04-19T15:49:40.002Z</time></trkpt><trkpt lat="45.62577466318253" lon="-0.07215097785683286"><ele>17.0</ele><time>2026-04-19T15:49:41.002Z</time></trkpt><trkpt lat="45.625763928239245" lon="-0.07225632825734021"><ele>17.0</ele><time>2026-04-19T15:49:42.002Z</time></trkpt><trkpt lat="45.62575460662179" lon="-0.07234829499455799"><ele>17.0</ele><time>2026-04-19T15:49:43.002Z</time></trkpt><trkpt lat="45.625730812078714" lon="-0.07246077219107362"><ele>17.0</ele><time>2026-04-19T15:49:44.002Z</time></trkpt><trkpt lat="45.62573137076077" lon="-0.07257391090655482"><ele>17.0</ele><time>2026-04-19T15:49:45.002Z</time></trkpt><trkpt lat="45.62570707034235" lon="-0.07269837226955181"><ele>17.0</ele><time>2026-04-19T15:49:46Z</time></trkpt><trkpt lat="45.62568301812282" lon="-0.07282957455737267"><ele>17.0</ele><time>2026-04-19T15:49:47Z</time></trkpt><trkpt lat="45.62567108360857" lon="-0.07294734176195332"><ele>17.0</ele><time>2026-04-19T15:49:48Z</time></trkpt><trkpt lat="45.62565614151879" lon="-0.07305856907702253"><ele>17.0</ele><time>2026-04-19T15:49:49Z</time></trkpt><trkpt lat="45.62565359945883" lon="-0.07317450660249104"><ele>17.0</ele><time>2026-04-19T15:49:50Z</time></trkpt><trkpt lat="45.62564490855916" lon="-0.07327576764048827"><ele>17.0</ele><time>2026-04-19T15:49:51Z</time></trkpt><trkpt lat="45.62561111165123" lon="-0.07346039291137857"><ele>17.333333333333336</ele><time>2026-04-19T15:49:53Z</time></trkpt><trkpt lat="45.62560134643912" lon="-0.073554680343017"><ele>17.666666666666668</ele><time>2026-04-19T15:49:54Z</time></trkpt><trkpt lat="45.625585445729364" lon="-0.07371703883951213"><ele>18.0</ele><time>2026-04-19T15:49:56Z</time></trkpt><trkpt lat="45.62559662149266" lon="-0.07382808255718318"><ele>18.333333333333332</ele><time>2026-04-19T15:49:58Z</time></trkpt><trkpt lat="45.625594746078484" lon="-0.07396284140038982"><ele>18.666666666666664</ele><time>2026-04-19T15:50:01Z</time></trkpt><trkpt lat="45.62560364473929" lon="-0.07406472747663963"><ele>19.0</ele><time>2026-04-19T15:50:02Z</time></trkpt><trkpt lat="45.62558657872554" lon="-0.07421489796312329"><ele>19.75</ele><time>2026-04-19T15:50:03Z</time></trkpt><trkpt lat="45.62556341332018" lon="-0.07437216230000032"><ele>20.5</ele><time>2026-04-19T15:50:04Z</time></trkpt><trkpt lat="45.625538650522266" lon="-0.07453383607104767"><ele>21.25</ele><time>2026-04-19T15:50:05Z</time></trkpt><trkpt lat="45.62551021213985" lon="-0.07471163967648396"><ele>22.0</ele><time>2026-04-19T15:50:06Z</time></trkpt><trkpt lat="45.625474818598946" lon="-0.07492367018259441"><ele>22.0</ele><time>2026-04-19T15:50:07Z</time></trkpt><trkpt lat="45.6254388418245" lon="-0.07513254421105864"><ele>22.0</ele><time>2026-04-19T15:50:08Z</time></trkpt><trkpt lat="45.62540612134916" lon="-0.07532185252279257"><ele>22.0</ele><time>2026-04-19T15:50:09Z</time></trkpt><trkpt lat="45.625380657241244" lon="-0.07547847501894264"><ele>22.0</ele><time>2026-04-19T15:50:10Z</time></trkpt><trkpt lat="45.625363281433366" lon="-0.07558653817204489"><ele>22.0</ele><time>2026-04-19T15:50:11Z</time></trkpt><trkpt lat="45.62532569387273" lon="-0.07570451431564634"><ele>22.0</ele><time>2026-04-19T15:50:12Z</time></trkpt><trkpt lat="45.62531404445933" lon="-0.07582786308895297"><ele>22.0</ele><time>2026-04-19T15:50:13Z</time></trkpt><trkpt lat="45.62528148286471" lon="-0.0760013929096339"><ele>22.0</ele><time>2026-04-19T15:50:14Z</time></trkpt><trkpt lat="45.625232791891115" lon="-0.0761937905078444"><ele>22.0</ele><time>2026-04-19T15:50:15Z</time></trkpt><trkpt lat="45.625186421726774" lon="-0.07641782158463707"><ele>23.333333333333332</ele><time>2026-04-19T15:50:16Z</time></trkpt><trkpt lat="45.62514185293698" lon="-0.07664852253124384"><ele>24.666666666666664</ele><time>2026-04-19T15:50:17Z</time></trkpt><trkpt lat="45.62508395147902" lon="-0.07688596323628583"><ele>26.0</ele><time>2026-04-19T15:50:18Z</time></trkpt><trkpt lat="45.625050754811355" lon="-0.07709066344950902"><ele>26.0</ele><time>2026-04-19T15:50:19Z</time></trkpt><trkpt lat="45.6249772359651" lon="-0.07728270458635891"><ele>26.0</ele><time>2026-04-19T15:50:20Z</time></trkpt><trkpt lat="45.62492100326944" lon="-0.07745250563780362"><ele>26.0</ele><time>2026-04-19T15:50:21Z</time></trkpt><trkpt lat="45.62489741260979" lon="-0.07758311354994382"><ele>26.0</ele><time>2026-04-19T15:50:22Z</time></trkpt><trkpt lat="45.624850974740625" lon="-0.07768453955123897"><ele>26.5</ele><time>2026-04-19T15:50:23Z</time></trkpt><trkpt lat="45.62482838660084" lon="-0.07778549644259306"><ele>27.0</ele><time>2026-04-19T15:50:25.001Z</time></trkpt><trkpt lat="45.62476099814735" lon="-0.07796659247377713"><ele>27.5</ele><time>2026-04-19T15:50:28.001Z</time></trkpt><trkpt lat="45.624722257256565" lon="-0.07814668343616663"><ele>28.0</ele><time>2026-04-19T15:50:29.001Z</time></trkpt><trkpt lat="45.6246541810913" lon="-0.07831865201918115"><ele>28.333333333333336</ele><time>2026-04-19T15:50:30.001Z</time></trkpt><trkpt lat="45.624590023993974" lon="-0.07854272331362916"><ele>28.666666666666664</ele><time>2026-04-19T15:50:31.001Z</time></trkpt><trkpt lat="45.62451323562981" lon="-0.0787906604703771"><ele>29.0</ele><time>2026-04-19T15:50:32.001Z</time></trkpt><trkpt lat="45.624426376447765" lon="-0.07906310012624373"><ele>32.33333333333333</ele><time>2026-04-19T15:50:33.001Z</time></trkpt><trkpt lat="45.62434114940729" lon="-0.07933592878032499"><ele>35.666666666666664</ele><time>2026-04-19T15:50:34.001Z</time></trkpt><trkpt lat="45.62424894172543" lon="-0.07958166764908264"><ele>39.0</ele><time>2026-04-19T15:50:35.001Z</time></trkpt><trkpt lat="45.62413605903052" lon="-0.079771785015149"><ele>40.25</ele><time>2026-04-19T15:50:36.001Z</time></trkpt><trkpt lat="45.62404844523154" lon="-0.07994253835441045"><ele>41.5</ele><time>2026-04-19T15:50:37.001Z</time></trkpt><trkpt lat="45.62395080934159" lon="-0.08007646186926587"><ele>42.75</ele><time>2026-04-19T15:50:38.001Z</time></trkpt><trkpt lat="45.623838954817174" lon="-0.08020115111057474"><ele>44.0</ele><time>2026-04-19T15:50:39.001Z</time></trkpt><trkpt lat="45.623731645721556" lon="-0.08029054575988727"><ele>44.0</ele><time>2026-04-19T15:50:40.001Z</time></trkpt><trkpt lat="45.623658287818174" lon="-0.0803446633867619"><ele>44.0</ele><time>2026-04-19T15:50:41.001Z</time></trkpt><trkpt lat="45.623554221081825" lon="-0.08037845398324645"><ele>44.0</ele><time>2026-04-19T15:50:43.001Z</time></trkpt><trkpt lat="45.623451318001436" lon="-0.08037493369135608"><ele>44.0</ele><time>2026-04-19T15:50:44.001Z</time></trkpt><trkpt lat="45.623322668389974" lon="-0.08040073559173874"><ele>44.0</ele><time>2026-04-19T15:50:45.001Z</time></trkpt><trkpt lat="45.62320534556215" lon="-0.08037773593667243"><ele>44.83333333333333</ele><time>2026-04-19T15:50:46.001Z</time></trkpt><trkpt lat="45.62311170649249" lon="-0.08040003348776963"><ele>45.666666666666664</ele><time>2026-04-19T15:50:47.001Z</time></trkpt><trkpt lat="45.62304183260715" lon="-0.08037615279037494"><ele>46.5</ele><time>2026-04-19T15:50:48.001Z</time></trkpt><trkpt lat="45.62296717252711" lon="-0.08037415837555131"><ele>47.33333333333333</ele><time>2026-04-19T15:50:49.001Z</time></trkpt><trkpt lat="45.62289914246689" lon="-0.08036343857639357"><ele>48.166666666666664</ele><time>2026-04-19T15:50:50.001Z</time></trkpt><trkpt lat="45.622836123651844" lon="-0.08035350840931353"><ele>49.0</ele><time>2026-04-19T15:50:51.001Z</time></trkpt><trkpt lat="45.62272743585338" lon="-0.08035941121212374"><ele>48.5</ele><time>2026-04-19T15:50:53.001Z</time></trkpt><trkpt lat="45.622626822379935" lon="-0.08095927350585078"><ele>48.0</ele><time>2026-04-19T15:50:54.001Z</time></trkpt><trkpt lat="45.62257039050152" lon="-0.08113646680291398"><ele>48.0</ele><time>2026-04-19T15:50:55.001Z</time></trkpt><trkpt lat="45.6225238739908" lon="-0.08128903378401886"><ele>48.0</ele><time>2026-04-19T15:50:56.001Z</time></trkpt><trkpt lat="45.62247961245092" lon="-0.08140436484784476"><ele>48.0</ele><time>2026-04-19T15:50:57.001Z</time></trkpt><trkpt lat="45.62243055905832" lon="-0.08153003252552085"><ele>48.0</ele><time>2026-04-19T15:50:58.001Z</time></trkpt><trkpt lat="45.62237717061381" lon="-0.08163875074165286"><ele>48.0</ele><time>2026-04-19T15:50:59.001Z</time></trkpt><trkpt lat="45.6223253860926" lon="-0.08177128712171987"><ele>47.5</ele><time>2026-04-19T15:51:00.001Z</time></trkpt><trkpt lat="45.6222756351547" lon="-0.08189933655209987"><ele>47.0</ele><time>2026-04-19T15:51:01.001Z</time></trkpt><trkpt lat="45.6222243229194" lon="-0.08199317659891978"><ele>46.5</ele><time>2026-04-19T15:51:02.001Z</time></trkpt><trkpt lat="45.62216659324857" lon="-0.08208430236207206"><ele>46.0</ele><time>2026-04-19T15:51:03.001Z</time></trkpt><trkpt lat="45.62211316280036" lon="-0.08219017619600938"><ele>45.5</ele><time>2026-04-19T15:51:04.001Z</time></trkpt><trkpt lat="45.62206061754073" lon="-0.08226842206154213"><ele>45.0</ele><time>2026-04-19T15:51:05.001Z</time></trkpt><trkpt lat="45.621999685068545" lon="-0.08233634761971877"><ele>45.0</ele><time>2026-04-19T15:51:07.001Z</time></trkpt><trkpt lat="45.621940711309854" lon="-0.08237217184491134"><ele>45.0</ele><time>2026-04-19T15:51:12.001Z</time></trkpt><trkpt lat="45.62187892078303" lon="-0.08243708837321954"><ele>45.0</ele><time>2026-04-19T15:51:13.001Z</time></trkpt><trkpt lat="45.62179376029242" lon="-0.08253958799817698"><ele>45.0</ele><time>2026-04-19T15:51:14.001Z</time></trkpt><trkpt lat="45.6216735861099" lon="-0.08266521181702008"><ele>45.0</ele><time>2026-04-19T15:51:15.001Z</time></trkpt><trkpt lat="45.62151872914796" lon="-0.08282141396538262"><ele>44.0</ele><time>2026-04-19T15:51:16.001Z</time></trkpt><trkpt lat="45.62135270092441" lon="-0.08299986196753996"><ele>43.0</ele><time>2026-04-19T15:51:17.001Z</time></trkpt><trkpt lat="45.621180812761935" lon="-0.08321573168038572"><ele>42.0</ele><time>2026-04-19T15:51:18.001Z</time></trkpt><trkpt lat="45.62103164822623" lon="-0.08342089291464595"><ele>41.666666666666664</ele><time>2026-04-19T15:51:19.001Z</time></trkpt><trkpt lat="45.6208810255627" lon="-0.08364623364857754"><ele>41.33333333333333</ele><time>2026-04-19T15:51:20.001Z</time></trkpt><trkpt lat="45.62073808578719" lon="-0.08386504294393313"><ele>41.0</ele><time>2026-04-19T15:51:21.001Z</time></trkpt><trkpt lat="45.62060100197584" lon="-0.08406007216196708"><ele>40.666666666666664</ele><time>2026-04-19T15:51:22.001Z</time></trkpt><trkpt lat="45.620469404676875" lon="-0.08425234410855517"><ele>40.333333333333336</ele><time>2026-04-19T15:51:23.001Z</time></trkpt><trkpt lat="45.620352604615384" lon="-0.0844369738389735"><ele>40.0</ele><time>2026-04-19T15:51:24.001Z</time></trkpt><trkpt lat="45.62024341260749" lon="-0.08461949127891569"><ele>41.333333333333336</ele><time>2026-04-19T15:51:25.001Z</time></trkpt><trkpt lat="45.62014619830137" lon="-0.0847769079611418"><ele>42.666666666666664</ele><time>2026-04-19T15:51:26.001Z</time></trkpt><trkpt lat="45.62004626927712" lon="-0.0849365229238662"><ele>44.0</ele><time>2026-04-19T15:51:27.001Z</time></trkpt><trkpt lat="45.61993439543571" lon="-0.08510339432836515"><ele>44.0</ele><time>2026-04-19T15:51:28.001Z</time></trkpt><trkpt lat="45.61979965409647" lon="-0.08527782407577357"><ele>44.0</ele><time>2026-04-19T15:51:29.001Z</time></trkpt><trkpt lat="45.61967920869696" lon="-0.08542082823855489"><ele>44.0</ele><time>2026-04-19T15:51:30.001Z</time></trkpt><trkpt lat="45.619573560382065" lon="-0.08553568267289541"><ele>44.75</ele><time>2026-04-19T15:51:31.001Z</time></trkpt><trkpt lat="45.619471045519944" lon="-0.08562920308784613"><ele>45.5</ele><time>2026-04-19T15:51:32.001Z</time></trkpt><trkpt lat="45.61936091355156" lon="-0.08571371634081608"><ele>46.25</ele><time>2026-04-19T15:51:33.001Z</time></trkpt><trkpt lat="45.619238735642405" lon="-0.08580546770046894"><ele>47.0</ele><time>2026-04-19T15:51:34.001Z</time></trkpt><trkpt lat="45.61911610757663" lon="-0.08591194150141522"><ele>47.0</ele><time>2026-04-19T15:51:35.001Z</time></trkpt><trkpt lat="45.618978518359775" lon="-0.08605002873375771"><ele>47.0</ele><time>2026-04-19T15:51:36.001Z</time></trkpt><trkpt lat="45.61885784722394" lon="-0.08618934743305257"><ele>47.0</ele><time>2026-04-19T15:51:37.001Z</time></trkpt><trkpt lat="45.61873570098413" lon="-0.08632801331684932"><ele>47.33333333333333</ele><time>2026-04-19T15:51:38.002Z</time></trkpt><trkpt lat="45.61860341047441" lon="-0.08644885930028437"><ele>47.666666666666664</ele><time>2026-04-19T15:51:39.002Z</time></trkpt><trkpt lat="45.618452061332405" lon="-0.08659894937113506"><ele>48.0</ele><time>2026-04-19T15:51:40.002Z</time></trkpt><trkpt lat="45.618320460673765" lon="-0.08674108014531254"><ele>48.0</ele><time>2026-04-19T15:51:41.002Z</time></trkpt><trkpt lat="45.61818155829665" lon="-0.0868550914429924"><ele>48.0</ele><time>2026-04-19T15:51:42.002Z</time></trkpt><trkpt lat="45.61805196148748" lon="-0.08698822066149317"><ele>48.0</ele><time>2026-04-19T15:51:43.002Z</time></trkpt><trkpt lat="45.617958824792225" lon="-0.08706594889283317"><ele>48.0</ele><time>2026-04-19T15:51:44.002Z</time></trkpt><trkpt lat="45.617887049320665" lon="-0.08709741204062506"><ele>48.0</ele><time>2026-04-19T15:51:45.002Z</time></trkpt><trkpt lat="45.61782075483185" lon="-0.08717879418027354"><ele>48.0</ele><time>2026-04-19T15:51:46.002Z</time></trkpt><trkpt lat="45.61774171223934" lon="-0.08725195327223957"><ele>48.0</ele><time>2026-04-19T15:51:47.002Z</time></trkpt><trkpt lat="45.61764286645056" lon="-0.08730636933082574"><ele>48.0</ele><time>2026-04-19T15:51:48.002Z</time></trkpt><trkpt lat="45.61758024399705" lon="-0.08738404267132903"><ele>48.0</ele><time>2026-04-19T15:51:49.002Z</time></trkpt><trkpt lat="45.617457511444854" lon="-0.08745991321289809"><ele>48.166666666666664</ele><time>2026-04-19T15:51:51.002Z</time></trkpt><trkpt lat="45.61737675777329" lon="-0.0874962160904199"><ele>48.33333333333333</ele><time>2026-04-19T15:51:52Z</time></trkpt><trkpt lat="45.617301374686434" lon="-0.08756003970968011"><ele>48.5</ele><time>2026-04-19T15:51:53Z</time></trkpt><trkpt lat="45.617244194757205" lon="-0.08762819022902327"><ele>48.666666666666664</ele><time>2026-04-19T15:51:54Z</time></trkpt><trkpt lat="45.61715983023949" lon="-0.087711271164198"><ele>48.83333333333333</ele><time>2026-04-19T15:51:57Z</time></trkpt><trkpt lat="45.617119645462026" lon="-0.08780303125045386"><ele>49.0</ele><time>2026-04-19T15:52:00Z</time></trkpt><trkpt lat="45.617099886909664" lon="-0.08790484569827627"><ele>48.99999999999999</ele><time>2026-04-19T15:52:02Z</time></trkpt><trkpt lat="45.61708810936692" lon="-0.08800897175192697"><ele>49.0</ele><time>2026-04-19T15:52:04Z</time></trkpt><trkpt lat="45.6169998174238" lon="-0.08811325238651728"><ele>49.0</ele><time>2026-04-19T15:52:07Z</time></trkpt><trkpt lat="45.61699455613457" lon="-0.08820635194864543"><ele>49.0</ele><time>2026-04-19T15:52:15Z</time></trkpt><trkpt lat="45.6169189795908" lon="-0.08824913612196457"><ele>48.99999999999999</ele><time>2026-04-19T15:52:19Z</time></trkpt><trkpt lat="45.61682935788037" lon="-0.08827225079402186"><ele>49.0</ele><time>2026-04-19T15:52:27Z</time></trkpt><trkpt lat="45.61689216300811" lon="-0.08828222969372834"><ele>48.99999999999999</ele><time>2026-04-19T15:53:46.001Z</time></trkpt><trkpt lat="45.61690613455392" lon="-0.08815888583160106"><ele>49.0</ele><time>2026-04-19T15:54:07.001Z</time></trkpt><trkpt lat="45.61696197523412" lon="-0.08807950453896793"><ele>49.0</ele><time>2026-04-19T15:54:09.001Z</time></trkpt><trkpt lat="45.6170256006227" lon="-0.08804689471331778"><ele>49.0</ele><time>2026-04-19T15:54:11.001Z</time></trkpt><trkpt lat="45.61709043307985" lon="-0.0880157990986535"><ele>48.99999999999999</ele><time>2026-04-19T15:54:17.001Z</time></trkpt><trkpt lat="45.617065975349774" lon="-0.08788671504266525"><ele>49.0</ele><time>2026-04-19T15:54:23.001Z</time></trkpt><trkpt lat="45.61701627594446" lon="-0.08780420319920493"><ele>51.0</ele><time>2026-04-19T15:54:25.001Z</time></trkpt><trkpt lat="45.61695762233886" lon="-0.08773403707860163"><ele>53.0</ele><time>2026-04-19T15:54:27.001Z</time></trkpt><trkpt lat="45.61688382805827" lon="-0.08762523728404638"><ele>55.00000000000001</ele><time>2026-04-19T15:54:29.001Z</time></trkpt><trkpt lat="45.616773541346504" lon="-0.08757778286612808"><ele>57.0</ele><time>2026-04-19T15:54:31.001Z</time></trkpt><trkpt lat="45.61666634464449" lon="-0.08756433648587915"><ele>59.0</ele><time>2026-04-19T15:54:33.001Z</time></trkpt><trkpt lat="45.61655237267886" lon="-0.08753980799231559"><ele>59.00000000000001</ele><time>2026-04-19T15:54:35.001Z</time></trkpt><trkpt lat="45.61645209073817" lon="-0.08746807831031904"><ele>59.0</ele><time>2026-04-19T15:54:37.001Z</time></trkpt><trkpt lat="45.61640344495854" lon="-0.08740773422501887"><ele>59.0</ele><time>2026-04-19T15:54:38.001Z</time></trkpt><trkpt lat="45.61632164611367" lon="-0.08728510975994871"><ele>59.0</ele><time>2026-04-19T15:54:40.001Z</time></trkpt><trkpt lat="45.61626986798453" lon="-0.08720198594809676"><ele>59.00000000000001</ele><time>2026-04-19T15:54:41.001Z</time></trkpt><trkpt lat="45.616227285337075" lon="-0.08713197865378672"><ele>59.0</ele><time>2026-04-19T15:54:42.001Z</time></trkpt><trkpt lat="45.616162771595455" lon="-0.08702216463248783"><ele>60.400000000000006</ele><time>2026-04-19T15:54:44.001Z</time></trkpt><trkpt lat="45.61607922746576" lon="-0.08687787896818437"><ele>61.800000000000004</ele><time>2026-04-19T15:54:46.001Z</time></trkpt><trkpt lat="45.61603339813533" lon="-0.08679806847884385"><ele>63.199999999999996</ele><time>2026-04-19T15:54:47.001Z</time></trkpt><trkpt lat="45.61599416730484" lon="-0.0867219623115901"><ele>64.6</ele><time>2026-04-19T15:54:48.001Z</time></trkpt><trkpt lat="45.61593925037889" lon="-0.08660471864015593"><ele>66.0</ele><time>2026-04-19T15:54:50.001Z</time></trkpt><trkpt lat="45.61588250373487" lon="-0.08643996625984492"><ele>66.0</ele><time>2026-04-19T15:54:52.001Z</time></trkpt><trkpt lat="45.61583483207443" lon="-0.0862836551369116"><ele>66.0</ele><time>2026-04-19T15:54:54.001Z</time></trkpt><trkpt lat="45.61580362183142" lon="-0.08620079068716582"><ele>66.0</ele><time>2026-04-19T15:54:55.001Z</time></trkpt><trkpt lat="45.61576585997299" lon="-0.08609996709206455"><ele>66.0</ele><time>2026-04-19T15:54:57.001Z</time></trkpt><trkpt lat="45.61571327808296" lon="-0.08597088564386772"><ele>66.0</ele><time>2026-04-19T15:54:59.001Z</time></trkpt><trkpt lat="45.61564647439402" lon="-0.08583526870748051"><ele>66.0</ele><time>2026-04-19T15:55:01.001Z</time></trkpt><trkpt lat="45.615605337851164" lon="-0.08576321995019927"><ele>66.0</ele><time>2026-04-19T15:55:02.001Z</time></trkpt><trkpt lat="45.61555828772212" lon="-0.08568211493691057"><ele>66.0</ele><time>2026-04-19T15:55:03.001Z</time></trkpt><trkpt lat="45.61551120588251" lon="-0.08558863483868887"><ele>66.0</ele><time>2026-04-19T15:55:04.001Z</time></trkpt><trkpt lat="45.61547026764634" lon="-0.08550893180070804"><ele>66.0</ele><time>2026-04-19T15:55:05.001Z</time></trkpt><trkpt lat="45.61542251839253" lon="-0.08543091602561015"><ele>66.0</ele><time>2026-04-19T15:55:07.001Z</time></trkpt><trkpt lat="45.61534056617724" lon="-0.08544273037409496"><ele>66.0</ele><time>2026-04-19T15:55:10.001Z</time></trkpt><trkpt lat="45.61525124598802" lon="-0.08558329155607307"><ele>66.0</ele><time>2026-04-19T15:55:12.001Z</time></trkpt><trkpt lat="45.615194193807284" lon="-0.08566226687760715"><ele>66.0</ele><time>2026-04-19T15:55:13.001Z</time></trkpt><trkpt lat="45.61513939633699" lon="-0.08572314731839341"><ele>66.0</ele><time>2026-04-19T15:55:14.001Z</time></trkpt><trkpt lat="45.615076366986635" lon="-0.0858601834981196"><ele>66.0</ele><time>2026-04-19T15:55:16.001Z</time></trkpt><trkpt lat="45.61501474970976" lon="-0.08591503774166738"><ele>66.0</ele><time>2026-04-19T15:55:17.001Z</time></trkpt><trkpt lat="45.61495628372356" lon="-0.08599124638356465"><ele>66.0</ele><time>2026-04-19T15:55:18.001Z</time></trkpt><trkpt lat="45.614896612227334" lon="-0.08605805602699397"><ele>66.83333333333333</ele><time>2026-04-19T15:55:19.001Z</time></trkpt><trkpt lat="45.614837612444916" lon="-0.08611908148577781"><ele>67.66666666666667</ele><time>2026-04-19T15:55:20.001Z</time></trkpt><trkpt lat="45.61477907340819" lon="-0.08619686442434998"><ele>68.5</ele><time>2026-04-19T15:55:21.001Z</time></trkpt><trkpt lat="45.614705764728704" lon="-0.0862444218029905"><ele>69.33333333333334</ele><time>2026-04-19T15:55:22.001Z</time></trkpt><trkpt lat="45.61463611187941" lon="-0.08629608520683354"><ele>70.16666666666667</ele><time>2026-04-19T15:55:23.001Z</time></trkpt><trkpt lat="45.61456443768102" lon="-0.08635954842371074"><ele>71.0</ele><time>2026-04-19T15:55:24.001Z</time></trkpt><trkpt lat="45.61450324512806" lon="-0.08642406311229005"><ele>71.0</ele><time>2026-04-19T15:55:25.001Z</time></trkpt><trkpt lat="45.61445838777446" lon="-0.08649393785196828"><ele>71.0</ele><time>2026-04-19T15:55:26.001Z</time></trkpt><trkpt lat="45.614400223568715" lon="-0.0865555691905591"><ele>71.0</ele><time>2026-04-19T15:55:27.001Z</time></trkpt><trkpt lat="45.61430719709793" lon="-0.08662484013682462"><ele>71.0</ele><time>2026-04-19T15:55:28.001Z</time></trkpt><trkpt lat="45.614243346661944" lon="-0.08671110432300068"><ele>71.0</ele><time>2026-04-19T15:55:29.001Z</time></trkpt><trkpt lat="45.61418032911677" lon="-0.08676748219983207"><ele>71.0</ele><time>2026-04-19T15:55:30.001Z</time></trkpt><trkpt lat="45.61409715884382" lon="-0.0868284422984024"><ele>71.0</ele><time>2026-04-19T15:55:32.001Z</time></trkpt><trkpt lat="45.614036834959904" lon="-0.08690870487754576"><ele>71.0</ele><time>2026-04-19T15:55:36.001Z</time></trkpt><trkpt lat="45.61397322984819" lon="-0.0869662938609187"><ele>71.0</ele><time>2026-04-19T15:55:38.001Z</time></trkpt><trkpt lat="45.614041784698315" lon="-0.08726533176879397"><ele>71.0</ele><time>2026-04-19T15:55:40.001Z</time></trkpt><trkpt lat="45.61407219608113" lon="-0.08740587140559929"><ele>71.2</ele><time>2026-04-19T15:55:42.001Z</time></trkpt><trkpt lat="45.61410424968436" lon="-0.0875294169822506"><ele>71.39999999999999</ele><time>2026-04-19T15:55:44.001Z</time></trkpt><trkpt lat="45.6141560147704" lon="-0.08771813838802242"><ele>71.6</ele><time>2026-04-19T15:55:46.001Z</time></trkpt><trkpt lat="45.61416554448851" lon="-0.08782968821116124"><ele>71.8</ele><time>2026-04-19T15:55:47.001Z</time></trkpt><trkpt lat="45.614192678764766" lon="-0.08801354798572737"><ele>72.0</ele><time>2026-04-19T15:55:49.001Z</time></trkpt><trkpt lat="45.61419186112481" lon="-0.0882005391914189"><ele>72.0</ele><time>2026-04-19T15:55:51.001Z</time></trkpt><trkpt lat="45.614177020403424" lon="-0.08838880651305794"><ele>72.0</ele><time>2026-04-19T15:55:53.001Z</time></trkpt><trkpt lat="45.61416608797073" lon="-0.08848544941943075"><ele>72.0</ele><time>2026-04-19T15:55:54.001Z</time></trkpt><trkpt lat="45.614179552980254" lon="-0.08861858866925931"><ele>72.0</ele><time>2026-04-19T15:55:56.001Z</time></trkpt><trkpt lat="45.614190713398926" lon="-0.08878540860406113"><ele>72.0</ele><time>2026-04-19T15:55:58.001Z</time></trkpt><trkpt lat="45.614190274002915" lon="-0.08888961112526751"><ele>72.0</ele><time>2026-04-19T15:55:59.002Z</time></trkpt><trkpt lat="45.61419365823231" lon="-0.08898997331082531"><ele>72.0</ele><time>2026-04-19T15:56:00.002Z</time></trkpt><trkpt lat="45.61419868356541" lon="-0.08909359719547255"><ele>72.0</ele><time>2026-04-19T15:56:01.002Z</time></trkpt><trkpt lat="45.61421237030825" lon="-0.08925050171273459"><ele>72.0</ele><time>2026-04-19T15:56:03.002Z</time></trkpt><trkpt lat="45.61422254751317" lon="-0.08936843337339082"><ele>72.0</ele><time>2026-04-19T15:56:05.001Z</time></trkpt><trkpt lat="45.61422408284825" lon="-0.08953776044880339"><ele>71.8</ele><time>2026-04-19T15:56:07.001Z</time></trkpt><trkpt lat="45.614234416359196" lon="-0.08969906741183857"><ele>71.6</ele><time>2026-04-19T15:56:09.001Z</time></trkpt><trkpt lat="45.61424165920104" lon="-0.08987306599329535"><ele>71.39999999999999</ele><time>2026-04-19T15:56:11Z</time></trkpt><trkpt lat="45.614247939599835" lon="-0.09003661375672917"><ele>71.2</ele><time>2026-04-19T15:56:13Z</time></trkpt><trkpt lat="45.614256933495696" lon="-0.090148790866693"><ele>71.0</ele><time>2026-04-19T15:56:15Z</time></trkpt><trkpt lat="45.614260181264" lon="-0.09027740473334178"><ele>70.66666666666667</ele><time>2026-04-19T15:56:17Z</time></trkpt><trkpt lat="45.614285865681026" lon="-0.09037356697358188"><ele>70.33333333333334</ele><time>2026-04-19T15:56:18Z</time></trkpt><trkpt lat="45.61431260069809" lon="-0.09047250133662853"><ele>70.0</ele><time>2026-04-19T15:56:19Z</time></trkpt><trkpt lat="45.61433723817851" lon="-0.09056657947877186"><ele>69.66666666666667</ele><time>2026-04-19T15:56:20Z</time></trkpt><trkpt lat="45.61437090579498" lon="-0.09065648837987379"><ele>69.33333333333333</ele><time>2026-04-19T15:56:21Z</time></trkpt><trkpt lat="45.61442128006291" lon="-0.09074923035794119"><ele>69.0</ele><time>2026-04-19T15:56:23Z</time></trkpt><trkpt lat="45.61446932300863" lon="-0.09084790482625066"><ele>69.2</ele><time>2026-04-19T15:56:24Z</time></trkpt><trkpt lat="45.61452103066006" lon="-0.09096855103258188"><ele>69.4</ele><time>2026-04-19T15:56:25Z</time></trkpt><trkpt lat="45.614554729374966" lon="-0.0910840462665999"><ele>69.6</ele><time>2026-04-19T15:56:26Z</time></trkpt><trkpt lat="45.61461643325386" lon="-0.09119368200801867"><ele>69.8</ele><time>2026-04-19T15:56:28Z</time></trkpt><trkpt lat="45.61466087507735" lon="-0.09127855603261464"><ele>70.0</ele><time>2026-04-19T15:56:29Z</time></trkpt><trkpt lat="45.614706941249445" lon="-0.09141167581622647"><ele>70.0</ele><time>2026-04-19T15:56:31Z</time></trkpt><trkpt lat="45.61476722376705" lon="-0.09152495856704096"><ele>70.0</ele><time>2026-04-19T15:56:33Z</time></trkpt><trkpt lat="45.61477507169632" lon="-0.09162452093359712"><ele>70.0</ele><time>2026-04-19T15:56:35Z</time></trkpt><trkpt lat="45.614802951731754" lon="-0.09180356759086111"><ele>70.0</ele><time>2026-04-19T15:56:37Z</time></trkpt><trkpt lat="45.61481941692081" lon="-0.09195195180727027"><ele>70.0</ele><time>2026-04-19T15:56:39Z</time></trkpt><trkpt lat="45.614828701583114" lon="-0.09210189728849058"><ele>70.33333333333333</ele><time>2026-04-19T15:56:41Z</time></trkpt><trkpt lat="45.61483870740441" lon="-0.09219774349058389"><ele>70.66666666666666</ele><time>2026-04-19T15:56:42Z</time></trkpt><trkpt lat="45.6148420542405" lon="-0.09230397924594087"><ele>71.0</ele><time>2026-04-19T15:56:43Z</time></trkpt><trkpt lat="45.61486084251214" lon="-0.0924065966763482"><ele>71.33333333333333</ele><time>2026-04-19T15:56:44Z</time></trkpt><trkpt lat="45.614877707703826" lon="-0.09254427797015977"><ele>71.66666666666667</ele><time>2026-04-19T15:56:46Z</time></trkpt><trkpt lat="45.61488819006266" lon="-0.09266319186092223"><ele>72.0</ele><time>2026-04-19T15:56:48Z</time></trkpt><trkpt lat="45.61487364191848" lon="-0.09278340609698271"><ele>72.2</ele><time>2026-04-19T15:56:50Z</time></trkpt><trkpt lat="45.61485095589618" lon="-0.09292769099317066"><ele>72.4</ele><time>2026-04-19T15:56:52.001Z</time></trkpt><trkpt lat="45.61488757131862" lon="-0.09301603196483468"><ele>72.6</ele><time>2026-04-19T15:56:53.001Z</time></trkpt><trkpt lat="45.614908205463436" lon="-0.0931042902360794"><ele>72.8</ele><time>2026-04-19T15:56:55.001Z</time></trkpt><trkpt lat="45.614916526289846" lon="-0.09326292405679343"><ele>73.0</ele><time>2026-04-19T15:56:57.001Z</time></trkpt><trkpt lat="45.6149340478473" lon="-0.09340185665405142"><ele>73.6</ele><time>2026-04-19T15:56:59.001Z</time></trkpt><trkpt lat="45.61494224349898" lon="-0.09352187753950386"><ele>74.19999999999999</ele><time>2026-04-19T15:57:01.001Z</time></trkpt><trkpt lat="45.614961507325326" lon="-0.09364808524540906"><ele>74.8</ele><time>2026-04-19T15:57:03.001Z</time></trkpt><trkpt lat="45.614986293928936" lon="-0.0938002431494811"><ele>75.39999999999999</ele><time>2026-04-19T15:57:05.001Z</time></trkpt><trkpt lat="45.61501003705218" lon="-0.0939276186290804"><ele>76.0</ele><time>2026-04-19T15:57:07.001Z</time></trkpt><trkpt lat="45.61498673823519" lon="-0.09410034395221244"><ele>76.2</ele><time>2026-04-19T15:57:09.001Z</time></trkpt><trkpt lat="45.61498970119346" lon="-0.09424356871668943"><ele>76.39999999999999</ele><time>2026-04-19T15:57:11.001Z</time></trkpt><trkpt lat="45.614999265819186" lon="-0.09436305921864888"><ele>76.6</ele><time>2026-04-19T15:57:12.001Z</time></trkpt><trkpt lat="45.6150346868414" lon="-0.09448822358063501"><ele>76.8</ele><time>2026-04-19T15:57:14.001Z</time></trkpt><trkpt lat="45.61503390915356" lon="-0.09464388894712095"><ele>77.0</ele><time>2026-04-19T15:57:16.001Z</time></trkpt><trkpt lat="45.61499278326432" lon="-0.09474425330114578"><ele>77.0</ele><time>2026-04-19T15:57:18.001Z</time></trkpt><trkpt lat="45.6149706565103" lon="-0.09488053578255508"><ele>77.0</ele><time>2026-04-19T15:57:20.001Z</time></trkpt><trkpt lat="45.61494219408579" lon="-0.09498680884527737"><ele>77.0</ele><time>2026-04-19T15:57:22.001Z</time></trkpt><trkpt lat="45.614941943532955" lon="-0.0951034413261866"><ele>77.0</ele><time>2026-04-19T15:57:23.001Z</time></trkpt><trkpt lat="45.61493195668294" lon="-0.09529667875751179"><ele>77.0</ele><time>2026-04-19T15:57:25.001Z</time></trkpt><trkpt lat="45.614915123315384" lon="-0.09539671045798048"><ele>77.16666666666667</ele><time>2026-04-19T15:57:26.001Z</time></trkpt><trkpt lat="45.614877023690475" lon="-0.09557901240067912"><ele>77.33333333333334</ele><time>2026-04-19T15:57:28.001Z</time></trkpt><trkpt lat="45.61486317809477" lon="-0.09567757459860003"><ele>77.5</ele><time>2026-04-19T15:57:29.001Z</time></trkpt><trkpt lat="45.61485311761961" lon="-0.09577980173462866"><ele>77.66666666666667</ele><time>2026-04-19T15:57:30.001Z</time></trkpt><trkpt lat="45.614842282838296" lon="-0.09590007913290653"><ele>77.83333333333333</ele><time>2026-04-19T15:57:31.001Z</time></trkpt><trkpt lat="45.61483891608078" lon="-0.09601889264284016"><ele>78.0</ele><time>2026-04-19T15:57:32.001Z</time></trkpt><trkpt lat="45.61482625698318" lon="-0.09615431798425961"><ele>78.25</ele><time>2026-04-19T15:57:33.001Z</time></trkpt><trkpt lat="45.61477953092411" lon="-0.09640037726575243"><ele>78.5</ele><time>2026-04-19T15:57:35.001Z</time></trkpt><trkpt lat="45.61474443891033" lon="-0.09653488249406136"><ele>78.75</ele><time>2026-04-19T15:57:36.001Z</time></trkpt><trkpt lat="45.614712259854144" lon="-0.09671931724829962"><ele>79.0</ele><time>2026-04-19T15:57:37.001Z</time></trkpt><trkpt lat="45.61469509233344" lon="-0.09684199508103791"><ele>79.28571428571429</ele><time>2026-04-19T15:57:38.001Z</time></trkpt><trkpt lat="45.6146736593517" lon="-0.09695726518626667"><ele>79.57142857142857</ele><time>2026-04-19T15:57:39.001Z</time></trkpt><trkpt lat="45.61465539489611" lon="-0.09704852997515646"><ele>79.85714285714286</ele><time>2026-04-19T15:57:40.001Z</time></trkpt><trkpt lat="45.61462247228987" lon="-0.09713399191068636"><ele>80.14285714285714</ele><time>2026-04-19T15:57:41.001Z</time></trkpt><trkpt lat="45.614621011442125" lon="-0.09725489932162397"><ele>80.42857142857143</ele><time>2026-04-19T15:57:42.001Z</time></trkpt><trkpt lat="45.61460679501036" lon="-0.09735834269069311"><ele>80.71428571428572</ele><time>2026-04-19T15:57:43.001Z</time></trkpt><trkpt lat="45.61457839358032" lon="-0.09744579624736739"><ele>81.0</ele><time>2026-04-19T15:57:44.001Z</time></trkpt><trkpt lat="45.61454597454557" lon="-0.09755956392623678"><ele>81.33333333333333</ele><time>2026-04-19T15:57:45.001Z</time></trkpt><trkpt lat="45.61451632679242" lon="-0.09766419346815271"><ele>81.66666666666667</ele><time>2026-04-19T15:57:46.001Z</time></trkpt><trkpt lat="45.61448582045735" lon="-0.09776600107930876"><ele>82.0</ele><time>2026-04-19T15:57:47.001Z</time></trkpt><trkpt lat="45.61447003009811" lon="-0.09789150852679115"><ele>82.33333333333334</ele><time>2026-04-19T15:57:48.001Z</time></trkpt><trkpt lat="45.61447360274005" lon="-0.09801174073538939"><ele>82.66666666666667</ele><time>2026-04-19T15:57:49.001Z</time></trkpt><trkpt lat="45.61444675378209" lon="-0.0981661348390044"><ele>83.0</ele><time>2026-04-19T15:57:51.001Z</time></trkpt><trkpt lat="45.61444105946035" lon="-0.0983587788012037"><ele>83.16666666666667</ele><time>2026-04-19T15:57:53.001Z</time></trkpt><trkpt lat="45.61444147347001" lon="-0.09847259915844161"><ele>83.33333333333334</ele><time>2026-04-19T15:57:54.001Z</time></trkpt><trkpt lat="45.614440403245375" lon="-0.09860370412412123"><ele>83.5</ele><time>2026-04-19T15:57:55.001Z</time></trkpt><trkpt lat="45.6144315779259" lon="-0.09870640974355478"><ele>83.66666666666667</ele><time>2026-04-19T15:57:56.001Z</time></trkpt><trkpt lat="45.614444668929146" lon="-0.09883444713346148"><ele>83.83333333333333</ele><time>2026-04-19T15:57:58.001Z</time></trkpt><trkpt lat="45.614455753639135" lon="-0.09894283496933573"><ele>84.0</ele><time>2026-04-19T15:58:00.001Z</time></trkpt><trkpt lat="45.614441809242166" lon="-0.0990490205737329"><ele>84.6</ele><time>2026-04-19T15:58:03.001Z</time></trkpt><trkpt lat="45.61439177188391" lon="-0.09921794173790713"><ele>85.2</ele><time>2026-04-19T15:58:05.001Z</time></trkpt><trkpt lat="45.61432441151033" lon="-0.09938729884417731"><ele>85.8</ele><time>2026-04-19T15:58:07.001Z</time></trkpt><trkpt lat="45.6142798098698" lon="-0.09949919062623622"><ele>86.39999999999999</ele><time>2026-04-19T15:58:08.001Z</time></trkpt><trkpt lat="45.61423471452264" lon="-0.0996182327663095"><ele>87.0</ele><time>2026-04-19T15:58:09.001Z</time></trkpt><trkpt lat="45.614186180893675" lon="-0.09974391641524238"><ele>87.0</ele><time>2026-04-19T15:58:10Z</time></trkpt><trkpt lat="45.614138280598326" lon="-0.09986051945618159"><ele>87.0</ele><time>2026-04-19T15:58:11Z</time></trkpt><trkpt lat="45.614083472467875" lon="-0.09997395025141606"><ele>87.0</ele><time>2026-04-19T15:58:12Z</time></trkpt><trkpt lat="45.61402216497664" lon="-0.10010100572680197"><ele>87.0</ele><time>2026-04-19T15:58:13Z</time></trkpt><trkpt lat="45.61395931511482" lon="-0.1002279387637453"><ele>87.0</ele><time>2026-04-19T15:58:14Z</time></trkpt><trkpt lat="45.61389673161918" lon="-0.10034655207868338"><ele>87.6</ele><time>2026-04-19T15:58:15Z</time></trkpt><trkpt lat="45.613833776172484" lon="-0.10046952973553579"><ele>88.19999999999999</ele><time>2026-04-19T15:58:16Z</time></trkpt><trkpt lat="45.613774989226826" lon="-0.10058969459857398"><ele>88.8</ele><time>2026-04-19T15:58:17Z</time></trkpt><trkpt lat="45.61371777180595" lon="-0.10070072478732953"><ele>89.4</ele><time>2026-04-19T15:58:18Z</time></trkpt><trkpt lat="45.613664919412564" lon="-0.10080759326701579"><ele>90.0</ele><time>2026-04-19T15:58:19Z</time></trkpt><trkpt lat="45.613614864091595" lon="-0.10090214550534084"><ele>90.6</ele><time>2026-04-19T15:58:20Z</time></trkpt><trkpt lat="45.61357551367254" lon="-0.10097774388142645"><ele>91.2</ele><time>2026-04-19T15:58:21Z</time></trkpt><trkpt lat="45.613569404968544" lon="-0.10109059721115243"><ele>91.80000000000001</ele><time>2026-04-19T15:58:24Z</time></trkpt><trkpt lat="45.613649196201536" lon="-0.10118854669715847"><ele>92.4</ele><time>2026-04-19T15:58:26Z</time></trkpt><trkpt lat="45.61373313196232" lon="-0.10126343939054135"><ele>93.0</ele><time>2026-04-19T15:58:27Z</time></trkpt><trkpt lat="45.61383054871607" lon="-0.10137645462294792"><ele>93.0</ele><time>2026-04-19T15:58:28Z</time></trkpt><trkpt lat="45.61393819568844" lon="-0.10151125612490838"><ele>93.0</ele><time>2026-04-19T15:58:29Z</time></trkpt><trkpt lat="45.614061216123254" lon="-0.10163909162614397"><ele>93.0</ele><time>2026-04-19T15:58:30Z</time></trkpt><trkpt lat="45.614174093175926" lon="-0.10177886304630482"><ele>93.0</ele><time>2026-04-19T15:58:31Z</time></trkpt><trkpt lat="45.6142846699102" lon="-0.1019147262889805"><ele>93.25</ele><time>2026-04-19T15:58:32Z</time></trkpt><trkpt lat="45.614384402284315" lon="-0.10202511242980251"><ele>93.5</ele><time>2026-04-19T15:58:33Z</time></trkpt><trkpt lat="45.61447463705444" lon="-0.1021299100234058"><ele>93.75</ele><time>2026-04-19T15:58:34Z</time></trkpt><trkpt lat="45.61456358144434" lon="-0.1022353278910861"><ele>94.0</ele><time>2026-04-19T15:58:35Z</time></trkpt><trkpt lat="45.61464528107622" lon="-0.10233492798271364"><ele>94.4</ele><time>2026-04-19T15:58:36Z</time></trkpt><trkpt lat="45.61471537940943" lon="-0.10243226630975356"><ele>94.80000000000001</ele><time>2026-04-19T15:58:37Z</time></trkpt><trkpt lat="45.614785825911" lon="-0.10254011897767747"><ele>95.19999999999999</ele><time>2026-04-19T15:58:38Z</time></trkpt><trkpt lat="45.614862893851424" lon="-0.1026482758858325"><ele>95.6</ele><time>2026-04-19T15:58:39Z</time></trkpt><trkpt lat="45.614943449948" lon="-0.1027613301765626"><ele>96.0</ele><time>2026-04-19T15:58:40Z</time></trkpt><trkpt lat="45.615024745720355" lon="-0.10288618512308373"><ele>96.0</ele><time>2026-04-19T15:58:41Z</time></trkpt><trkpt lat="45.61511114560693" lon="-0.10301620090109728"><ele>96.0</ele><time>2026-04-19T15:58:42Z</time></trkpt><trkpt lat="45.615203260606464" lon="-0.10315329290946909"><ele>96.0</ele><time>2026-04-19T15:58:43Z</time></trkpt><trkpt lat="45.615299120730214" lon="-0.10329888206005886"><ele>96.0</ele><time>2026-04-19T15:58:44Z</time></trkpt><trkpt lat="45.61539035076315" lon="-0.10343157218743215"><ele>95.83333333333333</ele><time>2026-04-19T15:58:45Z</time></trkpt><trkpt lat="45.615471317549385" lon="-0.10355259586314082"><ele>95.66666666666667</ele><time>2026-04-19T15:58:46Z</time></trkpt><trkpt lat="45.61554213916968" lon="-0.10365722569915128"><ele>95.5</ele><time>2026-04-19T15:58:47Z</time></trkpt><trkpt lat="45.615599651218815" lon="-0.10374530001700104"><ele>95.33333333333334</ele><time>2026-04-19T15:58:48Z</time></trkpt><trkpt lat="45.61564377491614" lon="-0.1038103127221963"><ele>95.16666666666667</ele><time>2026-04-19T15:58:49Z</time></trkpt><trkpt lat="45.61569552855281" lon="-0.10389244748820292"><ele>95.0</ele><time>2026-04-19T15:58:51Z</time></trkpt><trkpt lat="45.61569345059744" lon="-0.10401637994798037"><ele>95.2</ele><time>2026-04-19T15:58:54Z</time></trkpt><trkpt lat="45.615589729246004" lon="-0.10414184559428409"><ele>95.4</ele><time>2026-04-19T15:58:56Z</time></trkpt><trkpt lat="45.61553667652256" lon="-0.10424740834964322"><ele>95.6</ele><time>2026-04-19T15:58:57Z</time></trkpt><trkpt lat="45.61547734067219" lon="-0.10433222507084298"><ele>95.8</ele><time>2026-04-19T15:58:58Z</time></trkpt><trkpt lat="45.615420898632216" lon="-0.10438570268974874"><ele>96.0</ele><time>2026-04-19T15:58:59Z</time></trkpt><trkpt lat="45.61535953798653" lon="-0.10449246283935856"><ele>96.0</ele><time>2026-04-19T15:59:01Z</time></trkpt><trkpt lat="45.61531251604972" lon="-0.10456402968887453"><ele>96.0</ele><time>2026-04-19T15:59:02Z</time></trkpt><trkpt lat="45.61526870571597" lon="-0.10464195823124858"><ele>96.0</ele><time>2026-04-19T15:59:03Z</time></trkpt><trkpt lat="45.61524985472718" lon="-0.10473488675052622"><ele>96.0</ele><time>2026-04-19T15:59:07Z</time></trkpt><trkpt lat="45.615443537188774" lon="-0.10477784916354663"><ele>96.0</ele><time>2026-04-19T15:59:14Z</time></trkpt><trkpt lat="45.6155177259418" lon="-0.10478571838200833"><ele>96.0</ele><time>2026-04-19T15:59:15Z</time></trkpt><trkpt lat="45.61559137498851" lon="-0.10483542360451777"><ele>96.0</ele><time>2026-04-19T15:59:16.001Z</time></trkpt><trkpt lat="45.61564343409974" lon="-0.10490169736746746"><ele>96.0</ele><time>2026-04-19T15:59:17.001Z</time></trkpt><trkpt lat="45.61570650355714" lon="-0.1049997121484977"><ele>96.0</ele><time>2026-04-19T15:59:18.001Z</time></trkpt><trkpt lat="45.615765470023454" lon="-0.10508594825524374"><ele>96.0</ele><time>2026-04-19T15:59:19.001Z</time></trkpt><trkpt lat="45.61583300638622" lon="-0.10518504634845233"><ele>96.0</ele><time>2026-04-19T15:59:20.001Z</time></trkpt><trkpt lat="45.61589022323058" lon="-0.10528487029143246"><ele>95.83333333333333</ele><time>2026-04-19T15:59:21.001Z</time></trkpt><trkpt lat="45.615948377343436" lon="-0.10540517104479462"><ele>95.66666666666667</ele><time>2026-04-19T15:59:22.001Z</time></trkpt><trkpt lat="45.6160022496351" lon="-0.10552067043488025"><ele>95.5</ele><time>2026-04-19T15:59:23.001Z</time></trkpt><trkpt lat="45.61605022492684" lon="-0.10562949388709568"><ele>95.33333333333334</ele><time>2026-04-19T15:59:24.001Z</time></trkpt><trkpt lat="45.61608539887955" lon="-0.10571612266547514"><ele>95.16666666666667</ele><time>2026-04-19T15:59:25.001Z</time></trkpt><trkpt lat="45.616123563771424" lon="-0.10579047331080371"><ele>95.0</ele><time>2026-04-19T15:59:26.001Z</time></trkpt><trkpt lat="45.61616737846324" lon="-0.10586814624965597"><ele>94.83333333333334</ele><time>2026-04-19T15:59:27.001Z</time></trkpt><trkpt lat="45.61621015729505" lon="-0.10595512519577256"><ele>94.66666666666667</ele><time>2026-04-19T15:59:28.001Z</time></trkpt><trkpt lat="45.616265191773785" lon="-0.10603847221992566"><ele>94.5</ele><time>2026-04-19T15:59:29.001Z</time></trkpt><trkpt lat="45.61632766571149" lon="-0.10611810042464581"><ele>94.33333333333333</ele><time>2026-04-19T15:59:30.001Z</time></trkpt><trkpt lat="45.61640522334797" lon="-0.10617436401590932"><ele>94.16666666666666</ele><time>2026-04-19T15:59:31.001Z</time></trkpt><trkpt lat="45.61646245701529" lon="-0.10624240521934764"><ele>94.0</ele><time>2026-04-19T15:59:32.001Z</time></trkpt><trkpt lat="45.61651664561368" lon="-0.10631006079150182"><ele>94.0</ele><time>2026-04-19T15:59:33.001Z</time></trkpt><trkpt lat="45.616572603167526" lon="-0.10636999148100904"><ele>94.0</ele><time>2026-04-19T15:59:34.001Z</time></trkpt><trkpt lat="45.61663906016693" lon="-0.10643988910735214"><ele>94.0</ele><time>2026-04-19T15:59:35.001Z</time></trkpt><trkpt lat="45.61670392129023" lon="-0.10653248022576371"><ele>94.0</ele><time>2026-04-19T15:59:36.001Z</time></trkpt><trkpt lat="45.616763695238916" lon="-0.10661519704573919"><ele>94.0</ele><time>2026-04-19T15:59:37.001Z</time></trkpt><trkpt lat="45.61681492923972" lon="-0.10668019359103131"><ele>94.0</ele><time>2026-04-19T15:59:38.001Z</time></trkpt><trkpt lat="45.616866823822285" lon="-0.10674357659935167"><ele>94.0</ele><time>2026-04-19T15:59:39.001Z</time></trkpt><trkpt lat="45.61692206706093" lon="-0.10679534387725048"><ele>94.0</ele><time>2026-04-19T15:59:40.001Z</time></trkpt><trkpt lat="45.616987878334704" lon="-0.10684604279655689"><ele>94.0</ele><time>2026-04-19T15:59:41.001Z</time></trkpt><trkpt lat="45.617038793198006" lon="-0.10690747585443033"><ele>94.0</ele><time>2026-04-19T15:59:42.001Z</time></trkpt><trkpt lat="45.617092725230705" lon="-0.10696035330817064"><ele>94.0</ele><time>2026-04-19T15:59:43.001Z</time></trkpt><trkpt lat="45.617197655979375" lon="-0.10704640686543597"><ele>94.0</ele><time>2026-04-19T15:59:45.001Z</time></trkpt><trkpt lat="45.61732430679523" lon="-0.10714983230139939"><ele>94.0</ele><time>2026-04-19T15:59:47.001Z</time></trkpt><trkpt lat="45.61738404668135" lon="-0.10720946555309675"><ele>94.0</ele><time>2026-04-19T15:59:48.001Z</time></trkpt><trkpt lat="45.61743509223283" lon="-0.10730732720977508"><ele>94.0</ele><time>2026-04-19T15:59:49.001Z</time></trkpt><trkpt lat="45.61751478316812" lon="-0.10734711632211208"><ele>94.0</ele><time>2026-04-19T15:59:50.001Z</time></trkpt><trkpt lat="45.6175713933846" lon="-0.1074079457216871"><ele>94.0</ele><time>2026-04-19T15:59:51.001Z</time></trkpt><trkpt lat="45.61760801500672" lon="-0.10748173139353452"><ele>94.0</ele><time>2026-04-19T15:59:52.001Z</time></trkpt><trkpt lat="45.61763688554521" lon="-0.10759036926516338"><ele>94.0</ele><time>2026-04-19T15:59:53.001Z</time></trkpt><trkpt lat="45.61767867338261" lon="-0.10771634346192578"><ele>94.0</ele><time>2026-04-19T15:59:54.001Z</time></trkpt><trkpt lat="45.61773029177186" lon="-0.10785091874151596"><ele>94.0</ele><time>2026-04-19T15:59:55.001Z</time></trkpt><trkpt lat="45.61779369041445" lon="-0.1079865924109677"><ele>94.0</ele><time>2026-04-19T15:59:56.001Z</time></trkpt><trkpt lat="45.61787189427087" lon="-0.108141604395572"><ele>93.0</ele><time>2026-04-19T15:59:57.001Z</time></trkpt><trkpt lat="45.61794910414701" lon="-0.10829731455342768"><ele>92.0</ele><time>2026-04-19T15:59:58.001Z</time></trkpt><trkpt lat="45.61802250421061" lon="-0.10843663583802915"><ele>91.0</ele><time>2026-04-19T15:59:59.001Z</time></trkpt><trkpt lat="45.61809766545282" lon="-0.10856154672733864"><ele>90.0</ele><time>2026-04-19T16:00:00.001Z</time></trkpt><trkpt lat="45.6181758741128" lon="-0.1086811154404522"><ele>90.0</ele><time>2026-04-19T16:00:01.001Z</time></trkpt><trkpt lat="45.61824857497503" lon="-0.10879165106596911"><ele>90.0</ele><time>2026-04-19T16:00:02.001Z</time></trkpt><trkpt lat="45.6183257066802" lon="-0.10888731003104193"><ele>90.0</ele><time>2026-04-19T16:00:03.001Z</time></trkpt><trkpt lat="45.6184041313782" lon="-0.10898415092255807"><ele>90.0</ele><time>2026-04-19T16:00:04.001Z</time></trkpt><trkpt lat="45.61848614846683" lon="-0.10907282697653933"><ele>90.0</ele><time>2026-04-19T16:00:05.001Z</time></trkpt><trkpt lat="45.61856811519471" lon="-0.1091592983452895"><ele>89.4</ele><time>2026-04-19T16:00:06.001Z</time></trkpt><trkpt lat="45.61863179767754" lon="-0.10923454454276617"><ele>88.8</ele><time>2026-04-19T16:00:07.001Z</time></trkpt><trkpt lat="45.618726996431214" lon="-0.10933013886619823"><ele>88.19999999999999</ele><time>2026-04-19T16:00:08.001Z</time></trkpt><trkpt lat="45.61880732638296" lon="-0.1093843419899821"><ele>87.6</ele><time>2026-04-19T16:00:09.001Z</time></trkpt><trkpt lat="45.618898764882665" lon="-0.10946007756016492"><ele>87.0</ele><time>2026-04-19T16:00:10.001Z</time></trkpt><trkpt lat="45.6189802757531" lon="-0.10955684679818996"><ele>87.0</ele><time>2026-04-19T16:00:11.001Z</time></trkpt><trkpt lat="45.61904064542383" lon="-0.1096682380976438"><ele>87.0</ele><time>2026-04-19T16:00:12.001Z</time></trkpt><trkpt lat="45.61910099552117" lon="-0.10976224215178196"><ele>87.0</ele><time>2026-04-19T16:00:13.001Z</time></trkpt><trkpt lat="45.61917797760148" lon="-0.10986866239235499"><ele>87.0</ele><time>2026-04-19T16:00:14.001Z</time></trkpt><trkpt lat="45.619258812440016" lon="-0.1099852017461778"><ele>87.0</ele><time>2026-04-19T16:00:15.001Z</time></trkpt><trkpt lat="45.61935702868762" lon="-0.11010417038642932"><ele>87.25</ele><time>2026-04-19T16:00:16Z</time></trkpt><trkpt lat="45.619448459815736" lon="-0.11024258562642258"><ele>87.5</ele><time>2026-04-19T16:00:17Z</time></trkpt><trkpt lat="45.61952763501751" lon="-0.11037315377896133"><ele>87.75</ele><time>2026-04-19T16:00:18Z</time></trkpt><trkpt lat="45.61961113856244" lon="-0.11050047408165416"><ele>88.0</ele><time>2026-04-19T16:00:19Z</time></trkpt><trkpt lat="45.61968642866464" lon="-0.11060768549102169"><ele>88.4</ele><time>2026-04-19T16:00:20Z</time></trkpt><trkpt lat="45.61977301891712" lon="-0.11068093123529528"><ele>88.80000000000001</ele><time>2026-04-19T16:00:21Z</time></trkpt><trkpt lat="45.61984909801796" lon="-0.11080879482143474"><ele>89.2</ele><time>2026-04-19T16:00:22Z</time></trkpt><trkpt lat="45.61991701211603" lon="-0.11092231736004263"><ele>89.6</ele><time>2026-04-19T16:00:23Z</time></trkpt><trkpt lat="45.619986717828866" lon="-0.11105475400492512"><ele>90.0</ele><time>2026-04-19T16:00:24Z</time></trkpt><trkpt lat="45.620053545224486" lon="-0.11117946052157598"><ele>90.0</ele><time>2026-04-19T16:00:25Z</time></trkpt><trkpt lat="45.620121818835315" lon="-0.11130220496718721"><ele>90.0</ele><time>2026-04-19T16:00:26Z</time></trkpt><trkpt lat="45.62017916399966" lon="-0.11139665095274068"><ele>90.0</ele><time>2026-04-19T16:00:27Z</time></trkpt><trkpt lat="45.62023952139512" lon="-0.11147561916319168"><ele>90.0</ele><time>2026-04-19T16:00:28Z</time></trkpt><trkpt lat="45.620290390266554" lon="-0.11155478882627155"><ele>90.0</ele><time>2026-04-19T16:00:29Z</time></trkpt><trkpt lat="45.62036449830526" lon="-0.11158854855092669"><ele>90.0</ele><time>2026-04-19T16:00:30Z</time></trkpt><trkpt lat="45.620436346891346" lon="-0.11166558528730386"><ele>90.5</ele><time>2026-04-19T16:00:31Z</time></trkpt><trkpt lat="45.62050927238592" lon="-0.11175143328455638"><ele>91.0</ele><time>2026-04-19T16:00:32Z</time></trkpt><trkpt lat="45.620559384544286" lon="-0.11184284976813019"><ele>91.5</ele><time>2026-04-19T16:00:33Z</time></trkpt><trkpt lat="45.620612899381" lon="-0.11195005129321685"><ele>92.0</ele><time>2026-04-19T16:00:34Z</time></trkpt><trkpt lat="45.620653796127385" lon="-0.11204994612846339"><ele>92.5</ele><time>2026-04-19T16:00:35Z</time></trkpt><trkpt lat="45.62070870549926" lon="-0.11214229128933018"><ele>93.0</ele><time>2026-04-19T16:00:36Z</time></trkpt><trkpt lat="45.62074937790054" lon="-0.11224479304777797"><ele>93.0</ele><time>2026-04-19T16:00:37Z</time></trkpt><trkpt lat="45.620789053521435" lon="-0.11234478245898019"><ele>93.0</ele><time>2026-04-19T16:00:38Z</time></trkpt><trkpt lat="45.62083094489059" lon="-0.11244152954666191"><ele>93.0</ele><time>2026-04-19T16:00:39Z</time></trkpt><trkpt lat="45.62089663706448" lon="-0.11254234264664398"><ele>93.0</ele><time>2026-04-19T16:00:40Z</time></trkpt><trkpt lat="45.6209348504766" lon="-0.11266402122079361"><ele>93.0</ele><time>2026-04-19T16:00:41Z</time></trkpt><trkpt lat="45.62096753791748" lon="-0.11274639703606879"><ele>93.0</ele><time>2026-04-19T16:00:42Z</time></trkpt><trkpt lat="45.62100337647438" lon="-0.11283671400079949"><ele>93.0</ele><time>2026-04-19T16:00:43Z</time></trkpt><trkpt lat="45.621090724799075" lon="-0.11289597552833601"><ele>93.0</ele><time>2026-04-19T16:00:44Z</time></trkpt><trkpt lat="45.62112815968585" lon="-0.11298956727887796"><ele>93.0</ele><time>2026-04-19T16:00:45Z</time></trkpt><trkpt lat="45.62118947601738" lon="-0.1130927005094772"><ele>93.0</ele><time>2026-04-19T16:00:46Z</time></trkpt><trkpt lat="45.621236639460015" lon="-0.11319659667483543"><ele>93.0</ele><time>2026-04-19T16:00:47Z</time></trkpt><trkpt lat="45.621288153808266" lon="-0.113294091831739"><ele>93.0</ele><time>2026-04-19T16:00:48Z</time></trkpt><trkpt lat="45.62134499365718" lon="-0.1133806214876578"><ele>93.2</ele><time>2026-04-19T16:00:49Z</time></trkpt><trkpt lat="45.62140109754537" lon="-0.11345705369894021"><ele>93.4</ele><time>2026-04-19T16:00:50Z</time></trkpt><trkpt lat="45.62148001268145" lon="-0.11360268066421238"><ele>93.60000000000001</ele><time>2026-04-19T16:00:52Z</time></trkpt><trkpt lat="45.621513514237584" lon="-0.11369069725866673"><ele>93.80000000000001</ele><time>2026-04-19T16:00:53Z</time></trkpt><trkpt lat="45.62153541394998" lon="-0.1137865959985418"><ele>94.0</ele><time>2026-04-19T16:00:54Z</time></trkpt><trkpt lat="45.62157610103476" lon="-0.11393806837655981"><ele>94.0</ele><time>2026-04-19T16:00:56Z</time></trkpt><trkpt lat="45.62166590826832" lon="-0.11404314313918415"><ele>94.0</ele><time>2026-04-19T16:00:58Z</time></trkpt><trkpt lat="45.62180903860935" lon="-0.11418772255958617"><ele>94.0</ele><time>2026-04-19T16:01:00Z</time></trkpt><trkpt lat="45.621878181859486" lon="-0.11428133494061006"><ele>94.0</ele><time>2026-04-19T16:01:01Z</time></trkpt><trkpt lat="45.621945275874786" lon="-0.11436013074132381"><ele>94.83333333333333</ele><time>2026-04-19T16:01:02Z</time></trkpt><trkpt lat="45.622011627712254" lon="-0.11443071815992553"><ele>95.66666666666666</ele><time>2026-04-19T16:01:03Z</time></trkpt><trkpt lat="45.622079539124265" lon="-0.11450251822626713"><ele>96.5</ele><time>2026-04-19T16:01:04Z</time></trkpt><trkpt lat="45.62215004341225" lon="-0.11457092279892654"><ele>97.33333333333333</ele><time>2026-04-19T16:01:05Z</time></trkpt><trkpt lat="45.62221749724603" lon="-0.11464383196441383"><ele>98.16666666666667</ele><time>2026-04-19T16:01:06Z</time></trkpt><trkpt lat="45.62228922917819" lon="-0.11471374543817184"><ele>99.0</ele><time>2026-04-19T16:01:07Z</time></trkpt><trkpt lat="45.62236303700109" lon="-0.11476399088886344"><ele>99.0</ele><time>2026-04-19T16:01:08Z</time></trkpt><trkpt lat="45.62243439751755" lon="-0.11479055986524776"><ele>99.0</ele><time>2026-04-19T16:01:09Z</time></trkpt><trkpt lat="45.62252449787861" lon="-0.11492242270141767"><ele>99.0</ele><time>2026-04-19T16:01:11Z</time></trkpt><trkpt lat="45.6225875298008" lon="-0.11503640004854211"><ele>99.0</ele><time>2026-04-19T16:01:13Z</time></trkpt><trkpt lat="45.622594893348996" lon="-0.11513024852270268"><ele>99.0</ele><time>2026-04-19T16:01:14Z</time></trkpt><trkpt lat="45.62261877412229" lon="-0.11524124370775185"><ele>98.80000000000001</ele><time>2026-04-19T16:01:15Z</time></trkpt><trkpt lat="45.62263814500052" lon="-0.11534055562913585"><ele>98.60000000000001</ele><time>2026-04-19T16:01:16Z</time></trkpt><trkpt lat="45.62266414869258" lon="-0.1154465270885181"><ele>98.4</ele><time>2026-04-19T16:01:17Z</time></trkpt><trkpt lat="45.62269324586853" lon="-0.11555746102245222"><ele>98.2</ele><time>2026-04-19T16:01:18Z</time></trkpt><trkpt lat="45.622746646533734" lon="-0.11569550111915028"><ele>98.0</ele><time>2026-04-19T16:01:20.001Z</time></trkpt><trkpt lat="45.62284993039325" lon="-0.11581979523358821"><ele>97.4</ele><time>2026-04-19T16:01:22.001Z</time></trkpt><trkpt lat="45.622927366533325" lon="-0.11588397539790948"><ele>96.80000000000001</ele><time>2026-04-19T16:01:23.001Z</time></trkpt><trkpt lat="45.6230140614109" lon="-0.11599872631202343"><ele>96.2</ele><time>2026-04-19T16:01:24.001Z</time></trkpt><trkpt lat="45.62309250223326" lon="-0.11607268943591159"><ele>95.6</ele><time>2026-04-19T16:01:25.001Z</time></trkpt><trkpt lat="45.62315744399612" lon="-0.11613049746491755"><ele>95.0</ele><time>2026-04-19T16:01:26.001Z</time></trkpt><trkpt lat="45.62330932825603" lon="-0.11621760514988815"><ele>95.0</ele><time>2026-04-19T16:01:28.001Z</time></trkpt><trkpt lat="45.62339568281679" lon="-0.11625915496364049"><ele>95.0</ele><time>2026-04-19T16:01:29.001Z</time></trkpt><trkpt lat="45.62348326549225" lon="-0.11628647268184872"><ele>95.0</ele><time>2026-04-19T16:01:30.001Z</time></trkpt><trkpt lat="45.62356488165092" lon="-0.11631199020889471"><ele>95.0</ele><time>2026-04-19T16:01:31.001Z</time></trkpt><trkpt lat="45.623625046684275" lon="-0.11634503777282824"><ele>95.0</ele><time>2026-04-19T16:01:32.001Z</time></trkpt><trkpt lat="45.623706524921275" lon="-0.11635885400171761"><ele>95.0</ele><time>2026-04-19T16:01:33.001Z</time></trkpt><trkpt lat="45.623774393241874" lon="-0.11639925564173799"><ele>94.8</ele><time>2026-04-19T16:01:34.001Z</time></trkpt><trkpt lat="45.62386490320467" lon="-0.11648978757352291"><ele>94.6</ele><time>2026-04-19T16:01:36.001Z</time></trkpt><trkpt lat="45.623898233012454" lon="-0.11659561325054121"><ele>94.4</ele><time>2026-04-19T16:01:37.001Z</time></trkpt><trkpt lat="45.62393619389758" lon="-0.1167228744285355"><ele>94.2</ele><time>2026-04-19T16:01:38.001Z</time></trkpt><trkpt lat="45.623959930774966" lon="-0.11686435803881713"><ele>94.0</ele><time>2026-04-19T16:01:39.001Z</time></trkpt><trkpt lat="45.623979052638695" lon="-0.11698334186168152"><ele>93.0</ele><time>2026-04-19T16:01:40.001Z</time></trkpt><trkpt lat="45.62399235998932" lon="-0.11710139843827722"><ele>92.0</ele><time>2026-04-19T16:01:41.001Z</time></trkpt><trkpt lat="45.624001213639836" lon="-0.11721802533499365"><ele>91.0</ele><time>2026-04-19T16:01:42.001Z</time></trkpt><trkpt lat="45.62399435621372" lon="-0.1173320278275809"><ele>90.0</ele><time>2026-04-19T16:01:43.001Z</time></trkpt><trkpt lat="45.62396054196763" lon="-0.11750968642973593"><ele>89.0</ele><time>2026-04-19T16:01:45.001Z</time></trkpt><trkpt lat="45.62393874399794" lon="-0.11765713350750902"><ele>88.33333333333334</ele><time>2026-04-19T16:01:47.001Z</time></trkpt><trkpt lat="45.6238704959511" lon="-0.11773251332036191"><ele>87.66666666666667</ele><time>2026-04-19T16:02:02.001Z</time></trkpt><trkpt lat="45.62377375755274" lon="-0.11769419326002206"><ele>87.0</ele><time>2026-04-19T16:02:04.001Z</time></trkpt><trkpt lat="45.62371282676075" lon="-0.11764414466617992"><ele>86.33333333333333</ele><time>2026-04-19T16:02:05.001Z</time></trkpt><trkpt lat="45.6236533926247" lon="-0.11760299801840927"><ele>85.66666666666666</ele><time>2026-04-19T16:02:06.001Z</time></trkpt><trkpt lat="45.623561224940445" lon="-0.11757633317847037"><ele>85.0</ele><time>2026-04-19T16:02:08.001Z</time></trkpt><trkpt lat="45.623495839946095" lon="-0.11758917525344177"><ele>85.0</ele><time>2026-04-19T16:02:10.001Z</time></trkpt><trkpt lat="45.62355118320945" lon="-0.11754341226237928"><ele>85.0</ele><time>2026-04-19T16:02:14.001Z</time></trkpt><trkpt lat="45.62367893653986" lon="-0.11763654476500657"><ele>85.0</ele><time>2026-04-19T16:02:16.001Z</time></trkpt><trkpt lat="45.62375120992984" lon="-0.11769521045451134"><ele>85.0</ele><time>2026-04-19T16:02:17.001Z</time></trkpt><trkpt lat="45.62381479426187" lon="-0.11772605561295545"><ele>85.0</ele><time>2026-04-19T16:02:18.001Z</time></trkpt><trkpt lat="45.62392354965417" lon="-0.11777167291076182"><ele>85.0</ele><time>2026-04-19T16:02:20.001Z</time></trkpt><trkpt lat="45.624045376405576" lon="-0.11783484735683264"><ele>85.0</ele><time>2026-04-19T16:02:22Z</time></trkpt><trkpt lat="45.62412550814199" lon="-0.11788551845150555"><ele>85.0</ele><time>2026-04-19T16:02:23Z</time></trkpt><trkpt lat="45.62420375477238" lon="-0.11792824395018825"><ele>85.0</ele><time>2026-04-19T16:02:24Z</time></trkpt><trkpt lat="45.62427147799309" lon="-0.11796061606631396"><ele>85.0</ele><time>2026-04-19T16:02:25Z</time></trkpt><trkpt lat="45.6243315959165" lon="-0.1180738736243644"><ele>83.75</ele><time>2026-04-19T16:02:28Z</time></trkpt><trkpt lat="45.624277398630255" lon="-0.11826586098676999"><ele>82.5</ele><time>2026-04-19T16:02:30Z</time></trkpt><trkpt lat="45.624235338400055" lon="-0.11840201323807434"><ele>81.25</ele><time>2026-04-19T16:02:31Z</time></trkpt><trkpt lat="45.62418998060778" lon="-0.11856511204972221"><ele>80.0</ele><time>2026-04-19T16:02:32Z</time></trkpt><trkpt lat="45.624131097318106" lon="-0.1187655052598903"><ele>80.0</ele><time>2026-04-19T16:02:33Z</time></trkpt><trkpt lat="45.624069129985834" lon="-0.11897347877295998"><ele>80.0</ele><time>2026-04-19T16:02:34Z</time></trkpt><trkpt lat="45.62403291781433" lon="-0.11913919244482873"><ele>80.0</ele><time>2026-04-19T16:02:35Z</time></trkpt><trkpt lat="45.62400028099648" lon="-0.11927808141363586"><ele>80.0</ele><time>2026-04-19T16:02:36Z</time></trkpt><trkpt lat="45.623971889952145" lon="-0.11939124799901692"><ele>79.0</ele><time>2026-04-19T16:02:37Z</time></trkpt><trkpt lat="45.623934302749575" lon="-0.119517714120954"><ele>78.0</ele><time>2026-04-19T16:02:39Z</time></trkpt><trkpt lat="45.62394458922706" lon="-0.11965127578960139"><ele>77.0</ele><time>2026-04-19T16:02:42Z</time></trkpt><trkpt lat="45.62397014736623" lon="-0.11974255913017479"><ele>76.0</ele><time>2026-04-19T16:02:43Z</time></trkpt><trkpt lat="45.62398699855652" lon="-0.11988427100179593"><ele>75.0</ele><time>2026-04-19T16:02:44Z</time></trkpt><trkpt lat="45.6239921346735" lon="-0.12003262786061536"><ele>74.2</ele><time>2026-04-19T16:02:45Z</time></trkpt><trkpt lat="45.62401488799628" lon="-0.12015994270778467"><ele>73.4</ele><time>2026-04-19T16:02:46Z</time></trkpt><trkpt lat="45.624036657088176" lon="-0.12027664380847206"><ele>72.6</ele><time>2026-04-19T16:02:47Z</time></trkpt><trkpt lat="45.62407715740093" lon="-0.1204442878751071"><ele>71.8</ele><time>2026-04-19T16:02:49Z</time></trkpt><trkpt lat="45.62410829274538" lon="-0.12053949318288419"><ele>71.0</ele><time>2026-04-19T16:02:50Z</time></trkpt><trkpt lat="45.6241445364276" lon="-0.12070801413389302"><ele>69.39999999999999</ele><time>2026-04-19T16:02:52Z</time></trkpt><trkpt lat="45.62418653732776" lon="-0.1208875707938814"><ele>67.8</ele><time>2026-04-19T16:02:54Z</time></trkpt><trkpt lat="45.624189006905944" lon="-0.12099341826936448"><ele>66.19999999999999</ele><time>2026-04-19T16:02:55Z</time></trkpt><trkpt lat="45.62417247101384" lon="-0.12112239977594456"><ele>64.6</ele><time>2026-04-19T16:02:57Z</time></trkpt><trkpt lat="45.62413478425268" lon="-0.12123624315286581"><ele>63.0</ele><time>2026-04-19T16:03:00Z</time></trkpt><trkpt lat="45.624129003696495" lon="-0.12140318007808301"><ele>63.0</ele><time>2026-04-19T16:03:02Z</time></trkpt><trkpt lat="45.624122622920304" lon="-0.12149913997346873"><ele>63.0</ele><time>2026-04-19T16:03:03Z</time></trkpt><trkpt lat="45.62412240969045" lon="-0.12165786789816868"><ele>63.0</ele><time>2026-04-19T16:03:05Z</time></trkpt><trkpt lat="45.624042324422554" lon="-0.12178279727108074"><ele>63.0</ele><time>2026-04-19T16:03:07Z</time></trkpt><trkpt lat="45.62398129039759" lon="-0.12182095711284373"><ele>63.0</ele><time>2026-04-19T16:03:08Z</time></trkpt><trkpt lat="45.623931029343076" lon="-0.12192731847873871"><ele>61.599999999999994</ele><time>2026-04-19T16:03:10Z</time></trkpt><trkpt lat="45.62391555742363" lon="-0.12205345776298937"><ele>60.199999999999996</ele><time>2026-04-19T16:03:12Z</time></trkpt><trkpt lat="45.62393293805933" lon="-0.12216470246169062"><ele>58.8</ele><time>2026-04-19T16:03:14Z</time></trkpt><trkpt lat="45.62397137468586" lon="-0.12229127852133807"><ele>57.4</ele><time>2026-04-19T16:03:16Z</time></trkpt><trkpt lat="45.623989861656554" lon="-0.12240950250314633"><ele>56.0</ele><time>2026-04-19T16:03:18Z</time></trkpt><trkpt lat="45.62409763619413" lon="-0.12245386480543767"><ele>54.833333333333336</ele><time>2026-04-19T16:03:21Z</time></trkpt><trkpt lat="45.62417693828024" lon="-0.12247417649767123"><ele>53.66666666666667</ele><time>2026-04-19T16:03:22Z</time></trkpt><trkpt lat="45.6242616540965" lon="-0.1224962917934756"><ele>52.5</ele><time>2026-04-19T16:03:24Z</time></trkpt><trkpt lat="45.62433057175264" lon="-0.12252116952097757"><ele>51.33333333333333</ele><time>2026-04-19T16:03:27.001Z</time></trkpt><trkpt lat="45.62427794960823" lon="-0.12260135330125736"><ele>50.166666666666664</ele><time>2026-04-19T16:03:40.001Z</time></trkpt><trkpt lat="45.62419305493472" lon="-0.12262204599393753"><ele>49.0</ele><time>2026-04-19T16:03:42.001Z</time></trkpt><trkpt lat="45.62410320192369" lon="-0.12262252830362769"><ele>48.99999999999999</ele><time>2026-04-19T16:03:44.001Z</time></trkpt><trkpt lat="45.62398645410572" lon="-0.12260742780313195"><ele>49.0</ele><time>2026-04-19T16:03:46.001Z</time></trkpt><trkpt lat="45.62388997271724" lon="-0.12258604052332125"><ele>49.0</ele><time>2026-04-19T16:03:47.001Z</time></trkpt><trkpt lat="45.62381012052561" lon="-0.12257394552805836"><ele>49.0</ele><time>2026-04-19T16:03:48.001Z</time></trkpt><trkpt lat="45.62374558569591" lon="-0.12256708252164467"><ele>48.99999999999999</ele><time>2026-04-19T16:03:49.001Z</time></trkpt><trkpt lat="45.62368056154122" lon="-0.12256861035632449"><ele>49.0</ele><time>2026-04-19T16:03:50.001Z</time></trkpt><trkpt lat="45.62361421261873" lon="-0.1225635133655533"><ele>48.49999999999999</ele><time>2026-04-19T16:03:51.001Z</time></trkpt><trkpt lat="45.62350053210443" lon="-0.12255989536841742"><ele>48.0</ele><time>2026-04-19T16:03:53.001Z</time></trkpt><trkpt lat="45.62342816975753" lon="-0.12257238661413104"><ele>47.5</ele><time>2026-04-19T16:03:54.001Z</time></trkpt><trkpt lat="45.62333832475426" lon="-0.1225552086995444"><ele>47.0</ele><time>2026-04-19T16:03:56.001Z</time></trkpt><trkpt lat="45.62326685459624" lon="-0.12253961234846227"><ele>46.5</ele><time>2026-04-19T16:03:58.001Z</time></trkpt><trkpt lat="45.62318386659892" lon="-0.12253345110887147"><ele>46.0</ele><time>2026-04-19T16:04:00.001Z</time></trkpt><trkpt lat="45.62309793911139" lon="-0.12253135745783855"><ele>46.0</ele><time>2026-04-19T16:04:03.001Z</time></trkpt><trkpt lat="45.6230244716371" lon="-0.12252461357795112"><ele>46.0</ele><time>2026-04-19T16:04:05.001Z</time></trkpt><trkpt lat="45.622957183348" lon="-0.12252243247888352"><ele>46.0</ele><time>2026-04-19T16:04:07.001Z</time></trkpt><trkpt lat="45.6228706147795" lon="-0.1225138830995772"><ele>46.0</ele><time>2026-04-19T16:04:09.001Z</time></trkpt><trkpt lat="45.62276258864683" lon="-0.12251985429866812"><ele>46.0</ele><time>2026-04-19T16:04:11.001Z</time></trkpt><trkpt lat="45.62264209351643" lon="-0.12254831513409338"><ele>46.25</ele><time>2026-04-19T16:04:13.001Z</time></trkpt><trkpt lat="45.62251028647941" lon="-0.12254545634645475"><ele>46.5</ele><time>2026-04-19T16:04:15.001Z</time></trkpt><trkpt lat="45.62242434258473" lon="-0.12253375676179544"><ele>46.75</ele><time>2026-04-19T16:04:16.001Z</time></trkpt><trkpt lat="45.62234730714666" lon="-0.12250196108117016"><ele>47.0</ele><time>2026-04-19T16:04:17.001Z</time></trkpt><trkpt lat="45.62216742185902" lon="-0.12242325692962437"><ele>48.0</ele><time>2026-04-19T16:04:19.001Z</time></trkpt><trkpt lat="45.62205664274634" lon="-0.12239716194793841"><ele>49.0</ele><time>2026-04-19T16:04:21.001Z</time></trkpt><trkpt lat="45.62194184682649" lon="-0.12235251994590943"><ele>50.0</ele><time>2026-04-19T16:04:23.001Z</time></trkpt><trkpt lat="45.6218733031162" lon="-0.12234138331059087"><ele>51.0</ele><time>2026-04-19T16:04:24.001Z</time></trkpt><trkpt lat="45.621782319728396" lon="-0.12232239952557335"><ele>52.0</ele><time>2026-04-19T16:04:26.001Z</time></trkpt><trkpt lat="45.62167940725963" lon="-0.12228403715290588"><ele>52.0</ele><time>2026-04-19T16:04:28Z</time></trkpt><trkpt lat="45.62154253071798" lon="-0.12223879010075114"><ele>52.0</ele><time>2026-04-19T16:04:30Z</time></trkpt><trkpt lat="45.62144868353862" lon="-0.1222147435574142"><ele>52.0</ele><time>2026-04-19T16:04:31Z</time></trkpt><trkpt lat="45.6213616726815" lon="-0.12218898327134366"><ele>52.0</ele><time>2026-04-19T16:04:32Z</time></trkpt><trkpt lat="45.621275376806366" lon="-0.12215359880971481"><ele>52.0</ele><time>2026-04-19T16:04:33Z</time></trkpt><trkpt lat="45.62117709287933" lon="-0.12211382660480934"><ele>52.400000000000006</ele><time>2026-04-19T16:04:34Z</time></trkpt><trkpt lat="45.621078182996136" lon="-0.12207935656618893"><ele>52.800000000000004</ele><time>2026-04-19T16:04:35Z</time></trkpt><trkpt lat="45.620973598994844" lon="-0.12204074005233928"><ele>53.2</ele><time>2026-04-19T16:04:36Z</time></trkpt><trkpt lat="45.620868033497096" lon="-0.12199471750191902"><ele>53.6</ele><time>2026-04-19T16:04:37Z</time></trkpt><trkpt lat="45.62075849586387" lon="-0.1219407132517795"><ele>54.0</ele><time>2026-04-19T16:04:38Z</time></trkpt><trkpt lat="45.62065382371642" lon="-0.12188125810298231"><ele>54.0</ele><time>2026-04-19T16:04:39Z</time></trkpt><trkpt lat="45.62054208176285" lon="-0.12182031605779964"><ele>54.0</ele><time>2026-04-19T16:04:40Z</time></trkpt><trkpt lat="45.620427525136435" lon="-0.1217544724263145"><ele>54.0</ele><time>2026-04-19T16:04:41Z</time></trkpt><trkpt lat="45.620323368729665" lon="-0.12168834148162795"><ele>54.0</ele><time>2026-04-19T16:04:42Z</time></trkpt><trkpt lat="45.62021923654301" lon="-0.1216233346592856"><ele>54.800000000000004</ele><time>2026-04-19T16:04:43Z</time></trkpt><trkpt lat="45.62011436242938" lon="-0.12156591797778232"><ele>55.60000000000001</ele><time>2026-04-19T16:04:44Z</time></trkpt><trkpt lat="45.62000738046388" lon="-0.12152087841635863"><ele>56.4</ele><time>2026-04-19T16:04:45Z</time></trkpt><trkpt lat="45.61990199401399" lon="-0.1214776111512825"><ele>57.2</ele><time>2026-04-19T16:04:46Z</time></trkpt><trkpt lat="45.61981015964913" lon="-0.12145113268043042"><ele>58.0</ele><time>2026-04-19T16:04:47Z</time></trkpt><trkpt lat="45.619736830895484" lon="-0.12141563632673989"><ele>58.2</ele><time>2026-04-19T16:04:48Z</time></trkpt><trkpt lat="45.619661513993954" lon="-0.12137165661712852"><ele>58.4</ele><time>2026-04-19T16:04:49Z</time></trkpt><trkpt lat="45.61958538738649" lon="-0.121311984094916"><ele>58.60000000000001</ele><time>2026-04-19T16:04:50Z</time></trkpt><trkpt lat="45.61949186615496" lon="-0.12124253393532704"><ele>58.800000000000004</ele><time>2026-04-19T16:04:51Z</time></trkpt><trkpt lat="45.619403377048016" lon="-0.12117259628542588"><ele>59.0</ele><time>2026-04-19T16:04:52Z</time></trkpt><trkpt lat="45.61931161277118" lon="-0.12111813261159961"><ele>59.66666666666667</ele><time>2026-04-19T16:04:53Z</time></trkpt><trkpt lat="45.61923282222097" lon="-0.1210698307918605"><ele>60.333333333333336</ele><time>2026-04-19T16:04:54Z</time></trkpt><trkpt lat="45.61916459355232" lon="-0.12101882402431402"><ele>61.0</ele><time>2026-04-19T16:04:55Z</time></trkpt><trkpt lat="45.61909132532557" lon="-0.12096664529143318"><ele>61.66666666666667</ele><time>2026-04-19T16:04:56Z</time></trkpt><trkpt lat="45.61900102078324" lon="-0.1209219766376435"><ele>62.333333333333336</ele><time>2026-04-19T16:04:58Z</time></trkpt><trkpt lat="45.61895527012548" lon="-0.12104078631073571"><ele>63.0</ele><time>2026-04-19T16:05:01Z</time></trkpt><trkpt lat="45.618972443919176" lon="-0.12121083507611978"><ele>63.0</ele><time>2026-04-19T16:05:03Z</time></trkpt><trkpt lat="45.618967633901455" lon="-0.12132502513925339"><ele>63.0</ele><time>2026-04-19T16:05:04Z</time></trkpt><trkpt lat="45.61896218050372" lon="-0.12143790995870098"><ele>63.0</ele><time>2026-04-19T16:05:05Z</time></trkpt><trkpt lat="45.618949239384115" lon="-0.12154512144223968"><ele>63.0</ele><time>2026-04-19T16:05:06Z</time></trkpt><trkpt lat="45.618922868935755" lon="-0.12165391189779742"><ele>63.0</ele><time>2026-04-19T16:05:07Z</time></trkpt><trkpt lat="45.61889083067415" lon="-0.12177248904621536"><ele>63.0</ele><time>2026-04-19T16:05:08Z</time></trkpt><trkpt lat="45.61886143141106" lon="-0.12188748949983567"><ele>62.2</ele><time>2026-04-19T16:05:09Z</time></trkpt><trkpt lat="45.61883196131314" lon="-0.12199833666796371"><ele>61.4</ele><time>2026-04-19T16:05:10Z</time></trkpt><trkpt lat="45.61879794117576" lon="-0.12209497005729822"><ele>60.60000000000001</ele><time>2026-04-19T16:05:11Z</time></trkpt><trkpt lat="45.61872598166746" lon="-0.12221443645634587"><ele>59.800000000000004</ele><time>2026-04-19T16:05:13Z</time></trkpt><trkpt lat="45.61861827157203" lon="-0.12232407059740895"><ele>59.0</ele><time>2026-04-19T16:05:15Z</time></trkpt><trkpt lat="45.6185588176416" lon="-0.12237275501376285"><ele>58.00000000000001</ele><time>2026-04-19T16:05:16Z</time></trkpt><trkpt lat="45.61845230678033" lon="-0.1224596198786847"><ele>57.0</ele><time>2026-04-19T16:05:18Z</time></trkpt><trkpt lat="45.618345890960285" lon="-0.12254564012344946"><ele>56.0</ele><time>2026-04-19T16:05:20Z</time></trkpt><trkpt lat="45.61829104833887" lon="-0.12260112718946656"><ele>55.0</ele><time>2026-04-19T16:05:21Z</time></trkpt><trkpt lat="45.618237034998735" lon="-0.122659207028696"><ele>54.00000000000001</ele><time>2026-04-19T16:05:22Z</time></trkpt><trkpt lat="45.618179804157" lon="-0.12271311603392648"><ele>53.0</ele><time>2026-04-19T16:05:23Z</time></trkpt><trkpt lat="45.61812047687726" lon="-0.12275546137613552"><ele>53.00000000000001</ele><time>2026-04-19T16:05:24Z</time></trkpt><trkpt lat="45.61805943188075" lon="-0.12278275956986487"><ele>53.0</ele><time>2026-04-19T16:05:25Z</time></trkpt><trkpt lat="45.61794734251137" lon="-0.1228016166484475"><ele>53.0</ele><time>2026-04-19T16:05:27Z</time></trkpt><trkpt lat="45.61787897171325" lon="-0.12279780217195654"><ele>53.0</ele><time>2026-04-19T16:05:28Z</time></trkpt><trkpt lat="45.6178167472423" lon="-0.12277695332349099"><ele>53.00000000000001</ele><time>2026-04-19T16:05:29Z</time></trkpt><trkpt lat="45.61771489456217" lon="-0.12274295776371796"><ele>53.0</ele><time>2026-04-19T16:05:31Z</time></trkpt><trkpt lat="45.61761240387579" lon="-0.12275068844351956"><ele>52.2</ele><time>2026-04-19T16:05:33Z</time></trkpt><trkpt lat="45.61754511599463" lon="-0.12279575086238423"><ele>51.4</ele><time>2026-04-19T16:05:35Z</time></trkpt><trkpt lat="45.61747982040591" lon="-0.12286033005666286"><ele>50.6</ele><time>2026-04-19T16:05:37.001Z</time></trkpt><trkpt lat="45.61740948628917" lon="-0.1229400643675843"><ele>49.800000000000004</ele><time>2026-04-19T16:05:39.001Z</time></trkpt><trkpt lat="45.61734917470033" lon="-0.12306224239768354"><ele>49.0</ele><time>2026-04-19T16:05:41.001Z</time></trkpt><trkpt lat="45.61726884268798" lon="-0.12320505948665515"><ele>48.857142857142854</ele><time>2026-04-19T16:05:43.001Z</time></trkpt><trkpt lat="45.61721873201549" lon="-0.1232762835834844"><ele>48.714285714285715</ele><time>2026-04-19T16:05:44.001Z</time></trkpt><trkpt lat="45.61716855338135" lon="-0.12334773457523905"><ele>48.57142857142857</ele><time>2026-04-19T16:05:45.001Z</time></trkpt><trkpt lat="45.61711688929256" lon="-0.12341963486112839"><ele>48.42857142857143</ele><time>2026-04-19T16:05:46.001Z</time></trkpt><trkpt lat="45.6170664397156" lon="-0.12349793909360766"><ele>48.285714285714285</ele><time>2026-04-19T16:05:47.001Z</time></trkpt><trkpt lat="45.61701504114642" lon="-0.12357539011696593"><ele>48.14285714285714</ele><time>2026-04-19T16:05:48.001Z</time></trkpt><trkpt lat="45.6169618279227" lon="-0.12366313346278722"><ele>48.0</ele><time>2026-04-19T16:05:49.001Z</time></trkpt><trkpt lat="45.61690257012785" lon="-0.12375600576507016"><ele>47.599999999999994</ele><time>2026-04-19T16:05:50.001Z</time></trkpt><trkpt lat="45.61685483498891" lon="-0.12381892472185124"><ele>47.199999999999996</ele><time>2026-04-19T16:05:51.001Z</time></trkpt><trkpt lat="45.616782356074765" lon="-0.12389528387100783"><ele>46.8</ele><time>2026-04-19T16:05:53.001Z</time></trkpt><trkpt lat="45.61678842621123" lon="-0.12400960626192943"><ele>46.4</ele><time>2026-04-19T16:05:56.001Z</time></trkpt><trkpt lat="45.61690165749441" lon="-0.12412387810489009"><ele>46.0</ele><time>2026-04-19T16:05:58.001Z</time></trkpt><trkpt lat="45.61696057452084" lon="-0.12423477761362108"><ele>46.25</ele><time>2026-04-19T16:05:59.001Z</time></trkpt><trkpt lat="45.61704037930447" lon="-0.12435785011437074"><ele>46.5</ele><time>2026-04-19T16:06:00.001Z</time></trkpt><trkpt lat="45.61713535397323" lon="-0.12448547030150989"><ele>46.75</ele><time>2026-04-19T16:06:01.001Z</time></trkpt><trkpt lat="45.617250613549515" lon="-0.12459870823042128"><ele>47.0</ele><time>2026-04-19T16:06:02.001Z</time></trkpt><trkpt lat="45.61737404496797" lon="-0.12477158298544226"><ele>47.666666666666664</ele><time>2026-04-19T16:06:03.001Z</time></trkpt><trkpt lat="45.61750599327034" lon="-0.1249257826537955"><ele>48.33333333333333</ele><time>2026-04-19T16:06:04.001Z</time></trkpt><trkpt lat="45.61764056237705" lon="-0.12507413423039254"><ele>49.0</ele><time>2026-04-19T16:06:05.001Z</time></trkpt><trkpt lat="45.61795305765088" lon="-0.1253410130302351"><ele>49.666666666666664</ele><time>2026-04-19T16:06:07.001Z</time></trkpt><trkpt lat="45.61810550124413" lon="-0.12547282331155463"><ele>50.33333333333333</ele><time>2026-04-19T16:06:08.001Z</time></trkpt><trkpt lat="45.618250076729844" lon="-0.12560783970762956"><ele>51.0</ele><time>2026-04-19T16:06:09.001Z</time></trkpt><trkpt lat="45.61838612616741" lon="-0.1257062619320958"><ele>51.0</ele><time>2026-04-19T16:06:10.001Z</time></trkpt><trkpt lat="45.618510763869004" lon="-0.12580909926181622"><ele>51.0</ele><time>2026-04-19T16:06:11.001Z</time></trkpt><trkpt lat="45.618630276020646" lon="-0.1259327390995927"><ele>51.0</ele><time>2026-04-19T16:06:12.001Z</time></trkpt><trkpt lat="45.61874835827875" lon="-0.12608718528285137"><ele>50.66666666666667</ele><time>2026-04-19T16:06:13.001Z</time></trkpt><trkpt lat="45.618871010403716" lon="-0.12628132863588198"><ele>50.333333333333336</ele><time>2026-04-19T16:06:14.001Z</time></trkpt><trkpt lat="45.618995974753595" lon="-0.12648499966014556"><ele>50.0</ele><time>2026-04-19T16:06:15.001Z</time></trkpt><trkpt lat="45.61913104696377" lon="-0.1266973063227515"><ele>49.66666666666667</ele><time>2026-04-19T16:06:16.001Z</time></trkpt><trkpt lat="45.61926762519172" lon="-0.12691965767498561"><ele>49.33333333333333</ele><time>2026-04-19T16:06:17.001Z</time></trkpt><trkpt lat="45.61940750567957" lon="-0.12713240750292443"><ele>49.0</ele><time>2026-04-19T16:06:18.001Z</time></trkpt><trkpt lat="45.61955651962522" lon="-0.12735821727567914"><ele>48.666666666666664</ele><time>2026-04-19T16:06:19.001Z</time></trkpt><trkpt lat="45.61970203708017" lon="-0.12756640074691197"><ele>48.33333333333333</ele><time>2026-04-19T16:06:20.001Z</time></trkpt><trkpt lat="45.61980484483898" lon="-0.12778921735148238"><ele>48.0</ele><time>2026-04-19T16:06:21.001Z</time></trkpt><trkpt lat="45.6199113790821" lon="-0.1279924934916595"><ele>48.0</ele><time>2026-04-19T16:06:22.001Z</time></trkpt><trkpt lat="45.62001201434949" lon="-0.12822319639447746"><ele>48.0</ele><time>2026-04-19T16:06:23.001Z</time></trkpt><trkpt lat="45.62011252756614" lon="-0.12845256773919864"><ele>48.0</ele><time>2026-04-19T16:06:24.001Z</time></trkpt><trkpt lat="45.620210421015656" lon="-0.12865454057353903"><ele>48.0</ele><time>2026-04-19T16:06:25.001Z</time></trkpt><trkpt lat="45.62031679674721" lon="-0.12882951752714855"><ele>48.0</ele><time>2026-04-19T16:06:26.001Z</time></trkpt><trkpt lat="45.620436805624124" lon="-0.12894784020539463"><ele>48.0</ele><time>2026-04-19T16:06:27.001Z</time></trkpt><trkpt lat="45.62054703745364" lon="-0.12906650547899876"><ele>48.0</ele><time>2026-04-19T16:06:28.001Z</time></trkpt><trkpt lat="45.62063966217811" lon="-0.12915270062611123"><ele>48.0</ele><time>2026-04-19T16:06:29.001Z</time></trkpt><trkpt lat="45.620717067746305" lon="-0.12922172252231742"><ele>48.0</ele><time>2026-04-19T16:06:30.001Z</time></trkpt><trkpt lat="45.620800510796705" lon="-0.1293056477925689"><ele>48.0</ele><time>2026-04-19T16:06:31.001Z</time></trkpt><trkpt lat="45.62092310468968" lon="-0.12936302389456839"><ele>48.0</ele><time>2026-04-19T16:06:32.001Z</time></trkpt><trkpt lat="45.62104226990617" lon="-0.12944076752708328"><ele>48.0</ele><time>2026-04-19T16:06:33.001Z</time></trkpt><trkpt lat="45.621162325106525" lon="-0.12953761207867828"><ele>48.0</ele><time>2026-04-19T16:06:34Z</time></trkpt><trkpt lat="45.62127780549396" lon="-0.12966567872608553"><ele>48.0</ele><time>2026-04-19T16:06:35Z</time></trkpt><trkpt lat="45.621371665261975" lon="-0.12983038668285962"><ele>48.0</ele><time>2026-04-19T16:06:36Z</time></trkpt><trkpt lat="45.621464078076805" lon="-0.13001821075193654"><ele>48.66666666666667</ele><time>2026-04-19T16:06:37Z</time></trkpt><trkpt lat="45.621574646763726" lon="-0.13019039152550568"><ele>49.333333333333336</ele><time>2026-04-19T16:06:38Z</time></trkpt><trkpt lat="45.621666530675306" lon="-0.1303884216266319"><ele>50.0</ele><time>2026-04-19T16:06:39Z</time></trkpt><trkpt lat="45.62178276250753" lon="-0.13058564451115715"><ele>50.0</ele><time>2026-04-19T16:06:40Z</time></trkpt><trkpt lat="45.621896398857125" lon="-0.1307793670923462"><ele>50.0</ele><time>2026-04-19T16:06:41Z</time></trkpt><trkpt lat="45.62201642831009" lon="-0.1309788317113129"><ele>50.0</ele><time>2026-04-19T16:06:42Z</time></trkpt><trkpt lat="45.622144007645" lon="-0.13118453150601778"><ele>50.333333333333336</ele><time>2026-04-19T16:06:43Z</time></trkpt><trkpt lat="45.622262829226806" lon="-0.1313818046297974"><ele>50.66666666666667</ele><time>2026-04-19T16:06:44Z</time></trkpt><trkpt lat="45.622380186857704" lon="-0.13157265473260318"><ele>51.0</ele><time>2026-04-19T16:06:45Z</time></trkpt><trkpt lat="45.62249826791248" lon="-0.13176324947248264"><ele>51.66666666666667</ele><time>2026-04-19T16:06:46Z</time></trkpt><trkpt lat="45.622618492057924" lon="-0.13195338293268913"><ele>52.333333333333336</ele><time>2026-04-19T16:06:47Z</time></trkpt><trkpt lat="45.62273490678882" lon="-0.13214360339744619"><ele>53.0</ele><time>2026-04-19T16:06:48Z</time></trkpt><trkpt lat="45.62285231531988" lon="-0.1323349796442063"><ele>53.333333333333336</ele><time>2026-04-19T16:06:49Z</time></trkpt><trkpt lat="45.622966278606" lon="-0.1325331155674488"><ele>53.66666666666667</ele><time>2026-04-19T16:06:50Z</time></trkpt><trkpt lat="45.62307325027433" lon="-0.13273469551928738"><ele>54.0</ele><time>2026-04-19T16:06:51Z</time></trkpt><trkpt lat="45.62317600185736" lon="-0.13294878634260518"><ele>54.0</ele><time>2026-04-19T16:06:52Z</time></trkpt><trkpt lat="45.62327315110605" lon="-0.1331492541298776"><ele>54.0</ele><time>2026-04-19T16:06:53Z</time></trkpt><trkpt lat="45.623387914758155" lon="-0.13335434944078725"><ele>54.0</ele><time>2026-04-19T16:06:54Z</time></trkpt><trkpt lat="45.623494317978974" lon="-0.13357830103095153"><ele>54.0</ele><time>2026-04-19T16:06:55Z</time></trkpt><trkpt lat="45.62359259964924" lon="-0.1337834537414108"><ele>54.0</ele><time>2026-04-19T16:06:56Z</time></trkpt><trkpt lat="45.623676318066714" lon="-0.1339991063483087"><ele>54.0</ele><time>2026-04-19T16:06:57Z</time></trkpt><trkpt lat="45.62379318677406" lon="-0.13419744664542604"><ele>54.33333333333333</ele><time>2026-04-19T16:06:58Z</time></trkpt><trkpt lat="45.62388457926647" lon="-0.13441412670768282"><ele>54.666666666666664</ele><time>2026-04-19T16:06:59Z</time></trkpt><trkpt lat="45.623989295229634" lon="-0.13462602614571084"><ele>55.0</ele><time>2026-04-19T16:07:00Z</time></trkpt><trkpt lat="45.62409174813833" lon="-0.13482581928876777"><ele>55.33333333333333</ele><time>2026-04-19T16:07:01Z</time></trkpt><trkpt lat="45.624192276349866" lon="-0.13503560699378278"><ele>55.66666666666667</ele><time>2026-04-19T16:07:02Z</time></trkpt><trkpt lat="45.62424787709227" lon="-0.13523180897024906"><ele>56.0</ele><time>2026-04-19T16:07:03Z</time></trkpt><trkpt lat="45.624288163301294" lon="-0.1354657839597177"><ele>56.0</ele><time>2026-04-19T16:07:04Z</time></trkpt><trkpt lat="45.624327182638986" lon="-0.13570032287697872"><ele>56.0</ele><time>2026-04-19T16:07:05Z</time></trkpt><trkpt lat="45.624405699327106" lon="-0.1358879332019597"><ele>56.0</ele><time>2026-04-19T16:07:06Z</time></trkpt><trkpt lat="45.62449354910328" lon="-0.13607263969452646"><ele>56.333333333333336</ele><time>2026-04-19T16:07:07Z</time></trkpt><trkpt lat="45.62460898620089" lon="-0.1362657045843803"><ele>56.66666666666667</ele><time>2026-04-19T16:07:08Z</time></trkpt><trkpt lat="45.624737871178404" lon="-0.13646405341118703"><ele>57.0</ele><time>2026-04-19T16:07:09Z</time></trkpt><trkpt lat="45.62486044165186" lon="-0.13665117603606405"><ele>57.0</ele><time>2026-04-19T16:07:10Z</time></trkpt><trkpt lat="45.62496788172863" lon="-0.13681159760445097"><ele>57.0</ele><time>2026-04-19T16:07:11Z</time></trkpt><trkpt lat="45.62504496347944" lon="-0.13695982036271184"><ele>57.0</ele><time>2026-04-19T16:07:12Z</time></trkpt><trkpt lat="45.62511903549465" lon="-0.13706971832755363"><ele>57.0</ele><time>2026-04-19T16:07:13Z</time></trkpt><trkpt lat="45.625182283152185" lon="-0.1371510128509788"><ele>57.0</ele><time>2026-04-19T16:07:14Z</time></trkpt><trkpt lat="45.62523440225062" lon="-0.13722975678733634"><ele>57.0</ele><time>2026-04-19T16:07:15Z</time></trkpt><trkpt lat="45.62528524319014" lon="-0.13731833241559163"><ele>57.0</ele><time>2026-04-19T16:07:16Z</time></trkpt><trkpt lat="45.62535249905031" lon="-0.1374511050724761"><ele>57.0</ele><time>2026-04-19T16:07:17Z</time></trkpt><trkpt lat="45.62543960386344" lon="-0.1375840320441026"><ele>57.0</ele><time>2026-04-19T16:07:18Z</time></trkpt><trkpt lat="45.62551648859931" lon="-0.13772940250235452"><ele>56.5</ele><time>2026-04-19T16:07:19Z</time></trkpt><trkpt lat="45.62559650655087" lon="-0.1378788575170061"><ele>56.0</ele><time>2026-04-19T16:07:20Z</time></trkpt><trkpt lat="45.62567370721629" lon="-0.13803448896562262"><ele>55.5</ele><time>2026-04-19T16:07:21Z</time></trkpt><trkpt lat="45.62575452369179" lon="-0.1381834005436305"><ele>55.0</ele><time>2026-04-19T16:07:22Z</time></trkpt><trkpt lat="45.625839471700026" lon="-0.13833046346962047"><ele>54.75</ele><time>2026-04-19T16:07:23Z</time></trkpt><trkpt lat="45.62592857697093" lon="-0.1384700479352953"><ele>54.5</ele><time>2026-04-19T16:07:24Z</time></trkpt><trkpt lat="45.62601676492361" lon="-0.13861427900742693"><ele>54.25</ele><time>2026-04-19T16:07:25Z</time></trkpt><trkpt lat="45.62609796048293" lon="-0.13875933531827103"><ele>54.0</ele><time>2026-04-19T16:07:26Z</time></trkpt><trkpt lat="45.62618059767847" lon="-0.13890733373366185"><ele>53.0</ele><time>2026-04-19T16:07:27Z</time></trkpt><trkpt lat="45.626255626679054" lon="-0.1390691391550032"><ele>52.0</ele><time>2026-04-19T16:07:28Z</time></trkpt><trkpt lat="45.62635198016572" lon="-0.13923326328131794"><ele>51.0</ele><time>2026-04-19T16:07:29Z</time></trkpt><trkpt lat="45.62644192608578" lon="-0.1394306381084848"><ele>51.0</ele><time>2026-04-19T16:07:30Z</time></trkpt><trkpt lat="45.626557812582725" lon="-0.13960959664672698"><ele>51.0</ele><time>2026-04-19T16:07:31Z</time></trkpt><trkpt lat="45.626647656631576" lon="-0.13977093981389868"><ele>51.0</ele><time>2026-04-19T16:07:32Z</time></trkpt><trkpt lat="45.626719980469915" lon="-0.1399362141413571"><ele>50.75</ele><time>2026-04-19T16:07:33Z</time></trkpt><trkpt lat="45.62681542323502" lon="-0.1400919015823867"><ele>50.5</ele><time>2026-04-19T16:07:34Z</time></trkpt><trkpt lat="45.62691303784985" lon="-0.14023844175028136"><ele>50.25</ele><time>2026-04-19T16:07:35Z</time></trkpt><trkpt lat="45.626994502768" lon="-0.14037996258203958"><ele>50.0</ele><time>2026-04-19T16:07:36Z</time></trkpt><trkpt lat="45.627072547413356" lon="-0.14049568384220726"><ele>50.0</ele><time>2026-04-19T16:07:37Z</time></trkpt><trkpt lat="45.62715384029749" lon="-0.14061999900745742"><ele>50.0</ele><time>2026-04-19T16:07:38Z</time></trkpt><trkpt lat="45.62724088137064" lon="-0.14075835645171747"><ele>50.0</ele><time>2026-04-19T16:07:39.001Z</time></trkpt><trkpt lat="45.62734136007621" lon="-0.14089293962854574"><ele>50.0</ele><time>2026-04-19T16:07:40.001Z</time></trkpt><trkpt lat="45.62745174556205" lon="-0.14103394422341176"><ele>50.0</ele><time>2026-04-19T16:07:41.001Z</time></trkpt><trkpt lat="45.62756863694081" lon="-0.14120544681663685"><ele>50.0</ele><time>2026-04-19T16:07:42.001Z</time></trkpt><trkpt lat="45.62768753923472" lon="-0.14133410472663854"><ele>50.0</ele><time>2026-04-19T16:07:43.001Z</time></trkpt><trkpt lat="45.6277927402983" lon="-0.1414717895127183"><ele>49.75</ele><time>2026-04-19T16:07:44.001Z</time></trkpt><trkpt lat="45.627885948634585" lon="-0.14160238639051684"><ele>49.5</ele><time>2026-04-19T16:07:45.001Z</time></trkpt><trkpt lat="45.62796326328765" lon="-0.14175003361859193"><ele>49.25</ele><time>2026-04-19T16:07:46.001Z</time></trkpt><trkpt lat="45.628055584887576" lon="-0.1419051402464603"><ele>49.0</ele><time>2026-04-19T16:07:47.001Z</time></trkpt><trkpt lat="45.628121739562" lon="-0.14204887906175365"><ele>49.0</ele><time>2026-04-19T16:07:48.001Z</time></trkpt><trkpt lat="45.62820112655973" lon="-0.1421790812240076"><ele>49.0</ele><time>2026-04-19T16:07:49.001Z</time></trkpt><trkpt lat="45.62829648360388" lon="-0.14234939887083994"><ele>49.0</ele><time>2026-04-19T16:07:50.001Z</time></trkpt><trkpt lat="45.62840300485757" lon="-0.14252457214049088"><ele>49.0</ele><time>2026-04-19T16:07:51.001Z</time></trkpt><trkpt lat="45.62850286094755" lon="-0.14268552974094212"><ele>49.666666666666664</ele><time>2026-04-19T16:07:52.001Z</time></trkpt><trkpt lat="45.62861554776692" lon="-0.14284890631573968"><ele>50.33333333333333</ele><time>2026-04-19T16:07:53.001Z</time></trkpt><trkpt lat="45.62873132737533" lon="-0.14300795762987403"><ele>51.0</ele><time>2026-04-19T16:07:54.001Z</time></trkpt><trkpt lat="45.62885180139414" lon="-0.143158498341521"><ele>51.25</ele><time>2026-04-19T16:07:55.001Z</time></trkpt><trkpt lat="45.6289614182851" lon="-0.14330883247014473"><ele>51.5</ele><time>2026-04-19T16:07:56.001Z</time></trkpt><trkpt lat="45.62906541522496" lon="-0.14342675845509356"><ele>51.75</ele><time>2026-04-19T16:07:57.001Z</time></trkpt><trkpt lat="45.629165891978865" lon="-0.1435373882390873"><ele>52.0</ele><time>2026-04-19T16:07:58.001Z</time></trkpt><trkpt lat="45.62926205840477" lon="-0.1436888499555655"><ele>52.0</ele><time>2026-04-19T16:07:59.001Z</time></trkpt><trkpt lat="45.62934934811512" lon="-0.14383567082072393"><ele>52.0</ele><time>2026-04-19T16:08:00.001Z</time></trkpt><trkpt lat="45.629447481752884" lon="-0.14396008246896966"><ele>52.0</ele><time>2026-04-19T16:08:01.001Z</time></trkpt><trkpt lat="45.629523986369804" lon="-0.1440774099397912"><ele>52.0</ele><time>2026-04-19T16:08:02.001Z</time></trkpt><trkpt lat="45.62960192926576" lon="-0.14420369479838005"><ele>52.0</ele><time>2026-04-19T16:08:03.001Z</time></trkpt><trkpt lat="45.629672294849634" lon="-0.14431200904651845"><ele>52.0</ele><time>2026-04-19T16:08:04.001Z</time></trkpt><trkpt lat="45.629744847663574" lon="-0.1444396797566207"><ele>52.0</ele><time>2026-04-19T16:08:05.001Z</time></trkpt><trkpt lat="45.62982891302801" lon="-0.14458366054147825"><ele>52.0</ele><time>2026-04-19T16:08:06.001Z</time></trkpt><trkpt lat="45.629914576784174" lon="-0.14471244137146264"><ele>52.0</ele><time>2026-04-19T16:08:07.001Z</time></trkpt><trkpt lat="45.62998821258773" lon="-0.1448452231574159"><ele>52.0</ele><time>2026-04-19T16:08:08.001Z</time></trkpt><trkpt lat="45.630065784599665" lon="-0.14498852560143502"><ele>52.0</ele><time>2026-04-19T16:08:09.001Z</time></trkpt><trkpt lat="45.630144735334895" lon="-0.14513300278507682"><ele>52.0</ele><time>2026-04-19T16:08:10.001Z</time></trkpt><trkpt lat="45.63022717096395" lon="-0.14528440487605324"><ele>52.0</ele><time>2026-04-19T16:08:11.001Z</time></trkpt><trkpt lat="45.630310126297815" lon="-0.14542745369428972"><ele>52.0</ele><time>2026-04-19T16:08:12.001Z</time></trkpt><trkpt lat="45.63038795269302" lon="-0.14557084389363728"><ele>52.0</ele><time>2026-04-19T16:08:13.001Z</time></trkpt><trkpt lat="45.63047891484949" lon="-0.14571997596693548"><ele>52.0</ele><time>2026-04-19T16:08:14.001Z</time></trkpt><trkpt lat="45.63056647344407" lon="-0.1458994596805113"><ele>52.0</ele><time>2026-04-19T16:08:15.001Z</time></trkpt><trkpt lat="45.63067158134019" lon="-0.14608087033439293"><ele>52.0</ele><time>2026-04-19T16:08:16.001Z</time></trkpt><trkpt lat="45.63076503720039" lon="-0.14625198520413293"><ele>52.0</ele><time>2026-04-19T16:08:17.001Z</time></trkpt><trkpt lat="45.630847015064035" lon="-0.146398279526366"><ele>52.0</ele><time>2026-04-19T16:08:18.001Z</time></trkpt><trkpt lat="45.63092256001212" lon="-0.14653754210394182"><ele>52.0</ele><time>2026-04-19T16:08:19.001Z</time></trkpt><trkpt lat="45.63098189229989" lon="-0.14668736215776773"><ele>52.0</ele><time>2026-04-19T16:08:20.001Z</time></trkpt><trkpt lat="45.631050223153174" lon="-0.1468049758492996"><ele>52.0</ele><time>2026-04-19T16:08:21.001Z</time></trkpt><trkpt lat="45.6311008860989" lon="-0.1469311409482298"><ele>52.0</ele><time>2026-04-19T16:08:22.001Z</time></trkpt><trkpt lat="45.63114415498162" lon="-0.147053268242384"><ele>52.0</ele><time>2026-04-19T16:08:23.001Z</time></trkpt><trkpt lat="45.63119495141653" lon="-0.14718794052273243"><ele>51.75</ele><time>2026-04-19T16:08:24.001Z</time></trkpt><trkpt lat="45.631247038121245" lon="-0.1473373152029949"><ele>51.5</ele><time>2026-04-19T16:08:25.001Z</time></trkpt><trkpt lat="45.63130749407943" lon="-0.14752070307993978"><ele>51.25</ele><time>2026-04-19T16:08:26.001Z</time></trkpt><trkpt lat="45.63136969793997" lon="-0.14771317641629986"><ele>51.0</ele><time>2026-04-19T16:08:27.001Z</time></trkpt><trkpt lat="45.63142171372698" lon="-0.14788762649547646"><ele>50.75</ele><time>2026-04-19T16:08:28.001Z</time></trkpt><trkpt lat="45.6314734310772" lon="-0.1480449554375979"><ele>50.5</ele><time>2026-04-19T16:08:29.001Z</time></trkpt><trkpt lat="45.63152275045565" lon="-0.148199067209382"><ele>50.25</ele><time>2026-04-19T16:08:30.001Z</time></trkpt><trkpt lat="45.631587374139905" lon="-0.1483329609237402"><ele>50.0</ele><time>2026-04-19T16:08:31.001Z</time></trkpt><trkpt lat="45.63164023963765" lon="-0.14847089699043164"><ele>50.0</ele><time>2026-04-19T16:08:32.001Z</time></trkpt><trkpt lat="45.63168821151661" lon="-0.14859606469559453"><ele>50.0</ele><time>2026-04-19T16:08:33.001Z</time></trkpt><trkpt lat="45.63173784344516" lon="-0.14872743317674406"><ele>50.0</ele><time>2026-04-19T16:08:34.001Z</time></trkpt><trkpt lat="45.631766535635066" lon="-0.14886056461200758"><ele>50.0</ele><time>2026-04-19T16:08:35.001Z</time></trkpt><trkpt lat="45.63182376633955" lon="-0.14898947759315"><ele>50.0</ele><time>2026-04-19T16:08:36.001Z</time></trkpt><trkpt lat="45.63186488587802" lon="-0.1491321864448463"><ele>49.0</ele><time>2026-04-19T16:08:37.001Z</time></trkpt><trkpt lat="45.631895979504456" lon="-0.14929323237826053"><ele>48.0</ele><time>2026-04-19T16:08:38.001Z</time></trkpt><trkpt lat="45.63194465139444" lon="-0.1494529164784699"><ele>47.0</ele><time>2026-04-19T16:08:39.001Z</time></trkpt><trkpt lat="45.63198324657303" lon="-0.14961695237655187"><ele>46.0</ele><time>2026-04-19T16:08:40Z</time></trkpt><trkpt lat="45.63203060404978" lon="-0.1497856336002615"><ele>45.4</ele><time>2026-04-19T16:08:41Z</time></trkpt><trkpt lat="45.63207271986204" lon="-0.14994686769694016"><ele>44.8</ele><time>2026-04-19T16:08:42Z</time></trkpt><trkpt lat="45.632107198599414" lon="-0.1500966597086767"><ele>44.199999999999996</ele><time>2026-04-19T16:08:43Z</time></trkpt><trkpt lat="45.632136998607265" lon="-0.15024791858003322"><ele>43.599999999999994</ele><time>2026-04-19T16:08:44Z</time></trkpt><trkpt lat="45.63216307608875" lon="-0.15037403351363415"><ele>43.0</ele><time>2026-04-19T16:08:45Z</time></trkpt><trkpt lat="45.632185882323355" lon="-0.15051340338347288"><ele>43.0</ele><time>2026-04-19T16:08:46Z</time></trkpt><trkpt lat="45.63221012967645" lon="-0.1506480812814633"><ele>43.0</ele><time>2026-04-19T16:08:47Z</time></trkpt><trkpt lat="45.632233023890365" lon="-0.15080627389362405"><ele>43.0</ele><time>2026-04-19T16:08:48Z</time></trkpt><trkpt lat="45.63226527883249" lon="-0.15097792180735717"><ele>43.0</ele><time>2026-04-19T16:08:49Z</time></trkpt><trkpt lat="45.63230582977565" lon="-0.1511703019665055"><ele>42.25</ele><time>2026-04-19T16:08:50Z</time></trkpt><trkpt lat="45.63234713063034" lon="-0.15136925475512958"><ele>41.5</ele><time>2026-04-19T16:08:51Z</time></trkpt><trkpt lat="45.632377808170276" lon="-0.1515422938100326"><ele>40.75</ele><time>2026-04-19T16:08:52Z</time></trkpt><trkpt lat="45.63241899554595" lon="-0.15169874072425757"><ele>40.0</ele><time>2026-04-19T16:08:53Z</time></trkpt><trkpt lat="45.6324388936702" lon="-0.15184483213958944"><ele>40.0</ele><time>2026-04-19T16:08:54Z</time></trkpt><trkpt lat="45.63246036994068" lon="-0.15197050766941073"><ele>40.0</ele><time>2026-04-19T16:08:55Z</time></trkpt><trkpt lat="45.632489094303594" lon="-0.15206174118537155"><ele>40.0</ele><time>2026-04-19T16:08:56Z</time></trkpt><trkpt lat="45.63251557462971" lon="-0.15219484014458112"><ele>40.0</ele><time>2026-04-19T16:08:58Z</time></trkpt><trkpt lat="45.632526473800574" lon="-0.15228977529362434"><ele>40.0</ele><time>2026-04-19T16:08:59Z</time></trkpt><trkpt lat="45.63254083314353" lon="-0.15238614826519706"><ele>40.0</ele><time>2026-04-19T16:09:00Z</time></trkpt><trkpt lat="45.63255473167983" lon="-0.15247441364431494"><ele>39.4</ele><time>2026-04-19T16:09:01Z</time></trkpt><trkpt lat="45.632576934623394" lon="-0.15262637022035658"><ele>38.8</ele><time>2026-04-19T16:09:03Z</time></trkpt><trkpt lat="45.63260729927269" lon="-0.15278676175680234"><ele>38.2</ele><time>2026-04-19T16:09:05Z</time></trkpt><trkpt lat="45.63263647684385" lon="-0.15296898065064155"><ele>37.6</ele><time>2026-04-19T16:09:07Z</time></trkpt><trkpt lat="45.63265233609815" lon="-0.15307075679123397"><ele>37.0</ele><time>2026-04-19T16:09:08Z</time></trkpt><trkpt lat="45.63266906174401" lon="-0.15318580110209845"><ele>36.66666666666667</ele><time>2026-04-19T16:09:09Z</time></trkpt><trkpt lat="45.63268484783491" lon="-0.15329698608437975"><ele>36.333333333333336</ele><time>2026-04-19T16:09:10Z</time></trkpt><trkpt lat="45.632693277209505" lon="-0.15338735607706647"><ele>36.0</ele><time>2026-04-19T16:09:11Z</time></trkpt><trkpt lat="45.63272039934362" lon="-0.1534705457933236"><ele>35.666666666666664</ele><time>2026-04-19T16:09:12Z</time></trkpt><trkpt lat="45.63273829221676" lon="-0.15357568997482596"><ele>35.33333333333333</ele><time>2026-04-19T16:09:13Z</time></trkpt><trkpt lat="45.63275889530136" lon="-0.1536967601996638"><ele>35.0</ele><time>2026-04-19T16:09:14Z</time></trkpt><trkpt lat="45.63277917922434" lon="-0.15381669128528444"><ele>35.0</ele><time>2026-04-19T16:09:15Z</time></trkpt><trkpt lat="45.63279898584314" lon="-0.1539396840355995"><ele>35.0</ele><time>2026-04-19T16:09:16Z</time></trkpt><trkpt lat="45.632807020358676" lon="-0.1540616923630626"><ele>35.0</ele><time>2026-04-19T16:09:17Z</time></trkpt><trkpt lat="45.632832755531" lon="-0.15418016948724553"><ele>35.0</ele><time>2026-04-19T16:09:18Z</time></trkpt><trkpt lat="45.63286073518251" lon="-0.1543116950085263"><ele>35.0</ele><time>2026-04-19T16:09:19Z</time></trkpt><trkpt lat="45.63288550536836" lon="-0.15444464532993868"><ele>34.83333333333333</ele><time>2026-04-19T16:09:20Z</time></trkpt><trkpt lat="45.63291121043076" lon="-0.15456815436974108"><ele>34.666666666666664</ele><time>2026-04-19T16:09:21Z</time></trkpt><trkpt lat="45.63293933353493" lon="-0.15468776061395761"><ele>34.5</ele><time>2026-04-19T16:09:22Z</time></trkpt><trkpt lat="45.63296645235664" lon="-0.1548095113363446"><ele>34.333333333333336</ele><time>2026-04-19T16:09:23.001Z</time></trkpt><trkpt lat="45.6330023636352" lon="-0.15492924114903944"><ele>34.16666666666667</ele><time>2026-04-19T16:09:24.001Z</time></trkpt><trkpt lat="45.633038206966916" lon="-0.15504619493693253"><ele>34.0</ele><time>2026-04-19T16:09:25.001Z</time></trkpt><trkpt lat="45.633072327500855" lon="-0.1551606632652539"><ele>34.0</ele><time>2026-04-19T16:09:26.001Z</time></trkpt><trkpt lat="45.633102673578506" lon="-0.15527669523691162"><ele>34.0</ele><time>2026-04-19T16:09:27.001Z</time></trkpt><trkpt lat="45.63313811894487" lon="-0.15539668881350843"><ele>34.0</ele><time>2026-04-19T16:09:28.001Z</time></trkpt><trkpt lat="45.63317939560732" lon="-0.1555151625013727"><ele>34.0</ele><time>2026-04-19T16:09:29.001Z</time></trkpt><trkpt lat="45.63321830922601" lon="-0.15564883010331146"><ele>34.0</ele><time>2026-04-19T16:09:30.001Z</time></trkpt><trkpt lat="45.63325640441438" lon="-0.15576815440663563"><ele>33.8</ele><time>2026-04-19T16:09:31.001Z</time></trkpt><trkpt lat="45.63329460509593" lon="-0.1558892858970313"><ele>33.599999999999994</ele><time>2026-04-19T16:09:32.001Z</time></trkpt><trkpt lat="45.63333327734271" lon="-0.156014809338539"><ele>33.4</ele><time>2026-04-19T16:09:33.001Z</time></trkpt><trkpt lat="45.63337365154382" lon="-0.15613931969955644"><ele>33.199999999999996</ele><time>2026-04-19T16:09:34.001Z</time></trkpt><trkpt lat="45.63341039137837" lon="-0.15627160482192004"><ele>33.0</ele><time>2026-04-19T16:09:35.001Z</time></trkpt><trkpt lat="45.633443186195066" lon="-0.15639390315149074"><ele>33.0</ele><time>2026-04-19T16:09:36.001Z</time></trkpt><trkpt lat="45.63347486391532" lon="-0.15650483084843003"><ele>33.0</ele><time>2026-04-19T16:09:37.001Z</time></trkpt><trkpt lat="45.63350418984782" lon="-0.15661790802307232"><ele>33.0</ele><time>2026-04-19T16:09:38.001Z</time></trkpt><trkpt lat="45.6335313404815" lon="-0.1567239720677318"><ele>33.0</ele><time>2026-04-19T16:09:39.001Z</time></trkpt><trkpt lat="45.63356478842363" lon="-0.15683511975761322"><ele>33.0</ele><time>2026-04-19T16:09:40.001Z</time></trkpt><trkpt lat="45.633596836691225" lon="-0.15695899076337463"><ele>33.0</ele><time>2026-04-19T16:09:41.001Z</time></trkpt><trkpt lat="45.633628947184896" lon="-0.15707289222380513"><ele>32.8</ele><time>2026-04-19T16:09:42.001Z</time></trkpt><trkpt lat="45.63365779577527" lon="-0.15720333863526725"><ele>32.599999999999994</ele><time>2026-04-19T16:09:43.001Z</time></trkpt><trkpt lat="45.63370278980864" lon="-0.15733620932338488"><ele>32.400000000000006</ele><time>2026-04-19T16:09:44.001Z</time></trkpt><trkpt lat="45.633730726922394" lon="-0.15748324378528547"><ele>32.2</ele><time>2026-04-19T16:09:45.001Z</time></trkpt><trkpt lat="45.63373649565033" lon="-0.15764135575152663"><ele>32.0</ele><time>2026-04-19T16:09:46.001Z</time></trkpt><trkpt lat="45.63377228508149" lon="-0.15778130797353396"><ele>32.0</ele><time>2026-04-19T16:09:47.001Z</time></trkpt><trkpt lat="45.63378662875641" lon="-0.15791783744690463"><ele>32.0</ele><time>2026-04-19T16:09:48.001Z</time></trkpt><trkpt lat="45.63380637606107" lon="-0.15805805900695793"><ele>32.0</ele><time>2026-04-19T16:09:49.001Z</time></trkpt><trkpt lat="45.633827448928926" lon="-0.1582052453592401"><ele>32.0</ele><time>2026-04-19T16:09:50.001Z</time></trkpt><trkpt lat="45.63383937854116" lon="-0.1583528516156743"><ele>32.0</ele><time>2026-04-19T16:09:51.001Z</time></trkpt><trkpt lat="45.63385381451442" lon="-0.15849859350445425"><ele>32.0</ele><time>2026-04-19T16:09:52.001Z</time></trkpt><trkpt lat="45.63384846673487" lon="-0.15864477907133662"><ele>32.0</ele><time>2026-04-19T16:09:53.001Z</time></trkpt><trkpt lat="45.633842877105664" lon="-0.15878532731809294"><ele>32.0</ele><time>2026-04-19T16:09:54.001Z</time></trkpt><trkpt lat="45.63383338929661" lon="-0.15891304425757952"><ele>32.0</ele><time>2026-04-19T16:09:55.001Z</time></trkpt><trkpt lat="45.633825428367736" lon="-0.15902781127809892"><ele>32.0</ele><time>2026-04-19T16:09:56.001Z</time></trkpt><trkpt lat="45.63381532064281" lon="-0.15914979245804783"><ele>31.999999999999996</ele><time>2026-04-19T16:09:57.001Z</time></trkpt><trkpt lat="45.6338076011897" lon="-0.15928143144631407"><ele>32.0</ele><time>2026-04-19T16:09:58.001Z</time></trkpt><trkpt lat="45.63380502898798" lon="-0.15939557242281258"><ele>32.0</ele><time>2026-04-19T16:09:59.001Z</time></trkpt><trkpt lat="45.63379397771415" lon="-0.1595072081537541"><ele>32.0</ele><time>2026-04-19T16:10:00.001Z</time></trkpt><trkpt lat="45.63379110473517" lon="-0.15962058372665638"><ele>31.999999999999996</ele><time>2026-04-19T16:10:01.001Z</time></trkpt><trkpt lat="45.6337866300976" lon="-0.15972933091640362"><ele>32.0</ele><time>2026-04-19T16:10:02.001Z</time></trkpt><trkpt lat="45.633776415518504" lon="-0.15983284230127043"><ele>31.833333333333332</ele><time>2026-04-19T16:10:03.001Z</time></trkpt><trkpt lat="45.63376869945294" lon="-0.1599329446628526"><ele>31.666666666666664</ele><time>2026-04-19T16:10:04.001Z</time></trkpt><trkpt lat="45.633762773194235" lon="-0.16003080937417669"><ele>31.5</ele><time>2026-04-19T16:10:05.001Z</time></trkpt><trkpt lat="45.63375480605232" lon="-0.16012765978249"><ele>31.333333333333336</ele><time>2026-04-19T16:10:06.001Z</time></trkpt><trkpt lat="45.633740622979914" lon="-0.16029509111735044"><ele>31.166666666666668</ele><time>2026-04-19T16:10:08.001Z</time></trkpt><trkpt lat="45.63372651249061" lon="-0.1604486298608268"><ele>31.0</ele><time>2026-04-19T16:10:10.001Z</time></trkpt><trkpt lat="45.63373752137534" lon="-0.1606051417936202"><ele>30.8</ele><time>2026-04-19T16:10:12.001Z</time></trkpt><trkpt lat="45.633720727695334" lon="-0.16076097628643315"><ele>30.6</ele><time>2026-04-19T16:10:14.001Z</time></trkpt><trkpt lat="45.633724191658644" lon="-0.16085647369408454"><ele>30.4</ele><time>2026-04-19T16:10:15.001Z</time></trkpt><trkpt lat="45.63371642321705" lon="-0.1609669204906582"><ele>30.2</ele><time>2026-04-19T16:10:16.001Z</time></trkpt><trkpt lat="45.633720326407136" lon="-0.16110565567973384"><ele>30.0</ele><time>2026-04-19T16:10:17.001Z</time></trkpt><trkpt lat="45.63373425905067" lon="-0.16125023143371234"><ele>30.0</ele><time>2026-04-19T16:10:18.001Z</time></trkpt><trkpt lat="45.63376973997086" lon="-0.16141684516538024"><ele>30.0</ele><time>2026-04-19T16:10:19.001Z</time></trkpt><trkpt lat="45.63377828267491" lon="-0.1615677549377024"><ele>30.0</ele><time>2026-04-19T16:10:20.001Z</time></trkpt><trkpt lat="45.63379177686452" lon="-0.16170461259935381"><ele>30.0</ele><time>2026-04-19T16:10:21.001Z</time></trkpt><trkpt lat="45.63380357351641" lon="-0.16184112844209197"><ele>30.0</ele><time>2026-04-19T16:10:22.001Z</time></trkpt><trkpt lat="45.633820472671324" lon="-0.16198094074618877"><ele>29.75</ele><time>2026-04-19T16:10:23.001Z</time></trkpt><trkpt lat="45.63383446331257" lon="-0.16213445189755774"><ele>29.5</ele><time>2026-04-19T16:10:24.001Z</time></trkpt><trkpt lat="45.63385266988009" lon="-0.16228947419124948"><ele>29.25</ele><time>2026-04-19T16:10:25.001Z</time></trkpt><trkpt lat="45.63386663694926" lon="-0.1624581295744066"><ele>29.0</ele><time>2026-04-19T16:10:26.001Z</time></trkpt><trkpt lat="45.63388999738763" lon="-0.16262611225084853"><ele>29.0</ele><time>2026-04-19T16:10:27.001Z</time></trkpt><trkpt lat="45.63389908926084" lon="-0.16279652676468848"><ele>29.0</ele><time>2026-04-19T16:10:28.001Z</time></trkpt><trkpt lat="45.63390896370453" lon="-0.16298160948788712"><ele>29.0</ele><time>2026-04-19T16:10:29.001Z</time></trkpt><trkpt lat="45.63392023762051" lon="-0.1631661557364107"><ele>29.0</ele><time>2026-04-19T16:10:30.001Z</time></trkpt><trkpt lat="45.63393016296054" lon="-0.16335167361338154"><ele>29.0</ele><time>2026-04-19T16:10:31.001Z</time></trkpt><trkpt lat="45.63394445158542" lon="-0.16354095929511156"><ele>29.0</ele><time>2026-04-19T16:10:32.001Z</time></trkpt><trkpt lat="45.63394798085045" lon="-0.16372483691932982"><ele>29.0</ele><time>2026-04-19T16:10:33.001Z</time></trkpt><trkpt lat="45.63397828493153" lon="-0.163905248180416"><ele>29.0</ele><time>2026-04-19T16:10:34.001Z</time></trkpt><trkpt lat="45.63401798974244" lon="-0.16408343262614472"><ele>29.5</ele><time>2026-04-19T16:10:35.001Z</time></trkpt><trkpt lat="45.63405050464435" lon="-0.16426897116376174"><ele>30.0</ele><time>2026-04-19T16:10:36.001Z</time></trkpt><trkpt lat="45.63408926499106" lon="-0.1644527897245772"><ele>30.5</ele><time>2026-04-19T16:10:37.001Z</time></trkpt><trkpt lat="45.63412169518465" lon="-0.1646252512320975"><ele>31.0</ele><time>2026-04-19T16:10:38.001Z</time></trkpt><trkpt lat="45.63415519850206" lon="-0.16480543125771888"><ele>31.25</ele><time>2026-04-19T16:10:39.001Z</time></trkpt><trkpt lat="45.634186357303726" lon="-0.16500236316217307"><ele>31.5</ele><time>2026-04-19T16:10:40.001Z</time></trkpt><trkpt lat="45.63422558796286" lon="-0.1651972096412903"><ele>31.75</ele><time>2026-04-19T16:10:41.001Z</time></trkpt><trkpt lat="45.6342561307358" lon="-0.16538353480213666"><ele>32.0</ele><time>2026-04-19T16:10:42.001Z</time></trkpt><trkpt lat="45.63429170130285" lon="-0.16557915602358925"><ele>33.0</ele><time>2026-04-19T16:10:43.001Z</time></trkpt><trkpt lat="45.63433530133552" lon="-0.16579652023951222"><ele>34.0</ele><time>2026-04-19T16:10:44.001Z</time></trkpt><trkpt lat="45.63438534023946" lon="-0.1660594015855045"><ele>35.0</ele><time>2026-04-19T16:10:45.001Z</time></trkpt><trkpt lat="45.63442898720399" lon="-0.16632746661355216"><ele>35.0</ele><time>2026-04-19T16:10:46.001Z</time></trkpt><trkpt lat="45.63446394575696" lon="-0.16654635365550022"><ele>35.0</ele><time>2026-04-19T16:10:47.001Z</time></trkpt><trkpt lat="45.63451473137563" lon="-0.166742319091667"><ele>35.0</ele><time>2026-04-19T16:10:48.001Z</time></trkpt><trkpt lat="45.634546811942656" lon="-0.16693527347395296"><ele>35.0</ele><time>2026-04-19T16:10:49.001Z</time></trkpt><trkpt lat="45.63456163177713" lon="-0.16711885558988632"><ele>35.0</ele><time>2026-04-19T16:10:50.001Z</time></trkpt><trkpt lat="45.634594972061024" lon="-0.1672993878590387"><ele>35.0</ele><time>2026-04-19T16:10:51.001Z</time></trkpt><trkpt lat="45.634622068106694" lon="-0.16747910661145018"><ele>35.0</ele><time>2026-04-19T16:10:52.001Z</time></trkpt><trkpt lat="45.634651952494536" lon="-0.1676896917673433"><ele>35.0</ele><time>2026-04-19T16:10:53.001Z</time></trkpt><trkpt lat="45.63468993580398" lon="-0.16790596158591684"><ele>35.0</ele><time>2026-04-19T16:10:54.001Z</time></trkpt><trkpt lat="45.634731122432434" lon="-0.16815567665099967"><ele>35.0</ele><time>2026-04-19T16:10:55.001Z</time></trkpt><trkpt lat="45.63477701690886" lon="-0.1683931853556181"><ele>35.0</ele><time>2026-04-19T16:10:56Z</time></trkpt><trkpt lat="45.63480302215689" lon="-0.16862826329612823"><ele>34.75</ele><time>2026-04-19T16:10:57Z</time></trkpt><trkpt lat="45.63483302838065" lon="-0.1688358544562698"><ele>34.5</ele><time>2026-04-19T16:10:58Z</time></trkpt><trkpt lat="45.6348672877416" lon="-0.16902845752422127"><ele>34.25</ele><time>2026-04-19T16:10:59Z</time></trkpt><trkpt lat="45.63489813429332" lon="-0.16923755223644651"><ele>34.0</ele><time>2026-04-19T16:11:00Z</time></trkpt><trkpt lat="45.634934845449365" lon="-0.16943571008145558"><ele>34.0</ele><time>2026-04-19T16:11:01Z</time></trkpt><trkpt lat="45.63497393590103" lon="-0.16962015426086285"><ele>34.0</ele><time>2026-04-19T16:11:02Z</time></trkpt><trkpt lat="45.635015610207006" lon="-0.16978952494641406"><ele>34.0</ele><time>2026-04-19T16:11:03Z</time></trkpt><trkpt lat="45.63505969656743" lon="-0.16993728401037173"><ele>34.0</ele><time>2026-04-19T16:11:04Z</time></trkpt><trkpt lat="45.63511046273454" lon="-0.1700903416388168"><ele>34.0</ele><time>2026-04-19T16:11:05Z</time></trkpt><trkpt lat="45.63516645154826" lon="-0.17025528894042818"><ele>34.0</ele><time>2026-04-19T16:11:06Z</time></trkpt><trkpt lat="45.63522608211744" lon="-0.1704306249793762"><ele>34.0</ele><time>2026-04-19T16:11:07Z</time></trkpt><trkpt lat="45.635285172544265" lon="-0.17061663439922428"><ele>34.0</ele><time>2026-04-19T16:11:08Z</time></trkpt><trkpt lat="45.635350093523186" lon="-0.17081032751386177"><ele>34.25</ele><time>2026-04-19T16:11:09Z</time></trkpt><trkpt lat="45.63540643501763" lon="-0.1709864111347161"><ele>34.5</ele><time>2026-04-19T16:11:10Z</time></trkpt><trkpt lat="45.63546442839784" lon="-0.17116244534928238"><ele>34.75</ele><time>2026-04-19T16:11:11Z</time></trkpt><trkpt lat="45.63551793941624" lon="-0.17133576987001306"><ele>35.0</ele><time>2026-04-19T16:11:12Z</time></trkpt><trkpt lat="45.6355692034834" lon="-0.1715036834461056"><ele>34.83333333333333</ele><time>2026-04-19T16:11:13Z</time></trkpt><trkpt lat="45.63561578562818" lon="-0.17164926678926418"><ele>34.666666666666664</ele><time>2026-04-19T16:11:14Z</time></trkpt><trkpt lat="45.63565453558209" lon="-0.17176941573206797"><ele>34.5</ele><time>2026-04-19T16:11:15Z</time></trkpt><trkpt lat="45.63568927019771" lon="-0.17187328876838343"><ele>34.333333333333336</ele><time>2026-04-19T16:11:16Z</time></trkpt><trkpt lat="45.63572112644521" lon="-0.1719763174588613"><ele>34.16666666666667</ele><time>2026-04-19T16:11:17Z</time></trkpt><trkpt lat="45.63575202618336" lon="-0.17208573664975055"><ele>34.0</ele><time>2026-04-19T16:11:18Z</time></trkpt><trkpt lat="45.63578741735013" lon="-0.17220967147940042"><ele>34.0</ele><time>2026-04-19T16:11:19Z</time></trkpt><trkpt lat="45.6358185028762" lon="-0.17232487782924769"><ele>34.0</ele><time>2026-04-19T16:11:20Z</time></trkpt><trkpt lat="45.63586429444057" lon="-0.1724374843822335"><ele>34.0</ele><time>2026-04-19T16:11:21Z</time></trkpt><trkpt lat="45.635894895573" lon="-0.17255388622053439"><ele>34.0</ele><time>2026-04-19T16:11:22Z</time></trkpt><trkpt lat="45.63591392879278" lon="-0.17269593492473032"><ele>34.0</ele><time>2026-04-19T16:11:23Z</time></trkpt><trkpt lat="45.6359592143054" lon="-0.17283782147946342"><ele>33.75</ele><time>2026-04-19T16:11:24Z</time></trkpt><trkpt lat="45.63599290404277" lon="-0.17297599722450066"><ele>33.5</ele><time>2026-04-19T16:11:25.001Z</time></trkpt><trkpt lat="45.63603006620932" lon="-0.17312923463325441"><ele>33.25</ele><time>2026-04-19T16:11:26.001Z</time></trkpt><trkpt lat="45.636072830264546" lon="-0.1732848498068423"><ele>33.0</ele><time>2026-04-19T16:11:27.001Z</time></trkpt><trkpt lat="45.63611390439334" lon="-0.17345141435659098"><ele>32.6</ele><time>2026-04-19T16:11:28.001Z</time></trkpt><trkpt lat="45.63617253178505" lon="-0.17361222261641066"><ele>32.199999999999996</ele><time>2026-04-19T16:11:29.001Z</time></trkpt><trkpt lat="45.63621882160375" lon="-0.17376542989142157"><ele>31.8</ele><time>2026-04-19T16:11:30.001Z</time></trkpt><trkpt lat="45.63625903771782" lon="-0.17390112725324547"><ele>31.4</ele><time>2026-04-19T16:11:31.001Z</time></trkpt><trkpt lat="45.63628598914507" lon="-0.17403703664058923"><ele>31.0</ele><time>2026-04-19T16:11:32.001Z</time></trkpt><trkpt lat="45.63632924335706" lon="-0.1741540641108338"><ele>31.000000000000004</ele><time>2026-04-19T16:11:33.001Z</time></trkpt><trkpt lat="45.63636178875351" lon="-0.17424581845496018"><ele>31.0</ele><time>2026-04-19T16:11:34.001Z</time></trkpt><trkpt lat="45.636389638203376" lon="-0.17433794293802835"><ele>31.0</ele><time>2026-04-19T16:11:36.001Z</time></trkpt><trkpt lat="45.636440274436005" lon="-0.1744622000003328"><ele>31.0</ele><time>2026-04-19T16:11:44.001Z</time></trkpt><trkpt lat="45.63646908512132" lon="-0.17457615753330666"><ele>31.000000000000004</ele><time>2026-04-19T16:11:45.001Z</time></trkpt><trkpt lat="45.636501942454906" lon="-0.17471046835130757"><ele>31.0</ele><time>2026-04-19T16:11:46.001Z</time></trkpt><trkpt lat="45.63654214189049" lon="-0.17487479147522744"><ele>31.333333333333336</ele><time>2026-04-19T16:11:47.001Z</time></trkpt><trkpt lat="45.63659220741646" lon="-0.17507944418837296"><ele>31.666666666666664</ele><time>2026-04-19T16:11:48.001Z</time></trkpt><trkpt lat="45.63665139481152" lon="-0.17531318299894702"><ele>32.0</ele><time>2026-04-19T16:11:49.001Z</time></trkpt><trkpt lat="45.636715636346786" lon="-0.17555650755436242"><ele>31.666666666666664</ele><time>2026-04-19T16:11:50.001Z</time></trkpt><trkpt lat="45.6367733775273" lon="-0.17578769882056933"><ele>31.333333333333336</ele><time>2026-04-19T16:11:51.001Z</time></trkpt><trkpt lat="45.636831962458" lon="-0.17598652205570553"><ele>31.0</ele><time>2026-04-19T16:11:52.001Z</time></trkpt><trkpt lat="45.636888573688125" lon="-0.17618433048759963"><ele>31.0</ele><time>2026-04-19T16:11:53.001Z</time></trkpt><trkpt lat="45.63694887545275" lon="-0.17640342827781216"><ele>31.0</ele><time>2026-04-19T16:11:54.001Z</time></trkpt><trkpt lat="45.636998960515285" lon="-0.1766451418113636"><ele>31.0</ele><time>2026-04-19T16:11:55.001Z</time></trkpt><trkpt lat="45.63706266301208" lon="-0.17688741519325193"><ele>30.666666666666668</ele><time>2026-04-19T16:11:56.001Z</time></trkpt><trkpt lat="45.637142109186286" lon="-0.17710923064553016"><ele>30.333333333333336</ele><time>2026-04-19T16:11:57.001Z</time></trkpt><trkpt lat="45.63720968516996" lon="-0.17733995174331493"><ele>30.0</ele><time>2026-04-19T16:11:58.001Z</time></trkpt><trkpt lat="45.6372664112352" lon="-0.17759402369906285"><ele>30.0</ele><time>2026-04-19T16:11:59.001Z</time></trkpt><trkpt lat="45.63734361571306" lon="-0.1778335662546189"><ele>30.0</ele><time>2026-04-19T16:12:00.001Z</time></trkpt><trkpt lat="45.637411403498895" lon="-0.1780640383579568"><ele>30.0</ele><time>2026-04-19T16:12:01.001Z</time></trkpt><trkpt lat="45.63747699276374" lon="-0.17829324724384873"><ele>30.333333333333336</ele><time>2026-04-19T16:12:02.001Z</time></trkpt><trkpt lat="45.637542058823925" lon="-0.17850916152234722"><ele>30.666666666666668</ele><time>2026-04-19T16:12:03.001Z</time></trkpt><trkpt lat="45.637605892155776" lon="-0.1787254350472131"><ele>31.0</ele><time>2026-04-19T16:12:04.001Z</time></trkpt><trkpt lat="45.63767263475168" lon="-0.1789552893912456"><ele>30.666666666666668</ele><time>2026-04-19T16:12:05.001Z</time></trkpt><trkpt lat="45.6377401788844" lon="-0.17921283452858564"><ele>30.333333333333336</ele><time>2026-04-19T16:12:06.001Z</time></trkpt><trkpt lat="45.637810954815194" lon="-0.1794582546194934"><ele>30.0</ele><time>2026-04-19T16:12:07.001Z</time></trkpt><trkpt lat="45.63790198522417" lon="-0.17970772663646525"><ele>29.666666666666664</ele><time>2026-04-19T16:12:08.001Z</time></trkpt><trkpt lat="45.6379797508169" lon="-0.17996632227197848"><ele>29.333333333333332</ele><time>2026-04-19T16:12:09.001Z</time></trkpt><trkpt lat="45.63804600976886" lon="-0.18023690339581677"><ele>29.0</ele><time>2026-04-19T16:12:10.001Z</time></trkpt><trkpt lat="45.63813658727441" lon="-0.18051280880382656"><ele>28.333333333333332</ele><time>2026-04-19T16:12:11.001Z</time></trkpt><trkpt lat="45.63824442607701" lon="-0.18077492666024034"><ele>27.666666666666664</ele><time>2026-04-19T16:12:12.001Z</time></trkpt><trkpt lat="45.63833530249413" lon="-0.18104081617055806"><ele>27.0</ele><time>2026-04-19T16:12:13.001Z</time></trkpt><trkpt lat="45.63841685101611" lon="-0.1812820408518998"><ele>27.0</ele><time>2026-04-19T16:12:14.001Z</time></trkpt><trkpt lat="45.638500055947226" lon="-0.18154134436939354"><ele>27.0</ele><time>2026-04-19T16:12:15.001Z</time></trkpt><trkpt lat="45.638586032910226" lon="-0.18181224360135373"><ele>27.0</ele><time>2026-04-19T16:12:16.001Z</time></trkpt><trkpt lat="45.63866974732454" lon="-0.18207993332233405"><ele>27.333333333333336</ele><time>2026-04-19T16:12:17.001Z</time></trkpt><trkpt lat="45.63876051699954" lon="-0.18235761970826353"><ele>27.666666666666668</ele><time>2026-04-19T16:12:18.001Z</time></trkpt><trkpt lat="45.638853280148986" lon="-0.18264288142255475"><ele>28.0</ele><time>2026-04-19T16:12:19.001Z</time></trkpt><trkpt lat="45.63893814248822" lon="-0.18292580202026115"><ele>28.333333333333336</ele><time>2026-04-19T16:12:20.001Z</time></trkpt><trkpt lat="45.639016853597006" lon="-0.18320830469938884"><ele>28.666666666666664</ele><time>2026-04-19T16:12:21.001Z</time></trkpt><trkpt lat="45.63909234735261" lon="-0.1834817242520111"><ele>29.0</ele><time>2026-04-19T16:12:22.001Z</time></trkpt><trkpt lat="45.63916165272106" lon="-0.18373273104172066"><ele>29.0</ele><time>2026-04-19T16:12:23.001Z</time></trkpt><trkpt lat="45.639230343299566" lon="-0.18397207956334719"><ele>29.0</ele><time>2026-04-19T16:12:24.001Z</time></trkpt><trkpt lat="45.639306980375785" lon="-0.18421233592112238"><ele>29.0</ele><time>2026-04-19T16:12:25.001Z</time></trkpt><trkpt lat="45.639395142213075" lon="-0.1844626241517615"><ele>28.333333333333332</ele><time>2026-04-19T16:12:26.001Z</time></trkpt><trkpt lat="45.639483218240464" lon="-0.18470738791603755"><ele>27.666666666666664</ele><time>2026-04-19T16:12:27.001Z</time></trkpt><trkpt lat="45.63956189581175" lon="-0.184927020117746"><ele>27.0</ele><time>2026-04-19T16:12:28.001Z</time></trkpt><trkpt lat="45.639641518237646" lon="-0.1851520760640147"><ele>27.0</ele><time>2026-04-19T16:12:29.001Z</time></trkpt><trkpt lat="45.63972234363107" lon="-0.18536927903221542"><ele>27.0</ele><time>2026-04-19T16:12:30.001Z</time></trkpt><trkpt lat="45.63978711282271" lon="-0.1856024319043576"><ele>27.0</ele><time>2026-04-19T16:12:31.001Z</time></trkpt><trkpt lat="45.63982713370022" lon="-0.1858360754473488"><ele>27.333333333333336</ele><time>2026-04-19T16:12:32.001Z</time></trkpt><trkpt lat="45.63988216931469" lon="-0.18606354194188013"><ele>27.666666666666668</ele><time>2026-04-19T16:12:33.001Z</time></trkpt><trkpt lat="45.639938308616614" lon="-0.18629804340011066"><ele>28.0</ele><time>2026-04-19T16:12:34.001Z</time></trkpt><trkpt lat="45.639989357851576" lon="-0.1865138228246428"><ele>28.25</ele><time>2026-04-19T16:12:35.001Z</time></trkpt><trkpt lat="45.64003307555688" lon="-0.1867036740597298"><ele>28.5</ele><time>2026-04-19T16:12:36.001Z</time></trkpt><trkpt lat="45.64009299284764" lon="-0.18687791393753536"><ele>28.75</ele><time>2026-04-19T16:12:37.001Z</time></trkpt><trkpt lat="45.64011943801583" lon="-0.18705154213771458"><ele>29.0</ele><time>2026-04-19T16:12:38.001Z</time></trkpt><trkpt lat="45.64016924027268" lon="-0.1872108959075653"><ele>29.25</ele><time>2026-04-19T16:12:39.001Z</time></trkpt><trkpt lat="45.64021300695741" lon="-0.18737511773992213"><ele>29.5</ele><time>2026-04-19T16:12:40.001Z</time></trkpt><trkpt lat="45.640261804621794" lon="-0.18752467130359607"><ele>29.75</ele><time>2026-04-19T16:12:41.001Z</time></trkpt><trkpt lat="45.64031249650927" lon="-0.1876688831407111"><ele>30.0</ele><time>2026-04-19T16:12:42.001Z</time></trkpt><trkpt lat="45.64035397561057" lon="-0.18780110339440118"><ele>30.0</ele><time>2026-04-19T16:12:43.001Z</time></trkpt><trkpt lat="45.6404021001026" lon="-0.1879263379995371"><ele>30.0</ele><time>2026-04-19T16:12:44.001Z</time></trkpt><trkpt lat="45.640446239814615" lon="-0.18805904343149493"><ele>30.0</ele><time>2026-04-19T16:12:45.001Z</time></trkpt><trkpt lat="45.640484934970644" lon="-0.1882034682061067"><ele>30.0</ele><time>2026-04-19T16:12:46.001Z</time></trkpt><trkpt lat="45.640525980981494" lon="-0.18833734047788625"><ele>30.0</ele><time>2026-04-19T16:12:47.001Z</time></trkpt><trkpt lat="45.64057352656752" lon="-0.18847553573720094"><ele>30.0</ele><time>2026-04-19T16:12:48.001Z</time></trkpt><trkpt lat="45.64062836142881" lon="-0.18862094106292854"><ele>30.0</ele><time>2026-04-19T16:12:49.001Z</time></trkpt><trkpt lat="45.64067132333855" lon="-0.1887774883891574"><ele>30.0</ele><time>2026-04-19T16:12:50.001Z</time></trkpt><trkpt lat="45.64071382034876" lon="-0.1889434987103919"><ele>30.0</ele><time>2026-04-19T16:12:51.001Z</time></trkpt><trkpt lat="45.64075540546246" lon="-0.1891119685730103"><ele>29.666666666666668</ele><time>2026-04-19T16:12:52.001Z</time></trkpt><trkpt lat="45.640794372275096" lon="-0.1892760290672388"><ele>29.333333333333336</ele><time>2026-04-19T16:12:53.001Z</time></trkpt><trkpt lat="45.64080431496573" lon="-0.18939174352260263"><ele>29.0</ele><time>2026-04-19T16:12:54.001Z</time></trkpt><trkpt lat="45.64085278644381" lon="-0.18951173277945005"><ele>28.666666666666668</ele><time>2026-04-19T16:12:58.001Z</time></trkpt><trkpt lat="45.6408681774034" lon="-0.18960908854371536"><ele>28.333333333333336</ele><time>2026-04-19T16:12:59Z</time></trkpt><trkpt lat="45.640881133156654" lon="-0.18972172629546913"><ele>28.0</ele><time>2026-04-19T16:13:00Z</time></trkpt><trkpt lat="45.6409113975503" lon="-0.1898543292736618"><ele>28.0</ele><time>2026-04-19T16:13:01Z</time></trkpt><trkpt lat="45.64094439528558" lon="-0.1899918966655376"><ele>27.999999999999996</ele><time>2026-04-19T16:13:02Z</time></trkpt><trkpt lat="45.640978646045255" lon="-0.1901432162392386"><ele>27.999999999999996</ele><time>2026-04-19T16:13:03Z</time></trkpt><trkpt lat="45.64101463532653" lon="-0.19029840764295447"><ele>28.0</ele><time>2026-04-19T16:13:04Z</time></trkpt><trkpt lat="45.64105349253765" lon="-0.19044878841375565"><ele>28.0</ele><time>2026-04-19T16:13:05Z</time></trkpt><trkpt lat="45.641095632271345" lon="-0.190603789161343"><ele>27.599999999999998</ele><time>2026-04-19T16:13:06Z</time></trkpt><trkpt lat="45.641129865774445" lon="-0.19075867750218312"><ele>27.199999999999996</ele><time>2026-04-19T16:13:07Z</time></trkpt><trkpt lat="45.64116128097637" lon="-0.19091038860988782"><ele>26.8</ele><time>2026-04-19T16:13:08Z</time></trkpt><trkpt lat="45.6411941204911" lon="-0.1910612403109795"><ele>26.4</ele><time>2026-04-19T16:13:09Z</time></trkpt><trkpt lat="45.64122565789734" lon="-0.19120284254398986"><ele>26.0</ele><time>2026-04-19T16:13:10Z</time></trkpt><trkpt lat="45.641258550644366" lon="-0.19133211348093587"><ele>26.0</ele><time>2026-04-19T16:13:11Z</time></trkpt><trkpt lat="45.64128917102656" lon="-0.1914633459364686"><ele>26.0</ele><time>2026-04-19T16:13:12Z</time></trkpt><trkpt lat="45.64132141874652" lon="-0.1916041347283425"><ele>26.0</ele><time>2026-04-19T16:13:13Z</time></trkpt><trkpt lat="45.64135573892687" lon="-0.19175303415297004"><ele>26.0</ele><time>2026-04-19T16:13:14Z</time></trkpt><trkpt lat="45.64139005775579" lon="-0.19189834031164996"><ele>26.0</ele><time>2026-04-19T16:13:15Z</time></trkpt><trkpt lat="45.641430248227536" lon="-0.19204139095647063"><ele>25.8</ele><time>2026-04-19T16:13:16Z</time></trkpt><trkpt lat="45.64146109984707" lon="-0.19218168984160153"><ele>25.6</ele><time>2026-04-19T16:13:17Z</time></trkpt><trkpt lat="45.641489104485636" lon="-0.19232692903721402"><ele>25.4</ele><time>2026-04-19T16:13:18Z</time></trkpt><trkpt lat="45.64152095095715" lon="-0.19247174290795727"><ele>25.2</ele><time>2026-04-19T16:13:19Z</time></trkpt><trkpt lat="45.6415593440773" lon="-0.19260994589605768"><ele>25.0</ele><time>2026-04-19T16:13:20Z</time></trkpt><trkpt lat="45.64159483963972" lon="-0.19275079291330383"><ele>25.0</ele><time>2026-04-19T16:13:21Z</time></trkpt><trkpt lat="45.641626724796375" lon="-0.19289350743783262"><ele>25.0</ele><time>2026-04-19T16:13:22Z</time></trkpt><trkpt lat="45.64166050591658" lon="-0.19304008129694555"><ele>25.0</ele><time>2026-04-19T16:13:23Z</time></trkpt><trkpt lat="45.64169844680501" lon="-0.1931808304383041"><ele>25.0</ele><time>2026-04-19T16:13:24Z</time></trkpt><trkpt lat="45.6417339092503" lon="-0.1933215403642822"><ele>25.0</ele><time>2026-04-19T16:13:25Z</time></trkpt><trkpt lat="45.64176549771359" lon="-0.19346134664414313"><ele>25.000000000000004</ele><time>2026-04-19T16:13:26Z</time></trkpt><trkpt lat="45.64179325143356" lon="-0.1935961888262392"><ele>25.0</ele><time>2026-04-19T16:13:27Z</time></trkpt><trkpt lat="45.64182137605568" lon="-0.19371636458267819"><ele>25.0</ele><time>2026-04-19T16:13:28Z</time></trkpt><trkpt lat="45.64184979896981" lon="-0.19383288838236262"><ele>25.0</ele><time>2026-04-19T16:13:29Z</time></trkpt><trkpt lat="45.64187672773375" lon="-0.19393884363055863"><ele>25.000000000000004</ele><time>2026-04-19T16:13:30Z</time></trkpt><trkpt lat="45.641897018353724" lon="-0.1940396493048495"><ele>25.0</ele><time>2026-04-19T16:13:32Z</time></trkpt><trkpt lat="45.64193227955843" lon="-0.19419094959566843"><ele>25.2</ele><time>2026-04-19T16:13:43.001Z</time></trkpt><trkpt lat="45.64195458039206" lon="-0.19430191540506023"><ele>25.4</ele><time>2026-04-19T16:13:44.001Z</time></trkpt><trkpt lat="45.64198546078395" lon="-0.19443329955650146"><ele>25.6</ele><time>2026-04-19T16:13:45.001Z</time></trkpt><trkpt lat="45.642032627600955" lon="-0.19461094955278604"><ele>25.8</ele><time>2026-04-19T16:13:46.001Z</time></trkpt><trkpt lat="45.642101564481585" lon="-0.19478037813625532"><ele>26.0</ele><time>2026-04-19T16:13:47.001Z</time></trkpt><trkpt lat="45.64216534370083" lon="-0.19498629471506065"><ele>27.0</ele><time>2026-04-19T16:13:48.001Z</time></trkpt><trkpt lat="45.6422242160749" lon="-0.195176369184007"><ele>28.0</ele><time>2026-04-19T16:13:49.001Z</time></trkpt><trkpt lat="45.64227783601461" lon="-0.19534925953493876"><ele>29.0</ele><time>2026-04-19T16:13:50.001Z</time></trkpt><trkpt lat="45.64232666142615" lon="-0.1955062396418864"><ele>30.0</ele><time>2026-04-19T16:13:51.001Z</time></trkpt><trkpt lat="45.64237327251369" lon="-0.19565610034710043"><ele>30.0</ele><time>2026-04-19T16:13:52.001Z</time></trkpt><trkpt lat="45.64242292015822" lon="-0.1958097085341344"><ele>30.0</ele><time>2026-04-19T16:13:53.001Z</time></trkpt><trkpt lat="45.642456453202314" lon="-0.19596102961809778"><ele>30.0</ele><time>2026-04-19T16:13:54.001Z</time></trkpt><trkpt lat="45.64249728779816" lon="-0.1960916778450484"><ele>30.0</ele><time>2026-04-19T16:13:55.001Z</time></trkpt><trkpt lat="45.64254032426285" lon="-0.19622874075503072"><ele>30.0</ele><time>2026-04-19T16:13:56.001Z</time></trkpt><trkpt lat="45.642579183210884" lon="-0.19637547408370576"><ele>29.6</ele><time>2026-04-19T16:13:57.001Z</time></trkpt><trkpt lat="45.642606771030536" lon="-0.19652699000504184"><ele>29.2</ele><time>2026-04-19T16:13:58.001Z</time></trkpt><trkpt lat="45.64263874159196" lon="-0.19667980005263977"><ele>28.799999999999997</ele><time>2026-04-19T16:13:59.001Z</time></trkpt><trkpt lat="45.64268121188067" lon="-0.19681726483414655"><ele>28.4</ele><time>2026-04-19T16:14:00.001Z</time></trkpt><trkpt lat="45.64270503209906" lon="-0.19695285312804903"><ele>28.0</ele><time>2026-04-19T16:14:01.001Z</time></trkpt><trkpt lat="45.64274657391872" lon="-0.19708063302598192"><ele>28.0</ele><time>2026-04-19T16:14:02.001Z</time></trkpt><trkpt lat="45.6427778490345" lon="-0.19719710781803032"><ele>27.999999999999996</ele><time>2026-04-19T16:14:03.001Z</time></trkpt><trkpt lat="45.642798969838005" lon="-0.19733539002885123"><ele>27.999999999999996</ele><time>2026-04-19T16:14:04.001Z</time></trkpt><trkpt lat="45.6428450179286" lon="-0.19747151307791802"><ele>28.0</ele><time>2026-04-19T16:14:05.001Z</time></trkpt><trkpt lat="45.64288256916171" lon="-0.1976139569194992"><ele>28.0</ele><time>2026-04-19T16:14:06.001Z</time></trkpt><trkpt lat="45.64293136848849" lon="-0.19773747857126536"><ele>27.4</ele><time>2026-04-19T16:14:07.001Z</time></trkpt><trkpt lat="45.64294264726445" lon="-0.19787909307000412"><ele>26.799999999999997</ele><time>2026-04-19T16:14:08.001Z</time></trkpt><trkpt lat="45.64297087143119" lon="-0.19802370710565706"><ele>26.2</ele><time>2026-04-19T16:14:09.001Z</time></trkpt><trkpt lat="45.6429822165673" lon="-0.19816487177348538"><ele>25.6</ele><time>2026-04-19T16:14:10.001Z</time></trkpt><trkpt lat="45.64300982073009" lon="-0.19830557862146778"><ele>25.0</ele><time>2026-04-19T16:14:11.001Z</time></trkpt><trkpt lat="45.643037099755226" lon="-0.19844873323912054"><ele>25.0</ele><time>2026-04-19T16:14:12.001Z</time></trkpt><trkpt lat="45.643066352958876" lon="-0.19857778187868125"><ele>25.0</ele><time>2026-04-19T16:14:13.001Z</time></trkpt><trkpt lat="45.64310073920444" lon="-0.19870321460408613"><ele>25.0</ele><time>2026-04-19T16:14:14.001Z</time></trkpt><trkpt lat="45.6431318810526" lon="-0.19883741541035715"><ele>25.0</ele><time>2026-04-19T16:14:15.001Z</time></trkpt><trkpt lat="45.643165011438875" lon="-0.19897616548298064"><ele>25.0</ele><time>2026-04-19T16:14:16.001Z</time></trkpt><trkpt lat="45.64319555220471" lon="-0.19910797750107748"><ele>25.2</ele><time>2026-04-19T16:14:17.001Z</time></trkpt><trkpt lat="45.64322579227372" lon="-0.19924247793211566"><ele>25.4</ele><time>2026-04-19T16:14:18.001Z</time></trkpt><trkpt lat="45.64325307370301" lon="-0.19936356076060074"><ele>25.6</ele><time>2026-04-19T16:14:19.001Z</time></trkpt><trkpt lat="45.64329523241677" lon="-0.19949188216202363"><ele>25.8</ele><time>2026-04-19T16:14:20.001Z</time></trkpt><trkpt lat="45.6433277631918" lon="-0.1996311537938786"><ele>26.0</ele><time>2026-04-19T16:14:21.001Z</time></trkpt><trkpt lat="45.64336020577434" lon="-0.19976996641724618"><ele>25.8</ele><time>2026-04-19T16:14:22.001Z</time></trkpt><trkpt lat="45.64337481077572" lon="-0.1999134297484213"><ele>25.6</ele><time>2026-04-19T16:14:23.001Z</time></trkpt><trkpt lat="45.64342328907951" lon="-0.20005224776837247"><ele>25.4</ele><time>2026-04-19T16:14:24.001Z</time></trkpt><trkpt lat="45.64345653847046" lon="-0.2002010301168738"><ele>25.2</ele><time>2026-04-19T16:14:25.001Z</time></trkpt><trkpt lat="45.64349298696741" lon="-0.20036160998875083"><ele>25.0</ele><time>2026-04-19T16:14:26.001Z</time></trkpt><trkpt lat="45.6435351847953" lon="-0.200535960955046"><ele>25.333333333333336</ele><time>2026-04-19T16:14:27.001Z</time></trkpt><trkpt lat="45.6435827560436" lon="-0.20072325376436445"><ele>25.666666666666664</ele><time>2026-04-19T16:14:28.001Z</time></trkpt><trkpt lat="45.643629162550624" lon="-0.20092676791075448"><ele>26.0</ele><time>2026-04-19T16:14:29.001Z</time></trkpt><trkpt lat="45.64367905412075" lon="-0.20115581223187085"><ele>26.0</ele><time>2026-04-19T16:14:30.001Z</time></trkpt><trkpt lat="45.64372592851449" lon="-0.2013657931238631"><ele>26.0</ele><time>2026-04-19T16:14:31.001Z</time></trkpt><trkpt lat="45.64376644213005" lon="-0.20153339998637762"><ele>26.0</ele><time>2026-04-19T16:14:32.001Z</time></trkpt><trkpt lat="45.64379659275355" lon="-0.20168563381825794"><ele>26.0</ele><time>2026-04-19T16:14:33.001Z</time></trkpt><trkpt lat="45.64380352984414" lon="-0.20186791750019603"><ele>26.333333333333332</ele><time>2026-04-19T16:14:34.001Z</time></trkpt><trkpt lat="45.64381896487766" lon="-0.2020266559629676"><ele>26.666666666666664</ele><time>2026-04-19T16:14:35.001Z</time></trkpt><trkpt lat="45.643844076619324" lon="-0.20221000072562476"><ele>27.0</ele><time>2026-04-19T16:14:36.001Z</time></trkpt><trkpt lat="45.64387018036026" lon="-0.20251904722517736"><ele>27.0</ele><time>2026-04-19T16:14:38.001Z</time></trkpt><trkpt lat="45.64390790752826" lon="-0.20265672754669245"><ele>27.0</ele><time>2026-04-19T16:14:39.001Z</time></trkpt><trkpt lat="45.6439358248134" lon="-0.2028048649854048"><ele>27.0</ele><time>2026-04-19T16:14:40.001Z</time></trkpt><trkpt lat="45.643951371762704" lon="-0.20297059200132195"><ele>27.0</ele><time>2026-04-19T16:14:41.001Z</time></trkpt><trkpt lat="45.64399262418216" lon="-0.20313924164394292"><ele>27.0</ele><time>2026-04-19T16:14:42.001Z</time></trkpt><trkpt lat="45.64404637549567" lon="-0.20330837836010268"><ele>27.0</ele><time>2026-04-19T16:14:43.001Z</time></trkpt><trkpt lat="45.64409379905682" lon="-0.20346817496350963"><ele>27.0</ele><time>2026-04-19T16:14:44.001Z</time></trkpt><trkpt lat="45.64415089779988" lon="-0.20363661550600826"><ele>27.0</ele><time>2026-04-19T16:14:45.001Z</time></trkpt><trkpt lat="45.64420744211567" lon="-0.20380162849438607"><ele>27.0</ele><time>2026-04-19T16:14:46.001Z</time></trkpt><trkpt lat="45.64424415549166" lon="-0.20396817779055634"><ele>27.0</ele><time>2026-04-19T16:14:47.001Z</time></trkpt><trkpt lat="45.64427968298523" lon="-0.20410338868935188"><ele>27.0</ele><time>2026-04-19T16:14:48.001Z</time></trkpt><trkpt lat="45.64433108770584" lon="-0.20428449294189852"><ele>27.0</ele><time>2026-04-19T16:14:49.001Z</time></trkpt><trkpt lat="45.64437598572898" lon="-0.20446312460354515"><ele>27.0</ele><time>2026-04-19T16:14:50.001Z</time></trkpt><trkpt lat="45.644427393235375" lon="-0.20463592158971594"><ele>27.0</ele><time>2026-04-19T16:14:51.001Z</time></trkpt><trkpt lat="45.644466539002494" lon="-0.20479771826514162"><ele>27.0</ele><time>2026-04-19T16:14:52.001Z</time></trkpt><trkpt lat="45.644505044839065" lon="-0.20498443138481467"><ele>27.0</ele><time>2026-04-19T16:14:53.001Z</time></trkpt><trkpt lat="45.644536758027506" lon="-0.2051597885362628"><ele>25.75</ele><time>2026-04-19T16:14:54.001Z</time></trkpt><trkpt lat="45.64457135266008" lon="-0.20533307191168293"><ele>24.5</ele><time>2026-04-19T16:14:55.001Z</time></trkpt><trkpt lat="45.644600559856556" lon="-0.20550552244310039"><ele>23.25</ele><time>2026-04-19T16:14:56.001Z</time></trkpt><trkpt lat="45.64463587287572" lon="-0.20567738427113916"><ele>22.0</ele><time>2026-04-19T16:14:57.001Z</time></trkpt><trkpt lat="45.64466440615527" lon="-0.2058614072784405"><ele>22.0</ele><time>2026-04-19T16:14:58Z</time></trkpt><trkpt lat="45.64470548485265" lon="-0.2060242440451184"><ele>22.0</ele><time>2026-04-19T16:14:59Z</time></trkpt><trkpt lat="45.64474058834828" lon="-0.20619716948562164"><ele>22.0</ele><time>2026-04-19T16:15:00Z</time></trkpt><trkpt lat="45.64477547097945" lon="-0.20636896755802406"><ele>22.0</ele><time>2026-04-19T16:15:01Z</time></trkpt><trkpt lat="45.64479228497171" lon="-0.20653271790855368"><ele>22.8</ele><time>2026-04-19T16:15:02Z</time></trkpt><trkpt lat="45.644828053585165" lon="-0.20667163281871181"><ele>23.6</ele><time>2026-04-19T16:15:03Z</time></trkpt><trkpt lat="45.64485298751777" lon="-0.20681932998781136"><ele>24.400000000000002</ele><time>2026-04-19T16:15:04Z</time></trkpt><trkpt lat="45.644874345147585" lon="-0.20694584279376432"><ele>25.200000000000003</ele><time>2026-04-19T16:15:05Z</time></trkpt><trkpt lat="45.64489611468886" lon="-0.20707108779344036"><ele>26.0</ele><time>2026-04-19T16:15:06Z</time></trkpt><trkpt lat="45.64490347115141" lon="-0.2072057634905618"><ele>26.5</ele><time>2026-04-19T16:15:07Z</time></trkpt><trkpt lat="45.64493141345577" lon="-0.20734224512991797"><ele>27.0</ele><time>2026-04-19T16:15:08Z</time></trkpt><trkpt lat="45.64496341002486" lon="-0.2074987802225214"><ele>27.5</ele><time>2026-04-19T16:15:09Z</time></trkpt><trkpt lat="45.64499213679437" lon="-0.20766613157517436"><ele>28.0</ele><time>2026-04-19T16:15:10Z</time></trkpt><trkpt lat="45.64505051820405" lon="-0.20786073067058525"><ele>28.0</ele><time>2026-04-19T16:15:11Z</time></trkpt><trkpt lat="45.64508747260455" lon="-0.20803625566397357"><ele>28.0</ele><time>2026-04-19T16:15:12Z</time></trkpt><trkpt lat="45.645110840108025" lon="-0.20822920122829927"><ele>28.0</ele><time>2026-04-19T16:15:13Z</time></trkpt><trkpt lat="45.64515752754586" lon="-0.20841760221342925"><ele>28.0</ele><time>2026-04-19T16:15:14Z</time></trkpt><trkpt lat="45.64519190087246" lon="-0.2085886599319959"><ele>27.75</ele><time>2026-04-19T16:15:15Z</time></trkpt><trkpt lat="45.64522819111082" lon="-0.2087527139725366"><ele>27.5</ele><time>2026-04-19T16:15:16Z</time></trkpt><trkpt lat="45.6452596558885" lon="-0.20892908871009752"><ele>27.25</ele><time>2026-04-19T16:15:17Z</time></trkpt><trkpt lat="45.645294125425174" lon="-0.20911634919593497"><ele>27.0</ele><time>2026-04-19T16:15:18Z</time></trkpt><trkpt lat="45.64534677947782" lon="-0.20931023095233"><ele>27.75</ele><time>2026-04-19T16:15:19Z</time></trkpt><trkpt lat="45.64536008938573" lon="-0.20947654881489966"><ele>28.5</ele><time>2026-04-19T16:15:20Z</time></trkpt><trkpt lat="45.64539279522508" lon="-0.20965964107709292"><ele>29.25</ele><time>2026-04-19T16:15:21Z</time></trkpt><trkpt lat="45.645439925782576" lon="-0.2098468299688568"><ele>30.0</ele><time>2026-04-19T16:15:22Z</time></trkpt><trkpt lat="45.64547080255451" lon="-0.21002735367566686"><ele>30.0</ele><time>2026-04-19T16:15:23Z</time></trkpt><trkpt lat="45.645482401427365" lon="-0.21018740506417022"><ele>30.0</ele><time>2026-04-19T16:15:24Z</time></trkpt><trkpt lat="45.645522464549146" lon="-0.21031635558697798"><ele>30.0</ele><time>2026-04-19T16:15:25Z</time></trkpt><trkpt lat="45.64554457529066" lon="-0.21043983805616767"><ele>30.0</ele><time>2026-04-19T16:15:26Z</time></trkpt><trkpt lat="45.645566111648066" lon="-0.21056011235285735"><ele>30.0</ele><time>2026-04-19T16:15:27Z</time></trkpt><trkpt lat="45.645588450903006" lon="-0.2106730124195521"><ele>29.6</ele><time>2026-04-19T16:15:28Z</time></trkpt><trkpt lat="45.64560665369214" lon="-0.21076402633467575"><ele>29.2</ele><time>2026-04-19T16:15:29Z</time></trkpt><trkpt lat="45.64561569589635" lon="-0.21087511018330304"><ele>28.799999999999997</ele><time>2026-04-19T16:15:31Z</time></trkpt><trkpt lat="45.645650689577394" lon="-0.21097450291433714"><ele>28.4</ele><time>2026-04-19T16:15:32Z</time></trkpt><trkpt lat="45.64573845411286" lon="-0.2111096220034804"><ele>28.0</ele><time>2026-04-19T16:15:34Z</time></trkpt><trkpt lat="45.64585565168513" lon="-0.2112062084902687"><ele>28.0</ele><time>2026-04-19T16:15:36Z</time></trkpt><trkpt lat="45.64594428140061" lon="-0.21130555172975773"><ele>28.0</ele><time>2026-04-19T16:15:37Z</time></trkpt><trkpt lat="45.64606167506448" lon="-0.21141953130781163"><ele>28.0</ele><time>2026-04-19T16:15:38Z</time></trkpt><trkpt lat="45.646214633890644" lon="-0.21154120451795932"><ele>28.0</ele><time>2026-04-19T16:15:39Z</time></trkpt><trkpt lat="45.646383437566314" lon="-0.21166553147720107"><ele>28.0</ele><time>2026-04-19T16:15:40Z</time></trkpt><trkpt lat="45.64652685449116" lon="-0.21176811980838955"><ele>28.0</ele><time>2026-04-19T16:15:41Z</time></trkpt><trkpt lat="45.64663999853159" lon="-0.21184891983542095"><ele>28.0</ele><time>2026-04-19T16:15:42Z</time></trkpt><trkpt lat="45.646757840319786" lon="-0.21193891090540448"><ele>28.0</ele><time>2026-04-19T16:15:43Z</time></trkpt><trkpt lat="45.64688176538484" lon="-0.2120335475641612"><ele>28.25</ele><time>2026-04-19T16:15:44Z</time></trkpt><trkpt lat="45.6470076044464" lon="-0.21213272909873826"><ele>28.5</ele><time>2026-04-19T16:15:45Z</time></trkpt><trkpt lat="45.64713060369281" lon="-0.21225267404668946"><ele>28.75</ele><time>2026-04-19T16:15:46Z</time></trkpt><trkpt lat="45.647248840050096" lon="-0.2123422215364452"><ele>29.0</ele><time>2026-04-19T16:15:47Z</time></trkpt><trkpt lat="45.64736567620362" lon="-0.2124360674434809"><ele>29.0</ele><time>2026-04-19T16:15:48Z</time></trkpt><trkpt lat="45.64747754195198" lon="-0.21254012325021066"><ele>29.0</ele><time>2026-04-19T16:15:49Z</time></trkpt><trkpt lat="45.64759938537811" lon="-0.21264500773355402"><ele>29.0</ele><time>2026-04-19T16:15:50Z</time></trkpt><trkpt lat="45.64770903395605" lon="-0.21274892616696256"><ele>29.0</ele><time>2026-04-19T16:15:51Z</time></trkpt><trkpt lat="45.647816794870074" lon="-0.21284097207222039"><ele>29.0</ele><time>2026-04-19T16:15:52Z</time></trkpt><trkpt lat="45.64792377223997" lon="-0.21294003918293622"><ele>29.0</ele><time>2026-04-19T16:15:53Z</time></trkpt><trkpt lat="45.64804634713926" lon="-0.21304791150974395"><ele>29.0</ele><time>2026-04-19T16:15:54Z</time></trkpt><trkpt lat="45.6481602551644" lon="-0.21318295492036887"><ele>29.0</ele><time>2026-04-19T16:15:55Z</time></trkpt><trkpt lat="45.64828059224521" lon="-0.21328730279211416"><ele>29.25</ele><time>2026-04-19T16:15:56Z</time></trkpt><trkpt lat="45.64837668228337" lon="-0.21341744477821822"><ele>29.5</ele><time>2026-04-19T16:15:57Z</time></trkpt><trkpt lat="45.64848041078504" lon="-0.21353517650421652"><ele>29.75</ele><time>2026-04-19T16:15:58.001Z</time></trkpt><trkpt lat="45.64860061017558" lon="-0.21365156190567763"><ele>30.0</ele><time>2026-04-19T16:15:59.001Z</time></trkpt><trkpt lat="45.64869346238185" lon="-0.21378799351229674"><ele>30.0</ele><time>2026-04-19T16:16:00.001Z</time></trkpt><trkpt lat="45.64880165976295" lon="-0.21391168566530352"><ele>30.0</ele><time>2026-04-19T16:16:01.001Z</time></trkpt><trkpt lat="45.6489043330769" lon="-0.21402901648906217"><ele>30.0</ele><time>2026-04-19T16:16:02.001Z</time></trkpt><trkpt lat="45.64900057760104" lon="-0.21413938815908806"><ele>30.0</ele><time>2026-04-19T16:16:03.001Z</time></trkpt><trkpt lat="45.649103266632274" lon="-0.21423667873651595"><ele>29.5</ele><time>2026-04-19T16:16:04.001Z</time></trkpt><trkpt lat="45.6491951583966" lon="-0.21437020714829438"><ele>29.0</ele><time>2026-04-19T16:16:05.001Z</time></trkpt><trkpt lat="45.64927873374055" lon="-0.21446508993959712"><ele>28.5</ele><time>2026-04-19T16:16:06.001Z</time></trkpt><trkpt lat="45.64937176359851" lon="-0.21458061665355688"><ele>28.0</ele><time>2026-04-19T16:16:07.001Z</time></trkpt><trkpt lat="45.64946444469291" lon="-0.21468713040754595"><ele>27.5</ele><time>2026-04-19T16:16:08.001Z</time></trkpt><trkpt lat="45.64955478474422" lon="-0.21480450627901607"><ele>27.0</ele><time>2026-04-19T16:16:09.001Z</time></trkpt><trkpt lat="45.64966161591417" lon="-0.21490258768696718"><ele>26.5</ele><time>2026-04-19T16:16:10.001Z</time></trkpt><trkpt lat="45.64976030410839" lon="-0.21501710330242027"><ele>26.0</ele><time>2026-04-19T16:16:11.001Z</time></trkpt><trkpt lat="45.64986152604611" lon="-0.21515320627369092"><ele>26.0</ele><time>2026-04-19T16:16:12.001Z</time></trkpt><trkpt lat="45.64996273419949" lon="-0.21528039766666326"><ele>26.0</ele><time>2026-04-19T16:16:13.001Z</time></trkpt><trkpt lat="45.65006531647261" lon="-0.21539625234645454"><ele>26.0</ele><time>2026-04-19T16:16:14.001Z</time></trkpt><trkpt lat="45.65016942517986" lon="-0.21551969069382765"><ele>26.0</ele><time>2026-04-19T16:16:15.001Z</time></trkpt><trkpt lat="45.65027542744679" lon="-0.21563238799190784"><ele>26.75</ele><time>2026-04-19T16:16:16.001Z</time></trkpt><trkpt lat="45.650373521751256" lon="-0.2157493646225144"><ele>27.5</ele><time>2026-04-19T16:16:17.001Z</time></trkpt><trkpt lat="45.65048432381214" lon="-0.21585486379310312"><ele>28.25</ele><time>2026-04-19T16:16:18.001Z</time></trkpt><trkpt lat="45.65059529962562" lon="-0.21598320121827447"><ele>29.0</ele><time>2026-04-19T16:16:19.001Z</time></trkpt><trkpt lat="45.650696126364" lon="-0.21613055135128212"><ele>29.0</ele><time>2026-04-19T16:16:20.001Z</time></trkpt><trkpt lat="45.65083725848549" lon="-0.21629334605371478"><ele>29.0</ele><time>2026-04-19T16:16:21.001Z</time></trkpt><trkpt lat="45.65095187928011" lon="-0.21642224370008908"><ele>29.0</ele><time>2026-04-19T16:16:22.001Z</time></trkpt><trkpt lat="45.651060386193905" lon="-0.2165517914301936"><ele>29.5</ele><time>2026-04-19T16:16:23.001Z</time></trkpt><trkpt lat="45.65115983570509" lon="-0.2166779532874229"><ele>30.0</ele><time>2026-04-19T16:16:24.001Z</time></trkpt><trkpt lat="45.65126051946586" lon="-0.21679751283200865"><ele>30.5</ele><time>2026-04-19T16:16:25.001Z</time></trkpt><trkpt lat="45.65136505729108" lon="-0.2169316613577748"><ele>31.0</ele><time>2026-04-19T16:16:26.001Z</time></trkpt><trkpt lat="45.65147716291521" lon="-0.21705525348568935"><ele>31.0</ele><time>2026-04-19T16:16:27.001Z</time></trkpt><trkpt lat="45.65157872171187" lon="-0.21719866578122438"><ele>31.0</ele><time>2026-04-19T16:16:28.001Z</time></trkpt><trkpt lat="45.65167944994405" lon="-0.21733394091782646"><ele>31.0</ele><time>2026-04-19T16:16:29.001Z</time></trkpt><trkpt lat="45.6518958558652" lon="-0.21760374787792386"><ele>30.0</ele><time>2026-04-19T16:16:31.001Z</time></trkpt><trkpt lat="45.651990374790884" lon="-0.21772779519914018"><ele>29.0</ele><time>2026-04-19T16:16:32.001Z</time></trkpt><trkpt lat="45.65208269333286" lon="-0.2178489548347663"><ele>28.0</ele><time>2026-04-19T16:16:33.001Z</time></trkpt><trkpt lat="45.65216533895701" lon="-0.21798845823387827"><ele>27.0</ele><time>2026-04-19T16:16:34.001Z</time></trkpt><trkpt lat="45.65225639039021" lon="-0.2181116987091432"><ele>27.0</ele><time>2026-04-19T16:16:35.001Z</time></trkpt><trkpt lat="45.65235266071268" lon="-0.21822451163598378"><ele>27.0</ele><time>2026-04-19T16:16:36.001Z</time></trkpt><trkpt lat="45.65245144892309" lon="-0.2183631321512924"><ele>27.0</ele><time>2026-04-19T16:16:37.001Z</time></trkpt><trkpt lat="45.65254955139028" lon="-0.21850003837060533"><ele>27.0</ele><time>2026-04-19T16:16:38.001Z</time></trkpt><trkpt lat="45.6526565798927" lon="-0.2186172542637837"><ele>27.0</ele><time>2026-04-19T16:16:39.001Z</time></trkpt><trkpt lat="45.65274494960083" lon="-0.21873797954986654"><ele>27.0</ele><time>2026-04-19T16:16:40.001Z</time></trkpt><trkpt lat="45.652823625354195" lon="-0.21884546157781692"><ele>27.0</ele><time>2026-04-19T16:16:41.001Z</time></trkpt><trkpt lat="45.652898320519874" lon="-0.21897108827721717"><ele>27.0</ele><time>2026-04-19T16:16:42.001Z</time></trkpt><trkpt lat="45.65299194349579" lon="-0.21909672922253154"><ele>27.25</ele><time>2026-04-19T16:16:43.001Z</time></trkpt><trkpt lat="45.65307973821286" lon="-0.2192260907261258"><ele>27.5</ele><time>2026-04-19T16:16:44.001Z</time></trkpt><trkpt lat="45.65317664019356" lon="-0.2193399189406873"><ele>27.75</ele><time>2026-04-19T16:16:45.001Z</time></trkpt><trkpt lat="45.653258763182166" lon="-0.21945576106757572"><ele>28.0</ele><time>2026-04-19T16:16:46.001Z</time></trkpt><trkpt lat="45.653334085452926" lon="-0.21958950502292063"><ele>28.0</ele><time>2026-04-19T16:16:47.001Z</time></trkpt><trkpt lat="45.653434345388234" lon="-0.21970343570939294"><ele>28.0</ele><time>2026-04-19T16:16:48.001Z</time></trkpt><trkpt lat="45.65351863737476" lon="-0.2198190464186273"><ele>28.0</ele><time>2026-04-19T16:16:49.001Z</time></trkpt><trkpt lat="45.65358680425624" lon="-0.2199449052011313"><ele>28.0</ele><time>2026-04-19T16:16:50.001Z</time></trkpt><trkpt lat="45.65367719788127" lon="-0.2200522051565953"><ele>27.599999999999998</ele><time>2026-04-19T16:16:51.001Z</time></trkpt><trkpt lat="45.65374972659225" lon="-0.2201581561757085"><ele>27.199999999999996</ele><time>2026-04-19T16:16:52.001Z</time></trkpt><trkpt lat="45.653822307888156" lon="-0.2202582929582315"><ele>26.8</ele><time>2026-04-19T16:16:53.001Z</time></trkpt><trkpt lat="45.65387427167337" lon="-0.2203285702247661"><ele>26.4</ele><time>2026-04-19T16:16:54.001Z</time></trkpt><trkpt lat="45.65395333738919" lon="-0.22043805523540433"><ele>26.0</ele><time>2026-04-19T16:16:56.001Z</time></trkpt><trkpt lat="45.65402976101389" lon="-0.2205421920628496"><ele>26.0</ele><time>2026-04-19T16:16:58.001Z</time></trkpt><trkpt lat="45.65408108758073" lon="-0.22060418890673472"><ele>26.0</ele><time>2026-04-19T16:17:12Z</time></trkpt><trkpt lat="45.654002802591414" lon="-0.2207473525669952"><ele>26.0</ele><time>2026-04-19T16:17:13Z</time></trkpt><trkpt lat="45.65398579342059" lon="-0.22096642138448858"><ele>26.0</ele><time>2026-04-19T16:17:15Z</time></trkpt><trkpt lat="45.65397274382576" lon="-0.22107917067598098"><ele>26.0</ele><time>2026-04-19T16:17:16Z</time></trkpt><trkpt lat="45.65395587908252" lon="-0.2212010616008401"><ele>25.999999999999996</ele><time>2026-04-19T16:17:17Z</time></trkpt><trkpt lat="45.65393773246372" lon="-0.22132580091297155"><ele>26.0</ele><time>2026-04-19T16:17:18Z</time></trkpt><trkpt lat="45.65392171505938" lon="-0.22143148016914538"><ele>26.0</ele><time>2026-04-19T16:17:19Z</time></trkpt><trkpt lat="45.6539013247005" lon="-0.22151796723246547"><ele>26.0</ele><time>2026-04-19T16:17:20Z</time></trkpt><trkpt lat="45.65389465176257" lon="-0.22164382648360278"><ele>25.999999999999996</ele><time>2026-04-19T16:17:22Z</time></trkpt><trkpt lat="45.65391690635211" lon="-0.22146261311201512"><ele>26.0</ele><time>2026-04-19T16:17:30Z</time></trkpt><trkpt lat="45.653937379712765" lon="-0.22133006752042175"><ele>26.0</ele><time>2026-04-19T16:17:31Z</time></trkpt><trkpt lat="45.653958908186674" lon="-0.22118024193851535"><ele>26.0</ele><time>2026-04-19T16:17:32Z</time></trkpt><trkpt lat="45.65397429569542" lon="-0.22107446888875285"><ele>26.0</ele><time>2026-04-19T16:17:33Z</time></trkpt><trkpt lat="45.653990854819526" lon="-0.220960642729347"><ele>26.0</ele><time>2026-04-19T16:17:34Z</time></trkpt><trkpt lat="45.65398773028089" lon="-0.22083555547263392"><ele>26.0</ele><time>2026-04-19T16:17:36Z</time></trkpt><trkpt lat="45.65409686739995" lon="-0.22080063628623212"><ele>25.999999999999996</ele><time>2026-04-19T16:17:39Z</time></trkpt><trkpt lat="45.65416772961147" lon="-0.22079886225492978"><ele>26.0</ele><time>2026-04-19T16:17:42Z</time></trkpt><trkpt lat="45.654231335380864" lon="-0.22080873833600353"><ele>26.0</ele><time>2026-04-19T16:17:45Z</time></trkpt><trkpt lat="45.65430334457243" lon="-0.2208290963727208"><ele>26.0</ele><time>2026-04-19T16:17:48Z</time></trkpt><trkpt lat="45.654377941084405" lon="-0.22083291798472865"><ele>25.999999999999996</ele><time>2026-04-19T16:17:50Z</time></trkpt><trkpt lat="45.65446368003332" lon="-0.22081562385215253"><ele>26.0</ele><time>2026-04-19T16:17:53Z</time></trkpt><trkpt lat="45.65454867248198" lon="-0.22081258604359322"><ele>25.999999999999996</ele><time>2026-04-19T16:17:55Z</time></trkpt><trkpt lat="45.65461676429085" lon="-0.22078179028062966"><ele>26.0</ele><time>2026-04-19T16:17:58Z</time></trkpt><trkpt lat="45.654555412423264" lon="-0.220865663560632"><ele>26.0</ele><time>2026-04-19T16:18:04Z</time></trkpt><trkpt lat="45.65447912319316" lon="-0.22081413575792516"><ele>26.0</ele><time>2026-04-19T16:18:05Z</time></trkpt><trkpt lat="45.654380133654485" lon="-0.22082536990639076"><ele>25.999999999999996</ele><time>2026-04-19T16:18:07Z</time></trkpt><trkpt lat="45.65430783535239" lon="-0.22082271949566556"><ele>26.0</ele><time>2026-04-19T16:18:09Z</time></trkpt><trkpt lat="45.65422033174872" lon="-0.22083495385321716"><ele>26.0</ele><time>2026-04-19T16:18:12Z</time></trkpt><trkpt lat="45.654146914606045" lon="-0.22083013076030616"><ele>26.0</ele><time>2026-04-19T16:18:15Z</time></trkpt><trkpt lat="45.65406705186601" lon="-0.22080166086801536"><ele>26.0</ele><time>2026-04-19T16:18:18Z</time></trkpt><trkpt lat="45.65399094558898" lon="-0.22084984241714867"><ele>26.0</ele><time>2026-04-19T16:18:27Z</time></trkpt><trkpt lat="45.65396075377852" lon="-0.22101603809381742"><ele>26.0</ele><time>2026-04-19T16:18:29.001Z</time></trkpt><trkpt lat="45.65396201278138" lon="-0.2211588987213847"><ele>26.0</ele><time>2026-04-19T16:18:30.001Z</time></trkpt><trkpt lat="45.65394223920049" lon="-0.22129482170992432"><ele>26.0</ele><time>2026-04-19T16:18:31.001Z</time></trkpt><trkpt lat="45.65392019307993" lon="-0.22144133363814522"><ele>26.0</ele><time>2026-04-19T16:18:32.001Z</time></trkpt><trkpt lat="45.65389610995474" lon="-0.2215972492919392"><ele>26.0</ele><time>2026-04-19T16:18:33.001Z</time></trkpt><trkpt lat="45.65386160733913" lon="-0.2217689870156538"><ele>26.0</ele><time>2026-04-19T16:18:34.001Z</time></trkpt><trkpt lat="45.65382925692291" lon="-0.2219675619706825"><ele>25.666666666666664</ele><time>2026-04-19T16:18:35.001Z</time></trkpt><trkpt lat="45.65380290329764" lon="-0.22221031308480807"><ele>25.333333333333336</ele><time>2026-04-19T16:18:36.001Z</time></trkpt><trkpt lat="45.65381217071094" lon="-0.2224512784436007"><ele>25.0</ele><time>2026-04-19T16:18:37.001Z</time></trkpt><trkpt lat="45.65381077329368" lon="-0.2226688850022415"><ele>25.0</ele><time>2026-04-19T16:18:38.001Z</time></trkpt><trkpt lat="45.65381083667585" lon="-0.22285965109308808"><ele>25.0</ele><time>2026-04-19T16:18:39.001Z</time></trkpt><trkpt lat="45.65380002604579" lon="-0.22304881159240975"><ele>25.0</ele><time>2026-04-19T16:18:40.001Z</time></trkpt><trkpt lat="45.653791045889434" lon="-0.2232371007221087"><ele>25.0</ele><time>2026-04-19T16:18:41.001Z</time></trkpt><trkpt lat="45.65378586200451" lon="-0.22345255474528963"><ele>25.25</ele><time>2026-04-19T16:18:42.001Z</time></trkpt><trkpt lat="45.65376393967882" lon="-0.22366542896108108"><ele>25.5</ele><time>2026-04-19T16:18:43.001Z</time></trkpt><trkpt lat="45.65374032667805" lon="-0.22386026706751966"><ele>25.75</ele><time>2026-04-19T16:18:44.001Z</time></trkpt><trkpt lat="45.65372429400154" lon="-0.22404163072720612"><ele>26.0</ele><time>2026-04-19T16:18:45.001Z</time></trkpt><trkpt lat="45.65373786686578" lon="-0.22419493926570833"><ele>26.0</ele><time>2026-04-19T16:18:46.001Z</time></trkpt><trkpt lat="45.653754366855566" lon="-0.22436003565824852"><ele>26.0</ele><time>2026-04-19T16:18:47.001Z</time></trkpt><trkpt lat="45.65377784642205" lon="-0.22448457767571178"><ele>26.0</ele><time>2026-04-19T16:18:48.001Z</time></trkpt><trkpt lat="45.65381250864721" lon="-0.22462279922519532"><ele>26.0</ele><time>2026-04-19T16:18:49.001Z</time></trkpt><trkpt lat="45.65388382651207" lon="-0.22477611221033442"><ele>26.0</ele><time>2026-04-19T16:18:50.001Z</time></trkpt><trkpt lat="45.6539143759585" lon="-0.2249650497411373"><ele>26.0</ele><time>2026-04-19T16:18:51.001Z</time></trkpt><trkpt lat="45.65394636311332" lon="-0.2251633113372171"><ele>26.0</ele><time>2026-04-19T16:18:52.001Z</time></trkpt><trkpt lat="45.653980347091725" lon="-0.22537345984439713"><ele>26.0</ele><time>2026-04-19T16:18:53.001Z</time></trkpt><trkpt lat="45.6540096075361" lon="-0.22559474357730405"><ele>26.0</ele><time>2026-04-19T16:18:54.001Z</time></trkpt><trkpt lat="45.65404157592237" lon="-0.22580285494312033"><ele>26.0</ele><time>2026-04-19T16:18:55.001Z</time></trkpt><trkpt lat="45.65407084291269" lon="-0.22597269181903507"><ele>26.0</ele><time>2026-04-19T16:18:56.001Z</time></trkpt><trkpt lat="45.654107188384245" lon="-0.2261297081066424"><ele>26.0</ele><time>2026-04-19T16:18:57.001Z</time></trkpt><trkpt lat="45.654121637134324" lon="-0.22629900727747052"><ele>26.0</ele><time>2026-04-19T16:18:58.001Z</time></trkpt><trkpt lat="45.654140634687025" lon="-0.22645589751364492"><ele>26.0</ele><time>2026-04-19T16:18:59.001Z</time></trkpt><trkpt lat="45.65418367498621" lon="-0.2266067527854552"><ele>26.0</ele><time>2026-04-19T16:19:00.001Z</time></trkpt><trkpt lat="45.654222239176626" lon="-0.22674187257426043"><ele>26.0</ele><time>2026-04-19T16:19:01.001Z</time></trkpt><trkpt lat="45.65426137542143" lon="-0.22686900025628542"><ele>26.0</ele><time>2026-04-19T16:19:02.001Z</time></trkpt><trkpt lat="45.6542819599107" lon="-0.22699098880128477"><ele>25.8</ele><time>2026-04-19T16:19:03.001Z</time></trkpt><trkpt lat="45.65432624229906" lon="-0.22706906622843964"><ele>25.6</ele><time>2026-04-19T16:19:04.001Z</time></trkpt><trkpt lat="45.6543939601335" lon="-0.22711978569890312"><ele>25.4</ele><time>2026-04-19T16:19:06.001Z</time></trkpt><trkpt lat="45.65444768076855" lon="-0.2270686996148078"><ele>25.2</ele><time>2026-04-19T16:19:07.001Z</time></trkpt><trkpt lat="45.654609201636575" lon="-0.22701207105060583"><ele>25.0</ele><time>2026-04-19T16:19:09.001Z</time></trkpt><trkpt lat="45.654719907809614" lon="-0.22698156167879632"><ele>25.5</ele><time>2026-04-19T16:19:10Z</time></trkpt><trkpt lat="45.65482841321415" lon="-0.22695889815679177"><ele>26.0</ele><time>2026-04-19T16:19:11Z</time></trkpt><trkpt lat="45.65493856225111" lon="-0.22693027984579134"><ele>26.5</ele><time>2026-04-19T16:19:12Z</time></trkpt><trkpt lat="45.65506270869069" lon="-0.22689117097837996"><ele>27.0</ele><time>2026-04-19T16:19:13Z</time></trkpt><trkpt lat="45.655193721211" lon="-0.22684983040891726"><ele>26.333333333333336</ele><time>2026-04-19T16:19:14Z</time></trkpt><trkpt lat="45.655338733355855" lon="-0.226800702577624"><ele>25.666666666666668</ele><time>2026-04-19T16:19:15Z</time></trkpt><trkpt lat="45.65548745645866" lon="-0.22675822428794437"><ele>25.0</ele><time>2026-04-19T16:19:16Z</time></trkpt><trkpt lat="45.65563923610346" lon="-0.22671159780733594"><ele>25.0</ele><time>2026-04-19T16:19:17Z</time></trkpt><trkpt lat="45.65579488343121" lon="-0.22666192976908497"><ele>25.0</ele><time>2026-04-19T16:19:18Z</time></trkpt><trkpt lat="45.65594042353143" lon="-0.2266174969245242"><ele>25.0</ele><time>2026-04-19T16:19:19Z</time></trkpt><trkpt lat="45.65607687317823" lon="-0.22658689499170537"><ele>25.0</ele><time>2026-04-19T16:19:20Z</time></trkpt><trkpt lat="45.656220063128316" lon="-0.22654298066931083"><ele>25.5</ele><time>2026-04-19T16:19:21Z</time></trkpt><trkpt lat="45.65635157706675" lon="-0.22650078365066129"><ele>26.0</ele><time>2026-04-19T16:19:22Z</time></trkpt><trkpt lat="45.65647240906999" lon="-0.22646791506376943"><ele>26.5</ele><time>2026-04-19T16:19:23Z</time></trkpt><trkpt lat="45.656596064134206" lon="-0.22643264614353711"><ele>27.0</ele><time>2026-04-19T16:19:24Z</time></trkpt><trkpt lat="45.65669568053566" lon="-0.22638082385982453"><ele>27.0</ele><time>2026-04-19T16:19:25Z</time></trkpt><trkpt lat="45.65678782186296" lon="-0.2263774090361748"><ele>27.000000000000004</ele><time>2026-04-19T16:19:26Z</time></trkpt><trkpt lat="45.656871778711086" lon="-0.2263518207137955"><ele>27.000000000000004</ele><time>2026-04-19T16:19:27Z</time></trkpt><trkpt lat="45.65697497937785" lon="-0.22632284961917812"><ele>27.0</ele><time>2026-04-19T16:19:28Z</time></trkpt><trkpt lat="45.65709888538365" lon="-0.22626611631344137"><ele>27.0</ele><time>2026-04-19T16:19:29Z</time></trkpt><trkpt lat="45.657262216720575" lon="-0.2262197303493254"><ele>27.25</ele><time>2026-04-19T16:19:30Z</time></trkpt><trkpt lat="45.6573768567462" lon="-0.22618630328041914"><ele>27.5</ele><time>2026-04-19T16:19:31Z</time></trkpt><trkpt lat="45.65751619228145" lon="-0.2261431182134356"><ele>27.75</ele><time>2026-04-19T16:19:32Z</time></trkpt><trkpt lat="45.65764831766829" lon="-0.2261021678445342"><ele>28.0</ele><time>2026-04-19T16:19:33Z</time></trkpt><trkpt lat="45.657796366325314" lon="-0.22605628231115224"><ele>29.0</ele><time>2026-04-19T16:19:34Z</time></trkpt><trkpt lat="45.65795201389675" lon="-0.2260302491498821"><ele>30.0</ele><time>2026-04-19T16:19:35Z</time></trkpt><trkpt lat="45.65809042298041" lon="-0.22596514367654574"><ele>31.0</ele><time>2026-04-19T16:19:36Z</time></trkpt><trkpt lat="45.65824020215567" lon="-0.22591941300985963"><ele>31.0</ele><time>2026-04-19T16:19:37Z</time></trkpt><trkpt lat="45.6583926608604" lon="-0.22589600090773748"><ele>31.0</ele><time>2026-04-19T16:19:38Z</time></trkpt><trkpt lat="45.658541755521746" lon="-0.22585177955728009"><ele>31.0</ele><time>2026-04-19T16:19:39Z</time></trkpt><trkpt lat="45.65867959518511" lon="-0.22580584206557447"><ele>31.0</ele><time>2026-04-19T16:19:40Z</time></trkpt><trkpt lat="45.6587868572234" lon="-0.22577347313876134"><ele>31.000000000000004</ele><time>2026-04-19T16:19:41Z</time></trkpt><trkpt lat="45.65887436345559" lon="-0.22574078300214379"><ele>31.0</ele><time>2026-04-19T16:19:42Z</time></trkpt><trkpt lat="45.65895286823103" lon="-0.22570530623009247"><ele>31.0</ele><time>2026-04-19T16:19:43Z</time></trkpt><trkpt lat="45.65903212068445" lon="-0.22569167021768513"><ele>31.0</ele><time>2026-04-19T16:19:44Z</time></trkpt><trkpt lat="45.65909901130523" lon="-0.22567325163382493"><ele>31.000000000000004</ele><time>2026-04-19T16:19:45Z</time></trkpt><trkpt lat="45.65915892079252" lon="-0.22562847328296726"><ele>31.0</ele><time>2026-04-19T16:19:46Z</time></trkpt><trkpt lat="45.65922313453261" lon="-0.22562231267600735"><ele>30.666666666666668</ele><time>2026-04-19T16:19:47Z</time></trkpt><trkpt lat="45.65932085755135" lon="-0.22555407819655934"><ele>30.333333333333336</ele><time>2026-04-19T16:19:49Z</time></trkpt><trkpt lat="45.65938920868562" lon="-0.2255018416269955"><ele>30.0</ele><time>2026-04-19T16:19:50Z</time></trkpt><trkpt lat="45.65946123113071" lon="-0.22544440985061354"><ele>29.666666666666664</ele><time>2026-04-19T16:19:51Z</time></trkpt><trkpt lat="45.659530513465675" lon="-0.22538179431697403"><ele>29.333333333333332</ele><time>2026-04-19T16:19:52Z</time></trkpt><trkpt lat="45.65960315566733" lon="-0.22535942284503335"><ele>29.0</ele><time>2026-04-19T16:19:53Z</time></trkpt><trkpt lat="45.659673174156325" lon="-0.22531994810881328"><ele>28.799999999999997</ele><time>2026-04-19T16:19:54Z</time></trkpt><trkpt lat="45.659749410797204" lon="-0.2252897349862683"><ele>28.599999999999998</ele><time>2026-04-19T16:19:55Z</time></trkpt><trkpt lat="45.65985571034851" lon="-0.2253030530604255"><ele>28.4</ele><time>2026-04-19T16:19:56Z</time></trkpt><trkpt lat="45.6599725782559" lon="-0.22529354423301243"><ele>28.2</ele><time>2026-04-19T16:19:57Z</time></trkpt><trkpt lat="45.6600939189355" lon="-0.22525404666133486"><ele>28.0</ele><time>2026-04-19T16:19:58Z</time></trkpt><trkpt lat="45.66022411348209" lon="-0.22526497556910213"><ele>27.5</ele><time>2026-04-19T16:19:59Z</time></trkpt><trkpt lat="45.66036100581706" lon="-0.22523870944577418"><ele>27.0</ele><time>2026-04-19T16:20:00Z</time></trkpt><trkpt lat="45.660506222193185" lon="-0.22522324721863454"><ele>26.5</ele><time>2026-04-19T16:20:01Z</time></trkpt><trkpt lat="45.66065068856429" lon="-0.22519876750849574"><ele>26.0</ele><time>2026-04-19T16:20:02Z</time></trkpt><trkpt lat="45.66079826188146" lon="-0.22516964267073375"><ele>26.0</ele><time>2026-04-19T16:20:03Z</time></trkpt><trkpt lat="45.66094771136198" lon="-0.2251449616548927"><ele>26.0</ele><time>2026-04-19T16:20:04Z</time></trkpt><trkpt lat="45.66109455862192" lon="-0.22512487271927148"><ele>26.0</ele><time>2026-04-19T16:20:05Z</time></trkpt><trkpt lat="45.66124037148725" lon="-0.2251032844710095"><ele>26.0</ele><time>2026-04-19T16:20:06Z</time></trkpt><trkpt lat="45.66139366270758" lon="-0.22508088693304945"><ele>27.0</ele><time>2026-04-19T16:20:07Z</time></trkpt><trkpt lat="45.66154937882198" lon="-0.22505591698414917"><ele>28.0</ele><time>2026-04-19T16:20:08Z</time></trkpt><trkpt lat="45.6617068187856" lon="-0.22503533250812002"><ele>29.0</ele><time>2026-04-19T16:20:09Z</time></trkpt><trkpt lat="45.661861962406036" lon="-0.2250108161083826"><ele>30.0</ele><time>2026-04-19T16:20:10Z</time></trkpt><trkpt lat="45.66202442114999" lon="-0.22498981431366452"><ele>31.0</ele><time>2026-04-19T16:20:11Z</time></trkpt><trkpt lat="45.66217555456109" lon="-0.22496501867715976"><ele>32.0</ele><time>2026-04-19T16:20:12Z</time></trkpt><trkpt lat="45.66233516982573" lon="-0.22493885113387957"><ele>32.0</ele><time>2026-04-19T16:20:13Z</time></trkpt><trkpt lat="45.6624987593044" lon="-0.22491145633561585"><ele>32.0</ele><time>2026-04-19T16:20:14Z</time></trkpt><trkpt lat="45.66266039960461" lon="-0.22488440385897263"><ele>32.0</ele><time>2026-04-19T16:20:15Z</time></trkpt><trkpt lat="45.6628240893754" lon="-0.2248623107851672"><ele>33.2</ele><time>2026-04-19T16:20:16Z</time></trkpt><trkpt lat="45.66296068184582" lon="-0.22484118195032363"><ele>34.400000000000006</ele><time>2026-04-19T16:20:17Z</time></trkpt><trkpt lat="45.663064039313085" lon="-0.22484656902054279"><ele>35.599999999999994</ele><time>2026-04-19T16:20:18Z</time></trkpt><trkpt lat="45.66314827613503" lon="-0.224877692027638"><ele>36.8</ele><time>2026-04-19T16:20:19Z</time></trkpt><trkpt lat="45.66322556423838" lon="-0.22490497659113667"><ele>38.0</ele><time>2026-04-19T16:20:20Z</time></trkpt><trkpt lat="45.66327271781808" lon="-0.22502200856093746"><ele>38.0</ele><time>2026-04-19T16:20:21Z</time></trkpt><trkpt lat="45.66329069844024" lon="-0.2251354603413495"><ele>38.0</ele><time>2026-04-19T16:20:23Z</time></trkpt><trkpt lat="45.66336607271335" lon="-0.22518542395248164"><ele>38.0</ele><time>2026-04-19T16:20:35.001Z</time></trkpt><trkpt lat="45.66344906447614" lon="-0.22526287971491726"><ele>38.0</ele><time>2026-04-19T16:20:37.001Z</time></trkpt><trkpt lat="45.6635268670224" lon="-0.22530878281486433"><ele>38.0</ele><time>2026-04-19T16:20:40.001Z</time></trkpt><trkpt lat="45.663574555010484" lon="-0.22554763817239237"><ele>38.0</ele><time>2026-04-19T16:20:42.001Z</time></trkpt><trkpt lat="45.66358283851967" lon="-0.22576629431465947"><ele>38.0</ele><time>2026-04-19T16:20:43.001Z</time></trkpt><trkpt lat="45.663589300027446" lon="-0.22604918025281293"><ele>38.0</ele><time>2026-04-19T16:20:44.001Z</time></trkpt><trkpt lat="45.66360699829755" lon="-0.22637716007997902"><ele>42.5</ele><time>2026-04-19T16:20:45.001Z</time></trkpt><trkpt lat="45.66363216776813" lon="-0.22674580505320652"><ele>47.0</ele><time>2026-04-19T16:20:46.001Z</time></trkpt><trkpt lat="45.66365741808664" lon="-0.2271439472214982"><ele>47.0</ele><time>2026-04-19T16:20:47.001Z</time></trkpt><trkpt lat="45.66368353133324" lon="-0.2275003303969554"><ele>47.0</ele><time>2026-04-19T16:20:48.001Z</time></trkpt><trkpt lat="45.66370776577204" lon="-0.22783751484795053"><ele>46.666666666666664</ele><time>2026-04-19T16:20:49.001Z</time></trkpt><trkpt lat="45.66373207535592" lon="-0.22815832183553303"><ele>46.333333333333336</ele><time>2026-04-19T16:20:50.001Z</time></trkpt><trkpt lat="45.663752430375666" lon="-0.2284600836662984"><ele>46.0</ele><time>2026-04-19T16:20:51.001Z</time></trkpt><trkpt lat="45.663769434068506" lon="-0.22873891999220353"><ele>45.66666666666667</ele><time>2026-04-19T16:20:52.001Z</time></trkpt><trkpt lat="45.66378482289693" lon="-0.22900467271536487"><ele>45.333333333333336</ele><time>2026-04-19T16:20:53.001Z</time></trkpt><trkpt lat="45.66379785165552" lon="-0.22925846309913653"><ele>45.0</ele><time>2026-04-19T16:20:54.001Z</time></trkpt><trkpt lat="45.66381528085554" lon="-0.2294986702833077"><ele>45.0</ele><time>2026-04-19T16:20:55.001Z</time></trkpt><trkpt lat="45.66383457761667" lon="-0.22976639436699065"><ele>45.0</ele><time>2026-04-19T16:20:56.001Z</time></trkpt><trkpt lat="45.663850656735896" lon="-0.23002362497640966"><ele>45.0</ele><time>2026-04-19T16:20:57.001Z</time></trkpt><trkpt lat="45.66387375543345" lon="-0.23026259168905905"><ele>44.666666666666664</ele><time>2026-04-19T16:20:58.001Z</time></trkpt><trkpt lat="45.66389391134099" lon="-0.23052246291137088"><ele>44.33333333333333</ele><time>2026-04-19T16:20:59.001Z</time></trkpt><trkpt lat="45.6639182065286" lon="-0.23076452734862613"><ele>44.0</ele><time>2026-04-19T16:21:00.001Z</time></trkpt><trkpt lat="45.66394191948164" lon="-0.23097987979749707"><ele>43.75</ele><time>2026-04-19T16:21:01.001Z</time></trkpt><trkpt lat="45.66395573101077" lon="-0.23119094629943576"><ele>43.5</ele><time>2026-04-19T16:21:02.001Z</time></trkpt><trkpt lat="45.66396577494253" lon="-0.23140119802492887"><ele>43.25</ele><time>2026-04-19T16:21:03.001Z</time></trkpt><trkpt lat="45.66398049614285" lon="-0.2316098913410132"><ele>43.0</ele><time>2026-04-19T16:21:04.001Z</time></trkpt><trkpt lat="45.66399169626308" lon="-0.23180085241339818"><ele>42.833333333333336</ele><time>2026-04-19T16:21:05.001Z</time></trkpt><trkpt lat="45.66399127395685" lon="-0.23197183982839828"><ele>42.66666666666667</ele><time>2026-04-19T16:21:06.001Z</time></trkpt><trkpt lat="45.663998393357055" lon="-0.2321050433742802"><ele>42.5</ele><time>2026-04-19T16:21:07.001Z</time></trkpt><trkpt lat="45.66402818256115" lon="-0.23221395303310668"><ele>42.333333333333336</ele><time>2026-04-19T16:21:08.001Z</time></trkpt><trkpt lat="45.66408874022463" lon="-0.2322817336132342"><ele>42.166666666666664</ele><time>2026-04-19T16:21:09.001Z</time></trkpt><trkpt lat="45.66414292275997" lon="-0.2323342097733254"><ele>42.0</ele><time>2026-04-19T16:21:10.001Z</time></trkpt><trkpt lat="45.664254016868185" lon="-0.23223896855964438"><ele>42.0</ele><time>2026-04-19T16:21:11.001Z</time></trkpt><trkpt lat="45.664373793838635" lon="-0.23214761332083314"><ele>42.0</ele><time>2026-04-19T16:21:12.001Z</time></trkpt><trkpt lat="45.66448983325639" lon="-0.23201770296314855"><ele>42.0</ele><time>2026-04-19T16:21:13.001Z</time></trkpt><trkpt lat="45.66458607136109" lon="-0.23186531556109274"><ele>42.0</ele><time>2026-04-19T16:21:14.001Z</time></trkpt><trkpt lat="45.664677646393855" lon="-0.231756255220128"><ele>43.333333333333336</ele><time>2026-04-19T16:21:15.001Z</time></trkpt><trkpt lat="45.664758696811894" lon="-0.23162094685707552"><ele>44.66666666666667</ele><time>2026-04-19T16:21:16Z</time></trkpt><trkpt lat="45.664858691173066" lon="-0.23147495591131592"><ele>46.0</ele><time>2026-04-19T16:21:17Z</time></trkpt><trkpt lat="45.66494663957326" lon="-0.2312396594346687"><ele>46.333333333333336</ele><time>2026-04-19T16:21:18Z</time></trkpt><trkpt lat="45.665033832757054" lon="-0.23098702257766862"><ele>46.666666666666664</ele><time>2026-04-19T16:21:19Z</time></trkpt><trkpt lat="45.6651435801102" lon="-0.2307036086855829"><ele>47.0</ele><time>2026-04-19T16:21:20Z</time></trkpt><trkpt lat="45.66526416907553" lon="-0.23039789723272633"><ele>50.0</ele><time>2026-04-19T16:21:21Z</time></trkpt><trkpt lat="45.6653891709292" lon="-0.23008349122454924"><ele>53.0</ele><time>2026-04-19T16:21:22Z</time></trkpt><trkpt lat="45.665508867493095" lon="-0.2297999352513741"><ele>53.333333333333336</ele><time>2026-04-19T16:21:23Z</time></trkpt><trkpt lat="45.66562830263911" lon="-0.2295562498362176"><ele>53.66666666666667</ele><time>2026-04-19T16:21:24Z</time></trkpt><trkpt lat="45.66576841867225" lon="-0.22933443236653916"><ele>54.0</ele><time>2026-04-19T16:21:25Z</time></trkpt><trkpt lat="45.66591880944555" lon="-0.22913963471492987"><ele>54.33333333333333</ele><time>2026-04-19T16:21:26Z</time></trkpt><trkpt lat="45.66607907709748" lon="-0.22894301621722324"><ele>54.666666666666664</ele><time>2026-04-19T16:21:27Z</time></trkpt><trkpt lat="45.6662397121858" lon="-0.22875971577676982"><ele>55.0</ele><time>2026-04-19T16:21:28Z</time></trkpt><trkpt lat="45.66640901879262" lon="-0.22856474481523004"><ele>55.0</ele><time>2026-04-19T16:21:29Z</time></trkpt><trkpt lat="45.666583842019435" lon="-0.22837491918877925"><ele>55.0</ele><time>2026-04-19T16:21:30Z</time></trkpt><trkpt lat="45.66675065326036" lon="-0.22820136984415662"><ele>55.0</ele><time>2026-04-19T16:21:31Z</time></trkpt><trkpt lat="45.66690599459759" lon="-0.2280269465485067"><ele>53.666666666666664</ele><time>2026-04-19T16:21:32Z</time></trkpt><trkpt lat="45.667045628374666" lon="-0.22785775546183115"><ele>52.33333333333333</ele><time>2026-04-19T16:21:33Z</time></trkpt><trkpt lat="45.667191848228306" lon="-0.22769762740808824"><ele>51.0</ele><time>2026-04-19T16:21:34Z</time></trkpt><trkpt lat="45.66733219782924" lon="-0.22755742961564937"><ele>51.0</ele><time>2026-04-19T16:21:35Z</time></trkpt><trkpt lat="45.66748863917582" lon="-0.22746242936764738"><ele>51.0</ele><time>2026-04-19T16:21:36Z</time></trkpt><trkpt lat="45.667637056631044" lon="-0.2274020416042752"><ele>51.0</ele><time>2026-04-19T16:21:37Z</time></trkpt><trkpt lat="45.667778058466425" lon="-0.22735667693985406"><ele>49.333333333333336</ele><time>2026-04-19T16:21:38Z</time></trkpt><trkpt lat="45.66793151676516" lon="-0.2273403649266212"><ele>47.66666666666667</ele><time>2026-04-19T16:21:39Z</time></trkpt><trkpt lat="45.6681034107465" lon="-0.2273528556244085"><ele>46.0</ele><time>2026-04-19T16:21:40Z</time></trkpt><trkpt lat="45.66828668636815" lon="-0.22736106728357322"><ele>46.0</ele><time>2026-04-19T16:21:41Z</time></trkpt><trkpt lat="45.66847679574865" lon="-0.22735754383191292"><ele>46.0</ele><time>2026-04-19T16:21:42Z</time></trkpt><trkpt lat="45.66867033804673" lon="-0.2273506842089078"><ele>46.0</ele><time>2026-04-19T16:21:43Z</time></trkpt><trkpt lat="45.66886924996741" lon="-0.22733545051888154"><ele>44.333333333333336</ele><time>2026-04-19T16:21:44Z</time></trkpt><trkpt lat="45.6690726891199" lon="-0.22729774685969675"><ele>42.666666666666664</ele><time>2026-04-19T16:21:45Z</time></trkpt><trkpt lat="45.669279411779726" lon="-0.2272419689478825"><ele>41.0</ele><time>2026-04-19T16:21:46Z</time></trkpt><trkpt lat="45.66948037217996" lon="-0.22716333019539586"><ele>38.666666666666664</ele><time>2026-04-19T16:21:47Z</time></trkpt><trkpt lat="45.669653987206786" lon="-0.22709518425348268"><ele>36.333333333333336</ele><time>2026-04-19T16:21:48Z</time></trkpt><trkpt lat="45.66983252008034" lon="-0.22701001114716582"><ele>34.0</ele><time>2026-04-19T16:21:49Z</time></trkpt><trkpt lat="45.66999726768204" lon="-0.2269101882976002"><ele>34.0</ele><time>2026-04-19T16:21:50Z</time></trkpt><trkpt lat="45.67016265786006" lon="-0.22679848489962576"><ele>34.0</ele><time>2026-04-19T16:21:51Z</time></trkpt><trkpt lat="45.670286452374164" lon="-0.22669450674641287"><ele>34.0</ele><time>2026-04-19T16:21:52Z</time></trkpt><trkpt lat="45.67040539415472" lon="-0.22657735994460204"><ele>33.25</ele><time>2026-04-19T16:21:53Z</time></trkpt><trkpt lat="45.670520684833214" lon="-0.22645848423512788"><ele>32.5</ele><time>2026-04-19T16:21:54Z</time></trkpt><trkpt lat="45.67062505978831" lon="-0.22633620480630937"><ele>31.75</ele><time>2026-04-19T16:21:55Z</time></trkpt><trkpt lat="45.67072869096702" lon="-0.22621899708498627"><ele>31.0</ele><time>2026-04-19T16:21:56Z</time></trkpt><trkpt lat="45.670822239558646" lon="-0.22613557099130457"><ele>31.0</ele><time>2026-04-19T16:21:57Z</time></trkpt><trkpt lat="45.67091612692093" lon="-0.22607311104147756"><ele>31.0</ele><time>2026-04-19T16:21:58Z</time></trkpt><trkpt lat="45.671005287382464" lon="-0.22601767415718574"><ele>31.0</ele><time>2026-04-19T16:21:59Z</time></trkpt><trkpt lat="45.67112776548792" lon="-0.2259344492091701"><ele>31.0</ele><time>2026-04-19T16:22:00Z</time></trkpt><trkpt lat="45.6712313526206" lon="-0.22588989447278016"><ele>31.0</ele><time>2026-04-19T16:22:01Z</time></trkpt><trkpt lat="45.67132923263687" lon="-0.22584636592504184"><ele>30.200000000000003</ele><time>2026-04-19T16:22:02Z</time></trkpt><trkpt lat="45.67142753811785" lon="-0.22581447969205592"><ele>29.400000000000002</ele><time>2026-04-19T16:22:03Z</time></trkpt><trkpt lat="45.67152763176822" lon="-0.22576128084031352"><ele>28.6</ele><time>2026-04-19T16:22:04Z</time></trkpt><trkpt lat="45.67160762330139" lon="-0.22571072093168398"><ele>27.8</ele><time>2026-04-19T16:22:05Z</time></trkpt><trkpt lat="45.67169595451739" lon="-0.22565500237564606"><ele>27.0</ele><time>2026-04-19T16:22:06Z</time></trkpt><trkpt lat="45.67177792705225" lon="-0.22560649430986074"><ele>26.833333333333332</ele><time>2026-04-19T16:22:07Z</time></trkpt><trkpt lat="45.671863412207685" lon="-0.22556371226596605"><ele>26.666666666666664</ele><time>2026-04-19T16:22:08Z</time></trkpt><trkpt lat="45.67192655477178" lon="-0.22551662847076892"><ele>26.5</ele><time>2026-04-19T16:22:09Z</time></trkpt><trkpt lat="45.67202026847596" lon="-0.22548315092058857"><ele>26.333333333333332</ele><time>2026-04-19T16:22:11Z</time></trkpt><trkpt lat="45.67209688548159" lon="-0.225437298465263"><ele>26.166666666666664</ele><time>2026-04-19T16:22:13Z</time></trkpt><trkpt lat="45.672159229425944" lon="-0.22540768869569044"><ele>26.0</ele><time>2026-04-19T16:22:15Z</time></trkpt><trkpt lat="45.67220976488953" lon="-0.22529445470020024"><ele>24.999999999999996</ele><time>2026-04-19T16:22:17Z</time></trkpt><trkpt lat="45.67222559476818" lon="-0.2252047225029291"><ele>24.0</ele><time>2026-04-19T16:22:18Z</time></trkpt><trkpt lat="45.67225844213864" lon="-0.22509496076914517"><ele>23.0</ele><time>2026-04-19T16:22:19Z</time></trkpt><trkpt lat="45.672302364261974" lon="-0.22499000482008424"><ele>22.0</ele><time>2026-04-19T16:22:20Z</time></trkpt><trkpt lat="45.672346671929276" lon="-0.2248759069227958"><ele>21.0</ele><time>2026-04-19T16:22:21Z</time></trkpt><trkpt lat="45.67238441437663" lon="-0.2247671223563701"><ele>20.0</ele><time>2026-04-19T16:22:22Z</time></trkpt><trkpt lat="45.672415302630704" lon="-0.2246661531785749"><ele>20.0</ele><time>2026-04-19T16:22:23Z</time></trkpt><trkpt lat="45.67244799377484" lon="-0.22458010819168722"><ele>20.0</ele><time>2026-04-19T16:22:24Z</time></trkpt><trkpt lat="45.67248666443485" lon="-0.22449683910038773"><ele>20.0</ele><time>2026-04-19T16:22:25Z</time></trkpt><trkpt lat="45.67251493855584" lon="-0.22441287830250314"><ele>20.0</ele><time>2026-04-19T16:22:26Z</time></trkpt><trkpt lat="45.672548049064304" lon="-0.22432026873276548"><ele>20.0</ele><time>2026-04-19T16:22:27Z</time></trkpt><trkpt lat="45.672588717436604" lon="-0.22417608684038098"><ele>20.0</ele><time>2026-04-19T16:22:29Z</time></trkpt><trkpt lat="45.672620107026795" lon="-0.22408786985446702"><ele>20.0</ele><time>2026-04-19T16:22:31Z</time></trkpt><trkpt lat="45.672706283269704" lon="-0.22411093493940878"><ele>20.0</ele><time>2026-04-19T16:22:32Z</time></trkpt><trkpt lat="45.67277967957859" lon="-0.22416438013324505"><ele>20.0</ele><time>2026-04-19T16:22:33Z</time></trkpt><trkpt lat="45.67285855699321" lon="-0.2241919877148049"><ele>20.0</ele><time>2026-04-19T16:22:34.001Z</time></trkpt><trkpt lat="45.67295156285963" lon="-0.22423472438945893"><ele>20.0</ele><time>2026-04-19T16:22:35.001Z</time></trkpt><trkpt lat="45.67302739683213" lon="-0.22426784140369238"><ele>20.0</ele><time>2026-04-19T16:22:36.001Z</time></trkpt><trkpt lat="45.673096909427734" lon="-0.22431235003937716"><ele>19.0</ele><time>2026-04-19T16:22:37.001Z</time></trkpt><trkpt lat="45.67317416491594" lon="-0.22430776440740793"><ele>18.0</ele><time>2026-04-19T16:22:38.001Z</time></trkpt><trkpt lat="45.673245563629834" lon="-0.2243463364386339"><ele>17.0</ele><time>2026-04-19T16:22:39.001Z</time></trkpt><trkpt lat="45.673346709181644" lon="-0.22432629493247186"><ele>16.0</ele><time>2026-04-19T16:22:41.001Z</time></trkpt><trkpt lat="45.673383108484764" lon="-0.22419782881418907"><ele>15.000000000000002</ele><time>2026-04-19T16:22:43.001Z</time></trkpt><trkpt lat="45.67339129983194" lon="-0.22410720701257425"><ele>14.0</ele><time>2026-04-19T16:22:44.001Z</time></trkpt><trkpt lat="45.67339125148555" lon="-0.223989745130799"><ele>14.000000000000002</ele><time>2026-04-19T16:22:45.001Z</time></trkpt><trkpt lat="45.6733995399832" lon="-0.22389314292142198"><ele>14.0</ele><time>2026-04-19T16:22:46.001Z</time></trkpt><trkpt lat="45.67340670696445" lon="-0.22380091167818641"><ele>14.0</ele><time>2026-04-19T16:22:47.001Z</time></trkpt><trkpt lat="45.67341882979172" lon="-0.22371178640070316"><ele>14.0</ele><time>2026-04-19T16:22:48.001Z</time></trkpt><trkpt lat="45.67345380756036" lon="-0.22361531198240353"><ele>14.000000000000002</ele><time>2026-04-19T16:22:50.001Z</time></trkpt><trkpt lat="45.67356344950045" lon="-0.22362734690573635"><ele>14.0</ele><time>2026-04-19T16:22:51.001Z</time></trkpt><trkpt lat="45.673653866319455" lon="-0.2236632350753751"><ele>13.75</ele><time>2026-04-19T16:22:52.001Z</time></trkpt><trkpt lat="45.67376081312391" lon="-0.2236916208570616"><ele>13.5</ele><time>2026-04-19T16:22:53.001Z</time></trkpt><trkpt lat="45.673879082345266" lon="-0.22372558214306246"><ele>13.25</ele><time>2026-04-19T16:22:54.001Z</time></trkpt><trkpt lat="45.67398919923606" lon="-0.22375603029765198"><ele>13.0</ele><time>2026-04-19T16:22:55.001Z</time></trkpt><trkpt lat="45.67410930319358" lon="-0.22378307918164575"><ele>13.0</ele><time>2026-04-19T16:22:56.001Z</time></trkpt><trkpt lat="45.67422965812147" lon="-0.2238026655368175"><ele>13.0</ele><time>2026-04-19T16:22:57.001Z</time></trkpt><trkpt lat="45.674349512245236" lon="-0.22383080513970618"><ele>13.0</ele><time>2026-04-19T16:22:58.001Z</time></trkpt><trkpt lat="45.67445856984104" lon="-0.2238555686273712"><ele>13.0</ele><time>2026-04-19T16:22:59.001Z</time></trkpt><trkpt lat="45.674567723610615" lon="-0.22388246748934315"><ele>13.0</ele><time>2026-04-19T16:23:00.001Z</time></trkpt><trkpt lat="45.6746750331091" lon="-0.22390952361347657"><ele>13.0</ele><time>2026-04-19T16:23:01.001Z</time></trkpt><trkpt lat="45.67478131898538" lon="-0.22393549512463526"><ele>13.0</ele><time>2026-04-19T16:23:02.001Z</time></trkpt><trkpt lat="45.674890748227035" lon="-0.22396109721883725"><ele>13.0</ele><time>2026-04-19T16:23:03.001Z</time></trkpt><trkpt lat="45.67499884502024" lon="-0.22399023167640714"><ele>13.0</ele><time>2026-04-19T16:23:04.001Z</time></trkpt><trkpt lat="45.67509848603707" lon="-0.2240235705383915"><ele>12.999999999999998</ele><time>2026-04-19T16:23:05.001Z</time></trkpt><trkpt lat="45.67519319739348" lon="-0.2240597179110472"><ele>13.0</ele><time>2026-04-19T16:23:06.001Z</time></trkpt><trkpt lat="45.675276543967165" lon="-0.2240770914008893"><ele>13.0</ele><time>2026-04-19T16:23:07.001Z</time></trkpt><trkpt lat="45.675341207493865" lon="-0.22407655724508713"><ele>13.0</ele><time>2026-04-19T16:23:08.001Z</time></trkpt><trkpt lat="45.67526428448987" lon="-0.2239760399888865"><ele>12.999999999999998</ele><time>2026-04-19T16:23:13.001Z</time></trkpt><trkpt lat="45.67519421805785" lon="-0.22394821864753026"><ele>13.0</ele><time>2026-04-19T16:23:14.001Z</time></trkpt><trkpt lat="45.675100242324916" lon="-0.22389869170948065"><ele>13.0</ele><time>2026-04-19T16:23:15.001Z</time></trkpt><trkpt lat="45.67502822350993" lon="-0.2238560970926374"><ele>13.0</ele><time>2026-04-19T16:23:16.001Z</time></trkpt><trkpt lat="45.67494768837876" lon="-0.2237703077802432"><ele>13.0</ele><time>2026-04-19T16:23:18.001Z</time></trkpt><trkpt lat="45.674932586887586" lon="-0.22364064092622205"><ele>13.0</ele><time>2026-04-19T16:23:20.001Z</time></trkpt><trkpt lat="45.67496360067753" lon="-0.2234782996015622"><ele>13.0</ele><time>2026-04-19T16:23:22Z</time></trkpt><trkpt lat="45.67497590939896" lon="-0.22336954381728846"><ele>12.999999999999998</ele><time>2026-04-19T16:23:23Z</time></trkpt><trkpt lat="45.674994607182825" lon="-0.2232561576934739"><ele>13.0</ele><time>2026-04-19T16:23:24Z</time></trkpt><trkpt lat="45.67501190902932" lon="-0.22315676302790874"><ele>13.0</ele><time>2026-04-19T16:23:25Z</time></trkpt><trkpt lat="45.6750277867078" lon="-0.22305465875040684"><ele>13.0</ele><time>2026-04-19T16:23:26Z</time></trkpt><trkpt lat="45.67504813562604" lon="-0.22294838596522662"><ele>12.999999999999998</ele><time>2026-04-19T16:23:27Z</time></trkpt><trkpt lat="45.67506645752254" lon="-0.22284247413459018"><ele>13.0</ele><time>2026-04-19T16:23:28Z</time></trkpt><trkpt lat="45.67508390582933" lon="-0.22273466743876452"><ele>12.833333333333332</ele><time>2026-04-19T16:23:29Z</time></trkpt><trkpt lat="45.67509995114109" lon="-0.2226318995017522"><ele>12.666666666666666</ele><time>2026-04-19T16:23:30Z</time></trkpt><trkpt lat="45.67512010123786" lon="-0.22251639254937264"><ele>12.5</ele><time>2026-04-19T16:23:31Z</time></trkpt><trkpt lat="45.675126708304184" lon="-0.22239730974115773"><ele>12.333333333333332</ele><time>2026-04-19T16:23:32Z</time></trkpt><trkpt lat="45.67514501175467" lon="-0.22229088483128148"><ele>12.166666666666666</ele><time>2026-04-19T16:23:33Z</time></trkpt><trkpt lat="45.67516847385081" lon="-0.22215446576091008"><ele>12.0</ele><time>2026-04-19T16:23:34Z</time></trkpt><trkpt lat="45.675198521417414" lon="-0.22204558275660535"><ele>12.0</ele><time>2026-04-19T16:23:35Z</time></trkpt><trkpt lat="45.675217374425934" lon="-0.22192533500711303"><ele>12.0</ele><time>2026-04-19T16:23:36Z</time></trkpt><trkpt lat="45.67523817693805" lon="-0.22180660295927407"><ele>12.0</ele><time>2026-04-19T16:23:37Z</time></trkpt><trkpt lat="45.6752493678444" lon="-0.22168887419246616"><ele>12.0</ele><time>2026-04-19T16:23:38Z</time></trkpt><trkpt lat="45.67524503868569" lon="-0.2215816368947198"><ele>12.0</ele><time>2026-04-19T16:23:39Z</time></trkpt><trkpt lat="45.675254119455374" lon="-0.22148720714413894"><ele>12.0</ele><time>2026-04-19T16:23:40Z</time></trkpt><trkpt lat="45.67526285364783" lon="-0.22139638144103727"><ele>12.0</ele><time>2026-04-19T16:23:41Z</time></trkpt><trkpt lat="45.67528970817459" lon="-0.22128657872557106"><ele>12.0</ele><time>2026-04-19T16:23:42Z</time></trkpt><trkpt lat="45.67528270878458" lon="-0.2211650757702043"><ele>12.0</ele><time>2026-04-19T16:23:43Z</time></trkpt><trkpt lat="45.67529045170709" lon="-0.22106120385857783"><ele>12.0</ele><time>2026-04-19T16:23:44Z</time></trkpt><trkpt lat="45.67530431680255" lon="-0.22095492670453556"><ele>12.0</ele><time>2026-04-19T16:23:45Z</time></trkpt><trkpt lat="45.67533254556315" lon="-0.22084757803715935"><ele>12.0</ele><time>2026-04-19T16:23:46Z</time></trkpt><trkpt lat="45.67536812751825" lon="-0.22071638052057013"><ele>11.5</ele><time>2026-04-19T16:23:47Z</time></trkpt><trkpt lat="45.67542432945326" lon="-0.2205868256813321"><ele>11.0</ele><time>2026-04-19T16:23:48Z</time></trkpt><trkpt lat="45.67550391742811" lon="-0.220391927930873"><ele>10.5</ele><time>2026-04-19T16:23:49Z</time></trkpt><trkpt lat="45.6755852499871" lon="-0.22021055234118578"><ele>10.0</ele><time>2026-04-19T16:23:50Z</time></trkpt><trkpt lat="45.67562982272761" lon="-0.2200544229697428"><ele>10.0</ele><time>2026-04-19T16:23:51Z</time></trkpt><trkpt lat="45.675690002163456" lon="-0.219929177125706"><ele>10.0</ele><time>2026-04-19T16:23:52Z</time></trkpt><trkpt lat="45.675734072414805" lon="-0.21977484201138292"><ele>10.0</ele><time>2026-04-19T16:23:53Z</time></trkpt><trkpt lat="45.6757658424872" lon="-0.219627973836266"><ele>10.0</ele><time>2026-04-19T16:23:54Z</time></trkpt><trkpt lat="45.67579127557566" lon="-0.21948860439566797"><ele>10.0</ele><time>2026-04-19T16:23:55Z</time></trkpt><trkpt lat="45.6758150429862" lon="-0.2193366022886444"><ele>10.0</ele><time>2026-04-19T16:23:56Z</time></trkpt><trkpt lat="45.67582494514713" lon="-0.21919719816474176"><ele>10.0</ele><time>2026-04-19T16:23:57Z</time></trkpt><trkpt lat="45.67584514923166" lon="-0.21905152906546366"><ele>10.0</ele><time>2026-04-19T16:23:58Z</time></trkpt><trkpt lat="45.67585289679609" lon="-0.2188895596954658"><ele>10.0</ele><time>2026-04-19T16:23:59Z</time></trkpt><trkpt lat="45.675856943291556" lon="-0.21876125204800825"><ele>10.0</ele><time>2026-04-19T16:24:00Z</time></trkpt><trkpt lat="45.67585547096899" lon="-0.218623054178193"><ele>10.0</ele><time>2026-04-19T16:24:01Z</time></trkpt><trkpt lat="45.675870586438684" lon="-0.21851338333647385"><ele>10.0</ele><time>2026-04-19T16:24:02Z</time></trkpt><trkpt lat="45.67587881579995" lon="-0.2183893428411825"><ele>10.0</ele><time>2026-04-19T16:24:03Z</time></trkpt><trkpt lat="45.675880530700965" lon="-0.21825022250632814"><ele>10.0</ele><time>2026-04-19T16:24:04Z</time></trkpt><trkpt lat="45.67589845137298" lon="-0.21814348425444266"><ele>10.0</ele><time>2026-04-19T16:24:05Z</time></trkpt><trkpt lat="45.67591002475861" lon="-0.21803459711581843"><ele>10.0</ele><time>2026-04-19T16:24:06Z</time></trkpt><trkpt lat="45.67592807513908" lon="-0.2179212432497319"><ele>10.333333333333334</ele><time>2026-04-19T16:24:07Z</time></trkpt><trkpt lat="45.67592859210555" lon="-0.2178243960771211"><ele>10.666666666666668</ele><time>2026-04-19T16:24:08Z</time></trkpt><trkpt lat="45.675942804376" lon="-0.21772617578337727"><ele>11.0</ele><time>2026-04-19T16:24:09Z</time></trkpt><trkpt lat="45.6759804294239" lon="-0.21753951456580298"><ele>11.333333333333334</ele><time>2026-04-19T16:24:11Z</time></trkpt><trkpt lat="45.675997733879626" lon="-0.2174197624550388"><ele>11.666666666666666</ele><time>2026-04-19T16:24:12Z</time></trkpt><trkpt lat="45.6760044106622" lon="-0.21729992044936436"><ele>12.0</ele><time>2026-04-19T16:24:13Z</time></trkpt><trkpt lat="45.67601925772832" lon="-0.2171956766350137"><ele>12.0</ele><time>2026-04-19T16:24:14Z</time></trkpt><trkpt lat="45.67604969825526" lon="-0.21709647816797553"><ele>12.0</ele><time>2026-04-19T16:24:15Z</time></trkpt><trkpt lat="45.67606355952456" lon="-0.2169907904332733"><ele>12.0</ele><time>2026-04-19T16:24:16Z</time></trkpt><trkpt lat="45.67610191434336" lon="-0.21682366182740034"><ele>12.0</ele><time>2026-04-19T16:24:18Z</time></trkpt><trkpt lat="45.67613177492335" lon="-0.21669418689979522"><ele>12.0</ele><time>2026-04-19T16:24:20Z</time></trkpt><trkpt lat="45.676157762611055" lon="-0.2165862143261939"><ele>12.0</ele><time>2026-04-19T16:24:21Z</time></trkpt><trkpt lat="45.67616413974851" lon="-0.21647638775075034"><ele>13.0</ele><time>2026-04-19T16:24:22Z</time></trkpt><trkpt lat="45.676213578406006" lon="-0.21631049544352976"><ele>14.0</ele><time>2026-04-19T16:24:24Z</time></trkpt><trkpt lat="45.67622976859254" lon="-0.21614319053959782"><ele>15.0</ele><time>2026-04-19T16:24:26Z</time></trkpt><trkpt lat="45.676274104436075" lon="-0.21598935964582044"><ele>16.0</ele><time>2026-04-19T16:24:28Z</time></trkpt><trkpt lat="45.67630278264228" lon="-0.2158509824435728"><ele>16.0</ele><time>2026-04-19T16:24:30Z</time></trkpt><trkpt lat="45.67632042606551" lon="-0.21570789034865567"><ele>16.0</ele><time>2026-04-19T16:24:32Z</time></trkpt><trkpt lat="45.676343964866085" lon="-0.21559268468487894"><ele>16.0</ele><time>2026-04-19T16:24:34Z</time></trkpt><trkpt lat="45.67638599406747" lon="-0.21544541902376063"><ele>16.0</ele><time>2026-04-19T16:24:36Z</time></trkpt><trkpt lat="45.67639908116466" lon="-0.21531546448630676"><ele>16.0</ele><time>2026-04-19T16:24:38Z</time></trkpt><trkpt lat="45.67643599751077" lon="-0.21517934488705226"><ele>16.0</ele><time>2026-04-19T16:24:40.001Z</time></trkpt><trkpt lat="45.67646678416174" lon="-0.21504676102290654"><ele>16.0</ele><time>2026-04-19T16:24:42.001Z</time></trkpt><trkpt lat="45.676490892775256" lon="-0.2149077475229254"><ele>16.0</ele><time>2026-04-19T16:24:44.001Z</time></trkpt><trkpt lat="45.676515129658995" lon="-0.21478190010476408"><ele>16.0</ele><time>2026-04-19T16:24:46.001Z</time></trkpt><trkpt lat="45.676543086496864" lon="-0.21465337488706743"><ele>16.0</ele><time>2026-04-19T16:24:48.001Z</time></trkpt><trkpt lat="45.676566283318415" lon="-0.2145043244994005"><ele>16.0</ele><time>2026-04-19T16:24:50.001Z</time></trkpt><trkpt lat="45.67659371087501" lon="-0.21436960888782872"><ele>16.0</ele><time>2026-04-19T16:24:52.001Z</time></trkpt><trkpt lat="45.67660908657403" lon="-0.21422143258160195"><ele>16.0</ele><time>2026-04-19T16:24:54.001Z</time></trkpt><trkpt lat="45.67663253807619" lon="-0.2140982845545084"><ele>16.0</ele><time>2026-04-19T16:24:56.001Z</time></trkpt><trkpt lat="45.676660493121794" lon="-0.21395607415426793"><ele>16.0</ele><time>2026-04-19T16:24:58.001Z</time></trkpt><trkpt lat="45.67668931237939" lon="-0.2138128360022867"><ele>16.0</ele><time>2026-04-19T16:25:00.001Z</time></trkpt><trkpt lat="45.67671705307706" lon="-0.21367495854212679"><ele>16.0</ele><time>2026-04-19T16:25:02.001Z</time></trkpt><trkpt lat="45.67674313309411" lon="-0.21354533505130446"><ele>16.0</ele><time>2026-04-19T16:25:04.001Z</time></trkpt><trkpt lat="45.67678782678588" lon="-0.21340587258251065"><ele>16.0</ele><time>2026-04-19T16:25:06.001Z</time></trkpt><trkpt lat="45.676814441515994" lon="-0.21326326535561188"><ele>16.0</ele><time>2026-04-19T16:25:08.001Z</time></trkpt><trkpt lat="45.67684156224594" lon="-0.21313117758583638"><ele>15.833333333333332</ele><time>2026-04-19T16:25:10.001Z</time></trkpt><trkpt lat="45.67687301993548" lon="-0.21298602300527078"><ele>15.666666666666666</ele><time>2026-04-19T16:25:12.001Z</time></trkpt><trkpt lat="45.676890922753735" lon="-0.21285393917306167"><ele>15.5</ele><time>2026-04-19T16:25:14.001Z</time></trkpt><trkpt lat="45.67693452319323" lon="-0.21271696207328733"><ele>15.333333333333332</ele><time>2026-04-19T16:25:16.001Z</time></trkpt><trkpt lat="45.67695695911006" lon="-0.2126209273464222"><ele>15.166666666666666</ele><time>2026-04-19T16:25:17.001Z</time></trkpt><trkpt lat="45.6769833578033" lon="-0.21252607151320546"><ele>15.0</ele><time>2026-04-19T16:25:18.001Z</time></trkpt><trkpt lat="45.676987176165014" lon="-0.2124300409083905"><ele>14.4</ele><time>2026-04-19T16:25:19.001Z</time></trkpt><trkpt lat="45.6770055102966" lon="-0.2123426616540778"><ele>13.8</ele><time>2026-04-19T16:25:20.001Z</time></trkpt><trkpt lat="45.677026774633035" lon="-0.21221046888933162"><ele>13.2</ele><time>2026-04-19T16:25:21.001Z</time></trkpt><trkpt lat="45.6770535008725" lon="-0.21205410767098642"><ele>12.6</ele><time>2026-04-19T16:25:22.001Z</time></trkpt><trkpt lat="45.67709137147455" lon="-0.21189862407527185"><ele>12.0</ele><time>2026-04-19T16:25:23.001Z</time></trkpt><trkpt lat="45.677107066761614" lon="-0.2117367359037147"><ele>12.0</ele><time>2026-04-19T16:25:24.001Z</time></trkpt><trkpt lat="45.67711985447431" lon="-0.21159172957408193"><ele>12.0</ele><time>2026-04-19T16:25:25.001Z</time></trkpt><trkpt lat="45.67712190177897" lon="-0.2114566916813176"><ele>12.0</ele><time>2026-04-19T16:25:26.001Z</time></trkpt><trkpt lat="45.67711604647825" lon="-0.21130915028802735"><ele>12.0</ele><time>2026-04-19T16:25:27.001Z</time></trkpt><trkpt lat="45.67710283426954" lon="-0.2111605242694439"><ele>12.0</ele><time>2026-04-19T16:25:28Z</time></trkpt><trkpt lat="45.67707025146305" lon="-0.21101402199096997"><ele>11.75</ele><time>2026-04-19T16:25:29Z</time></trkpt><trkpt lat="45.677043548958736" lon="-0.21086189684036927"><ele>11.5</ele><time>2026-04-19T16:25:30Z</time></trkpt><trkpt lat="45.67702298949785" lon="-0.21068171804303804"><ele>11.25</ele><time>2026-04-19T16:25:31Z</time></trkpt><trkpt lat="45.67699163078522" lon="-0.21053168486906162"><ele>11.0</ele><time>2026-04-19T16:25:32Z</time></trkpt><trkpt lat="45.67696569257595" lon="-0.2103793090844757"><ele>11.0</ele><time>2026-04-19T16:25:33Z</time></trkpt><trkpt lat="45.6769325083268" lon="-0.2102387502306186"><ele>11.0</ele><time>2026-04-19T16:25:34Z</time></trkpt><trkpt lat="45.67691856536314" lon="-0.21009661884232853"><ele>11.0</ele><time>2026-04-19T16:25:35Z</time></trkpt><trkpt lat="45.67689703672901" lon="-0.20995667986915575"><ele>11.0</ele><time>2026-04-19T16:25:36Z</time></trkpt><trkpt lat="45.676877108286725" lon="-0.20982187047073791"><ele>11.0</ele><time>2026-04-19T16:25:37Z</time></trkpt><trkpt lat="45.67685885479076" lon="-0.2096987990330837"><ele>11.142857142857142</ele><time>2026-04-19T16:25:38Z</time></trkpt><trkpt lat="45.676848001823096" lon="-0.20959144684174089"><ele>11.285714285714285</ele><time>2026-04-19T16:25:39Z</time></trkpt><trkpt lat="45.676834200911124" lon="-0.2094956433309069"><ele>11.428571428571427</ele><time>2026-04-19T16:25:40Z</time></trkpt><trkpt lat="45.67682830959272" lon="-0.20939628009176098"><ele>11.571428571428571</ele><time>2026-04-19T16:25:41Z</time></trkpt><trkpt lat="45.67681804521062" lon="-0.20929596795279062"><ele>11.714285714285714</ele><time>2026-04-19T16:25:42Z</time></trkpt><trkpt lat="45.67681073968086" lon="-0.20920442616927992"><ele>11.857142857142856</ele><time>2026-04-19T16:25:43Z</time></trkpt><trkpt lat="45.67680391772038" lon="-0.20911077996552868"><ele>12.0</ele><time>2026-04-19T16:25:44Z</time></trkpt><trkpt lat="45.67678292764803" lon="-0.20902052449516995"><ele>12.0</ele><time>2026-04-19T16:25:45Z</time></trkpt><trkpt lat="45.6767682823397" lon="-0.20883467042284468"><ele>12.0</ele><time>2026-04-19T16:25:47Z</time></trkpt><trkpt lat="45.676771459834484" lon="-0.2086655554371928"><ele>12.0</ele><time>2026-04-19T16:25:49Z</time></trkpt><trkpt lat="45.67676110602487" lon="-0.20849017213806678"><ele>12.0</ele><time>2026-04-19T16:25:51Z</time></trkpt><trkpt lat="45.67675827785181" lon="-0.2083207931240782"><ele>11.6</ele><time>2026-04-19T16:25:53Z</time></trkpt><trkpt lat="45.676755966765796" lon="-0.20815151116440578"><ele>11.2</ele><time>2026-04-19T16:25:55Z</time></trkpt><trkpt lat="45.67675241558876" lon="-0.207989178928489"><ele>10.8</ele><time>2026-04-19T16:25:57Z</time></trkpt><trkpt lat="45.676748797466516" lon="-0.2078137617376888"><ele>10.4</ele><time>2026-04-19T16:25:59Z</time></trkpt><trkpt lat="45.676747532325244" lon="-0.20771516026945425"><ele>10.0</ele><time>2026-04-19T16:26:00Z</time></trkpt><trkpt lat="45.67674766053706" lon="-0.2076180005012256"><ele>10.0</ele><time>2026-04-19T16:26:01Z</time></trkpt><trkpt lat="45.67674602726595" lon="-0.20751252684285665"><ele>10.0</ele><time>2026-04-19T16:26:02Z</time></trkpt><trkpt lat="45.676749990510004" lon="-0.20741616109385533"><ele>10.0</ele><time>2026-04-19T16:26:03Z</time></trkpt><trkpt lat="45.676755933777585" lon="-0.20730447225180243"><ele>10.0</ele><time>2026-04-19T16:26:04Z</time></trkpt><trkpt lat="45.67675349702998" lon="-0.207187296052146"><ele>10.0</ele><time>2026-04-19T16:26:05Z</time></trkpt><trkpt lat="45.676743838821636" lon="-0.20706870875989788"><ele>10.0</ele><time>2026-04-19T16:26:06Z</time></trkpt><trkpt lat="45.67673148442962" lon="-0.20696562771044677"><ele>10.0</ele><time>2026-04-19T16:26:07Z</time></trkpt><trkpt lat="45.67672922929349" lon="-0.20687271329917428"><ele>10.0</ele><time>2026-04-19T16:26:08Z</time></trkpt><trkpt lat="45.67670027805492" lon="-0.2066744906261288"><ele>10.0</ele><time>2026-04-19T16:26:10Z</time></trkpt><trkpt lat="45.67668013046328" lon="-0.20656667428497494"><ele>10.0</ele><time>2026-04-19T16:26:11Z</time></trkpt><trkpt lat="45.6766644911921" lon="-0.2064631429843022"><ele>10.0</ele><time>2026-04-19T16:26:12Z</time></trkpt><trkpt lat="45.67663176226428" lon="-0.20637461318762876"><ele>10.0</ele><time>2026-04-19T16:26:13Z</time></trkpt><trkpt lat="45.67662795478188" lon="-0.20628165310025837"><ele>10.4</ele><time>2026-04-19T16:26:14Z</time></trkpt><trkpt lat="45.676611230253876" lon="-0.20610787524659654"><ele>10.8</ele><time>2026-04-19T16:26:16Z</time></trkpt><trkpt lat="45.676602926912366" lon="-0.2059470753422363"><ele>11.2</ele><time>2026-04-19T16:26:18Z</time></trkpt><trkpt lat="45.67659160803858" lon="-0.20581254673659288"><ele>11.6</ele><time>2026-04-19T16:26:20Z</time></trkpt><trkpt lat="45.6765741026568" lon="-0.20567337921448098"><ele>12.0</ele><time>2026-04-19T16:26:22Z</time></trkpt><trkpt lat="45.676547544364276" lon="-0.20556880606391262"><ele>12.0</ele><time>2026-04-19T16:26:24Z</time></trkpt><trkpt lat="45.676525821847044" lon="-0.20545762205622423"><ele>12.0</ele><time>2026-04-19T16:26:27Z</time></trkpt><trkpt lat="45.67655930270388" lon="-0.20556715877160753"><ele>12.0</ele><time>2026-04-19T16:31:49.001Z</time></trkpt><trkpt lat="45.676594589625275" lon="-0.20567159331729204"><ele>12.0</ele><time>2026-04-19T16:31:52.001Z</time></trkpt><trkpt lat="45.676593921286994" lon="-0.2057885884230588"><ele>12.0</ele><time>2026-04-19T16:31:55.001Z</time></trkpt><trkpt lat="45.67660394975152" lon="-0.2059046137008537"><ele>12.0</ele><time>2026-04-19T16:31:58.001Z</time></trkpt><trkpt lat="45.676627767260676" lon="-0.2060107047205104"><ele>12.0</ele><time>2026-04-19T16:32:01.001Z</time></trkpt><trkpt lat="45.67662204638484" lon="-0.20613408538116107"><ele>12.0</ele><time>2026-04-19T16:32:04.001Z</time></trkpt><trkpt lat="45.67663211854241" lon="-0.20624899914085507"><ele>12.0</ele><time>2026-04-19T16:32:07.001Z</time></trkpt><trkpt lat="45.67666443211997" lon="-0.20636543430713397"><ele>12.0</ele><time>2026-04-19T16:32:10.001Z</time></trkpt><trkpt lat="45.67668498945902" lon="-0.2064786538868819"><ele>12.0</ele><time>2026-04-19T16:32:13.001Z</time></trkpt><trkpt lat="45.676708225905344" lon="-0.20660335616892012"><ele>12.0</ele><time>2026-04-19T16:32:16.001Z</time></trkpt><trkpt lat="45.676727415426576" lon="-0.20671809984057452"><ele>11.6</ele><time>2026-04-19T16:32:19.001Z</time></trkpt><trkpt lat="45.67673002941758" lon="-0.20684563626802543"><ele>11.2</ele><time>2026-04-19T16:32:22.001Z</time></trkpt><trkpt lat="45.676758358702706" lon="-0.2069697278048905"><ele>10.8</ele><time>2026-04-19T16:32:25.001Z</time></trkpt><trkpt lat="45.67676737457033" lon="-0.2070742341042272"><ele>10.4</ele><time>2026-04-19T16:32:27.001Z</time></trkpt><trkpt lat="45.67677334488709" lon="-0.20719549027806627"><ele>10.0</ele><time>2026-04-19T16:32:29.001Z</time></trkpt><trkpt lat="45.676772255718056" lon="-0.20735401535605744"><ele>10.0</ele><time>2026-04-19T16:32:31.001Z</time></trkpt><trkpt lat="45.67676989399296" lon="-0.20752635478197118"><ele>10.0</ele><time>2026-04-19T16:32:33.001Z</time></trkpt><trkpt lat="45.67677038161591" lon="-0.20761734505671042"><ele>10.0</ele><time>2026-04-19T16:32:34.001Z</time></trkpt><trkpt lat="45.676771404375486" lon="-0.20771220052742395"><ele>10.0</ele><time>2026-04-19T16:32:35.001Z</time></trkpt><trkpt lat="45.67677244263666" lon="-0.20780849368678453"><ele>10.0</ele><time>2026-04-19T16:32:36.001Z</time></trkpt><trkpt lat="45.6767585120806" lon="-0.2078976284730054"><ele>10.0</ele><time>2026-04-19T16:32:37.001Z</time></trkpt><trkpt lat="45.676762102890436" lon="-0.20799323395482863"><ele>10.0</ele><time>2026-04-19T16:32:38.001Z</time></trkpt><trkpt lat="45.67676489249544" lon="-0.20808785881595046"><ele>10.333333333333334</ele><time>2026-04-19T16:32:39.001Z</time></trkpt><trkpt lat="45.67676400859952" lon="-0.20827404007191375"><ele>10.666666666666668</ele><time>2026-04-19T16:32:41.001Z</time></trkpt><trkpt lat="45.67676524735837" lon="-0.2083728448503726"><ele>11.0</ele><time>2026-04-19T16:32:42.001Z</time></trkpt><trkpt lat="45.676782877040225" lon="-0.2084761018627358"><ele>11.333333333333334</ele><time>2026-04-19T16:32:43.001Z</time></trkpt><trkpt lat="45.676770579451095" lon="-0.20857624023562724"><ele>11.666666666666666</ele><time>2026-04-19T16:32:44.001Z</time></trkpt><trkpt lat="45.67677669883662" lon="-0.20868003254738648"><ele>12.0</ele><time>2026-04-19T16:32:45.001Z</time></trkpt><trkpt lat="45.67678517037951" lon="-0.2087836826918399"><ele>12.0</ele><time>2026-04-19T16:32:46.001Z</time></trkpt><trkpt lat="45.676804727938" lon="-0.20887668406472887"><ele>12.0</ele><time>2026-04-19T16:32:47.001Z</time></trkpt><trkpt lat="45.676812672663864" lon="-0.20897578503754471"><ele>12.0</ele><time>2026-04-19T16:32:48.001Z</time></trkpt><trkpt lat="45.67682064774963" lon="-0.20907001449747073"><ele>12.0</ele><time>2026-04-19T16:32:49.001Z</time></trkpt><trkpt lat="45.67682100634891" lon="-0.20918017970869449"><ele>12.0</ele><time>2026-04-19T16:32:50.001Z</time></trkpt><trkpt lat="45.67682967271036" lon="-0.20929174957762503"><ele>12.0</ele><time>2026-04-19T16:32:51.001Z</time></trkpt><trkpt lat="45.67684086550337" lon="-0.20942190325284246"><ele>12.0</ele><time>2026-04-19T16:32:52.001Z</time></trkpt><trkpt lat="45.67684785864717" lon="-0.209534481781004"><ele>12.0</ele><time>2026-04-19T16:32:53.001Z</time></trkpt><trkpt lat="45.67686382475033" lon="-0.20964003612869306"><ele>12.0</ele><time>2026-04-19T16:32:54.001Z</time></trkpt><trkpt lat="45.676882084122745" lon="-0.20981539463215296"><ele>12.0</ele><time>2026-04-19T16:32:56.001Z</time></trkpt><trkpt lat="45.67691028478488" lon="-0.2099834146544114"><ele>12.0</ele><time>2026-04-19T16:32:58.001Z</time></trkpt><trkpt lat="45.67692288633511" lon="-0.21007891578326465"><ele>11.75</ele><time>2026-04-19T16:32:59.001Z</time></trkpt><trkpt lat="45.67695144100384" lon="-0.21025206084941941"><ele>11.5</ele><time>2026-04-19T16:33:01.001Z</time></trkpt><trkpt lat="45.67699834531298" lon="-0.21042990256547098"><ele>11.25</ele><time>2026-04-19T16:33:03.001Z</time></trkpt><trkpt lat="45.677026484321374" lon="-0.2105825668336499"><ele>11.0</ele><time>2026-04-19T16:33:05.001Z</time></trkpt><trkpt lat="45.677046743197195" lon="-0.21075347563299754"><ele>11.0</ele><time>2026-04-19T16:33:07.001Z</time></trkpt><trkpt lat="45.67707477577845" lon="-0.21084456536267784"><ele>11.0</ele><time>2026-04-19T16:33:08.001Z</time></trkpt><trkpt lat="45.6770763420732" lon="-0.21094328143835014"><ele>11.0</ele><time>2026-04-19T16:33:09.001Z</time></trkpt><trkpt lat="45.677097994066614" lon="-0.2110346858174984"><ele>11.0</ele><time>2026-04-19T16:33:10.001Z</time></trkpt><trkpt lat="45.677115410104705" lon="-0.21112718697805558"><ele>11.0</ele><time>2026-04-19T16:33:11.001Z</time></trkpt><trkpt lat="45.67712855507505" lon="-0.21123167988325167"><ele>11.0</ele><time>2026-04-19T16:33:12.001Z</time></trkpt><trkpt lat="45.677131005302826" lon="-0.21135043186235666"><ele>11.0</ele><time>2026-04-19T16:33:13.001Z</time></trkpt><trkpt lat="45.67715029664159" lon="-0.2114637439314123"><ele>11.200000000000001</ele><time>2026-04-19T16:33:14.001Z</time></trkpt><trkpt lat="45.67715473254274" lon="-0.21157775634666623"><ele>11.4</ele><time>2026-04-19T16:33:15.001Z</time></trkpt><trkpt lat="45.67714473593776" lon="-0.2117200619063736"><ele>11.6</ele><time>2026-04-19T16:33:16.001Z</time></trkpt><trkpt lat="45.67710321345738" lon="-0.21187251203107596"><ele>11.8</ele><time>2026-04-19T16:33:17.001Z</time></trkpt><trkpt lat="45.677083363547645" lon="-0.21202148645386776"><ele>12.0</ele><time>2026-04-19T16:33:18.001Z</time></trkpt><trkpt lat="45.67706350407386" lon="-0.21214825062940987"><ele>12.0</ele><time>2026-04-19T16:33:19.001Z</time></trkpt><trkpt lat="45.67704133255326" lon="-0.21226372077005118"><ele>12.0</ele><time>2026-04-19T16:33:20.001Z</time></trkpt><trkpt lat="45.67702228675799" lon="-0.2123728379735612"><ele>12.0</ele><time>2026-04-19T16:33:21.001Z</time></trkpt><trkpt lat="45.67699480351657" lon="-0.21248262265767043"><ele>12.0</ele><time>2026-04-19T16:33:22.001Z</time></trkpt><trkpt lat="45.676988179105976" lon="-0.21259087207312613"><ele>12.0</ele><time>2026-04-19T16:33:23.001Z</time></trkpt><trkpt lat="45.67694767499528" lon="-0.21268997889771696"><ele>12.0</ele><time>2026-04-19T16:33:24.001Z</time></trkpt><trkpt lat="45.67693728381478" lon="-0.21280316979399153"><ele>12.5</ele><time>2026-04-19T16:33:25.001Z</time></trkpt><trkpt lat="45.67691342831298" lon="-0.21290927228344805"><ele>13.0</ele><time>2026-04-19T16:33:26.001Z</time></trkpt><trkpt lat="45.676888328338116" lon="-0.21302074214473132"><ele>13.5</ele><time>2026-04-19T16:33:27.001Z</time></trkpt><trkpt lat="45.676857052758024" lon="-0.21310210006344418"><ele>14.0</ele><time>2026-04-19T16:33:28.001Z</time></trkpt><trkpt lat="45.676821986656265" lon="-0.21326739919483947"><ele>14.5</ele><time>2026-04-19T16:33:30.001Z</time></trkpt><trkpt lat="45.6768008653859" lon="-0.21337342589477412"><ele>15.0</ele><time>2026-04-19T16:33:31.001Z</time></trkpt><trkpt lat="45.676778368105694" lon="-0.2134729901414198"><ele>15.166666666666666</ele><time>2026-04-19T16:33:32.001Z</time></trkpt><trkpt lat="45.676760653727726" lon="-0.21356956850087175"><ele>15.333333333333332</ele><time>2026-04-19T16:33:33.001Z</time></trkpt><trkpt lat="45.676738398940905" lon="-0.21367922509112908"><ele>15.5</ele><time>2026-04-19T16:33:34.001Z</time></trkpt><trkpt lat="45.676716582638434" lon="-0.21378727198813655"><ele>15.666666666666666</ele><time>2026-04-19T16:33:35.001Z</time></trkpt><trkpt lat="45.67669400403004" lon="-0.2139019979817078"><ele>15.833333333333332</ele><time>2026-04-19T16:33:36.001Z</time></trkpt><trkpt lat="45.67667212604968" lon="-0.21400836169158918"><ele>16.0</ele><time>2026-04-19T16:33:37.001Z</time></trkpt><trkpt lat="45.67664723916235" lon="-0.2141321549009566"><ele>15.999999999999998</ele><time>2026-04-19T16:33:38.001Z</time></trkpt><trkpt lat="45.67663311189823" lon="-0.21427641764236394"><ele>16.0</ele><time>2026-04-19T16:33:39.001Z</time></trkpt><trkpt lat="45.676599256586975" lon="-0.21439048872843988"><ele>16.0</ele><time>2026-04-19T16:33:40.001Z</time></trkpt><trkpt lat="45.67658654171688" lon="-0.21452096598636122"><ele>16.0</ele><time>2026-04-19T16:33:41.001Z</time></trkpt><trkpt lat="45.6765577182789" lon="-0.21461525625409383"><ele>15.999999999999998</ele><time>2026-04-19T16:33:42.001Z</time></trkpt><trkpt lat="45.676534799043914" lon="-0.21472855716144273"><ele>16.0</ele><time>2026-04-19T16:33:43.001Z</time></trkpt><trkpt lat="45.67651316453695" lon="-0.21484012461424712"><ele>15.833333333333332</ele><time>2026-04-19T16:33:44.001Z</time></trkpt><trkpt lat="45.676476423547065" lon="-0.21502377759853739"><ele>15.666666666666666</ele><time>2026-04-19T16:33:46.001Z</time></trkpt><trkpt lat="45.67645415637866" lon="-0.21513616172537223"><ele>15.5</ele><time>2026-04-19T16:33:47.001Z</time></trkpt><trkpt lat="45.676432471658906" lon="-0.2152490415700268"><ele>15.333333333333332</ele><time>2026-04-19T16:33:48.001Z</time></trkpt><trkpt lat="45.67640968339989" lon="-0.21535906298872784"><ele>15.166666666666666</ele><time>2026-04-19T16:33:49.001Z</time></trkpt><trkpt lat="45.67640487856722" lon="-0.21546153122341638"><ele>15.0</ele><time>2026-04-19T16:33:50.001Z</time></trkpt><trkpt lat="45.67637742418731" lon="-0.2155494649955163"><ele>15.0</ele><time>2026-04-19T16:33:51.001Z</time></trkpt><trkpt lat="45.676355999068505" lon="-0.21564175176070938"><ele>15.0</ele><time>2026-04-19T16:33:52Z</time></trkpt><trkpt lat="45.67633157444507" lon="-0.21582028385828006"><ele>15.0</ele><time>2026-04-19T16:33:54Z</time></trkpt><trkpt lat="45.676294828562646" lon="-0.21599526028781132"><ele>15.0</ele><time>2026-04-19T16:33:56Z</time></trkpt><trkpt lat="45.676268401730916" lon="-0.21612260745129405"><ele>15.0</ele><time>2026-04-19T16:33:57Z</time></trkpt><trkpt lat="45.67621952935359" lon="-0.2162948043618407"><ele>15.0</ele><time>2026-04-19T16:33:59Z</time></trkpt><trkpt lat="45.67620212347858" lon="-0.21645910175335303"><ele>15.0</ele><time>2026-04-19T16:34:01Z</time></trkpt><trkpt lat="45.676149695074855" lon="-0.2166427545191344"><ele>15.0</ele><time>2026-04-19T16:34:03Z</time></trkpt><trkpt lat="45.67613981604543" lon="-0.21676237169641338"><ele>15.0</ele><time>2026-04-19T16:34:04Z</time></trkpt><trkpt lat="45.67611733935564" lon="-0.21686498966234002"><ele>15.0</ele><time>2026-04-19T16:34:05Z</time></trkpt><trkpt lat="45.67609217078497" lon="-0.21698120398309742"><ele>14.571428571428571</ele><time>2026-04-19T16:34:06Z</time></trkpt><trkpt lat="45.67606075293397" lon="-0.21707282035971834"><ele>14.142857142857142</ele><time>2026-04-19T16:34:07Z</time></trkpt><trkpt lat="45.67604011854256" lon="-0.21717634332315122"><ele>13.714285714285714</ele><time>2026-04-19T16:34:08Z</time></trkpt><trkpt lat="45.6760419020354" lon="-0.21727556735235"><ele>13.285714285714285</ele><time>2026-04-19T16:34:09Z</time></trkpt><trkpt lat="45.67602827267494" lon="-0.21737022297493777"><ele>12.857142857142858</ele><time>2026-04-19T16:34:10Z</time></trkpt><trkpt lat="45.676013176143606" lon="-0.2174747542061304"><ele>12.428571428571427</ele><time>2026-04-19T16:34:11Z</time></trkpt><trkpt lat="45.675998993343526" lon="-0.21757277083198612"><ele>12.0</ele><time>2026-04-19T16:34:12Z</time></trkpt><trkpt lat="45.675972961570075" lon="-0.2176658951531041"><ele>12.0</ele><time>2026-04-19T16:34:13Z</time></trkpt><trkpt lat="45.67596215794192" lon="-0.21776588634626962"><ele>12.0</ele><time>2026-04-19T16:34:14Z</time></trkpt><trkpt lat="45.675941049820686" lon="-0.21789094455258953"><ele>12.0</ele><time>2026-04-19T16:34:15Z</time></trkpt><trkpt lat="45.67592952107875" lon="-0.2180770737820635"><ele>12.0</ele><time>2026-04-19T16:34:17Z</time></trkpt><trkpt lat="45.675918646975084" lon="-0.2181725919341086"><ele>12.0</ele><time>2026-04-19T16:34:18Z</time></trkpt><trkpt lat="45.67590882876869" lon="-0.21826873140169079"><ele>12.0</ele><time>2026-04-19T16:34:19Z</time></trkpt><trkpt lat="45.67587916405177" lon="-0.21846242483251507"><ele>11.666666666666666</ele><time>2026-04-19T16:34:21Z</time></trkpt><trkpt lat="45.67587469310547" lon="-0.21857195618913594"><ele>11.333333333333334</ele><time>2026-04-19T16:34:22Z</time></trkpt><trkpt lat="45.67587558412954" lon="-0.21869043376627192"><ele>11.0</ele><time>2026-04-19T16:34:23Z</time></trkpt><trkpt lat="45.67587752439561" lon="-0.2188203096818896"><ele>10.666666666666668</ele><time>2026-04-19T16:34:24Z</time></trkpt><trkpt lat="45.675871099756066" lon="-0.21893824844984142"><ele>10.333333333333334</ele><time>2026-04-19T16:34:25Z</time></trkpt><trkpt lat="45.67586460294485" lon="-0.21904894799998956"><ele>10.0</ele><time>2026-04-19T16:34:26Z</time></trkpt><trkpt lat="45.67585328624813" lon="-0.2191571995003047"><ele>10.0</ele><time>2026-04-19T16:34:27Z</time></trkpt><trkpt lat="45.675841991671255" lon="-0.2192684635771556"><ele>10.0</ele><time>2026-04-19T16:34:28Z</time></trkpt><trkpt lat="45.675823555323305" lon="-0.21940371127132263"><ele>10.0</ele><time>2026-04-19T16:34:29Z</time></trkpt><trkpt lat="45.675805192801555" lon="-0.21952204895137756"><ele>10.0</ele><time>2026-04-19T16:34:30Z</time></trkpt><trkpt lat="45.67577945869638" lon="-0.21963083000948994"><ele>10.0</ele><time>2026-04-19T16:34:31Z</time></trkpt><trkpt lat="45.675757521206805" lon="-0.219727792107602"><ele>10.0</ele><time>2026-04-19T16:34:32Z</time></trkpt><trkpt lat="45.675732524544266" lon="-0.219824709245421"><ele>10.0</ele><time>2026-04-19T16:34:33Z</time></trkpt><trkpt lat="45.67569989479144" lon="-0.21991447739033662"><ele>10.0</ele><time>2026-04-19T16:34:34Z</time></trkpt><trkpt lat="45.675665998391786" lon="-0.22002007681149438"><ele>10.0</ele><time>2026-04-19T16:34:35Z</time></trkpt><trkpt lat="45.675630068669754" lon="-0.22010762594296118"><ele>10.0</ele><time>2026-04-19T16:34:36Z</time></trkpt><trkpt lat="45.67559913202489" lon="-0.22020266194281615"><ele>10.0</ele><time>2026-04-19T16:34:37Z</time></trkpt><trkpt lat="45.67556032800487" lon="-0.22030905342131768"><ele>10.0</ele><time>2026-04-19T16:34:38Z</time></trkpt><trkpt lat="45.67552411073912" lon="-0.22040896530706774"><ele>10.0</ele><time>2026-04-19T16:34:39Z</time></trkpt><trkpt lat="45.675482541494844" lon="-0.2205077244178912"><ele>10.0</ele><time>2026-04-19T16:34:40Z</time></trkpt><trkpt lat="45.67545427806283" lon="-0.22061482100350854"><ele>10.0</ele><time>2026-04-19T16:34:41Z</time></trkpt><trkpt lat="45.67541638348197" lon="-0.22070939656657615"><ele>10.0</ele><time>2026-04-19T16:34:42Z</time></trkpt><trkpt lat="45.675386266399244" lon="-0.22078927530098524"><ele>10.0</ele><time>2026-04-19T16:34:43Z</time></trkpt><trkpt lat="45.67535631502528" lon="-0.22088334299135967"><ele>10.0</ele><time>2026-04-19T16:34:44Z</time></trkpt><trkpt lat="45.67531870010858" lon="-0.2210068709656292"><ele>10.333333333333334</ele><time>2026-04-19T16:34:45Z</time></trkpt><trkpt lat="45.67531405642316" lon="-0.22113221463432758"><ele>10.666666666666668</ele><time>2026-04-19T16:34:46Z</time></trkpt><trkpt lat="45.67530593279702" lon="-0.22123645338161166"><ele>11.0</ele><time>2026-04-19T16:34:47Z</time></trkpt><trkpt lat="45.6752837024681" lon="-0.22135924611866156"><ele>11.333333333333334</ele><time>2026-04-19T16:34:48Z</time></trkpt><trkpt lat="45.67528960264534" lon="-0.22146764013264492"><ele>11.666666666666666</ele><time>2026-04-19T16:34:49Z</time></trkpt><trkpt lat="45.67527539388009" lon="-0.22161539526354015"><ele>12.0</ele><time>2026-04-19T16:34:50Z</time></trkpt><trkpt lat="45.6752646216725" lon="-0.22172513499179844"><ele>12.0</ele><time>2026-04-19T16:34:51Z</time></trkpt><trkpt lat="45.675232021796965" lon="-0.22189071553924267"><ele>12.0</ele><time>2026-04-19T16:34:52Z</time></trkpt><trkpt lat="45.67521075036307" lon="-0.2220326251044289"><ele>12.0</ele><time>2026-04-19T16:34:53Z</time></trkpt><trkpt lat="45.675192530462596" lon="-0.2221375838406856"><ele>12.0</ele><time>2026-04-19T16:34:54Z</time></trkpt><trkpt lat="45.67517608819816" lon="-0.22224463318782606"><ele>12.0</ele><time>2026-04-19T16:34:55Z</time></trkpt><trkpt lat="45.675157419195806" lon="-0.22234918507007415"><ele>12.0</ele><time>2026-04-19T16:34:56Z</time></trkpt><trkpt lat="45.675135935358654" lon="-0.22246512240311095"><ele>12.0</ele><time>2026-04-19T16:34:57Z</time></trkpt><trkpt lat="45.675117078287684" lon="-0.22257444791145206"><ele>12.0</ele><time>2026-04-19T16:34:58Z</time></trkpt><trkpt lat="45.675104681779594" lon="-0.22268797398559403"><ele>12.0</ele><time>2026-04-19T16:34:59Z</time></trkpt><trkpt lat="45.67509594825137" lon="-0.2228029453748114"><ele>12.0</ele><time>2026-04-19T16:35:00Z</time></trkpt><trkpt lat="45.675067564279814" lon="-0.22290761951999255"><ele>12.0</ele><time>2026-04-19T16:35:01Z</time></trkpt><trkpt lat="45.675049234552404" lon="-0.2230070207677618"><ele>12.0</ele><time>2026-04-19T16:35:02Z</time></trkpt><trkpt lat="45.67503045324342" lon="-0.22310538630535745"><ele>12.166666666666666</ele><time>2026-04-19T16:35:03Z</time></trkpt><trkpt lat="45.67501003511336" lon="-0.22321147490199572"><ele>12.333333333333332</ele><time>2026-04-19T16:35:04Z</time></trkpt><trkpt lat="45.67499483984194" lon="-0.22331706533502443"><ele>12.5</ele><time>2026-04-19T16:35:05Z</time></trkpt><trkpt lat="45.67497723232255" lon="-0.22342990062117948"><ele>12.666666666666666</ele><time>2026-04-19T16:35:06Z</time></trkpt><trkpt lat="45.67496279367118" lon="-0.2235473025738618"><ele>12.833333333333332</ele><time>2026-04-19T16:35:07Z</time></trkpt><trkpt lat="45.674965018707866" lon="-0.22365194264716914"><ele>13.0</ele><time>2026-04-19T16:35:08Z</time></trkpt><trkpt lat="45.6749873887841" lon="-0.22374854218910198"><ele>13.0</ele><time>2026-04-19T16:35:09Z</time></trkpt><trkpt lat="45.67508517026099" lon="-0.22387121219603187"><ele>13.0</ele><time>2026-04-19T16:35:11Z</time></trkpt><trkpt lat="45.67515675992485" lon="-0.22387957114666412"><ele>13.0</ele><time>2026-04-19T16:35:12Z</time></trkpt><trkpt lat="45.67526688862167" lon="-0.22393177935297243"><ele>13.0</ele><time>2026-04-19T16:35:14Z</time></trkpt><trkpt lat="45.67535340040371" lon="-0.22398203333415678"><ele>13.0</ele><time>2026-04-19T16:35:16Z</time></trkpt><trkpt lat="45.67540842484122" lon="-0.22405823500398564"><ele>13.0</ele><time>2026-04-19T16:35:18Z</time></trkpt><trkpt lat="45.67553892727423" lon="-0.2241182867416652"><ele>13.0</ele><time>2026-04-19T16:35:20Z</time></trkpt><trkpt lat="45.67564750428192" lon="-0.22416609133621965"><ele>13.0</ele><time>2026-04-19T16:35:21Z</time></trkpt><trkpt lat="45.67578460669708" lon="-0.22417793517846518"><ele>13.0</ele><time>2026-04-19T16:35:22Z</time></trkpt><trkpt lat="45.67593572356551" lon="-0.22421527723245527"><ele>13.0</ele><time>2026-04-19T16:35:23Z</time></trkpt><trkpt lat="45.67608282935641" lon="-0.22427632878044457"><ele>13.0</ele><time>2026-04-19T16:35:24Z</time></trkpt><trkpt lat="45.67623234724606" lon="-0.22431524706396916"><ele>13.0</ele><time>2026-04-19T16:35:25Z</time></trkpt><trkpt lat="45.67635786682192" lon="-0.22436281932286903"><ele>13.0</ele><time>2026-04-19T16:35:26Z</time></trkpt><trkpt lat="45.676485656122765" lon="-0.22438684124752784"><ele>12.666666666666666</ele><time>2026-04-19T16:35:27Z</time></trkpt><trkpt lat="45.67659208961795" lon="-0.22445817616456493"><ele>12.333333333333332</ele><time>2026-04-19T16:35:28Z</time></trkpt><trkpt lat="45.676683412223376" lon="-0.2245178985349488"><ele>12.0</ele><time>2026-04-19T16:35:29Z</time></trkpt><trkpt lat="45.676758516029594" lon="-0.224560015536582"><ele>11.666666666666666</ele><time>2026-04-19T16:35:30Z</time></trkpt><trkpt lat="45.676821729428035" lon="-0.22460160718920674"><ele>11.333333333333332</ele><time>2026-04-19T16:35:31Z</time></trkpt><trkpt lat="45.676882478332324" lon="-0.22466642508322038"><ele>11.0</ele><time>2026-04-19T16:35:32Z</time></trkpt><trkpt lat="45.67693265576061" lon="-0.22478536712938865"><ele>11.333333333333332</ele><time>2026-04-19T16:35:33Z</time></trkpt><trkpt lat="45.67701502282608" lon="-0.22508869775206697"><ele>11.666666666666666</ele><time>2026-04-19T16:35:35Z</time></trkpt><trkpt lat="45.67706564206611" lon="-0.2252677395399536"><ele>12.0</ele><time>2026-04-19T16:35:36Z</time></trkpt><trkpt lat="45.67712163089694" lon="-0.22537952268805225"><ele>12.0</ele><time>2026-04-19T16:35:37Z</time></trkpt><trkpt lat="45.67719286330822" lon="-0.2254825360865902"><ele>12.0</ele><time>2026-04-19T16:35:38Z</time></trkpt><trkpt lat="45.67732286216302" lon="-0.22552254177922096"><ele>12.0</ele><time>2026-04-19T16:35:39Z</time></trkpt><trkpt lat="45.67746102623747" lon="-0.22559971753209015"><ele>12.0</ele><time>2026-04-19T16:35:40Z</time></trkpt><trkpt lat="45.67760895236997" lon="-0.22570019468047958"><ele>12.333333333333332</ele><time>2026-04-19T16:35:41Z</time></trkpt><trkpt lat="45.6777578976533" lon="-0.22583149636039884"><ele>12.666666666666666</ele><time>2026-04-19T16:35:42Z</time></trkpt><trkpt lat="45.67788315807889" lon="-0.2259859078283447"><ele>13.0</ele><time>2026-04-19T16:35:43Z</time></trkpt><trkpt lat="45.677992256247556" lon="-0.22610746333316897"><ele>13.0</ele><time>2026-04-19T16:35:44Z</time></trkpt><trkpt lat="45.67809542304478" lon="-0.22619020617459634"><ele>13.0</ele><time>2026-04-19T16:35:45Z</time></trkpt><trkpt lat="45.67819933430026" lon="-0.22624587237627933"><ele>13.0</ele><time>2026-04-19T16:35:46Z</time></trkpt><trkpt lat="45.67830351883118" lon="-0.22627681457618112"><ele>13.0</ele><time>2026-04-19T16:35:47Z</time></trkpt><trkpt lat="45.67840875383712" lon="-0.22618971917868477"><ele>13.0</ele><time>2026-04-19T16:35:48Z</time></trkpt><trkpt lat="45.67854436883111" lon="-0.22613109008083887"><ele>13.0</ele><time>2026-04-19T16:35:49.001Z</time></trkpt><trkpt lat="45.67869634375348" lon="-0.22605744146622736"><ele>13.0</ele><time>2026-04-19T16:35:50.001Z</time></trkpt><trkpt lat="45.67883687204711" lon="-0.22600503106023292"><ele>13.0</ele><time>2026-04-19T16:35:51.001Z</time></trkpt><trkpt lat="45.67896826015928" lon="-0.22597163452455532"><ele>13.2</ele><time>2026-04-19T16:35:52.001Z</time></trkpt><trkpt lat="45.67908535522327" lon="-0.22595562037533823"><ele>13.4</ele><time>2026-04-19T16:35:53.001Z</time></trkpt><trkpt lat="45.67918049149071" lon="-0.22594188454305883"><ele>13.599999999999998</ele><time>2026-04-19T16:35:54.001Z</time></trkpt><trkpt lat="45.67927071322032" lon="-0.22589709919275114"><ele>13.799999999999999</ele><time>2026-04-19T16:35:55.001Z</time></trkpt><trkpt lat="45.679343887655016" lon="-0.22576867392519104"><ele>14.0</ele><time>2026-04-19T16:35:56.001Z</time></trkpt><trkpt lat="45.6794416734265" lon="-0.22564283302425933"><ele>14.0</ele><time>2026-04-19T16:35:57.001Z</time></trkpt><trkpt lat="45.679558120757946" lon="-0.22550195848394738"><ele>14.0</ele><time>2026-04-19T16:35:58Z</time></trkpt><trkpt lat="45.67966495833089" lon="-0.22535422848026876"><ele>14.0</ele><time>2026-04-19T16:35:59Z</time></trkpt><trkpt lat="45.679775905285254" lon="-0.22521290738835312"><ele>14.0</ele><time>2026-04-19T16:36:00Z</time></trkpt><trkpt lat="45.67988790594242" lon="-0.22505649932984165"><ele>14.0</ele><time>2026-04-19T16:36:01Z</time></trkpt><trkpt lat="45.68001421864496" lon="-0.22486419415475797"><ele>14.0</ele><time>2026-04-19T16:36:02Z</time></trkpt><trkpt lat="45.68015622586847" lon="-0.2246733042489969"><ele>14.0</ele><time>2026-04-19T16:36:03Z</time></trkpt><trkpt lat="45.68029255999542" lon="-0.224542747294855"><ele>14.0</ele><time>2026-04-19T16:36:04Z</time></trkpt><trkpt lat="45.68043816683208" lon="-0.22442970403879545"><ele>14.0</ele><time>2026-04-19T16:36:05Z</time></trkpt><trkpt lat="45.68058783806548" lon="-0.22432499176366422"><ele>14.0</ele><time>2026-04-19T16:36:06Z</time></trkpt><trkpt lat="45.68074727629882" lon="-0.22422770881916224"><ele>14.0</ele><time>2026-04-19T16:36:07Z</time></trkpt><trkpt lat="45.680887534452076" lon="-0.2241314575715043"><ele>14.0</ele><time>2026-04-19T16:36:08Z</time></trkpt><trkpt lat="45.68101261918598" lon="-0.22403017363140743"><ele>13.75</ele><time>2026-04-19T16:36:09Z</time></trkpt><trkpt lat="45.68112776132046" lon="-0.22393156708319423"><ele>13.5</ele><time>2026-04-19T16:36:10Z</time></trkpt><trkpt lat="45.681244393794685" lon="-0.22383451732154208"><ele>13.25</ele><time>2026-04-19T16:36:11Z</time></trkpt><trkpt lat="45.68137508759212" lon="-0.22373740358406655"><ele>13.0</ele><time>2026-04-19T16:36:12Z</time></trkpt><trkpt lat="45.68149381031436" lon="-0.22364780975947782"><ele>12.999999999999998</ele><time>2026-04-19T16:36:13Z</time></trkpt><trkpt lat="45.681584745998045" lon="-0.22356899410544562"><ele>13.0</ele><time>2026-04-19T16:36:14Z</time></trkpt><trkpt lat="45.68165034646605" lon="-0.22353007585749096"><ele>13.0</ele><time>2026-04-19T16:36:15Z</time></trkpt><trkpt lat="45.681712872133836" lon="-0.22350453718859287"><ele>13.0</ele><time>2026-04-19T16:36:16Z</time></trkpt><trkpt lat="45.68179056647529" lon="-0.22348063738350246"><ele>12.999999999999998</ele><time>2026-04-19T16:36:17Z</time></trkpt><trkpt lat="45.68188402665303" lon="-0.2234549239368472"><ele>13.0</ele><time>2026-04-19T16:36:18Z</time></trkpt><trkpt lat="45.6819867658077" lon="-0.2234232049514557"><ele>13.75</ele><time>2026-04-19T16:36:19Z</time></trkpt><trkpt lat="45.68210498617331" lon="-0.2234024828757721"><ele>14.5</ele><time>2026-04-19T16:36:20Z</time></trkpt><trkpt lat="45.6822130980771" lon="-0.22337698009938436"><ele>15.25</ele><time>2026-04-19T16:36:21Z</time></trkpt><trkpt lat="45.682339122191124" lon="-0.22334453766626117"><ele>16.0</ele><time>2026-04-19T16:36:22Z</time></trkpt><trkpt lat="45.682437818099515" lon="-0.2233093121289087"><ele>15.999999999999998</ele><time>2026-04-19T16:36:23Z</time></trkpt><trkpt lat="45.68250641333708" lon="-0.2232844235579655"><ele>16.0</ele><time>2026-04-19T16:36:24Z</time></trkpt><trkpt lat="45.68257295580538" lon="-0.22325624583356446"><ele>16.0</ele><time>2026-04-19T16:36:25Z</time></trkpt><trkpt lat="45.68264157141451" lon="-0.22319700001322715"><ele>16.0</ele><time>2026-04-19T16:36:26Z</time></trkpt><trkpt lat="45.68270108201538" lon="-0.22308347395540437"><ele>15.999999999999998</ele><time>2026-04-19T16:36:27Z</time></trkpt><trkpt lat="45.682762227310214" lon="-0.22294533724271998"><ele>16.0</ele><time>2026-04-19T16:36:28Z</time></trkpt><trkpt lat="45.682809210123224" lon="-0.22283714671269897"><ele>16.0</ele><time>2026-04-19T16:36:29Z</time></trkpt><trkpt lat="45.68287763259584" lon="-0.22266075019655632"><ele>16.0</ele><time>2026-04-19T16:36:31Z</time></trkpt><trkpt lat="45.6829297515137" lon="-0.22252686084905177"><ele>16.0</ele><time>2026-04-19T16:36:32Z</time></trkpt><trkpt lat="45.68299096432484" lon="-0.2223588132951989"><ele>16.0</ele><time>2026-04-19T16:36:33Z</time></trkpt><trkpt lat="45.68306506684672" lon="-0.222190055351859"><ele>16.0</ele><time>2026-04-19T16:36:34Z</time></trkpt><trkpt lat="45.68313819485856" lon="-0.22200853684466398"><ele>16.0</ele><time>2026-04-19T16:36:35Z</time></trkpt><trkpt lat="45.683213212789795" lon="-0.2218394296262827"><ele>16.0</ele><time>2026-04-19T16:36:36Z</time></trkpt><trkpt lat="45.68326968580295" lon="-0.22170894259122698"><ele>16.0</ele><time>2026-04-19T16:36:37Z</time></trkpt><trkpt lat="45.6833119047628" lon="-0.22160977345146715"><ele>14.75</ele><time>2026-04-19T16:36:38Z</time></trkpt><trkpt lat="45.683375782752414" lon="-0.221461894343936"><ele>13.5</ele><time>2026-04-19T16:36:40Z</time></trkpt><trkpt lat="45.68341960838944" lon="-0.22134509970125513"><ele>12.25</ele><time>2026-04-19T16:36:41Z</time></trkpt><trkpt lat="45.68347097394183" lon="-0.2212033294427294"><ele>11.0</ele><time>2026-04-19T16:36:42Z</time></trkpt><trkpt lat="45.68353415315237" lon="-0.22104790134522942"><ele>11.25</ele><time>2026-04-19T16:36:43Z</time></trkpt><trkpt lat="45.683605713627024" lon="-0.2208804323470084"><ele>11.5</ele><time>2026-04-19T16:36:44Z</time></trkpt><trkpt lat="45.68368309070985" lon="-0.22070891642405888"><ele>11.75</ele><time>2026-04-19T16:36:45Z</time></trkpt><trkpt lat="45.683758995558556" lon="-0.22052033873146815"><ele>12.0</ele><time>2026-04-19T16:36:46Z</time></trkpt><trkpt lat="45.68383691162729" lon="-0.22032723644262772"><ele>12.0</ele><time>2026-04-19T16:36:47Z</time></trkpt><trkpt lat="45.68391627726119" lon="-0.220138071025019"><ele>12.0</ele><time>2026-04-19T16:36:48Z</time></trkpt><trkpt lat="45.684001348807776" lon="-0.21996812400837026"><ele>12.0</ele><time>2026-04-19T16:36:49Z</time></trkpt><trkpt lat="45.684087240600384" lon="-0.21982120154058357"><ele>12.0</ele><time>2026-04-19T16:36:50Z</time></trkpt><trkpt lat="45.684194352946434" lon="-0.21969906605154274"><ele>12.0</ele><time>2026-04-19T16:36:51Z</time></trkpt><trkpt lat="45.684320797659765" lon="-0.21959014088068987"><ele>12.0</ele><time>2026-04-19T16:36:52Z</time></trkpt><trkpt lat="45.68445238744068" lon="-0.21949167917524628"><ele>12.0</ele><time>2026-04-19T16:36:53Z</time></trkpt><trkpt lat="45.6845621558477" lon="-0.21940850858802421"><ele>12.0</ele><time>2026-04-19T16:36:54Z</time></trkpt><trkpt lat="45.68465877387388" lon="-0.21932218791150263"><ele>12.2</ele><time>2026-04-19T16:36:55Z</time></trkpt><trkpt lat="45.68473490215615" lon="-0.21925747890336525"><ele>12.399999999999999</ele><time>2026-04-19T16:36:56Z</time></trkpt><trkpt lat="45.68479108433505" lon="-0.21920157820131242"><ele>12.600000000000001</ele><time>2026-04-19T16:36:57Z</time></trkpt><trkpt lat="45.684827127680585" lon="-0.21911756541418556"><ele>12.8</ele><time>2026-04-19T16:36:58Z</time></trkpt><trkpt lat="45.68483363261472" lon="-0.21885197086010436"><ele>13.0</ele><time>2026-04-19T16:37:00Z</time></trkpt><trkpt lat="45.68481458874836" lon="-0.2186722869892401"><ele>13.0</ele><time>2026-04-19T16:37:01Z</time></trkpt><trkpt lat="45.684790235841305" lon="-0.21846966522131736"><ele>13.0</ele><time>2026-04-19T16:37:02Z</time></trkpt><trkpt lat="45.68476728009485" lon="-0.21824519493239128"><ele>13.0</ele><time>2026-04-19T16:37:03Z</time></trkpt><trkpt lat="45.68474502255675" lon="-0.21800447149689184"><ele>13.0</ele><time>2026-04-19T16:37:04Z</time></trkpt><trkpt lat="45.68472209638112" lon="-0.21773377461340013"><ele>13.0</ele><time>2026-04-19T16:37:05Z</time></trkpt><trkpt lat="45.684697259020005" lon="-0.21745314791266465"><ele>13.0</ele><time>2026-04-19T16:37:06Z</time></trkpt><trkpt lat="45.684677425376265" lon="-0.21718032310214097"><ele>13.0</ele><time>2026-04-19T16:37:07Z</time></trkpt><trkpt lat="45.68466448708497" lon="-0.21692079676180304"><ele>13.0</ele><time>2026-04-19T16:37:08Z</time></trkpt><trkpt lat="45.684658850162045" lon="-0.21664146563854114"><ele>13.0</ele><time>2026-04-19T16:37:09Z</time></trkpt><trkpt lat="45.68465487332215" lon="-0.21637058004990023"><ele>12.666666666666666</ele><time>2026-04-19T16:37:10Z</time></trkpt><trkpt lat="45.684654077586" lon="-0.21611176479147526"><ele>12.333333333333332</ele><time>2026-04-19T16:37:11Z</time></trkpt><trkpt lat="45.68464843697886" lon="-0.21584974424063444"><ele>12.0</ele><time>2026-04-19T16:37:12Z</time></trkpt><trkpt lat="45.6846437700856" lon="-0.21559325739821386"><ele>12.0</ele><time>2026-04-19T16:37:13Z</time></trkpt><trkpt lat="45.68463722009367" lon="-0.21533735562511463"><ele>12.0</ele><time>2026-04-19T16:37:14Z</time></trkpt><trkpt lat="45.68463064894832" lon="-0.21510650222899852"><ele>12.0</ele><time>2026-04-19T16:37:15Z</time></trkpt><trkpt lat="45.6846322277281" lon="-0.21488045662191166"><ele>12.333333333333332</ele><time>2026-04-19T16:37:16Z</time></trkpt><trkpt lat="45.68464647597097" lon="-0.21465352740248791"><ele>12.666666666666666</ele><time>2026-04-19T16:37:17Z</time></trkpt><trkpt lat="45.684675384797146" lon="-0.21442160447099318"><ele>13.0</ele><time>2026-04-19T16:37:18Z</time></trkpt><trkpt lat="45.684714478367205" lon="-0.2141878192898424"><ele>13.0</ele><time>2026-04-19T16:37:19Z</time></trkpt><trkpt lat="45.684761600470985" lon="-0.21394947959028007"><ele>13.0</ele><time>2026-04-19T16:37:20Z</time></trkpt><trkpt lat="45.684806460023594" lon="-0.21373109449785754"><ele>13.0</ele><time>2026-04-19T16:37:21Z</time></trkpt><trkpt lat="45.68483694178366" lon="-0.21359039396386412"><ele>13.0</ele><time>2026-04-19T16:37:22Z</time></trkpt><trkpt lat="45.68485419508713" lon="-0.21350054196198004"><ele>13.0</ele><time>2026-04-19T16:37:23Z</time></trkpt><trkpt lat="45.68498209174843" lon="-0.21343089871141224"><ele>13.0</ele><time>2026-04-19T16:37:26Z</time></trkpt><trkpt lat="45.685078379113655" lon="-0.21341106013900454"><ele>13.0</ele><time>2026-04-19T16:37:27Z</time></trkpt><trkpt lat="45.68520735701413" lon="-0.2133894135227849"><ele>13.0</ele><time>2026-04-19T16:37:28Z</time></trkpt><trkpt lat="45.685358415165545" lon="-0.21335390729912249"><ele>14.333333333333332</ele><time>2026-04-19T16:37:29Z</time></trkpt><trkpt lat="45.68553333262693" lon="-0.21329845284109164"><ele>15.666666666666668</ele><time>2026-04-19T16:37:30Z</time></trkpt><trkpt lat="45.68573691451768" lon="-0.21323104085039696"><ele>17.0</ele><time>2026-04-19T16:37:31Z</time></trkpt><trkpt lat="45.68595309184111" lon="-0.21316201732111592"><ele>17.666666666666668</ele><time>2026-04-19T16:37:32Z</time></trkpt><trkpt lat="45.68613121570385" lon="-0.21310788702277034"><ele>18.333333333333332</ele><time>2026-04-19T16:37:33Z</time></trkpt><trkpt lat="45.686280120771585" lon="-0.21305943312363204"><ele>19.0</ele><time>2026-04-19T16:37:34Z</time></trkpt><trkpt lat="45.686422728032376" lon="-0.2130095508248026"><ele>19.0</ele><time>2026-04-19T16:37:35Z</time></trkpt><trkpt lat="45.68652954268761" lon="-0.2129691240147688"><ele>19.0</ele><time>2026-04-19T16:37:36Z</time></trkpt><trkpt lat="45.686601345592315" lon="-0.2129465781812637"><ele>19.0</ele><time>2026-04-19T16:37:37Z</time></trkpt><trkpt lat="45.68667962415322" lon="-0.21284710582596864"><ele>19.0</ele><time>2026-04-19T16:37:39Z</time></trkpt><trkpt lat="45.686710188734864" lon="-0.2127556786550376"><ele>19.0</ele><time>2026-04-19T16:37:40Z</time></trkpt><trkpt lat="45.68673244201954" lon="-0.21259570914184406"><ele>19.0</ele><time>2026-04-19T16:37:41Z</time></trkpt><trkpt lat="45.68679598894451" lon="-0.2125064590284851"><ele>19.0</ele><time>2026-04-19T16:37:42Z</time></trkpt><trkpt lat="45.686895241668545" lon="-0.21243035840122637"><ele>19.0</ele><time>2026-04-19T16:37:44Z</time></trkpt><trkpt lat="45.68698502520393" lon="-0.21242089997974528"><ele>19.0</ele><time>2026-04-19T16:37:45Z</time></trkpt><trkpt lat="45.687100463719815" lon="-0.2123968676559691"><ele>19.0</ele><time>2026-04-19T16:37:46Z</time></trkpt><trkpt lat="45.687229059572374" lon="-0.21231930382244468"><ele>20.75</ele><time>2026-04-19T16:37:47Z</time></trkpt><trkpt lat="45.68736528038618" lon="-0.21225555855333503"><ele>22.5</ele><time>2026-04-19T16:37:48Z</time></trkpt><trkpt lat="45.68750148501144" lon="-0.21218349866839453"><ele>24.25</ele><time>2026-04-19T16:37:49Z</time></trkpt><trkpt lat="45.68761288287198" lon="-0.21213395364117305"><ele>26.0</ele><time>2026-04-19T16:37:50Z</time></trkpt><trkpt lat="45.68771849190415" lon="-0.2120472466957433"><ele>27.200000000000003</ele><time>2026-04-19T16:37:51Z</time></trkpt><trkpt lat="45.68781184252133" lon="-0.21199375829870912"><ele>28.400000000000002</ele><time>2026-04-19T16:37:52Z</time></trkpt><trkpt lat="45.68788552105546" lon="-0.21198604447316705"><ele>29.6</ele><time>2026-04-19T16:37:53Z</time></trkpt><trkpt lat="45.68795119290974" lon="-0.21196188198487045"><ele>30.8</ele><time>2026-04-19T16:37:55Z</time></trkpt><trkpt lat="45.68806716491544" lon="-0.21190705517937775"><ele>32.0</ele><time>2026-04-19T16:37:57Z</time></trkpt><trkpt lat="45.6881868651779" lon="-0.21184194467880343"><ele>32.0</ele><time>2026-04-19T16:37:58Z</time></trkpt><trkpt lat="45.688338911810476" lon="-0.21175799000796505"><ele>32.0</ele><time>2026-04-19T16:37:59Z</time></trkpt><trkpt lat="45.688517719797225" lon="-0.2116654426282478"><ele>32.0</ele><time>2026-04-19T16:38:00Z</time></trkpt><trkpt lat="45.688673709770555" lon="-0.2115796257340255"><ele>34.0</ele><time>2026-04-19T16:38:01Z</time></trkpt><trkpt lat="45.688818846453785" lon="-0.211496275948179"><ele>36.0</ele><time>2026-04-19T16:38:02Z</time></trkpt><trkpt lat="45.688950639559685" lon="-0.2114175654554041"><ele>38.0</ele><time>2026-04-19T16:38:03Z</time></trkpt><trkpt lat="45.68909433185228" lon="-0.21133681356351924"><ele>38.25</ele><time>2026-04-19T16:38:03.999Z</time></trkpt><trkpt lat="45.68922173389046" lon="-0.21125965280289385"><ele>38.5</ele><time>2026-04-19T16:38:04.999Z</time></trkpt><trkpt lat="45.6893598243732" lon="-0.21117867808351154"><ele>38.75</ele><time>2026-04-19T16:38:05.999Z</time></trkpt><trkpt lat="45.689507295040514" lon="-0.21109268468228873"><ele>39.0</ele><time>2026-04-19T16:38:06.999Z</time></trkpt><trkpt lat="45.689631401088974" lon="-0.21102893208212614"><ele>40.5</ele><time>2026-04-19T16:38:07.999Z</time></trkpt><trkpt lat="45.68975523251233" lon="-0.2109680167129221"><ele>42.0</ele><time>2026-04-19T16:38:08.999Z</time></trkpt><trkpt lat="45.689892144110274" lon="-0.21089799928923503"><ele>43.5</ele><time>2026-04-19T16:38:09.999Z</time></trkpt><trkpt lat="45.69000721418981" lon="-0.2108366542628376"><ele>45.0</ele><time>2026-04-19T16:38:10.999Z</time></trkpt><trkpt lat="45.69014911370855" lon="-0.21079170909846193"><ele>46.2</ele><time>2026-04-19T16:38:11.999Z</time></trkpt><trkpt lat="45.69028326914454" lon="-0.21072813891777958"><ele>47.4</ele><time>2026-04-19T16:38:12.999Z</time></trkpt><trkpt lat="45.690393599107146" lon="-0.21067423325309387"><ele>48.599999999999994</ele><time>2026-04-19T16:38:14Z</time></trkpt><trkpt lat="45.69048698511705" lon="-0.21062997106742484"><ele>49.8</ele><time>2026-04-19T16:38:15Z</time></trkpt><trkpt lat="45.69056302503438" lon="-0.2105915566919224"><ele>51.0</ele><time>2026-04-19T16:38:16Z</time></trkpt><trkpt lat="45.690645740127934" lon="-0.21055569233271215"><ele>51.599999999999994</ele><time>2026-04-19T16:38:17Z</time></trkpt><trkpt lat="45.690740526082664" lon="-0.2105282153600272"><ele>52.2</ele><time>2026-04-19T16:38:18Z</time></trkpt><trkpt lat="45.69084408953248" lon="-0.21048774109086738"><ele>52.800000000000004</ele><time>2026-04-19T16:38:19Z</time></trkpt><trkpt lat="45.69095472144245" lon="-0.21048435902100712"><ele>53.400000000000006</ele><time>2026-04-19T16:38:20Z</time></trkpt><trkpt lat="45.69106451524257" lon="-0.21047436314840867"><ele>54.0</ele><time>2026-04-19T16:38:21Z</time></trkpt><trkpt lat="45.691175005755035" lon="-0.21046299754127606"><ele>54.66666666666667</ele><time>2026-04-19T16:38:22Z</time></trkpt><trkpt lat="45.691400567804735" lon="-0.21041789073734807"><ele>55.333333333333336</ele><time>2026-04-19T16:38:24Z</time></trkpt><trkpt lat="45.69151532241545" lon="-0.21042620269550544"><ele>56.0</ele><time>2026-04-19T16:38:25Z</time></trkpt><trkpt lat="45.691632600849545" lon="-0.21041068481891304"><ele>56.0</ele><time>2026-04-19T16:38:26Z</time></trkpt><trkpt lat="45.691750097589434" lon="-0.21040471982918077"><ele>56.0</ele><time>2026-04-19T16:38:27Z</time></trkpt><trkpt lat="45.69187894504656" lon="-0.21037751847894437"><ele>56.0</ele><time>2026-04-19T16:38:28Z</time></trkpt><trkpt lat="45.69200670071687" lon="-0.21036721364283"><ele>56.0</ele><time>2026-04-19T16:38:29Z</time></trkpt><trkpt lat="45.692142622320965" lon="-0.21035421053194656"><ele>56.75</ele><time>2026-04-19T16:38:30Z</time></trkpt><trkpt lat="45.692286347918184" lon="-0.2103404608535036"><ele>57.5</ele><time>2026-04-19T16:38:31Z</time></trkpt><trkpt lat="45.69241163847811" lon="-0.21035057227658036"><ele>58.25</ele><time>2026-04-19T16:38:32Z</time></trkpt><trkpt lat="45.692536908446726" lon="-0.21033808727608955"><ele>59.0</ele><time>2026-04-19T16:38:33Z</time></trkpt><trkpt lat="45.69264013202987" lon="-0.21032065066654"><ele>59.0</ele><time>2026-04-19T16:38:34Z</time></trkpt><trkpt lat="45.692734718082875" lon="-0.21032065066889016"><ele>59.00000000000001</ele><time>2026-04-19T16:38:35Z</time></trkpt><trkpt lat="45.69283022002922" lon="-0.21032304463972307"><ele>59.00000000000001</ele><time>2026-04-19T16:38:36Z</time></trkpt><trkpt lat="45.692925383997775" lon="-0.21032490349629426"><ele>59.0</ele><time>2026-04-19T16:38:37Z</time></trkpt><trkpt lat="45.693024037424344" lon="-0.21032683045652337"><ele>59.0</ele><time>2026-04-19T16:38:38Z</time></trkpt><trkpt lat="45.6931294074163" lon="-0.21032731127254783"><ele>59.0</ele><time>2026-04-19T16:38:39Z</time></trkpt><trkpt lat="45.69324065012598" lon="-0.21033437931729076"><ele>59.0</ele><time>2026-04-19T16:38:40Z</time></trkpt><trkpt lat="45.69336362387784" lon="-0.21035101590147426"><ele>59.0</ele><time>2026-04-19T16:38:41Z</time></trkpt><trkpt lat="45.69350488077388" lon="-0.21038725510956952"><ele>59.0</ele><time>2026-04-19T16:38:42Z</time></trkpt><trkpt lat="45.69366328315786" lon="-0.2104329864817878"><ele>59.0</ele><time>2026-04-19T16:38:43Z</time></trkpt><trkpt lat="45.6938012212478" lon="-0.2104736634096371"><ele>59.0</ele><time>2026-04-19T16:38:44Z</time></trkpt><trkpt lat="45.693923579222194" lon="-0.21050576288344938"><ele>59.0</ele><time>2026-04-19T16:38:45Z</time></trkpt><trkpt lat="45.69402911353065" lon="-0.21053350096759776"><ele>59.0</ele><time>2026-04-19T16:38:46Z</time></trkpt><trkpt lat="45.69413058828826" lon="-0.21052981280735322"><ele>59.0</ele><time>2026-04-19T16:38:47Z</time></trkpt><trkpt lat="45.69425594218497" lon="-0.2105410938238757"><ele>59.00000000000001</ele><time>2026-04-19T16:38:48Z</time></trkpt><trkpt lat="45.69436311042961" lon="-0.21055893965180197"><ele>59.00000000000001</ele><time>2026-04-19T16:38:49Z</time></trkpt><trkpt lat="45.69446097649284" lon="-0.2105615706993584"><ele>59.0</ele><time>2026-04-19T16:38:50Z</time></trkpt><trkpt lat="45.69454319718669" lon="-0.21052114624201732"><ele>59.0</ele><time>2026-04-19T16:38:51Z</time></trkpt><trkpt lat="45.69463389261318" lon="-0.21049245708279882"><ele>58.6</ele><time>2026-04-19T16:38:52Z</time></trkpt><trkpt lat="45.69474075034988" lon="-0.2104779606239685"><ele>58.2</ele><time>2026-04-19T16:38:53Z</time></trkpt><trkpt lat="45.6948344940928" lon="-0.21044277458072147"><ele>57.800000000000004</ele><time>2026-04-19T16:38:54Z</time></trkpt><trkpt lat="45.694929288945296" lon="-0.2104080973293065"><ele>57.400000000000006</ele><time>2026-04-19T16:38:55Z</time></trkpt><trkpt lat="45.69502349248547" lon="-0.21037652227633236"><ele>57.0</ele><time>2026-04-19T16:38:56Z</time></trkpt><trkpt lat="45.69511387992424" lon="-0.2103499565117631"><ele>57.0</ele><time>2026-04-19T16:38:57Z</time></trkpt><trkpt lat="45.69520070404866" lon="-0.21033384248768722"><ele>57.0</ele><time>2026-04-19T16:38:58Z</time></trkpt><trkpt lat="45.695285743046114" lon="-0.21031654079905895"><ele>57.0</ele><time>2026-04-19T16:38:59Z</time></trkpt><trkpt lat="45.695370126053675" lon="-0.21031426724158706"><ele>57.0</ele><time>2026-04-19T16:39:00Z</time></trkpt><trkpt lat="45.695451311393924" lon="-0.21030445777433027"><ele>57.0</ele><time>2026-04-19T16:39:01Z</time></trkpt><trkpt lat="45.695527412427026" lon="-0.21028898562246617"><ele>57.0</ele><time>2026-04-19T16:39:02Z</time></trkpt><trkpt lat="45.69560220600721" lon="-0.21027800343358918"><ele>56.5</ele><time>2026-04-19T16:39:03Z</time></trkpt><trkpt lat="45.69567840240066" lon="-0.2102587417939591"><ele>56.0</ele><time>2026-04-19T16:39:04Z</time></trkpt><trkpt lat="45.69575071916073" lon="-0.21023125257338987"><ele>55.5</ele><time>2026-04-19T16:39:05Z</time></trkpt><trkpt lat="45.69582943714911" lon="-0.21017023977561325"><ele>55.0</ele><time>2026-04-19T16:39:06Z</time></trkpt><trkpt lat="45.69592370103497" lon="-0.21014247646781634"><ele>54.5</ele><time>2026-04-19T16:39:07Z</time></trkpt><trkpt lat="45.696012122586325" lon="-0.21009229573906035"><ele>54.0</ele><time>2026-04-19T16:39:08Z</time></trkpt><trkpt lat="45.69609421207322" lon="-0.21003788243739174"><ele>52.833333333333336</ele><time>2026-04-19T16:39:09Z</time></trkpt><trkpt lat="45.69616037870699" lon="-0.20997036137636968"><ele>51.666666666666664</ele><time>2026-04-19T16:39:10Z</time></trkpt><trkpt lat="45.69622844815648" lon="-0.20990255513242614"><ele>50.5</ele><time>2026-04-19T16:39:11Z</time></trkpt><trkpt lat="45.696286480907204" lon="-0.20982676701794653"><ele>49.33333333333333</ele><time>2026-04-19T16:39:12Z</time></trkpt><trkpt lat="45.69635296709847" lon="-0.20976821156013492"><ele>48.166666666666664</ele><time>2026-04-19T16:39:13Z</time></trkpt><trkpt lat="45.696422332447455" lon="-0.2097246442161254"><ele>47.0</ele><time>2026-04-19T16:39:14Z</time></trkpt><trkpt lat="45.696506094463544" lon="-0.20968147480202615"><ele>46.2</ele><time>2026-04-19T16:39:15Z</time></trkpt><trkpt lat="45.69657107748736" lon="-0.20964793662060982"><ele>45.400000000000006</ele><time>2026-04-19T16:39:16Z</time></trkpt><trkpt lat="45.69663360811397" lon="-0.20960644041229795"><ele>44.599999999999994</ele><time>2026-04-19T16:39:17Z</time></trkpt><trkpt lat="45.69669871211334" lon="-0.20958633066386692"><ele>43.8</ele><time>2026-04-19T16:39:20Z</time></trkpt><trkpt lat="45.696850806737025" lon="-0.20974455263461725"><ele>43.0</ele><time>2026-04-19T16:39:28Z</time></trkpt><trkpt lat="45.69692143974101" lon="-0.20985315596332305"><ele>42.4</ele><time>2026-04-19T16:39:29Z</time></trkpt><trkpt lat="45.69702306992701" lon="-0.20994787725729902"><ele>41.8</ele><time>2026-04-19T16:39:30Z</time></trkpt><trkpt lat="45.69710118042683" lon="-0.21003645426116158"><ele>41.2</ele><time>2026-04-19T16:39:31Z</time></trkpt><trkpt lat="45.69715396272239" lon="-0.2100975244378274"><ele>40.6</ele><time>2026-04-19T16:39:32Z</time></trkpt><trkpt lat="45.69721155351514" lon="-0.2101425397865421"><ele>40.0</ele><time>2026-04-19T16:39:34Z</time></trkpt><trkpt lat="45.69730168748725" lon="-0.2099842575711125"><ele>40.0</ele><time>2026-04-19T16:39:35Z</time></trkpt><trkpt lat="45.69743480768873" lon="-0.20985590445912217"><ele>40.0</ele><time>2026-04-19T16:39:36Z</time></trkpt><trkpt lat="45.69755566986717" lon="-0.2097344005663913"><ele>40.0</ele><time>2026-04-19T16:39:37Z</time></trkpt><trkpt lat="45.697661863976755" lon="-0.20965254451612067"><ele>40.0</ele><time>2026-04-19T16:39:38Z</time></trkpt><trkpt lat="45.69775391318926" lon="-0.20955426069660416"><ele>38.25</ele><time>2026-04-19T16:39:39Z</time></trkpt><trkpt lat="45.69788670341551" lon="-0.20951896912289014"><ele>36.5</ele><time>2026-04-19T16:39:40Z</time></trkpt><trkpt lat="45.69800304517076" lon="-0.20947092487004917"><ele>34.75</ele><time>2026-04-19T16:39:41Z</time></trkpt><trkpt lat="45.69811160432178" lon="-0.20941307751601973"><ele>33.0</ele><time>2026-04-19T16:39:42Z</time></trkpt><trkpt lat="45.69823667142553" lon="-0.20939620635648737"><ele>33.0</ele><time>2026-04-19T16:39:43Z</time></trkpt><trkpt lat="45.69836482903236" lon="-0.20937241698167444"><ele>33.0</ele><time>2026-04-19T16:39:44Z</time></trkpt><trkpt lat="45.69852851552472" lon="-0.20940984959872874"><ele>33.0</ele><time>2026-04-19T16:39:45Z</time></trkpt><trkpt lat="45.698658411745384" lon="-0.20943443637970513"><ele>33.0</ele><time>2026-04-19T16:39:46Z</time></trkpt><trkpt lat="45.69876255848658" lon="-0.2094240139530046"><ele>32.666666666666664</ele><time>2026-04-19T16:39:47Z</time></trkpt><trkpt lat="45.69889385598311" lon="-0.20938865660767153"><ele>32.33333333333333</ele><time>2026-04-19T16:39:48Z</time></trkpt><trkpt lat="45.69900356256125" lon="-0.20924866309976892"><ele>32.0</ele><time>2026-04-19T16:39:49Z</time></trkpt><trkpt lat="45.699152226313196" lon="-0.20911876341051494"><ele>31.666666666666664</ele><time>2026-04-19T16:39:50Z</time></trkpt><trkpt lat="45.699319351490225" lon="-0.20897951967996792"><ele>31.333333333333336</ele><time>2026-04-19T16:39:51Z</time></trkpt><trkpt lat="45.69951574008352" lon="-0.2087831000556956"><ele>31.0</ele><time>2026-04-19T16:39:52Z</time></trkpt><trkpt lat="45.69974742468967" lon="-0.20865068692140668"><ele>29.0</ele><time>2026-04-19T16:39:53Z</time></trkpt><trkpt lat="45.6999996693325" lon="-0.20850725144814838"><ele>27.0</ele><time>2026-04-19T16:39:54Z</time></trkpt><trkpt lat="45.70024525409647" lon="-0.20837776834367594"><ele>27.5</ele><time>2026-04-19T16:39:55Z</time></trkpt><trkpt lat="45.70046960489983" lon="-0.20827200998365197"><ele>28.0</ele><time>2026-04-19T16:39:56Z</time></trkpt><trkpt lat="45.70067227104052" lon="-0.2081591646602916"><ele>28.0</ele><time>2026-04-19T16:39:57Z</time></trkpt><trkpt lat="45.70086974622369" lon="-0.2080508146545278"><ele>28.0</ele><time>2026-04-19T16:39:58Z</time></trkpt><trkpt lat="45.70107373749044" lon="-0.20793526775113233"><ele>28.0</ele><time>2026-04-19T16:39:59Z</time></trkpt><trkpt lat="45.70130213939177" lon="-0.2078281988779935"><ele>27.5</ele><time>2026-04-19T16:40:00Z</time></trkpt><trkpt lat="45.701534295709976" lon="-0.2077449301630812"><ele>27.0</ele><time>2026-04-19T16:40:01Z</time></trkpt><trkpt lat="45.701768856227545" lon="-0.20766470615480126"><ele>26.0</ele><time>2026-04-19T16:40:02Z</time></trkpt><trkpt lat="45.70197973957036" lon="-0.20758167713587214"><ele>25.0</ele><time>2026-04-19T16:40:03Z</time></trkpt><trkpt lat="45.702167319994786" lon="-0.20754033298266897"><ele>24.0</ele><time>2026-04-19T16:40:04Z</time></trkpt><trkpt lat="45.70237890553567" lon="-0.20745038106020813"><ele>24.0</ele><time>2026-04-19T16:40:05Z</time></trkpt><trkpt lat="45.702567105510845" lon="-0.20734864813863274"><ele>24.0</ele><time>2026-04-19T16:40:06Z</time></trkpt><trkpt lat="45.70274344570648" lon="-0.20721128992663254"><ele>24.0</ele><time>2026-04-19T16:40:07Z</time></trkpt><trkpt lat="45.70292605686795" lon="-0.20706075682693573"><ele>24.0</ele><time>2026-04-19T16:40:08Z</time></trkpt><trkpt lat="45.70310217866803" lon="-0.20686944672497268"><ele>24.0</ele><time>2026-04-19T16:40:09Z</time></trkpt><trkpt lat="45.70327946211613" lon="-0.20665103433550355"><ele>23.666666666666668</ele><time>2026-04-19T16:40:09.999Z</time></trkpt><trkpt lat="45.70345023499185" lon="-0.2064382549021092"><ele>23.333333333333336</ele><time>2026-04-19T16:40:10.999Z</time></trkpt><trkpt lat="45.703597220057475" lon="-0.20625205193126836"><ele>23.0</ele><time>2026-04-19T16:40:11.999Z</time></trkpt><trkpt lat="45.70375215947591" lon="-0.2061116099336228"><ele>23.0</ele><time>2026-04-19T16:40:12.999Z</time></trkpt><trkpt lat="45.7039074381996" lon="-0.20600991880276354"><ele>23.0</ele><time>2026-04-19T16:40:13.999Z</time></trkpt><trkpt lat="45.70405377695095" lon="-0.20593605075651011"><ele>23.0</ele><time>2026-04-19T16:40:14.999Z</time></trkpt><trkpt lat="45.70420699451181" lon="-0.20587850874611852"><ele>23.0</ele><time>2026-04-19T16:40:15.999Z</time></trkpt><trkpt lat="45.70433627425779" lon="-0.2058455024233492"><ele>23.0</ele><time>2026-04-19T16:40:16.999Z</time></trkpt><trkpt lat="45.70443214019323" lon="-0.2058336822928449"><ele>23.0</ele><time>2026-04-19T16:40:17.999Z</time></trkpt><trkpt lat="45.704540348350605" lon="-0.20582510940134094"><ele>23.0</ele><time>2026-04-19T16:40:18.999Z</time></trkpt><trkpt lat="45.70460602257958" lon="-0.20581539834498508"><ele>23.0</ele><time>2026-04-19T16:40:19.999Z</time></trkpt><trkpt lat="45.70468308243061" lon="-0.20578888897471168"><ele>23.25</ele><time>2026-04-19T16:40:21.999Z</time></trkpt><trkpt lat="45.70472025924045" lon="-0.2055382444728189"><ele>23.5</ele><time>2026-04-19T16:40:23.999Z</time></trkpt><trkpt lat="45.704727614972995" lon="-0.20539914377193538"><ele>23.75</ele><time>2026-04-19T16:40:24.999Z</time></trkpt><trkpt lat="45.70471801788499" lon="-0.20522772624188218"><ele>24.0</ele><time>2026-04-19T16:40:26Z</time></trkpt><trkpt lat="45.70472208135947" lon="-0.2050390181868028"><ele>24.0</ele><time>2026-04-19T16:40:27Z</time></trkpt><trkpt lat="45.704738866276195" lon="-0.2048888116976578"><ele>24.0</ele><time>2026-04-19T16:40:28Z</time></trkpt><trkpt lat="45.70477711051155" lon="-0.20476218087811954"><ele>24.0</ele><time>2026-04-19T16:40:29Z</time></trkpt><trkpt lat="45.70481943556506" lon="-0.20462570386263873"><ele>24.0</ele><time>2026-04-19T16:40:30Z</time></trkpt><trkpt lat="45.70487817764019" lon="-0.20450601894377543"><ele>24.0</ele><time>2026-04-19T16:40:31Z</time></trkpt><trkpt lat="45.70505429987181" lon="-0.2043199389188942"><ele>24.0</ele><time>2026-04-19T16:40:33Z</time></trkpt><trkpt lat="45.70516789795599" lon="-0.20425341407195624"><ele>24.0</ele><time>2026-04-19T16:40:34Z</time></trkpt><trkpt lat="45.705315676369686" lon="-0.20418251464590376"><ele>24.0</ele><time>2026-04-19T16:40:35Z</time></trkpt><trkpt lat="45.705468034009186" lon="-0.20409197477243168"><ele>24.0</ele><time>2026-04-19T16:40:36Z</time></trkpt><trkpt lat="45.70562437933329" lon="-0.20400023130544223"><ele>24.4</ele><time>2026-04-19T16:40:37Z</time></trkpt><trkpt lat="45.70577318210475" lon="-0.2039105085703185"><ele>24.799999999999997</ele><time>2026-04-19T16:40:38Z</time></trkpt><trkpt lat="45.70588895355978" lon="-0.2038215288245814"><ele>25.200000000000003</ele><time>2026-04-19T16:40:39Z</time></trkpt><trkpt lat="45.70595871593514" lon="-0.20375484999679325"><ele>25.6</ele><time>2026-04-19T16:40:40Z</time></trkpt><trkpt lat="45.70600331486524" lon="-0.20367977956671396"><ele>26.0</ele><time>2026-04-19T16:40:41Z</time></trkpt><trkpt lat="45.70603111214567" lon="-0.203596907181696"><ele>25.999999999999996</ele><time>2026-04-19T16:40:42Z</time></trkpt><trkpt lat="45.706031884777104" lon="-0.20349316182824698"><ele>26.0</ele><time>2026-04-19T16:40:43Z</time></trkpt><trkpt lat="45.706020182039126" lon="-0.20337545406430516"><ele>26.0</ele><time>2026-04-19T16:40:44Z</time></trkpt><trkpt lat="45.7059855367688" lon="-0.2032585699953103"><ele>26.0</ele><time>2026-04-19T16:40:45Z</time></trkpt><trkpt lat="45.705971500325695" lon="-0.20314451355979016"><ele>25.999999999999996</ele><time>2026-04-19T16:40:46Z</time></trkpt><trkpt lat="45.70598676265339" lon="-0.2030449704721596"><ele>26.0</ele><time>2026-04-19T16:40:47Z</time></trkpt><trkpt lat="45.70601255679919" lon="-0.20292707986535582"><ele>25.999999999999996</ele><time>2026-04-19T16:40:48Z</time></trkpt><trkpt lat="45.70606029159219" lon="-0.20281321746713507"><ele>26.0</ele><time>2026-04-19T16:40:49Z</time></trkpt><trkpt lat="45.70610302807767" lon="-0.20271649108397177"><ele>26.0</ele><time>2026-04-19T16:40:50Z</time></trkpt><trkpt lat="45.70615820443962" lon="-0.20261487243567547"><ele>26.0</ele><time>2026-04-19T16:40:51Z</time></trkpt><trkpt lat="45.706215677298594" lon="-0.20252800588648173"><ele>25.999999999999996</ele><time>2026-04-19T16:40:52Z</time></trkpt><trkpt lat="45.706281921321214" lon="-0.2024435855605537"><ele>26.0</ele><time>2026-04-19T16:40:53Z</time></trkpt><trkpt lat="45.70635487415388" lon="-0.20237073436407996"><ele>26.0</ele><time>2026-04-19T16:40:54Z</time></trkpt><trkpt lat="45.706434615254615" lon="-0.20230826626100076"><ele>26.0</ele><time>2026-04-19T16:40:55Z</time></trkpt><trkpt lat="45.70652075707249" lon="-0.20224181062736132"><ele>26.0</ele><time>2026-04-19T16:40:56Z</time></trkpt><trkpt lat="45.706607501897096" lon="-0.2021593609815672"><ele>26.0</ele><time>2026-04-19T16:40:57Z</time></trkpt><trkpt lat="45.70670772629556" lon="-0.2020685830407615"><ele>26.0</ele><time>2026-04-19T16:40:58Z</time></trkpt><trkpt lat="45.706801670176375" lon="-0.2019755371105107"><ele>26.0</ele><time>2026-04-19T16:40:59Z</time></trkpt><trkpt lat="45.706898442553204" lon="-0.20187795795375268"><ele>26.0</ele><time>2026-04-19T16:41:00Z</time></trkpt><trkpt lat="45.70698752129252" lon="-0.20177433887045096"><ele>26.0</ele><time>2026-04-19T16:41:01Z</time></trkpt><trkpt lat="45.70705208496451" lon="-0.20165510286574348"><ele>26.0</ele><time>2026-04-19T16:41:02Z</time></trkpt><trkpt lat="45.70713110818294" lon="-0.20156263485533077"><ele>26.0</ele><time>2026-04-19T16:41:03Z</time></trkpt><trkpt lat="45.70717994886824" lon="-0.20145559325135498"><ele>26.4</ele><time>2026-04-19T16:41:04Z</time></trkpt><trkpt lat="45.70721458640425" lon="-0.20137071591675793"><ele>26.8</ele><time>2026-04-19T16:41:05Z</time></trkpt><trkpt lat="45.70724344242453" lon="-0.2012717555838612"><ele>27.199999999999996</ele><time>2026-04-19T16:41:07Z</time></trkpt><trkpt lat="45.707282972116" lon="-0.20114054061925993"><ele>27.599999999999998</ele><time>2026-04-19T16:41:13Z</time></trkpt><trkpt lat="45.707418691674825" lon="-0.20116149006818065"><ele>28.0</ele><time>2026-04-19T16:41:14Z</time></trkpt><trkpt lat="45.70746113079254" lon="-0.20087203792640984"><ele>28.0</ele><time>2026-04-19T16:41:17Z</time></trkpt><trkpt lat="45.707451087449826" lon="-0.20067877428705386"><ele>28.0</ele><time>2026-04-19T16:41:18Z</time></trkpt><trkpt lat="45.70744022355008" lon="-0.20043704226950323"><ele>28.0</ele><time>2026-04-19T16:41:19Z</time></trkpt><trkpt lat="45.70745465096873" lon="-0.20019868582591788"><ele>28.0</ele><time>2026-04-19T16:41:20Z</time></trkpt><trkpt lat="45.7074850113143" lon="-0.1999896985045888"><ele>27.999999999999996</ele><time>2026-04-19T16:41:21Z</time></trkpt><trkpt lat="45.707510041470044" lon="-0.19984029977055076"><ele>27.999999999999996</ele><time>2026-04-19T16:41:22Z</time></trkpt><trkpt lat="45.70752972918887" lon="-0.1997276069948338"><ele>28.0</ele><time>2026-04-19T16:41:23Z</time></trkpt><trkpt lat="45.70753420657335" lon="-0.19958108596192278"><ele>28.0</ele><time>2026-04-19T16:41:25Z</time></trkpt><trkpt lat="45.70764213443196" lon="-0.19953368595234725"><ele>28.5</ele><time>2026-04-19T16:41:26Z</time></trkpt><trkpt lat="45.707749621015914" lon="-0.199456043258995"><ele>29.0</ele><time>2026-04-19T16:41:27Z</time></trkpt><trkpt lat="45.70786468255821" lon="-0.19939183646548322"><ele>29.5</ele><time>2026-04-19T16:41:28Z</time></trkpt><trkpt lat="45.7079816194046" lon="-0.1993109495794049"><ele>30.0</ele><time>2026-04-19T16:41:29Z</time></trkpt><trkpt lat="45.708097015322124" lon="-0.19923604275638915"><ele>30.0</ele><time>2026-04-19T16:41:30Z</time></trkpt><trkpt lat="45.708206749273614" lon="-0.1991451200704871"><ele>30.0</ele><time>2026-04-19T16:41:31Z</time></trkpt><trkpt lat="45.70831613935874" lon="-0.1990633957459999"><ele>30.0</ele><time>2026-04-19T16:41:32Z</time></trkpt><trkpt lat="45.70842672099236" lon="-0.19898163412847097"><ele>30.0</ele><time>2026-04-19T16:41:33Z</time></trkpt><trkpt lat="45.70852278812275" lon="-0.1989131318595943"><ele>30.2</ele><time>2026-04-19T16:41:34Z</time></trkpt><trkpt lat="45.708601510109276" lon="-0.1988389158440711"><ele>30.4</ele><time>2026-04-19T16:41:35Z</time></trkpt><trkpt lat="45.70867579520689" lon="-0.1987421362552229"><ele>30.6</ele><time>2026-04-19T16:41:36Z</time></trkpt><trkpt lat="45.70873534451832" lon="-0.19861796475621407"><ele>30.8</ele><time>2026-04-19T16:41:37Z</time></trkpt><trkpt lat="45.7087944728629" lon="-0.19849681441012285"><ele>31.0</ele><time>2026-04-19T16:41:38Z</time></trkpt><trkpt lat="45.708847688073995" lon="-0.1983704818469449"><ele>31.0</ele><time>2026-04-19T16:41:39Z</time></trkpt><trkpt lat="45.70890131242648" lon="-0.19826018906848034"><ele>31.0</ele><time>2026-04-19T16:41:40Z</time></trkpt><trkpt lat="45.70893252335967" lon="-0.1981519941603724"><ele>31.0</ele><time>2026-04-19T16:41:41Z</time></trkpt><trkpt lat="45.70895895427872" lon="-0.19803134575648798"><ele>31.0</ele><time>2026-04-19T16:41:42Z</time></trkpt><trkpt lat="45.708986829252055" lon="-0.19792347204408278"><ele>31.0</ele><time>2026-04-19T16:41:43Z</time></trkpt><trkpt lat="45.7090324260461" lon="-0.19765742024660948"><ele>31.0</ele><time>2026-04-19T16:41:45Z</time></trkpt><trkpt lat="45.709111065606095" lon="-0.19754686694937937"><ele>31.0</ele><time>2026-04-19T16:41:46Z</time></trkpt><trkpt lat="45.70920299587979" lon="-0.19740387824107505"><ele>31.0</ele><time>2026-04-19T16:41:47Z</time></trkpt><trkpt lat="45.70926145034209" lon="-0.19726987574441732"><ele>31.0</ele><time>2026-04-19T16:41:48Z</time></trkpt><trkpt lat="45.7093156063655" lon="-0.19713646382409625"><ele>31.0</ele><time>2026-04-19T16:41:49Z</time></trkpt><trkpt lat="45.70937314641511" lon="-0.19700800555598177"><ele>31.0</ele><time>2026-04-19T16:41:50Z</time></trkpt><trkpt lat="45.709412644602615" lon="-0.19685059393272406"><ele>31.0</ele><time>2026-04-19T16:41:51Z</time></trkpt><trkpt lat="45.70946710723554" lon="-0.19669521976742863"><ele>31.0</ele><time>2026-04-19T16:41:52Z</time></trkpt><trkpt lat="45.7095236709594" lon="-0.19654425491369049"><ele>30.666666666666668</ele><time>2026-04-19T16:41:53Z</time></trkpt><trkpt lat="45.70958119431531" lon="-0.1963497984813792"><ele>30.333333333333336</ele><time>2026-04-19T16:41:54Z</time></trkpt><trkpt lat="45.70964236720591" lon="-0.1961440708339856"><ele>30.0</ele><time>2026-04-19T16:41:55Z</time></trkpt><trkpt lat="45.70970199359878" lon="-0.19594034794528462"><ele>30.0</ele><time>2026-04-19T16:41:56Z</time></trkpt><trkpt lat="45.70976270463625" lon="-0.19573104177245296"><ele>30.0</ele><time>2026-04-19T16:41:57Z</time></trkpt><trkpt lat="45.70982294572276" lon="-0.19554778742045095"><ele>30.0</ele><time>2026-04-19T16:41:58Z</time></trkpt><trkpt lat="45.70989105013814" lon="-0.1953734166496501"><ele>30.0</ele><time>2026-04-19T16:41:59Z</time></trkpt><trkpt lat="45.70998804430699" lon="-0.195208263005081"><ele>30.0</ele><time>2026-04-19T16:42:00Z</time></trkpt><trkpt lat="45.71008218435094" lon="-0.195043804224627"><ele>30.0</ele><time>2026-04-19T16:42:01Z</time></trkpt><trkpt lat="45.710202799915756" lon="-0.19488738647275622"><ele>30.0</ele><time>2026-04-19T16:42:02Z</time></trkpt><trkpt lat="45.71033579026235" lon="-0.19475363091508338"><ele>30.0</ele><time>2026-04-19T16:42:03Z</time></trkpt><trkpt lat="45.710457759172826" lon="-0.1946594039828169"><ele>30.0</ele><time>2026-04-19T16:42:04Z</time></trkpt><trkpt lat="45.7105901131723" lon="-0.19460757148205926"><ele>30.0</ele><time>2026-04-19T16:42:05Z</time></trkpt><trkpt lat="45.71075233725918" lon="-0.19457669879843886"><ele>30.0</ele><time>2026-04-19T16:42:06Z</time></trkpt><trkpt lat="45.71091952069024" lon="-0.19456634899002595"><ele>30.0</ele><time>2026-04-19T16:42:07Z</time></trkpt><trkpt lat="45.71106346302013" lon="-0.19456226768261256"><ele>30.0</ele><time>2026-04-19T16:42:08Z</time></trkpt><trkpt lat="45.7111900213619" lon="-0.1945688234887629"><ele>30.0</ele><time>2026-04-19T16:42:09Z</time></trkpt><trkpt lat="45.711294990290604" lon="-0.1945629125472806"><ele>30.0</ele><time>2026-04-19T16:42:10Z</time></trkpt><trkpt lat="45.71139539389041" lon="-0.1945229659167197"><ele>30.25</ele><time>2026-04-19T16:42:11Z</time></trkpt><trkpt lat="45.71150151082368" lon="-0.19444119326920045"><ele>30.5</ele><time>2026-04-19T16:42:12.001Z</time></trkpt><trkpt lat="45.71159408939214" lon="-0.1943125720690418"><ele>30.75</ele><time>2026-04-19T16:42:13.001Z</time></trkpt><trkpt lat="45.71164568882898" lon="-0.19415356490458605"><ele>31.0</ele><time>2026-04-19T16:42:14.001Z</time></trkpt><trkpt lat="45.711678108443564" lon="-0.19402247412229462"><ele>31.25</ele><time>2026-04-19T16:42:15.001Z</time></trkpt><trkpt lat="45.71170763630873" lon="-0.19387318258628125"><ele>31.5</ele><time>2026-04-19T16:42:15.999Z</time></trkpt><trkpt lat="45.71174498987341" lon="-0.19367520486194062"><ele>31.75</ele><time>2026-04-19T16:42:16.999Z</time></trkpt><trkpt lat="45.711769146811434" lon="-0.19345874337909078"><ele>32.0</ele><time>2026-04-19T16:42:17.999Z</time></trkpt><trkpt lat="45.7117891995688" lon="-0.19322603277803202"><ele>32.0</ele><time>2026-04-19T16:42:18.999Z</time></trkpt><trkpt lat="45.71179770462678" lon="-0.19298137603460166"><ele>32.0</ele><time>2026-04-19T16:42:19.999Z</time></trkpt><trkpt lat="45.71179279000284" lon="-0.19273482000550715"><ele>32.0</ele><time>2026-04-19T16:42:20.999Z</time></trkpt><trkpt lat="45.71178464058531" lon="-0.1925187934602521"><ele>32.0</ele><time>2026-04-19T16:42:21.999Z</time></trkpt><trkpt lat="45.71179584203035" lon="-0.19232211942114227"><ele>32.0</ele><time>2026-04-19T16:42:22.999Z</time></trkpt><trkpt lat="45.71183141297666" lon="-0.19212961706959197"><ele>32.0</ele><time>2026-04-19T16:42:23.999Z</time></trkpt><trkpt lat="45.711884498328025" lon="-0.1919410865272223"><ele>32.0</ele><time>2026-04-19T16:42:24.999Z</time></trkpt><trkpt lat="45.711925125961415" lon="-0.19179442508920802"><ele>32.0</ele><time>2026-04-19T16:42:26Z</time></trkpt><trkpt lat="45.71195794340324" lon="-0.19166380553149523"><ele>32.0</ele><time>2026-04-19T16:42:27Z</time></trkpt><trkpt lat="45.711973631492995" lon="-0.1915614655306342"><ele>32.0</ele><time>2026-04-19T16:42:28Z</time></trkpt><trkpt lat="45.71198268877725" lon="-0.1914102565823936"><ele>32.0</ele><time>2026-04-19T16:42:30Z</time></trkpt><trkpt lat="45.71198950664322" lon="-0.1912696771462562"><ele>32.0</ele><time>2026-04-19T16:42:32Z</time></trkpt><trkpt lat="45.7120469224876" lon="-0.1911536747599501"><ele>32.33333333333333</ele><time>2026-04-19T16:42:34Z</time></trkpt><trkpt lat="45.71229907725658" lon="-0.19104478360676005"><ele>32.666666666666664</ele><time>2026-04-19T16:42:36Z</time></trkpt><trkpt lat="45.71243483556732" lon="-0.19093354157224066"><ele>33.0</ele><time>2026-04-19T16:42:37Z</time></trkpt><trkpt lat="45.712582474720676" lon="-0.1908166270191686"><ele>33.0</ele><time>2026-04-19T16:42:38Z</time></trkpt><trkpt lat="45.712689495177386" lon="-0.19071958487150004"><ele>33.0</ele><time>2026-04-19T16:42:39Z</time></trkpt><trkpt lat="45.712783317429256" lon="-0.19063131654050325"><ele>33.0</ele><time>2026-04-19T16:42:40Z</time></trkpt><trkpt lat="45.71288557276064" lon="-0.1905337661547288"><ele>33.0</ele><time>2026-04-19T16:42:41Z</time></trkpt><trkpt lat="45.7129626404831" lon="-0.1904471505543832"><ele>33.0</ele><time>2026-04-19T16:42:42Z</time></trkpt><trkpt lat="45.713015847567654" lon="-0.19036728739568387"><ele>33.0</ele><time>2026-04-19T16:42:43Z</time></trkpt><trkpt lat="45.7130656451439" lon="-0.19027697915972555"><ele>33.0</ele><time>2026-04-19T16:42:44Z</time></trkpt><trkpt lat="45.7131240313231" lon="-0.19018730036267956"><ele>33.0</ele><time>2026-04-19T16:42:45Z</time></trkpt><trkpt lat="45.71318138012139" lon="-0.19007570054348583"><ele>33.0</ele><time>2026-04-19T16:42:46Z</time></trkpt><trkpt lat="45.713255712362034" lon="-0.18992269515846927"><ele>33.0</ele><time>2026-04-19T16:42:47Z</time></trkpt><trkpt lat="45.71333572719102" lon="-0.18975941179951086"><ele>33.0</ele><time>2026-04-19T16:42:48Z</time></trkpt><trkpt lat="45.713419679494145" lon="-0.18961436503959786"><ele>33.0</ele><time>2026-04-19T16:42:49Z</time></trkpt><trkpt lat="45.713502596847405" lon="-0.18950205814992604"><ele>33.0</ele><time>2026-04-19T16:42:50Z</time></trkpt><trkpt lat="45.71358411935675" lon="-0.18938538193682325"><ele>33.0</ele><time>2026-04-19T16:42:51Z</time></trkpt><trkpt lat="45.713664628074696" lon="-0.1892626007235705"><ele>33.0</ele><time>2026-04-19T16:42:52Z</time></trkpt><trkpt lat="45.713748983280496" lon="-0.18913852829365996"><ele>33.0</ele><time>2026-04-19T16:42:53Z</time></trkpt><trkpt lat="45.7138270613809" lon="-0.18902208070687038"><ele>33.0</ele><time>2026-04-19T16:42:54Z</time></trkpt><trkpt lat="45.71390338292281" lon="-0.18890405296982604"><ele>33.0</ele><time>2026-04-19T16:42:55Z</time></trkpt><trkpt lat="45.713975860579666" lon="-0.18879923906782756"><ele>33.0</ele><time>2026-04-19T16:42:56Z</time></trkpt><trkpt lat="45.714047437546256" lon="-0.18869522178721881"><ele>33.0</ele><time>2026-04-19T16:42:57Z</time></trkpt><trkpt lat="45.71411987142406" lon="-0.18859838606243615"><ele>33.0</ele><time>2026-04-19T16:42:58Z</time></trkpt><trkpt lat="45.71419125770229" lon="-0.18849446028701308"><ele>33.0</ele><time>2026-04-19T16:42:59Z</time></trkpt><trkpt lat="45.714267541267596" lon="-0.18837982205197917"><ele>33.0</ele><time>2026-04-19T16:43:00Z</time></trkpt><trkpt lat="45.71435248162387" lon="-0.18825537396531664"><ele>33.0</ele><time>2026-04-19T16:43:01Z</time></trkpt><trkpt lat="45.714445982668764" lon="-0.188118067956609"><ele>33.0</ele><time>2026-04-19T16:43:02Z</time></trkpt><trkpt lat="45.71454600228894" lon="-0.1879812812570966"><ele>33.0</ele><time>2026-04-19T16:43:03Z</time></trkpt><trkpt lat="45.71463767711433" lon="-0.1878709100583812"><ele>32.8</ele><time>2026-04-19T16:43:04Z</time></trkpt><trkpt lat="45.714722291411384" lon="-0.18777770489418358"><ele>32.599999999999994</ele><time>2026-04-19T16:43:05Z</time></trkpt><trkpt lat="45.714802910338264" lon="-0.18768250348434923"><ele>32.400000000000006</ele><time>2026-04-19T16:43:06Z</time></trkpt><trkpt lat="45.71489066418447" lon="-0.18758983432894663"><ele>32.2</ele><time>2026-04-19T16:43:07Z</time></trkpt><trkpt lat="45.71498438528917" lon="-0.18748899421601092"><ele>32.0</ele><time>2026-04-19T16:43:08Z</time></trkpt><trkpt lat="45.715075165776334" lon="-0.18739292086914888"><ele>32.0</ele><time>2026-04-19T16:43:09Z</time></trkpt><trkpt lat="45.715158454331956" lon="-0.1873109498525047"><ele>32.0</ele><time>2026-04-19T16:43:10Z</time></trkpt><trkpt lat="45.71524104136672" lon="-0.1872101969637462"><ele>32.0</ele><time>2026-04-19T16:43:11Z</time></trkpt><trkpt lat="45.715332340365265" lon="-0.18709404149125372"><ele>32.0</ele><time>2026-04-19T16:43:12Z</time></trkpt><trkpt lat="45.71540839119117" lon="-0.18697740765995963"><ele>32.0</ele><time>2026-04-19T16:43:13Z</time></trkpt><trkpt lat="45.715487368419446" lon="-0.18684587193166405"><ele>32.0</ele><time>2026-04-19T16:43:14Z</time></trkpt><trkpt lat="45.715560455794105" lon="-0.18670515601864762"><ele>32.0</ele><time>2026-04-19T16:43:15Z</time></trkpt><trkpt lat="45.715636706277515" lon="-0.18655402694204"><ele>32.0</ele><time>2026-04-19T16:43:16Z</time></trkpt><trkpt lat="45.71571727368476" lon="-0.18638590363281987"><ele>32.0</ele><time>2026-04-19T16:43:17Z</time></trkpt><trkpt lat="45.71578891950972" lon="-0.18624980375312616"><ele>32.0</ele><time>2026-04-19T16:43:18Z</time></trkpt><trkpt lat="45.715852887704976" lon="-0.18613489318087992"><ele>32.0</ele><time>2026-04-19T16:43:19Z</time></trkpt><trkpt lat="45.71592241722536" lon="-0.18602818606090726"><ele>32.0</ele><time>2026-04-19T16:43:20Z</time></trkpt><trkpt lat="45.71598618619114" lon="-0.18592673098876575"><ele>32.0</ele><time>2026-04-19T16:43:21Z</time></trkpt><trkpt lat="45.71604542145964" lon="-0.18582409355586443"><ele>32.0</ele><time>2026-04-19T16:43:22Z</time></trkpt><trkpt lat="45.716117127783306" lon="-0.18570972742397127"><ele>32.25</ele><time>2026-04-19T16:43:23Z</time></trkpt><trkpt lat="45.716199230852126" lon="-0.18559612982873006"><ele>32.5</ele><time>2026-04-19T16:43:24Z</time></trkpt><trkpt lat="45.71628155184361" lon="-0.1854932247212277"><ele>32.75</ele><time>2026-04-19T16:43:25Z</time></trkpt><trkpt lat="45.71645241740489" lon="-0.18529852095422344"><ele>33.0</ele><time>2026-04-19T16:43:27Z</time></trkpt><trkpt lat="45.71655017608163" lon="-0.1851952585925065"><ele>33.0</ele><time>2026-04-19T16:43:28Z</time></trkpt><trkpt lat="45.716651466523864" lon="-0.18508712362029958"><ele>33.0</ele><time>2026-04-19T16:43:29Z</time></trkpt><trkpt lat="45.71674380628938" lon="-0.18497480341051273"><ele>33.0</ele><time>2026-04-19T16:43:30Z</time></trkpt><trkpt lat="45.71682121264267" lon="-0.1848761484479069"><ele>33.0</ele><time>2026-04-19T16:43:31Z</time></trkpt><trkpt lat="45.71688376402677" lon="-0.18477656239897766"><ele>33.0</ele><time>2026-04-19T16:43:32Z</time></trkpt><trkpt lat="45.716950245783764" lon="-0.1846685662543759"><ele>33.0</ele><time>2026-04-19T16:43:33Z</time></trkpt><trkpt lat="45.71702356350097" lon="-0.18455127683892508"><ele>33.0</ele><time>2026-04-19T16:43:34Z</time></trkpt><trkpt lat="45.717094277592885" lon="-0.18443444139338014"><ele>33.0</ele><time>2026-04-19T16:43:35Z</time></trkpt><trkpt lat="45.717159022128314" lon="-0.18432454049942837"><ele>33.0</ele><time>2026-04-19T16:43:36Z</time></trkpt><trkpt lat="45.71722764943038" lon="-0.18420868458746983"><ele>33.0</ele><time>2026-04-19T16:43:37Z</time></trkpt><trkpt lat="45.71729627437355" lon="-0.1840877315720319"><ele>33.0</ele><time>2026-04-19T16:43:38Z</time></trkpt><trkpt lat="45.717366735787884" lon="-0.1839742437429084"><ele>33.0</ele><time>2026-04-19T16:43:39Z</time></trkpt><trkpt lat="45.7174340322902" lon="-0.18386206941856093"><ele>33.0</ele><time>2026-04-19T16:43:40Z</time></trkpt><trkpt lat="45.71749893210367" lon="-0.18375390531946253"><ele>33.0</ele><time>2026-04-19T16:43:41Z</time></trkpt><trkpt lat="45.717562560937616" lon="-0.1836489356733189"><ele>33.0</ele><time>2026-04-19T16:43:42Z</time></trkpt><trkpt lat="45.71762417808373" lon="-0.1835387080177508"><ele>33.0</ele><time>2026-04-19T16:43:43Z</time></trkpt><trkpt lat="45.71767582978555" lon="-0.1834287624162875"><ele>33.0</ele><time>2026-04-19T16:43:44Z</time></trkpt><trkpt lat="45.717710664036964" lon="-0.1833322778502159"><ele>33.0</ele><time>2026-04-19T16:43:45Z</time></trkpt><trkpt lat="45.71773461948634" lon="-0.18322952857197827"><ele>33.0</ele><time>2026-04-19T16:43:46Z</time></trkpt><trkpt lat="45.71774479581933" lon="-0.18311865914711167"><ele>33.0</ele><time>2026-04-19T16:43:47Z</time></trkpt><trkpt lat="45.71773253231091" lon="-0.18296585719393024"><ele>33.0</ele><time>2026-04-19T16:43:48Z</time></trkpt><trkpt lat="45.717691246052816" lon="-0.1827745736952968"><ele>33.333333333333336</ele><time>2026-04-19T16:43:49Z</time></trkpt><trkpt lat="45.71764770778433" lon="-0.1825542356491572"><ele>33.66666666666667</ele><time>2026-04-19T16:43:50Z</time></trkpt><trkpt lat="45.71760165931201" lon="-0.1823070073566463"><ele>34.0</ele><time>2026-04-19T16:43:51Z</time></trkpt><trkpt lat="45.71755827768065" lon="-0.1820659772411675"><ele>34.25</ele><time>2026-04-19T16:43:52Z</time></trkpt><trkpt lat="45.717521659707195" lon="-0.181842425692239"><ele>34.5</ele><time>2026-04-19T16:43:53Z</time></trkpt><trkpt lat="45.71748617361094" lon="-0.18165015704959467"><ele>34.75</ele><time>2026-04-19T16:43:54Z</time></trkpt><trkpt lat="45.717456827119875" lon="-0.18147979429076957"><ele>35.0</ele><time>2026-04-19T16:43:55.001Z</time></trkpt><trkpt lat="45.71743132184393" lon="-0.18132829744373055"><ele>35.166666666666664</ele><time>2026-04-19T16:43:56.001Z</time></trkpt><trkpt lat="45.717408920644175" lon="-0.18122121025220617"><ele>35.33333333333333</ele><time>2026-04-19T16:43:57.001Z</time></trkpt><trkpt lat="45.717397716304355" lon="-0.18111524899844"><ele>35.5</ele><time>2026-04-19T16:43:59.001Z</time></trkpt><trkpt lat="45.71745551327886" lon="-0.181061366062832"><ele>35.666666666666664</ele><time>2026-04-19T16:44:01.001Z</time></trkpt><trkpt lat="45.71753307419071" lon="-0.18104404346052871"><ele>35.833333333333336</ele><time>2026-04-19T16:44:02.001Z</time></trkpt><trkpt lat="45.717660064347264" lon="-0.18102629593762018"><ele>36.0</ele><time>2026-04-19T16:44:03.001Z</time></trkpt><trkpt lat="45.71780773682401" lon="-0.18098872658119056"><ele>36.0</ele><time>2026-04-19T16:44:04.001Z</time></trkpt><trkpt lat="45.71796985512892" lon="-0.18093983759907672"><ele>36.0</ele><time>2026-04-19T16:44:05.001Z</time></trkpt><trkpt lat="45.71815550077618" lon="-0.18089415987885726"><ele>36.0</ele><time>2026-04-19T16:44:06.001Z</time></trkpt><trkpt lat="45.71834308683938" lon="-0.18085742512705047"><ele>36.0</ele><time>2026-04-19T16:44:07.001Z</time></trkpt><trkpt lat="45.71854828540045" lon="-0.18082834131741965"><ele>36.0</ele><time>2026-04-19T16:44:08.001Z</time></trkpt><trkpt lat="45.71878350145496" lon="-0.18081225096147904"><ele>36.0</ele><time>2026-04-19T16:44:09.001Z</time></trkpt><trkpt lat="45.719042716969255" lon="-0.18080876453187106"><ele>36.0</ele><time>2026-04-19T16:44:10.001Z</time></trkpt><trkpt lat="45.71930778255679" lon="-0.1808278643324781"><ele>36.0</ele><time>2026-04-19T16:44:11.001Z</time></trkpt><trkpt lat="45.719537318060496" lon="-0.18086043771662752"><ele>36.666666666666664</ele><time>2026-04-19T16:44:12.001Z</time></trkpt><trkpt lat="45.71974525882981" lon="-0.18088659804049656"><ele>37.33333333333333</ele><time>2026-04-19T16:44:13.001Z</time></trkpt><trkpt lat="45.719918528238374" lon="-0.1808976857818442"><ele>38.0</ele><time>2026-04-19T16:44:14.001Z</time></trkpt><trkpt lat="45.7200377163501" lon="-0.18089112692418632"><ele>38.0</ele><time>2026-04-19T16:44:15.001Z</time></trkpt><trkpt lat="45.720118377966685" lon="-0.18088166496700683"><ele>38.0</ele><time>2026-04-19T16:44:16.001Z</time></trkpt><trkpt lat="45.72018865663243" lon="-0.1808334183640501"><ele>38.0</ele><time>2026-04-19T16:44:18.001Z</time></trkpt><trkpt lat="45.72011497052105" lon="-0.1808628473718767"><ele>38.0</ele><time>2026-04-19T16:44:25Z</time></trkpt><trkpt lat="45.72004593144401" lon="-0.18088042298293083"><ele>38.0</ele><time>2026-04-19T16:44:26Z</time></trkpt><trkpt lat="45.72014930274409" lon="-0.18081235870423779"><ele>38.0</ele><time>2026-04-19T16:44:31Z</time></trkpt><trkpt lat="45.72022919001528" lon="-0.1807814167847993"><ele>38.0</ele><time>2026-04-19T16:44:32Z</time></trkpt><trkpt lat="45.72030211544303" lon="-0.18027315218218462"><ele>38.0</ele><time>2026-04-19T16:44:33Z</time></trkpt><trkpt lat="45.72040468530448" lon="-0.18006384996389643"><ele>38.0</ele><time>2026-04-19T16:44:34Z</time></trkpt><trkpt lat="45.72051369138965" lon="-0.17985128225629873"><ele>38.0</ele><time>2026-04-19T16:44:35Z</time></trkpt><trkpt lat="45.7206210879174" lon="-0.17964525703639034"><ele>38.0</ele><time>2026-04-19T16:44:36Z</time></trkpt><trkpt lat="45.72070672981712" lon="-0.1794697213045926"><ele>37.75</ele><time>2026-04-19T16:44:37Z</time></trkpt><trkpt lat="45.720795594267" lon="-0.17930771342949112"><ele>37.5</ele><time>2026-04-19T16:44:38Z</time></trkpt><trkpt lat="45.720875088333315" lon="-0.1791580314339204"><ele>37.25</ele><time>2026-04-19T16:44:39Z</time></trkpt><trkpt lat="45.720953614080294" lon="-0.17903288758504976"><ele>37.0</ele><time>2026-04-19T16:44:40Z</time></trkpt><trkpt lat="45.72104842200062" lon="-0.17890248987859658"><ele>37.333333333333336</ele><time>2026-04-19T16:44:41Z</time></trkpt><trkpt lat="45.72116977419312" lon="-0.17876905667562287"><ele>37.666666666666664</ele><time>2026-04-19T16:44:42Z</time></trkpt><trkpt lat="45.721292274982154" lon="-0.17861987499243148"><ele>38.0</ele><time>2026-04-19T16:44:43Z</time></trkpt><trkpt lat="45.721399333643134" lon="-0.1784740678104426"><ele>38.0</ele><time>2026-04-19T16:44:44Z</time></trkpt><trkpt lat="45.72151113744051" lon="-0.17832319040338995"><ele>38.0</ele><time>2026-04-19T16:44:45Z</time></trkpt><trkpt lat="45.72163037050174" lon="-0.17815068650154547"><ele>38.0</ele><time>2026-04-19T16:44:46Z</time></trkpt><trkpt lat="45.72174824745887" lon="-0.17796248981498297"><ele>38.0</ele><time>2026-04-19T16:44:47Z</time></trkpt><trkpt lat="45.72185182846107" lon="-0.17780419851394352"><ele>38.0</ele><time>2026-04-19T16:44:48Z</time></trkpt><trkpt lat="45.72194326167797" lon="-0.1776453662816451"><ele>38.0</ele><time>2026-04-19T16:44:49Z</time></trkpt><trkpt lat="45.72202572590146" lon="-0.17749917079907493"><ele>38.0</ele><time>2026-04-19T16:44:50Z</time></trkpt><trkpt lat="45.72211605458499" lon="-0.17734896774961112"><ele>38.75</ele><time>2026-04-19T16:44:51Z</time></trkpt><trkpt lat="45.72220986546592" lon="-0.1771994403682354"><ele>39.5</ele><time>2026-04-19T16:44:52Z</time></trkpt><trkpt lat="45.722297489661585" lon="-0.1770485144996533"><ele>40.25</ele><time>2026-04-19T16:44:53Z</time></trkpt><trkpt lat="45.72239297647149" lon="-0.17690108643639657"><ele>41.0</ele><time>2026-04-19T16:44:54Z</time></trkpt><trkpt lat="45.722472742332165" lon="-0.17677894631082058"><ele>41.0</ele><time>2026-04-19T16:44:55Z</time></trkpt><trkpt lat="45.722543482960944" lon="-0.1766688481335631"><ele>41.0</ele><time>2026-04-19T16:44:56Z</time></trkpt><trkpt lat="45.72262207655765" lon="-0.1765565179270448"><ele>41.0</ele><time>2026-04-19T16:44:57Z</time></trkpt><trkpt lat="45.7226811563054" lon="-0.1764526721878311"><ele>41.0</ele><time>2026-04-19T16:44:58Z</time></trkpt><trkpt lat="45.722723806173796" lon="-0.17633983551232887"><ele>41.0</ele><time>2026-04-19T16:44:59Z</time></trkpt><trkpt lat="45.72275477559412" lon="-0.176225158598808"><ele>41.8</ele><time>2026-04-19T16:45:00Z</time></trkpt><trkpt lat="45.72279712714271" lon="-0.17608283670862085"><ele>42.599999999999994</ele><time>2026-04-19T16:45:01Z</time></trkpt><trkpt lat="45.722840113010996" lon="-0.17595365015873177"><ele>43.4</ele><time>2026-04-19T16:45:02Z</time></trkpt><trkpt lat="45.722878537229505" lon="-0.17584613439382404"><ele>44.2</ele><time>2026-04-19T16:45:03Z</time></trkpt><trkpt lat="45.722923386416575" lon="-0.17572441273813938"><ele>45.0</ele><time>2026-04-19T16:45:04Z</time></trkpt><trkpt lat="45.72297798642375" lon="-0.17560381337563122"><ele>45.2</ele><time>2026-04-19T16:45:05Z</time></trkpt><trkpt lat="45.72302070059567" lon="-0.1755112147228012"><ele>45.4</ele><time>2026-04-19T16:45:06Z</time></trkpt><trkpt lat="45.72308845423342" lon="-0.17537739506707373"><ele>45.599999999999994</ele><time>2026-04-19T16:45:08Z</time></trkpt><trkpt lat="45.72313317868629" lon="-0.17527738118453193"><ele>45.8</ele><time>2026-04-19T16:45:09Z</time></trkpt><trkpt lat="45.72318307262685" lon="-0.17515949284432655"><ele>46.0</ele><time>2026-04-19T16:45:10Z</time></trkpt><trkpt lat="45.723247686357894" lon="-0.1750251892305271"><ele>46.0</ele><time>2026-04-19T16:45:11Z</time></trkpt><trkpt lat="45.72331104404683" lon="-0.174889177903999"><ele>46.0</ele><time>2026-04-19T16:45:12Z</time></trkpt><trkpt lat="45.72338196264099" lon="-0.17475644371588878"><ele>46.0</ele><time>2026-04-19T16:45:13Z</time></trkpt><trkpt lat="45.723452506446215" lon="-0.17462258583978882"><ele>46.0</ele><time>2026-04-19T16:45:14Z</time></trkpt><trkpt lat="45.72352106996707" lon="-0.17451527931700384"><ele>46.0</ele><time>2026-04-19T16:45:15Z</time></trkpt><trkpt lat="45.72358581038407" lon="-0.17440738932996627"><ele>45.75</ele><time>2026-04-19T16:45:16Z</time></trkpt><trkpt lat="45.72366930833253" lon="-0.17430933758422554"><ele>45.5</ele><time>2026-04-19T16:45:17Z</time></trkpt><trkpt lat="45.72375400385866" lon="-0.17420257250885285"><ele>45.25</ele><time>2026-04-19T16:45:18Z</time></trkpt><trkpt lat="45.723850818570995" lon="-0.17410929662596797"><ele>45.0</ele><time>2026-04-19T16:45:19Z</time></trkpt><trkpt lat="45.72395216098542" lon="-0.17399891594604552"><ele>45.0</ele><time>2026-04-19T16:45:20Z</time></trkpt><trkpt lat="45.72405070262268" lon="-0.17388424387885731"><ele>45.0</ele><time>2026-04-19T16:45:21Z</time></trkpt><trkpt lat="45.72413145109951" lon="-0.17381909813530502"><ele>45.0</ele><time>2026-04-19T16:45:22Z</time></trkpt><trkpt lat="45.72420744960559" lon="-0.17370052965088026"><ele>45.0</ele><time>2026-04-19T16:45:23Z</time></trkpt><trkpt lat="45.72428716512348" lon="-0.17355753554065495"><ele>45.0</ele><time>2026-04-19T16:45:24Z</time></trkpt><trkpt lat="45.724357136992026" lon="-0.17344207351196972"><ele>45.0</ele><time>2026-04-19T16:45:25Z</time></trkpt><trkpt lat="45.72441325441698" lon="-0.17332352775945936"><ele>45.0</ele><time>2026-04-19T16:45:26Z</time></trkpt><trkpt lat="45.72447254303008" lon="-0.17319712421449224"><ele>45.0</ele><time>2026-04-19T16:45:27Z</time></trkpt><trkpt lat="45.72453104134482" lon="-0.17308507339328366"><ele>45.0</ele><time>2026-04-19T16:45:28Z</time></trkpt><trkpt lat="45.724577286276094" lon="-0.17300521984138542"><ele>45.75</ele><time>2026-04-19T16:45:29Z</time></trkpt><trkpt lat="45.72466469630446" lon="-0.17280814634191807"><ele>46.5</ele><time>2026-04-19T16:45:31Z</time></trkpt><trkpt lat="45.724713357942775" lon="-0.17265104708973972"><ele>47.25</ele><time>2026-04-19T16:45:32.001Z</time></trkpt><trkpt lat="45.72476662525189" lon="-0.17248068092555827"><ele>48.0</ele><time>2026-04-19T16:45:33.001Z</time></trkpt><trkpt lat="45.72485032802862" lon="-0.1722820321544801"><ele>48.33333333333333</ele><time>2026-04-19T16:45:34.001Z</time></trkpt><trkpt lat="45.72495044480198" lon="-0.17205786589031302"><ele>48.666666666666664</ele><time>2026-04-19T16:45:35.001Z</time></trkpt><trkpt lat="45.72504986150021" lon="-0.17185281068236263"><ele>49.0</ele><time>2026-04-19T16:45:36.001Z</time></trkpt><trkpt lat="45.72513566655543" lon="-0.1716860944983158"><ele>49.0</ele><time>2026-04-19T16:45:37.001Z</time></trkpt><trkpt lat="45.7252274358359" lon="-0.17149214871418605"><ele>49.0</ele><time>2026-04-19T16:45:38.001Z</time></trkpt><trkpt lat="45.725307804238945" lon="-0.1712934220762126"><ele>49.0</ele><time>2026-04-19T16:45:39.001Z</time></trkpt><trkpt lat="45.725396361922435" lon="-0.17109202198173837"><ele>49.0</ele><time>2026-04-19T16:45:40.001Z</time></trkpt><trkpt lat="45.72549236673621" lon="-0.1708713454549097"><ele>49.0</ele><time>2026-04-19T16:45:41.001Z</time></trkpt><trkpt lat="45.72557487156529" lon="-0.1706962352241929"><ele>49.0</ele><time>2026-04-19T16:45:42.001Z</time></trkpt><trkpt lat="45.7256447945012" lon="-0.17055046426474194"><ele>48.75</ele><time>2026-04-19T16:45:43.001Z</time></trkpt><trkpt lat="45.72571273781653" lon="-0.17041877309836276"><ele>48.5</ele><time>2026-04-19T16:45:44.001Z</time></trkpt><trkpt lat="45.72580523791272" lon="-0.1702785951317283"><ele>48.25</ele><time>2026-04-19T16:45:45.001Z</time></trkpt><trkpt lat="45.725893675137314" lon="-0.17012676970727644"><ele>48.0</ele><time>2026-04-19T16:45:46.001Z</time></trkpt><trkpt lat="45.725987650716526" lon="-0.16999262642671487"><ele>48.5</ele><time>2026-04-19T16:45:47.001Z</time></trkpt><trkpt lat="45.726090033056096" lon="-0.16987079826140938"><ele>49.0</ele><time>2026-04-19T16:45:48.001Z</time></trkpt><trkpt lat="45.72618847261413" lon="-0.16974559513903048"><ele>49.5</ele><time>2026-04-19T16:45:49.001Z</time></trkpt><trkpt lat="45.72630357139005" lon="-0.16963394666892814"><ele>50.0</ele><time>2026-04-19T16:45:50.001Z</time></trkpt><trkpt lat="45.726434760550234" lon="-0.16951804695415176"><ele>50.0</ele><time>2026-04-19T16:45:51.001Z</time></trkpt><trkpt lat="45.72657154667724" lon="-0.16939312621976074"><ele>50.0</ele><time>2026-04-19T16:45:52.001Z</time></trkpt><trkpt lat="45.72672141457464" lon="-0.16925590560555456"><ele>50.0</ele><time>2026-04-19T16:45:53.001Z</time></trkpt><trkpt lat="45.72689243372616" lon="-0.16914113290282928"><ele>50.5</ele><time>2026-04-19T16:45:54.001Z</time></trkpt><trkpt lat="45.727022640233635" lon="-0.1690412233535825"><ele>51.0</ele><time>2026-04-19T16:45:55.001Z</time></trkpt><trkpt lat="45.72714956157901" lon="-0.16895822298442945"><ele>51.5</ele><time>2026-04-19T16:45:56.001Z</time></trkpt><trkpt lat="45.72726362974832" lon="-0.168867768662516"><ele>52.0</ele><time>2026-04-19T16:45:57.001Z</time></trkpt><trkpt lat="45.727394030824435" lon="-0.16876616832242047"><ele>52.0</ele><time>2026-04-19T16:45:58.001Z</time></trkpt><trkpt lat="45.727523295693594" lon="-0.168668642357161"><ele>52.0</ele><time>2026-04-19T16:45:59.001Z</time></trkpt><trkpt lat="45.72763259825376" lon="-0.1685745194059466"><ele>52.0</ele><time>2026-04-19T16:46:00.001Z</time></trkpt><trkpt lat="45.72774281022247" lon="-0.16849499656092018"><ele>52.0</ele><time>2026-04-19T16:46:01.001Z</time></trkpt><trkpt lat="45.727859553933115" lon="-0.16837372590931277"><ele>52.25</ele><time>2026-04-19T16:46:02.001Z</time></trkpt><trkpt lat="45.72798485631137" lon="-0.16823003622348515"><ele>52.5</ele><time>2026-04-19T16:46:03.001Z</time></trkpt><trkpt lat="45.728088594316034" lon="-0.16809888946009305"><ele>52.75</ele><time>2026-04-19T16:46:04.001Z</time></trkpt><trkpt lat="45.728185098578194" lon="-0.16797560760987798"><ele>53.0</ele><time>2026-04-19T16:46:05.001Z</time></trkpt><trkpt lat="45.72829125645956" lon="-0.16784758223822896"><ele>53.0</ele><time>2026-04-19T16:46:06.001Z</time></trkpt><trkpt lat="45.72838696164535" lon="-0.16775232741632942"><ele>53.0</ele><time>2026-04-19T16:46:07.001Z</time></trkpt><trkpt lat="45.72849039739191" lon="-0.1676890988350673"><ele>53.0</ele><time>2026-04-19T16:46:08.001Z</time></trkpt><trkpt lat="45.728606466772014" lon="-0.16765142204779745"><ele>53.0</ele><time>2026-04-19T16:46:09.001Z</time></trkpt><trkpt lat="45.728735881230755" lon="-0.16764363480195593"><ele>53.66666666666667</ele><time>2026-04-19T16:46:10.001Z</time></trkpt><trkpt lat="45.72888300653901" lon="-0.1676638317304798"><ele>54.33333333333333</ele><time>2026-04-19T16:46:11.001Z</time></trkpt><trkpt lat="45.72904076314681" lon="-0.167692116555618"><ele>55.0</ele><time>2026-04-19T16:46:12.001Z</time></trkpt><trkpt lat="45.72920871224296" lon="-0.16770759819800027"><ele>55.0</ele><time>2026-04-19T16:46:13.001Z</time></trkpt><trkpt lat="45.72935407903254" lon="-0.16771144001008778"><ele>55.0</ele><time>2026-04-19T16:46:14.001Z</time></trkpt><trkpt lat="45.72948373894728" lon="-0.16771099034497408"><ele>55.0</ele><time>2026-04-19T16:46:15.001Z</time></trkpt><trkpt lat="45.72959582952996" lon="-0.16769338828235725"><ele>55.0</ele><time>2026-04-19T16:46:16.001Z</time></trkpt><trkpt lat="45.729698660176474" lon="-0.16766199349134098"><ele>55.166666666666664</ele><time>2026-04-19T16:46:17.001Z</time></trkpt><trkpt lat="45.72979277001971" lon="-0.16764274592233436"><ele>55.33333333333333</ele><time>2026-04-19T16:46:18.001Z</time></trkpt><trkpt lat="45.72986757541467" lon="-0.16763643909580794"><ele>55.5</ele><time>2026-04-19T16:46:19.001Z</time></trkpt><trkpt lat="45.72995551747435" lon="-0.16759188791741264"><ele>55.66666666666667</ele><time>2026-04-19T16:46:21.001Z</time></trkpt><trkpt lat="45.72999805629415" lon="-0.16751000285588954"><ele>55.833333333333336</ele><time>2026-04-19T16:46:23.001Z</time></trkpt><trkpt lat="45.72999514029131" lon="-0.16735774810329024"><ele>56.0</ele><time>2026-04-19T16:46:25.001Z</time></trkpt><trkpt lat="45.729992565174115" lon="-0.1672326157475934"><ele>56.25</ele><time>2026-04-19T16:46:26.001Z</time></trkpt><trkpt lat="45.73000218057049" lon="-0.16707976014418668"><ele>56.5</ele><time>2026-04-19T16:46:27.001Z</time></trkpt><trkpt lat="45.7300111006861" lon="-0.16691230976811464"><ele>56.75</ele><time>2026-04-19T16:46:28Z</time></trkpt><trkpt lat="45.730021237934636" lon="-0.16672568195236878"><ele>57.0</ele><time>2026-04-19T16:46:29Z</time></trkpt><trkpt lat="45.730065573532414" lon="-0.16627388646907745"><ele>58.0</ele><time>2026-04-19T16:46:31Z</time></trkpt><trkpt lat="45.73008758711986" lon="-0.16605519646578684"><ele>59.0</ele><time>2026-04-19T16:46:32Z</time></trkpt><trkpt lat="45.730119834508045" lon="-0.16582386097093513"><ele>60.0</ele><time>2026-04-19T16:46:33Z</time></trkpt><trkpt lat="45.73015839742052" lon="-0.1656099623775455"><ele>60.25</ele><time>2026-04-19T16:46:34Z</time></trkpt><trkpt lat="45.73018921065525" lon="-0.16542795109675243"><ele>60.5</ele><time>2026-04-19T16:46:35Z</time></trkpt><trkpt lat="45.73020550874758" lon="-0.16525896584038202"><ele>60.75</ele><time>2026-04-19T16:46:36Z</time></trkpt><trkpt lat="45.73021361151114" lon="-0.16509298622804217"><ele>61.0</ele><time>2026-04-19T16:46:37Z</time></trkpt><trkpt lat="45.73019868909284" lon="-0.1649300347762716"><ele>61.25</ele><time>2026-04-19T16:46:38Z</time></trkpt><trkpt lat="45.73014024567734" lon="-0.16477601073211387"><ele>61.5</ele><time>2026-04-19T16:46:39Z</time></trkpt><trkpt lat="45.73009491237241" lon="-0.16460136716684104"><ele>61.75</ele><time>2026-04-19T16:46:40Z</time></trkpt><trkpt lat="45.73005096948963" lon="-0.1644032121087622"><ele>62.0</ele><time>2026-04-19T16:46:41Z</time></trkpt><trkpt lat="45.730046207286314" lon="-0.16419166469385238"><ele>61.66666666666667</ele><time>2026-04-19T16:46:42Z</time></trkpt><trkpt lat="45.73004560193788" lon="-0.16397512574967987"><ele>61.33333333333333</ele><time>2026-04-19T16:46:43Z</time></trkpt><trkpt lat="45.73006271688414" lon="-0.16375502959484486"><ele>61.0</ele><time>2026-04-19T16:46:44Z</time></trkpt><trkpt lat="45.73007799701672" lon="-0.16350972701774633"><ele>61.0</ele><time>2026-04-19T16:46:45Z</time></trkpt><trkpt lat="45.73009342342626" lon="-0.16327021982090184"><ele>61.0</ele><time>2026-04-19T16:46:46Z</time></trkpt><trkpt lat="45.7301098480656" lon="-0.16301588448371038"><ele>61.0</ele><time>2026-04-19T16:46:47Z</time></trkpt><trkpt lat="45.730120258256065" lon="-0.1627834250378687"><ele>61.25</ele><time>2026-04-19T16:46:48Z</time></trkpt><trkpt lat="45.730129334109364" lon="-0.16256527289018893"><ele>61.5</ele><time>2026-04-19T16:46:49Z</time></trkpt><trkpt lat="45.730142989826476" lon="-0.162363496183551"><ele>61.75</ele><time>2026-04-19T16:46:50Z</time></trkpt><trkpt lat="45.7301506972395" lon="-0.16220988678694667"><ele>62.0</ele><time>2026-04-19T16:46:51Z</time></trkpt><trkpt lat="45.73015994980688" lon="-0.16207320116939106"><ele>62.0</ele><time>2026-04-19T16:46:52Z</time></trkpt><trkpt lat="45.73016746743343" lon="-0.16197309965506976"><ele>62.0</ele><time>2026-04-19T16:46:53Z</time></trkpt><trkpt lat="45.73016111644001" lon="-0.1618363364610697"><ele>62.0</ele><time>2026-04-19T16:46:55Z</time></trkpt><trkpt lat="45.730145495328415" lon="-0.16174121690683493"><ele>62.0</ele><time>2026-04-19T16:46:57Z</time></trkpt><trkpt lat="45.72996654733655" lon="-0.1617614672014548"><ele>62.0</ele><time>2026-04-19T16:46:58Z</time></trkpt><trkpt lat="45.72983804453114" lon="-0.16173061557215512"><ele>62.0</ele><time>2026-04-19T16:47:00Z</time></trkpt><trkpt lat="45.72977917167472" lon="-0.16169757338645482"><ele>62.0</ele><time>2026-04-19T16:47:02Z</time></trkpt><trkpt lat="45.72977384234781" lon="-0.16143742639414088"><ele>62.0</ele><time>2026-04-19T16:47:03Z</time></trkpt><trkpt lat="45.72977788469369" lon="-0.16130424481080366"><ele>62.0</ele><time>2026-04-19T16:47:04Z</time></trkpt><trkpt lat="45.72978350558452" lon="-0.16111905555889444"><ele>62.75</ele><time>2026-04-19T16:47:05Z</time></trkpt><trkpt lat="45.729789674946105" lon="-0.16093311324445922"><ele>63.5</ele><time>2026-04-19T16:47:06Z</time></trkpt><trkpt lat="45.72979774387708" lon="-0.16073723333329232"><ele>64.25</ele><time>2026-04-19T16:47:07Z</time></trkpt><trkpt lat="45.729811743019376" lon="-0.16055624197247928"><ele>65.0</ele><time>2026-04-19T16:47:08Z</time></trkpt><trkpt lat="45.729858475550735" lon="-0.1604102233881497"><ele>65.0</ele><time>2026-04-19T16:47:09Z</time></trkpt><trkpt lat="45.72987604392364" lon="-0.16026492556617952"><ele>65.0</ele><time>2026-04-19T16:47:10Z</time></trkpt><trkpt lat="45.729884305291236" lon="-0.16012297699750272"><ele>65.0</ele><time>2026-04-19T16:47:11Z</time></trkpt><trkpt lat="45.729865926440304" lon="-0.1599716765828637"><ele>65.0</ele><time>2026-04-19T16:47:12Z</time></trkpt><trkpt lat="45.72984036499165" lon="-0.15981295554418315"><ele>65.0</ele><time>2026-04-19T16:47:13Z</time></trkpt><trkpt lat="45.72984101568279" lon="-0.1596529736660557"><ele>65.4</ele><time>2026-04-19T16:47:14Z</time></trkpt><trkpt lat="45.729859815904156" lon="-0.15949350403410656"><ele>65.8</ele><time>2026-04-19T16:47:15Z</time></trkpt><trkpt lat="45.72985437538174" lon="-0.15932926691861635"><ele>66.2</ele><time>2026-04-19T16:47:16Z</time></trkpt><trkpt lat="45.729864797781175" lon="-0.15917328879369788"><ele>66.6</ele><time>2026-04-19T16:47:17Z</time></trkpt><trkpt lat="45.729871431916415" lon="-0.1590185080732868"><ele>67.0</ele><time>2026-04-19T16:47:18Z</time></trkpt><trkpt lat="45.72988293814822" lon="-0.15885735767171183"><ele>67.16666666666666</ele><time>2026-04-19T16:47:19Z</time></trkpt><trkpt lat="45.729884009982726" lon="-0.1587167613891881"><ele>67.33333333333333</ele><time>2026-04-19T16:47:20Z</time></trkpt><trkpt lat="45.72988861120472" lon="-0.15859193750838377"><ele>67.5</ele><time>2026-04-19T16:47:21Z</time></trkpt><trkpt lat="45.72988813749977" lon="-0.1584800550544325"><ele>67.66666666666667</ele><time>2026-04-19T16:47:22Z</time></trkpt><trkpt lat="45.729879504219994" lon="-0.1583449398279828"><ele>67.83333333333334</ele><time>2026-04-19T16:47:24Z</time></trkpt><trkpt lat="45.7298838332444" lon="-0.15824047396491533"><ele>68.0</ele><time>2026-04-19T16:47:31.001Z</time></trkpt><trkpt lat="45.73000895665072" lon="-0.15821295540896152"><ele>68.0</ele><time>2026-04-19T16:47:32.001Z</time></trkpt><trkpt lat="45.7301127755151" lon="-0.1582272035292289"><ele>68.0</ele><time>2026-04-19T16:47:33.001Z</time></trkpt><trkpt lat="45.73022980842119" lon="-0.1582232168625523"><ele>68.0</ele><time>2026-04-19T16:47:34.001Z</time></trkpt><trkpt lat="45.73037532732628" lon="-0.15821862591818334"><ele>68.0</ele><time>2026-04-19T16:47:35.001Z</time></trkpt><trkpt lat="45.7305396084061" lon="-0.15820612887527008"><ele>68.33333333333334</ele><time>2026-04-19T16:47:36.001Z</time></trkpt><trkpt lat="45.73071817154493" lon="-0.15819182202189677"><ele>68.66666666666667</ele><time>2026-04-19T16:47:37.001Z</time></trkpt><trkpt lat="45.7309064564136" lon="-0.15817609965115714"><ele>69.0</ele><time>2026-04-19T16:47:38.001Z</time></trkpt><trkpt lat="45.73111666068817" lon="-0.15816183900174344"><ele>70.0</ele><time>2026-04-19T16:47:39.001Z</time></trkpt><trkpt lat="45.73133691465057" lon="-0.1581498286517434"><ele>71.0</ele><time>2026-04-19T16:47:40.001Z</time></trkpt><trkpt lat="45.731571702377245" lon="-0.1581329452051132"><ele>71.0</ele><time>2026-04-19T16:47:41.001Z</time></trkpt><trkpt lat="45.731807456479494" lon="-0.15812083365245955"><ele>71.0</ele><time>2026-04-19T16:47:42.001Z</time></trkpt><trkpt lat="45.7320272416881" lon="-0.15811165471533528"><ele>71.0</ele><time>2026-04-19T16:47:43.001Z</time></trkpt><trkpt lat="45.732233967006586" lon="-0.15809970362150494"><ele>71.0</ele><time>2026-04-19T16:47:44.001Z</time></trkpt><trkpt lat="45.73241680537875" lon="-0.1580832317512293"><ele>71.0</ele><time>2026-04-19T16:47:45.001Z</time></trkpt><trkpt lat="45.73259219311919" lon="-0.15807071530539935"><ele>71.66666666666667</ele><time>2026-04-19T16:47:46.001Z</time></trkpt><trkpt lat="45.732759726360456" lon="-0.1580535008745217"><ele>72.33333333333333</ele><time>2026-04-19T16:47:47.001Z</time></trkpt><trkpt lat="45.73291341238864" lon="-0.15803294932049655"><ele>73.0</ele><time>2026-04-19T16:47:48.001Z</time></trkpt><trkpt lat="45.73306772300381" lon="-0.15800968244349656"><ele>73.0</ele><time>2026-04-19T16:47:49.001Z</time></trkpt><trkpt lat="45.73322065175646" lon="-0.15798340140431952"><ele>73.0</ele><time>2026-04-19T16:47:50.001Z</time></trkpt><trkpt lat="45.73336597593783" lon="-0.15795918511812362"><ele>73.0</ele><time>2026-04-19T16:47:51.001Z</time></trkpt><trkpt lat="45.73349981712403" lon="-0.15793623828067654"><ele>73.0</ele><time>2026-04-19T16:47:52.001Z</time></trkpt><trkpt lat="45.73361503469213" lon="-0.1579140167363762"><ele>73.2</ele><time>2026-04-19T16:47:53.001Z</time></trkpt><trkpt lat="45.733707627557436" lon="-0.15789377796176823"><ele>73.4</ele><time>2026-04-19T16:47:54.001Z</time></trkpt><trkpt lat="45.73377098411398" lon="-0.15786990360882963"><ele>73.60000000000001</ele><time>2026-04-19T16:47:55.001Z</time></trkpt><trkpt lat="45.73383884133782" lon="-0.1577723923634007"><ele>73.8</ele><time>2026-04-19T16:47:57.001Z</time></trkpt><trkpt lat="45.73382595461908" lon="-0.15760774958005452"><ele>74.0</ele><time>2026-04-19T16:47:59.001Z</time></trkpt><trkpt lat="45.733804457116165" lon="-0.15747485593910296"><ele>73.75</ele><time>2026-04-19T16:48:00.001Z</time></trkpt><trkpt lat="45.73378666244342" lon="-0.15729732832612808"><ele>73.5</ele><time>2026-04-19T16:48:01.001Z</time></trkpt><trkpt lat="45.73374483678451" lon="-0.15711257414532603"><ele>73.25</ele><time>2026-04-19T16:48:02.001Z</time></trkpt><trkpt lat="45.7337052768868" lon="-0.1569030345943149"><ele>73.0</ele><time>2026-04-19T16:48:03.001Z</time></trkpt><trkpt lat="45.73366483306723" lon="-0.15667814443619352"><ele>73.0</ele><time>2026-04-19T16:48:04.001Z</time></trkpt><trkpt lat="45.733619427079795" lon="-0.15642960471923584"><ele>73.0</ele><time>2026-04-19T16:48:05.001Z</time></trkpt><trkpt lat="45.73358183363797" lon="-0.15618417732616902"><ele>73.0</ele><time>2026-04-19T16:48:06.001Z</time></trkpt><trkpt lat="45.73354167719396" lon="-0.1559390382536087"><ele>73.0</ele><time>2026-04-19T16:48:07.001Z</time></trkpt><trkpt lat="45.73349962208466" lon="-0.1557319594623815"><ele>73.0</ele><time>2026-04-19T16:48:08.001Z</time></trkpt><trkpt lat="45.73347184445334" lon="-0.15553351018129274"><ele>73.0</ele><time>2026-04-19T16:48:09.001Z</time></trkpt><trkpt lat="45.73339399494265" lon="-0.15512211595953268"><ele>73.0</ele><time>2026-04-19T16:48:11.001Z</time></trkpt><trkpt lat="45.73335608767868" lon="-0.1549334780117519"><ele>73.0</ele><time>2026-04-19T16:48:12.001Z</time></trkpt><trkpt lat="45.73332076441967" lon="-0.15474581698434559"><ele>73.0</ele><time>2026-04-19T16:48:13.001Z</time></trkpt><trkpt lat="45.73328369601869" lon="-0.15457063638886917"><ele>73.0</ele><time>2026-04-19T16:48:14.001Z</time></trkpt><trkpt lat="45.733235382968836" lon="-0.15441343822939885"><ele>73.0</ele><time>2026-04-19T16:48:15.001Z</time></trkpt><trkpt lat="45.73318437759586" lon="-0.15427381618112576"><ele>73.0</ele><time>2026-04-19T16:48:16.001Z</time></trkpt><trkpt lat="45.73314292525015" lon="-0.15416976222767476"><ele>73.0</ele><time>2026-04-19T16:48:17.001Z</time></trkpt><trkpt lat="45.73310089745964" lon="-0.15408821391685026"><ele>73.0</ele><time>2026-04-19T16:48:18.001Z</time></trkpt><trkpt lat="45.73305126860215" lon="-0.15401913566703793"><ele>73.0</ele><time>2026-04-19T16:48:20.001Z</time></trkpt><trkpt lat="45.7331738803107" lon="-0.1538807244686813"><ele>73.0</ele><time>2026-04-19T16:48:22.001Z</time></trkpt><trkpt lat="45.733295592645526" lon="-0.15392311317745"><ele>73.0</ele><time>2026-04-19T16:48:24.001Z</time></trkpt><trkpt lat="45.73336093221466" lon="-0.15395726156464642"><ele>73.0</ele><time>2026-04-19T16:48:25.001Z</time></trkpt><trkpt lat="45.73342554616311" lon="-0.15396389465898586"><ele>73.0</ele><time>2026-04-19T16:48:26.001Z</time></trkpt><trkpt lat="45.73349594988575" lon="-0.15394063399706628"><ele>73.0</ele><time>2026-04-19T16:48:27.001Z</time></trkpt><trkpt lat="45.73355325299613" lon="-0.1538947810908594"><ele>73.0</ele><time>2026-04-19T16:48:28.001Z</time></trkpt><trkpt lat="45.73361368241783" lon="-0.1538491088530831"><ele>72.8</ele><time>2026-04-19T16:48:29.001Z</time></trkpt><trkpt lat="45.733670834119984" lon="-0.15380638029822763"><ele>72.6</ele><time>2026-04-19T16:48:30.001Z</time></trkpt><trkpt lat="45.73378326712273" lon="-0.15372917264639574"><ele>72.4</ele><time>2026-04-19T16:48:32.001Z</time></trkpt><trkpt lat="45.7338945799279" lon="-0.15367249228821245"><ele>72.2</ele><time>2026-04-19T16:48:34Z</time></trkpt><trkpt lat="45.73399624676358" lon="-0.15362662751483336"><ele>72.0</ele><time>2026-04-19T16:48:36Z</time></trkpt><trkpt lat="45.734073809189645" lon="-0.1536238309919593"><ele>72.0</ele><time>2026-04-19T16:48:38Z</time></trkpt></trkseg></trk></gpx>